<?xml version="1.0" encoding="UTF-8" standalone="no" ?>
<gpx xmlns="http://www.topografix.com/GPX/1/1" xmlns:xsi="http://www.w3.org/2001/XMLSchema-instance" xsi:schemaLocation="http://www.topografix.com/GPX/1/1 http://www.topografix.com/GPX/1/1/gpx.xsd" version="1.1" creator="VisuGPX - https://www.visugpx.com">
  <metadata>
    <name>Tour du Lac de Guerledan</name>
    <desc><![CDATA[Le tour du Lac de Guerledan]]></desc>
  </metadata>
  <trk>
    <name><![CDATA[Tour du Lac de Guerledan]]></name>
    <extensions>
      <line xmlns="http://www.topografix.com/GPX/gpx_style/0/2">
        <color>0000FF</color>
        <width>4</width>
      </line>
    </extensions>
    <trkseg>
      <trkpt lat="48.20637" lon="-3.04624">
        <ele>126.8</ele>
        <time>2022-02-28T20:11:41.000Z</time>
        <extensions>
          <visugpx:TrkExtension xmlns:visugpx="https://www.visugpx.com/editgpx/">
            <visugpx:node>5</visugpx:node>
            </visugpx:TrkExtension>
        </extensions>
      </trkpt>
      <trkpt lat="48.20634" lon="-3.04618">
        <ele>126.3</ele>
        <time>2022-02-28T20:11:41.994Z</time>
      </trkpt>
      <trkpt lat="48.20628" lon="-3.04617">
        <ele>125.9</ele>
        <time>2022-02-28T20:11:43.096Z</time>
      </trkpt>
      <trkpt lat="48.2059" lon="-3.04637">
        <ele>125.2</ele>
        <time>2022-02-28T20:11:54.803Z</time>
      </trkpt>
      <trkpt lat="48.20566" lon="-3.0466">
        <ele>125.1</ele>
        <time>2022-02-28T20:12:16.830Z</time>
      </trkpt>
      <trkpt lat="48.20555" lon="-3.04679">
        <ele>125.4</ele>
        <time>2022-02-28T20:12:33.181Z</time>
      </trkpt>
      <trkpt lat="48.2055" lon="-3.04707">
        <ele>125.5</ele>
        <time>2022-02-28T20:12:49.712Z</time>
      </trkpt>
      <trkpt lat="48.2055" lon="-3.04727">
        <ele>125.6</ele>
        <time>2022-02-28T20:13:01.379Z</time>
      </trkpt>
      <trkpt lat="48.20551" lon="-3.0473">
        <ele>125.7</ele>
        <time>2022-02-28T20:13:04.459Z</time>
        <extensions>
          <visugpx:TrkExtension xmlns:visugpx="https://www.visugpx.com/editgpx/">
            <visugpx:node>1</visugpx:node>
            </visugpx:TrkExtension>
        </extensions>
      </trkpt>
      <trkpt lat="48.20554" lon="-3.04747">
        <ele>125.9</ele>
        <time>2022-02-28T20:13:15.782Z</time>
      </trkpt>
      <trkpt lat="48.20562" lon="-3.04764">
        <ele>126.9</ele>
        <time>2022-02-28T20:13:38.898Z</time>
      </trkpt>
      <trkpt lat="48.20603" lon="-3.04844">
        <ele>128</ele>
        <time>2022-02-28T20:14:43.381Z</time>
      </trkpt>
      <trkpt lat="48.20609" lon="-3.0487">
        <ele>128.9</ele>
        <time>2022-02-28T20:15:09.361Z</time>
      </trkpt>
      <trkpt lat="48.20612" lon="-3.04881">
        <ele>129.8</ele>
        <time>2022-02-28T20:15:28.721Z</time>
      </trkpt>
      <trkpt lat="48.20619" lon="-3.04913">
        <ele>132.3</ele>
        <time>2022-02-28T20:16:22.233Z</time>
      </trkpt>
      <trkpt lat="48.20623" lon="-3.04918">
        <ele>133</ele>
        <time>2022-02-28T20:16:38.602Z</time>
      </trkpt>
      <trkpt lat="48.20638" lon="-3.04931">
        <ele>135</ele>
        <time>2022-02-28T20:17:21.832Z</time>
        <extensions>
          <visugpx:TrkExtension xmlns:visugpx="https://www.visugpx.com/editgpx/">
            <visugpx:node>2</visugpx:node>
            </visugpx:TrkExtension>
        </extensions>
      </trkpt>
      <trkpt lat="48.20642" lon="-3.04935">
        <ele>135.6</ele>
        <time>2022-02-28T20:17:35.272Z</time>
      </trkpt>
      <trkpt lat="48.20636" lon="-3.0495">
        <ele>136.3</ele>
        <time>2022-02-28T20:17:53.059Z</time>
      </trkpt>
      <trkpt lat="48.20633" lon="-3.04968">
        <ele>137.5</ele>
        <time>2022-02-28T20:18:18.537Z</time>
      </trkpt>
      <trkpt lat="48.20632" lon="-3.04987">
        <ele>138.4</ele>
        <time>2022-02-28T20:18:39.506Z</time>
      </trkpt>
      <trkpt lat="48.20639" lon="-3.05004">
        <ele>139.3</ele>
        <time>2022-02-28T20:19:00.959Z</time>
      </trkpt>
      <trkpt lat="48.20667" lon="-3.05066">
        <ele>143</ele>
        <time>2022-02-28T20:20:25.458Z</time>
      </trkpt>
      <trkpt lat="48.20691" lon="-3.05121">
        <ele>145.2</ele>
        <time>2022-02-28T20:21:27.991Z</time>
      </trkpt>
      <trkpt lat="48.20704" lon="-3.05149">
        <ele>147</ele>
        <time>2022-02-28T20:22:08.057Z</time>
      </trkpt>
      <trkpt lat="48.20737" lon="-3.05215">
        <ele>150.4</ele>
        <time>2022-02-28T20:23:33.017Z</time>
      </trkpt>
      <trkpt lat="48.20744" lon="-3.05228">
        <ele>151</ele>
        <time>2022-02-28T20:23:49.305Z</time>
      </trkpt>
      <trkpt lat="48.20773" lon="-3.05278">
        <ele>153.7</ele>
        <time>2022-02-28T20:24:57.214Z</time>
      </trkpt>
      <trkpt lat="48.20815" lon="-3.05325">
        <ele>156.7</ele>
        <time>2022-02-28T20:26:15.619Z</time>
      </trkpt>
      <trkpt lat="48.20841" lon="-3.05357">
        <ele>159.5</ele>
        <time>2022-02-28T20:27:16.906Z</time>
      </trkpt>
      <trkpt lat="48.20862" lon="-3.0538">
        <ele>160.9</ele>
        <time>2022-02-28T20:27:54.920Z</time>
      </trkpt>
      <trkpt lat="48.20879" lon="-3.05385">
        <ele>160.3</ele>
        <time>2022-02-28T20:27:59.086Z</time>
      </trkpt>
      <trkpt lat="48.20903" lon="-3.05387">
        <ele>159.1</ele>
        <time>2022-02-28T20:28:04.100Z</time>
      </trkpt>
      <trkpt lat="48.20972" lon="-3.05385">
        <ele>160.1</ele>
        <time>2022-02-28T20:29:08.962Z</time>
      </trkpt>
      <trkpt lat="48.20973" lon="-3.05385">
        <ele>160.2</ele>
        <time>2022-02-28T20:29:11.082Z</time>
        <extensions>
          <visugpx:TrkExtension xmlns:visugpx="https://www.visugpx.com/editgpx/">
            <visugpx:node>3</visugpx:node>
            </visugpx:TrkExtension>
        </extensions>
      </trkpt>
      <trkpt lat="48.20972" lon="-3.05385">
        <ele>160.1</ele>
        <time>2022-02-28T20:29:11.281Z</time>
      </trkpt>
      <trkpt lat="48.20973" lon="-3.0541">
        <ele>159.4</ele>
        <time>2022-02-28T20:29:15.021Z</time>
      </trkpt>
      <trkpt lat="48.20977" lon="-3.05462">
        <ele>160.5</ele>
        <time>2022-02-28T20:29:55.004Z</time>
      </trkpt>
      <trkpt lat="48.2098" lon="-3.05539">
        <ele>163.5</ele>
        <time>2022-02-28T20:31:12.513Z</time>
      </trkpt>
      <trkpt lat="48.20981" lon="-3.05576">
        <ele>163.1</ele>
        <time>2022-02-28T20:31:19.790Z</time>
      </trkpt>
      <trkpt lat="48.20983" lon="-3.05594">
        <ele>162.7</ele>
        <time>2022-02-28T20:31:22.766Z</time>
      </trkpt>
      <trkpt lat="48.2099" lon="-3.05627">
        <ele>162.9</ele>
        <time>2022-02-28T20:31:43.200Z</time>
      </trkpt>
      <trkpt lat="48.21001" lon="-3.05675">
        <ele>165.6</ele>
        <time>2022-02-28T20:32:43.119Z</time>
        <extensions>
          <visugpx:TrkExtension xmlns:visugpx="https://www.visugpx.com/editgpx/">
            <visugpx:node>4</visugpx:node>
            </visugpx:TrkExtension>
        </extensions>
      </trkpt>
      <trkpt lat="48.21003" lon="-3.0568">
        <ele>166.5</ele>
        <time>2022-02-28T20:32:55.337Z</time>
      </trkpt>
      <trkpt lat="48.20983" lon="-3.05681">
        <ele>163.4</ele>
        <time>2022-02-28T20:32:59.315Z</time>
      </trkpt>
      <trkpt lat="48.20949" lon="-3.05679">
        <ele>161</ele>
        <time>2022-02-28T20:33:06.079Z</time>
      </trkpt>
      <trkpt lat="48.20939" lon="-3.05676">
        <ele>160.6</ele>
        <time>2022-02-28T20:33:08.424Z</time>
      </trkpt>
      <trkpt lat="48.20924" lon="-3.05661">
        <ele>159.7</ele>
        <time>2022-02-28T20:33:12.184Z</time>
      </trkpt>
      <trkpt lat="48.20905" lon="-3.05638">
        <ele>158.6</ele>
        <time>2022-02-28T20:33:17.500Z</time>
      </trkpt>
      <trkpt lat="48.20888" lon="-3.05614">
        <ele>159.1</ele>
        <time>2022-02-28T20:33:41.170Z</time>
      </trkpt>
      <trkpt lat="48.20883" lon="-3.05615">
        <ele>158.6</ele>
        <time>2022-02-28T20:33:42.173Z</time>
      </trkpt>
      <trkpt lat="48.20878" lon="-3.05618">
        <ele>158.2</ele>
        <time>2022-02-28T20:33:43.243Z</time>
      </trkpt>
      <trkpt lat="48.20873" lon="-3.05626">
        <ele>158</ele>
        <time>2022-02-28T20:33:45.139Z</time>
      </trkpt>
      <trkpt lat="48.2087" lon="-3.0563">
        <ele>157.9</ele>
        <time>2022-02-28T20:33:46.208Z</time>
      </trkpt>
      <trkpt lat="48.20866" lon="-3.05637">
        <ele>157.6</ele>
        <time>2022-02-28T20:33:47.502Z</time>
      </trkpt>
      <trkpt lat="48.20864" lon="-3.05643">
        <ele>157.6</ele>
        <time>2022-02-28T20:33:51.147Z</time>
      </trkpt>
      <trkpt lat="48.20861" lon="-3.0565">
        <ele>157.4</ele>
        <time>2022-02-28T20:33:52.462Z</time>
      </trkpt>
      <trkpt lat="48.20858" lon="-3.05654">
        <ele>157.1</ele>
        <time>2022-02-28T20:33:53.259Z</time>
      </trkpt>
      <trkpt lat="48.20853" lon="-3.05662">
        <ele>156.7</ele>
        <time>2022-02-28T20:33:54.723Z</time>
      </trkpt>
      <trkpt lat="48.20851" lon="-3.05668">
        <ele>156.7</ele>
        <time>2022-02-28T20:33:58.367Z</time>
      </trkpt>
      <trkpt lat="48.20847" lon="-3.05675">
        <ele>156.7</ele>
        <time>2022-02-28T20:34:03.376Z</time>
      </trkpt>
      <trkpt lat="48.20843" lon="-3.0568">
        <ele>156.4</ele>
        <time>2022-02-28T20:34:04.394Z</time>
      </trkpt>
      <trkpt lat="48.20839" lon="-3.05686">
        <ele>155.9</ele>
        <time>2022-02-28T20:34:05.518Z</time>
      </trkpt>
      <trkpt lat="48.20836" lon="-3.05692">
        <ele>155.6</ele>
        <time>2022-02-28T20:34:06.477Z</time>
      </trkpt>
      <trkpt lat="48.2083" lon="-3.05703">
        <ele>155.1</ele>
        <time>2022-02-28T20:34:08.405Z</time>
      </trkpt>
      <trkpt lat="48.20824" lon="-3.05709">
        <ele>154.7</ele>
        <time>2022-02-28T20:34:09.840Z</time>
      </trkpt>
      <trkpt lat="48.20821" lon="-3.05714">
        <ele>154.6</ele>
        <time>2022-02-28T20:34:11.070Z</time>
      </trkpt>
      <trkpt lat="48.20817" lon="-3.05721">
        <ele>154.6</ele>
        <time>2022-02-28T20:34:16.079Z</time>
      </trkpt>
      <trkpt lat="48.20815" lon="-3.05728">
        <ele>154.6</ele>
        <time>2022-02-28T20:34:20.216Z</time>
      </trkpt>
      <trkpt lat="48.20809" lon="-3.05739">
        <ele>154.2</ele>
        <time>2022-02-28T20:34:22.333Z</time>
      </trkpt>
      <trkpt lat="48.20804" lon="-3.05746">
        <ele>153.4</ele>
        <time>2022-02-28T20:34:23.693Z</time>
      </trkpt>
      <trkpt lat="48.20802" lon="-3.05752">
        <ele>153.1</ele>
        <time>2022-02-28T20:34:24.581Z</time>
      </trkpt>
      <trkpt lat="48.20799" lon="-3.05758">
        <ele>152.8</ele>
        <time>2022-02-28T20:34:25.540Z</time>
      </trkpt>
      <trkpt lat="48.20796" lon="-3.05763">
        <ele>152.5</ele>
        <time>2022-02-28T20:34:26.431Z</time>
      </trkpt>
      <trkpt lat="48.20794" lon="-3.05768">
        <ele>152.5</ele>
        <time>2022-02-28T20:34:29.599Z</time>
      </trkpt>
      <trkpt lat="48.20791" lon="-3.05775">
        <ele>152.6</ele>
        <time>2022-02-28T20:34:35.014Z</time>
      </trkpt>
      <trkpt lat="48.2079" lon="-3.05784">
        <ele>152.9</ele>
        <time>2022-02-28T20:34:43.644Z</time>
      </trkpt>
      <trkpt lat="48.20788" lon="-3.05789">
        <ele>152.6</ele>
        <time>2022-02-28T20:34:44.416Z</time>
      </trkpt>
      <trkpt lat="48.20787" lon="-3.05796">
        <ele>152.6</ele>
        <time>2022-02-28T20:34:48.305Z</time>
      </trkpt>
      <trkpt lat="48.20785" lon="-3.05805">
        <ele>152.5</ele>
        <time>2022-02-28T20:34:50.179Z</time>
      </trkpt>
      <trkpt lat="48.20783" lon="-3.05813">
        <ele>152.7</ele>
        <time>2022-02-28T20:34:57.022Z</time>
      </trkpt>
      <trkpt lat="48.20781" lon="-3.05823">
        <ele>153</ele>
        <time>2022-02-28T20:35:06.395Z</time>
      </trkpt>
      <trkpt lat="48.2078" lon="-3.05829">
        <ele>153.2</ele>
        <time>2022-02-28T20:35:12.213Z</time>
      </trkpt>
      <trkpt lat="48.20779" lon="-3.05836">
        <ele>153.4</ele>
        <time>2022-02-28T20:35:18.526Z</time>
      </trkpt>
      <trkpt lat="48.20777" lon="-3.05845">
        <ele>153.2</ele>
        <time>2022-02-28T20:35:20.094Z</time>
      </trkpt>
      <trkpt lat="48.20774" lon="-3.05853">
        <ele>152.8</ele>
        <time>2022-02-28T20:35:21.219Z</time>
      </trkpt>
      <trkpt lat="48.20772" lon="-3.05859">
        <ele>152.5</ele>
        <time>2022-02-28T20:35:22.108Z</time>
      </trkpt>
      <trkpt lat="48.20769" lon="-3.05866">
        <ele>151.7</ele>
        <time>2022-02-28T20:35:23.210Z</time>
      </trkpt>
      <trkpt lat="48.20766" lon="-3.05875">
        <ele>150.3</ele>
        <time>2022-02-28T20:35:24.543Z</time>
      </trkpt>
      <trkpt lat="48.20764" lon="-3.05882">
        <ele>149</ele>
        <time>2022-02-28T20:35:25.552Z</time>
      </trkpt>
      <trkpt lat="48.20765" lon="-3.05888">
        <ele>149.2</ele>
        <time>2022-02-28T20:35:31.371Z</time>
      </trkpt>
      <trkpt lat="48.20767" lon="-3.05895">
        <ele>150.7</ele>
        <time>2022-02-28T20:35:47.329Z</time>
      </trkpt>
      <trkpt lat="48.20768" lon="-3.05902">
        <ele>151.8</ele>
        <time>2022-02-28T20:36:02.329Z</time>
      </trkpt>
      <trkpt lat="48.2077" lon="-3.05908">
        <ele>153.5</ele>
        <time>2022-02-28T20:36:16.386Z</time>
      </trkpt>
      <trkpt lat="48.20771" lon="-3.05917">
        <ele>154.9</ele>
        <time>2022-02-28T20:36:35.504Z</time>
      </trkpt>
      <trkpt lat="48.20769" lon="-3.05926">
        <ele>154.5</ele>
        <time>2022-02-28T20:36:36.685Z</time>
      </trkpt>
      <trkpt lat="48.20767" lon="-3.05934">
        <ele>154.1</ele>
        <time>2022-02-28T20:36:37.817Z</time>
      </trkpt>
      <trkpt lat="48.20766" lon="-3.05942">
        <ele>154.4</ele>
        <time>2022-02-28T20:36:45.827Z</time>
      </trkpt>
      <trkpt lat="48.20765" lon="-3.0595">
        <ele>155.7</ele>
        <time>2022-02-28T20:37:02.882Z</time>
      </trkpt>
      <trkpt lat="48.20767" lon="-3.05958">
        <ele>158.7</ele>
        <time>2022-02-28T20:37:20.785Z</time>
      </trkpt>
      <trkpt lat="48.20767" lon="-3.05966">
        <ele>160.8</ele>
        <time>2022-02-28T20:37:37.547Z</time>
      </trkpt>
      <trkpt lat="48.20764" lon="-3.05971">
        <ele>161.6</ele>
        <time>2022-02-28T20:37:51.644Z</time>
      </trkpt>
      <trkpt lat="48.20759" lon="-3.05975">
        <ele>161.4</ele>
        <time>2022-02-28T20:37:52.998Z</time>
      </trkpt>
      <trkpt lat="48.20753" lon="-3.05973">
        <ele>160.5</ele>
        <time>2022-02-28T20:37:54.219Z</time>
      </trkpt>
      <trkpt lat="48.20748" lon="-3.05976">
        <ele>158.9</ele>
        <time>2022-02-28T20:37:55.290Z</time>
        <extensions>
          <visugpx:TrkExtension xmlns:visugpx="https://www.visugpx.com/editgpx/">
            <visugpx:node>6</visugpx:node>
            </visugpx:TrkExtension>
        </extensions>
      </trkpt>
      <trkpt lat="48.20749" lon="-3.05983">
        <ele>159.7</ele>
        <time>2022-02-28T20:38:10.290Z</time>
      </trkpt>
      <trkpt lat="48.20752" lon="-3.05989">
        <ele>160.9</ele>
        <time>2022-02-28T20:38:26.007Z</time>
      </trkpt>
      <trkpt lat="48.20757" lon="-3.05993">
        <ele>161.9</ele>
        <time>2022-02-28T20:38:43.822Z</time>
      </trkpt>
      <trkpt lat="48.20759" lon="-3.05999">
        <ele>162.6</ele>
        <time>2022-02-28T20:38:57.878Z</time>
      </trkpt>
      <trkpt lat="48.2076" lon="-3.06007">
        <ele>162.6</ele>
        <time>2022-02-28T20:39:02.300Z</time>
      </trkpt>
      <trkpt lat="48.20759" lon="-3.06014">
        <ele>162.1</ele>
        <time>2022-02-28T20:39:03.248Z</time>
      </trkpt>
      <trkpt lat="48.2076" lon="-3.06022">
        <ele>162.1</ele>
        <time>2022-02-28T20:39:07.670Z</time>
      </trkpt>
      <trkpt lat="48.20761" lon="-3.06031">
        <ele>162.1</ele>
        <time>2022-02-28T20:39:12.626Z</time>
      </trkpt>
      <trkpt lat="48.20762" lon="-3.0604">
        <ele>162.3</ele>
        <time>2022-02-28T20:39:19.720Z</time>
      </trkpt>
      <trkpt lat="48.20764" lon="-3.06046">
        <ele>163</ele>
        <time>2022-02-28T20:39:33.777Z</time>
      </trkpt>
      <trkpt lat="48.20765" lon="-3.06054">
        <ele>163.5</ele>
        <time>2022-02-28T20:39:44.460Z</time>
      </trkpt>
      <trkpt lat="48.20768" lon="-3.0606">
        <ele>165</ele>
        <time>2022-02-28T20:40:00.177Z</time>
      </trkpt>
      <trkpt lat="48.20772" lon="-3.06064">
        <ele>166.9</ele>
        <time>2022-02-28T20:40:15.290Z</time>
      </trkpt>
      <trkpt lat="48.20776" lon="-3.06068">
        <ele>168.7</ele>
        <time>2022-02-28T20:40:30.403Z</time>
      </trkpt>
      <trkpt lat="48.2078" lon="-3.06076">
        <ele>169.9</ele>
        <time>2022-02-28T20:40:51.359Z</time>
      </trkpt>
      <trkpt lat="48.20783" lon="-3.06081">
        <ele>170.3</ele>
        <time>2022-02-28T20:40:59.959Z</time>
      </trkpt>
      <trkpt lat="48.20786" lon="-3.06087">
        <ele>170.4</ele>
        <time>2022-02-28T20:41:04.948Z</time>
      </trkpt>
      <trkpt lat="48.20786" lon="-3.06096">
        <ele>169.9</ele>
        <time>2022-02-28T20:41:06.140Z</time>
      </trkpt>
      <trkpt lat="48.20786" lon="-3.06103">
        <ele>169.6</ele>
        <time>2022-02-28T20:41:07.005Z</time>
      </trkpt>
      <trkpt lat="48.20788" lon="-3.06112">
        <ele>169.5</ele>
        <time>2022-02-28T20:41:08.878Z</time>
      </trkpt>
      <trkpt lat="48.20788" lon="-3.0612">
        <ele>169.6</ele>
        <time>2022-02-28T20:41:14.126Z</time>
      </trkpt>
      <trkpt lat="48.20788" lon="-3.06127">
        <ele>169.7</ele>
        <time>2022-02-28T20:41:18.857Z</time>
      </trkpt>
      <trkpt lat="48.2079" lon="-3.06135">
        <ele>170.1</ele>
        <time>2022-02-28T20:41:28.214Z</time>
      </trkpt>
      <trkpt lat="48.20792" lon="-3.0614">
        <ele>170.5</ele>
        <time>2022-02-28T20:41:36.694Z</time>
      </trkpt>
      <trkpt lat="48.20796" lon="-3.06148">
        <ele>170.7</ele>
        <time>2022-02-28T20:41:44.186Z</time>
      </trkpt>
      <trkpt lat="48.20798" lon="-3.06154">
        <ele>170.9</ele>
        <time>2022-02-28T20:41:50.346Z</time>
      </trkpt>
      <trkpt lat="48.20798" lon="-3.0616">
        <ele>170.6</ele>
        <time>2022-02-28T20:41:51.141Z</time>
      </trkpt>
      <trkpt lat="48.20799" lon="-3.06169">
        <ele>170.6</ele>
        <time>2022-02-28T20:41:56.097Z</time>
      </trkpt>
      <trkpt lat="48.20796" lon="-3.06175">
        <ele>169.4</ele>
        <time>2022-02-28T20:41:57.091Z</time>
      </trkpt>
      <trkpt lat="48.20792" lon="-3.06182">
        <ele>167.6</ele>
        <time>2022-02-28T20:41:58.312Z</time>
      </trkpt>
      <trkpt lat="48.20794" lon="-3.06189">
        <ele>168.2</ele>
        <time>2022-02-28T20:42:11.393Z</time>
      </trkpt>
      <trkpt lat="48.20794" lon="-3.06196">
        <ele>168</ele>
        <time>2022-02-28T20:42:12.429Z</time>
      </trkpt>
      <trkpt lat="48.20795" lon="-3.06204">
        <ele>168.1</ele>
        <time>2022-02-28T20:42:17.749Z</time>
      </trkpt>
      <trkpt lat="48.20796" lon="-3.06212">
        <ele>168.2</ele>
        <time>2022-02-28T20:42:23.069Z</time>
      </trkpt>
      <trkpt lat="48.20796" lon="-3.06219">
        <ele>168</ele>
        <time>2022-02-28T20:42:24.105Z</time>
      </trkpt>
      <trkpt lat="48.20796" lon="-3.06226">
        <ele>167.8</ele>
        <time>2022-02-28T20:42:25.142Z</time>
      </trkpt>
      <trkpt lat="48.20796" lon="-3.06233">
        <ele>167.7</ele>
        <time>2022-02-28T20:42:26.434Z</time>
      </trkpt>
      <trkpt lat="48.20796" lon="-3.0624">
        <ele>167.7</ele>
        <time>2022-02-28T20:42:30.237Z</time>
      </trkpt>
      <trkpt lat="48.20795" lon="-3.06247">
        <ele>167.1</ele>
        <time>2022-02-28T20:42:31.185Z</time>
      </trkpt>
      <trkpt lat="48.20795" lon="-3.06256">
        <ele>167.9</ele>
        <time>2022-02-28T20:42:50.028Z</time>
      </trkpt>
      <trkpt lat="48.20793" lon="-3.06263">
        <ele>168.1</ele>
        <time>2022-02-28T20:42:56.502Z</time>
      </trkpt>
      <trkpt lat="48.20791" lon="-3.0627">
        <ele>168.5</ele>
        <time>2022-02-28T20:43:05.420Z</time>
      </trkpt>
      <trkpt lat="48.20787" lon="-3.06276">
        <ele>168.6</ele>
        <time>2022-02-28T20:43:10.921Z</time>
      </trkpt>
      <trkpt lat="48.20784" lon="-3.0628">
        <ele>168</ele>
        <time>2022-02-28T20:43:11.719Z</time>
      </trkpt>
      <trkpt lat="48.20782" lon="-3.06288">
        <ele>166.4</ele>
        <time>2022-02-28T20:43:12.851Z</time>
      </trkpt>
      <trkpt lat="48.20784" lon="-3.06296">
        <ele>165.8</ele>
        <time>2022-02-28T20:43:13.982Z</time>
      </trkpt>
      <trkpt lat="48.20786" lon="-3.06302">
        <ele>165.7</ele>
        <time>2022-02-28T20:43:15.208Z</time>
      </trkpt>
      <trkpt lat="48.20786" lon="-3.06313">
        <ele>165.7</ele>
        <time>2022-02-28T20:43:21.184Z</time>
      </trkpt>
      <trkpt lat="48.20786" lon="-3.06319">
        <ele>166.1</ele>
        <time>2022-02-28T20:43:29.662Z</time>
      </trkpt>
      <trkpt lat="48.20786" lon="-3.06327">
        <ele>166.6</ele>
        <time>2022-02-28T20:43:40.318Z</time>
      </trkpt>
      <trkpt lat="48.20786" lon="-3.06333">
        <ele>166.9</ele>
        <time>2022-02-28T20:43:47.135Z</time>
      </trkpt>
      <trkpt lat="48.20784" lon="-3.06341">
        <ele>166.9</ele>
        <time>2022-02-28T20:43:51.777Z</time>
      </trkpt>
      <trkpt lat="48.20784" lon="-3.0635">
        <ele>167.8</ele>
        <time>2022-02-28T20:44:10.634Z</time>
      </trkpt>
      <trkpt lat="48.20783" lon="-3.06359">
        <ele>168.3</ele>
        <time>2022-02-28T20:44:21.621Z</time>
      </trkpt>
      <trkpt lat="48.20782" lon="-3.0637">
        <ele>168.8</ele>
        <time>2022-02-28T20:44:33.539Z</time>
      </trkpt>
      <trkpt lat="48.20779" lon="-3.06375">
        <ele>168.3</ele>
        <time>2022-02-28T20:44:34.430Z</time>
      </trkpt>
      <trkpt lat="48.20776" lon="-3.06383">
        <ele>167.9</ele>
        <time>2022-02-28T20:44:35.555Z</time>
      </trkpt>
      <trkpt lat="48.20773" lon="-3.06391">
        <ele>167.5</ele>
        <time>2022-02-28T20:44:36.680Z</time>
      </trkpt>
      <trkpt lat="48.20773" lon="-3.06398">
        <ele>167.5</ele>
        <time>2022-02-28T20:44:40.482Z</time>
      </trkpt>
      <trkpt lat="48.20772" lon="-3.06407">
        <ele>167.3</ele>
        <time>2022-02-28T20:44:41.971Z</time>
      </trkpt>
      <trkpt lat="48.20769" lon="-3.06415">
        <ele>166.5</ele>
        <time>2022-02-28T20:44:43.187Z</time>
      </trkpt>
      <trkpt lat="48.20765" lon="-3.06421">
        <ele>165.2</ele>
        <time>2022-02-28T20:44:44.311Z</time>
      </trkpt>
      <trkpt lat="48.20758" lon="-3.06426">
        <ele>163.3</ele>
        <time>2022-02-28T20:44:45.852Z</time>
      </trkpt>
      <trkpt lat="48.20755" lon="-3.06434">
        <ele>162.7</ele>
        <time>2022-02-28T20:44:47.068Z</time>
      </trkpt>
      <trkpt lat="48.20752" lon="-3.06443">
        <ele>162.3</ele>
        <time>2022-02-28T20:44:48.358Z</time>
      </trkpt>
      <trkpt lat="48.2075" lon="-3.0645">
        <ele>161.6</ele>
        <time>2022-02-28T20:44:49.367Z</time>
      </trkpt>
      <trkpt lat="48.2075" lon="-3.06457">
        <ele>161.1</ele>
        <time>2022-02-28T20:44:50.295Z</time>
      </trkpt>
      <trkpt lat="48.20749" lon="-3.06463">
        <ele>160.1</ele>
        <time>2022-02-28T20:44:51.114Z</time>
      </trkpt>
      <trkpt lat="48.20749" lon="-3.06469">
        <ele>159.6</ele>
        <time>2022-02-28T20:44:51.909Z</time>
      </trkpt>
      <trkpt lat="48.20747" lon="-3.06473">
        <ele>158.1</ele>
        <time>2022-02-28T20:44:52.571Z</time>
      </trkpt>
      <trkpt lat="48.20746" lon="-3.06475">
        <ele>157.4</ele>
        <time>2022-02-28T20:44:52.903Z</time>
      </trkpt>
      <trkpt lat="48.20745" lon="-3.06484">
        <ele>156.2</ele>
        <time>2022-02-28T20:44:54.111Z</time>
      </trkpt>
      <trkpt lat="48.20745" lon="-3.06492">
        <ele>155.6</ele>
        <time>2022-02-28T20:44:55.171Z</time>
      </trkpt>
      <trkpt lat="48.20745" lon="-3.065">
        <ele>155.1</ele>
        <time>2022-02-28T20:44:56.231Z</time>
      </trkpt>
      <trkpt lat="48.20744" lon="-3.06505">
        <ele>154</ele>
        <time>2022-02-28T20:44:56.922Z</time>
      </trkpt>
      <trkpt lat="48.20744" lon="-3.06513">
        <ele>153.2</ele>
        <time>2022-02-28T20:44:57.982Z</time>
      </trkpt>
      <trkpt lat="48.20744" lon="-3.06515">
        <ele>153</ele>
        <time>2022-02-28T20:44:58.247Z</time>
        <extensions>
          <visugpx:TrkExtension xmlns:visugpx="https://www.visugpx.com/editgpx/">
            <visugpx:node>7</visugpx:node>
            </visugpx:TrkExtension>
        </extensions>
      </trkpt>
      <trkpt lat="48.20743" lon="-3.06522">
        <ele>151.8</ele>
        <time>2022-02-28T20:44:59.196Z</time>
      </trkpt>
      <trkpt lat="48.20742" lon="-3.0653">
        <ele>150.6</ele>
        <time>2022-02-28T20:45:00.274Z</time>
      </trkpt>
      <trkpt lat="48.2074" lon="-3.06539">
        <ele>149.1</ele>
        <time>2022-02-28T20:45:01.531Z</time>
      </trkpt>
      <trkpt lat="48.20738" lon="-3.06552">
        <ele>147.1</ele>
        <time>2022-02-28T20:45:03.298Z</time>
      </trkpt>
      <trkpt lat="48.20737" lon="-3.06561">
        <ele>146.2</ele>
        <time>2022-02-28T20:45:04.507Z</time>
      </trkpt>
      <trkpt lat="48.20737" lon="-3.0657">
        <ele>145.9</ele>
        <time>2022-02-28T20:45:05.757Z</time>
      </trkpt>
      <trkpt lat="48.20736" lon="-3.06577">
        <ele>145.2</ele>
        <time>2022-02-28T20:45:06.705Z</time>
      </trkpt>
      <trkpt lat="48.20735" lon="-3.06583">
        <ele>144.4</ele>
        <time>2022-02-28T20:45:07.525Z</time>
      </trkpt>
      <trkpt lat="48.20735" lon="-3.06589">
        <ele>144.2</ele>
        <time>2022-02-28T20:45:08.358Z</time>
      </trkpt>
      <trkpt lat="48.20736" lon="-3.06597">
        <ele>144.4</ele>
        <time>2022-02-28T20:45:15.034Z</time>
      </trkpt>
      <trkpt lat="48.20737" lon="-3.06605">
        <ele>144.7</ele>
        <time>2022-02-28T20:45:23.044Z</time>
      </trkpt>
      <trkpt lat="48.20736" lon="-3.06616">
        <ele>143.5</ele>
        <time>2022-02-28T20:45:24.515Z</time>
      </trkpt>
      <trkpt lat="48.20736" lon="-3.06624">
        <ele>142.8</ele>
        <time>2022-02-28T20:45:25.575Z</time>
      </trkpt>
      <trkpt lat="48.20735" lon="-3.0663">
        <ele>141.7</ele>
        <time>2022-02-28T20:45:26.394Z</time>
      </trkpt>
      <trkpt lat="48.20736" lon="-3.0664">
        <ele>141.4</ele>
        <time>2022-02-28T20:45:27.869Z</time>
      </trkpt>
      <trkpt lat="48.20734" lon="-3.06648">
        <ele>139.9</ele>
        <time>2022-02-28T20:45:29.001Z</time>
      </trkpt>
      <trkpt lat="48.20731" lon="-3.06654">
        <ele>138.2</ele>
        <time>2022-02-28T20:45:29.995Z</time>
      </trkpt>
      <trkpt lat="48.20727" lon="-3.06657">
        <ele>136.2</ele>
        <time>2022-02-28T20:45:30.884Z</time>
      </trkpt>
      <trkpt lat="48.20723" lon="-3.06658">
        <ele>134.4</ele>
        <time>2022-02-28T20:45:31.690Z</time>
      </trkpt>
      <trkpt lat="48.2072" lon="-3.06666">
        <ele>133.3</ele>
        <time>2022-02-28T20:45:32.906Z</time>
      </trkpt>
      <trkpt lat="48.20716" lon="-3.06672">
        <ele>132.1</ele>
        <time>2022-02-28T20:45:34.030Z</time>
      </trkpt>
      <trkpt lat="48.20711" lon="-3.06677">
        <ele>130.7</ele>
        <time>2022-02-28T20:45:35.224Z</time>
      </trkpt>
      <trkpt lat="48.20707" lon="-3.06681">
        <ele>129.6</ele>
        <time>2022-02-28T20:45:36.180Z</time>
      </trkpt>
      <trkpt lat="48.20702" lon="-3.06686">
        <ele>128.5</ele>
        <time>2022-02-28T20:45:37.374Z</time>
      </trkpt>
      <trkpt lat="48.20699" lon="-3.06691">
        <ele>127.9</ele>
        <time>2022-02-28T20:45:38.266Z</time>
      </trkpt>
      <trkpt lat="48.20696" lon="-3.06695">
        <ele>127.4</ele>
        <time>2022-02-28T20:45:39.063Z</time>
      </trkpt>
      <trkpt lat="48.20692" lon="-3.06697">
        <ele>126.7</ele>
        <time>2022-02-28T20:45:39.902Z</time>
      </trkpt>
      <trkpt lat="48.20688" lon="-3.067">
        <ele>126.1</ele>
        <time>2022-02-28T20:45:40.791Z</time>
      </trkpt>
      <trkpt lat="48.20685" lon="-3.06705">
        <ele>125.8</ele>
        <time>2022-02-28T20:45:41.682Z</time>
      </trkpt>
      <trkpt lat="48.20683" lon="-3.06714">
        <ele>125.8</ele>
        <time>2022-02-28T20:45:46.836Z</time>
      </trkpt>
      <trkpt lat="48.20681" lon="-3.06719">
        <ele>125.5</ele>
        <time>2022-02-28T20:45:47.608Z</time>
      </trkpt>
      <trkpt lat="48.20679" lon="-3.06726">
        <ele>125.3</ele>
        <time>2022-02-28T20:45:48.773Z</time>
      </trkpt>
      <trkpt lat="48.20679" lon="-3.06734">
        <ele>125.7</ele>
        <time>2022-02-28T20:45:57.863Z</time>
      </trkpt>
      <trkpt lat="48.20676" lon="-3.06741">
        <ele>125</ele>
        <time>2022-02-28T20:45:58.965Z</time>
      </trkpt>
      <trkpt lat="48.20675" lon="-3.06748">
        <ele>124.9</ele>
        <time>2022-02-28T20:46:00.294Z</time>
      </trkpt>
      <trkpt lat="48.20673" lon="-3.06756">
        <ele>124.8</ele>
        <time>2022-02-28T20:46:01.946Z</time>
      </trkpt>
      <trkpt lat="48.20672" lon="-3.06764">
        <ele>125.2</ele>
        <time>2022-02-28T20:46:11.102Z</time>
      </trkpt>
      <trkpt lat="48.20668" lon="-3.06771">
        <ele>124.7</ele>
        <time>2022-02-28T20:46:12.323Z</time>
      </trkpt>
      <trkpt lat="48.20665" lon="-3.06777">
        <ele>124.7</ele>
        <time>2022-02-28T20:46:16.398Z</time>
      </trkpt>
      <trkpt lat="48.20664" lon="-3.06786">
        <ele>125</ele>
        <time>2022-02-28T20:46:25.027Z</time>
      </trkpt>
      <trkpt lat="48.20663" lon="-3.06791">
        <ele>125</ele>
        <time>2022-02-28T20:46:27.863Z</time>
      </trkpt>
      <trkpt lat="48.20662" lon="-3.068">
        <ele>125.2</ele>
        <time>2022-02-28T20:46:34.957Z</time>
      </trkpt>
      <trkpt lat="48.2066" lon="-3.06806">
        <ele>125.1</ele>
        <time>2022-02-28T20:46:36.183Z</time>
      </trkpt>
      <trkpt lat="48.20659" lon="-3.06813">
        <ele>125.3</ele>
        <time>2022-02-28T20:46:42.496Z</time>
      </trkpt>
      <trkpt lat="48.2066" lon="-3.0682">
        <ele>125.8</ele>
        <time>2022-02-28T20:46:53.105Z</time>
      </trkpt>
      <trkpt lat="48.20657" lon="-3.06827">
        <ele>125.6</ele>
        <time>2022-02-28T20:46:54.420Z</time>
      </trkpt>
      <trkpt lat="48.20656" lon="-3.06835">
        <ele>125.7</ele>
        <time>2022-02-28T20:46:59.740Z</time>
      </trkpt>
      <trkpt lat="48.20655" lon="-3.06844">
        <ele>125.7</ele>
        <time>2022-02-28T20:47:04.697Z</time>
      </trkpt>
      <trkpt lat="48.20654" lon="-3.06854">
        <ele>125.7</ele>
        <time>2022-02-28T20:47:10.190Z</time>
      </trkpt>
      <trkpt lat="48.20653" lon="-3.06863">
        <ele>125.5</ele>
        <time>2022-02-28T20:47:11.679Z</time>
      </trkpt>
      <trkpt lat="48.20653" lon="-3.06869">
        <ele>125.4</ele>
        <time>2022-02-28T20:47:12.743Z</time>
      </trkpt>
      <trkpt lat="48.20653" lon="-3.06876">
        <ele>125.3</ele>
        <time>2022-02-28T20:47:14.035Z</time>
      </trkpt>
      <trkpt lat="48.20654" lon="-3.06883">
        <ele>125.4</ele>
        <time>2022-02-28T20:47:18.849Z</time>
      </trkpt>
      <trkpt lat="48.20655" lon="-3.06892">
        <ele>125.5</ele>
        <time>2022-02-28T20:47:24.684Z</time>
      </trkpt>
      <trkpt lat="48.20654" lon="-3.06899">
        <ele>125.3</ele>
        <time>2022-02-28T20:47:25.754Z</time>
      </trkpt>
      <trkpt lat="48.20653" lon="-3.06906">
        <ele>125</ele>
        <time>2022-02-28T20:47:26.648Z</time>
      </trkpt>
      <trkpt lat="48.20652" lon="-3.06914">
        <ele>124.8</ele>
        <time>2022-02-28T20:47:27.924Z</time>
      </trkpt>
      <trkpt lat="48.20653" lon="-3.06921">
        <ele>125</ele>
        <time>2022-02-28T20:47:34.237Z</time>
      </trkpt>
      <trkpt lat="48.20654" lon="-3.06926">
        <ele>125.3</ele>
        <time>2022-02-28T20:47:40.739Z</time>
      </trkpt>
      <trkpt lat="48.20653" lon="-3.06936">
        <ele>125</ele>
        <time>2022-02-28T20:47:42.214Z</time>
      </trkpt>
      <trkpt lat="48.20653" lon="-3.06942">
        <ele>125</ele>
        <time>2022-02-28T20:47:45.474Z</time>
      </trkpt>
      <trkpt lat="48.20654" lon="-3.06949">
        <ele>125.2</ele>
        <time>2022-02-28T20:47:51.787Z</time>
      </trkpt>
      <trkpt lat="48.20654" lon="-3.06957">
        <ele>125</ele>
        <time>2022-02-28T20:47:53.033Z</time>
      </trkpt>
      <trkpt lat="48.20655" lon="-3.06966">
        <ele>125</ele>
        <time>2022-02-28T20:47:57.990Z</time>
      </trkpt>
      <trkpt lat="48.20655" lon="-3.06974">
        <ele>124.9</ele>
        <time>2022-02-28T20:47:59.514Z</time>
      </trkpt>
      <trkpt lat="48.20656" lon="-3.06979">
        <ele>124.9</ele>
        <time>2022-02-28T20:48:02.350Z</time>
      </trkpt>
      <trkpt lat="48.20657" lon="-3.06986">
        <ele>124.9</ele>
        <time>2022-02-28T20:48:06.239Z</time>
      </trkpt>
      <trkpt lat="48.20657" lon="-3.06994">
        <ele>124.7</ele>
        <time>2022-02-28T20:48:07.485Z</time>
      </trkpt>
      <trkpt lat="48.20658" lon="-3.07">
        <ele>124.8</ele>
        <time>2022-02-28T20:48:11.805Z</time>
      </trkpt>
      <trkpt lat="48.20658" lon="-3.07007">
        <ele>124.8</ele>
        <time>2022-02-28T20:48:15.608Z</time>
      </trkpt>
      <trkpt lat="48.2066" lon="-3.07016">
        <ele>125</ele>
        <time>2022-02-28T20:48:22.864Z</time>
      </trkpt>
      <trkpt lat="48.20661" lon="-3.07022">
        <ele>125.2</ele>
        <time>2022-02-28T20:48:28.682Z</time>
      </trkpt>
      <trkpt lat="48.20663" lon="-3.0703">
        <ele>125.3</ele>
        <time>2022-02-28T20:48:34.214Z</time>
      </trkpt>
      <trkpt lat="48.20664" lon="-3.07037">
        <ele>125</ele>
        <time>2022-02-28T20:48:35.108Z</time>
      </trkpt>
      <trkpt lat="48.20667" lon="-3.07043">
        <ele>125</ele>
        <time>2022-02-28T20:48:39.183Z</time>
      </trkpt>
      <trkpt lat="48.20668" lon="-3.07051">
        <ele>124.5</ele>
        <time>2022-02-28T20:48:40.261Z</time>
      </trkpt>
      <trkpt lat="48.2067" lon="-3.07058">
        <ele>124.4</ele>
        <time>2022-02-28T20:48:41.697Z</time>
      </trkpt>
      <trkpt lat="48.20674" lon="-3.07067">
        <ele>124.6</ele>
        <time>2022-02-28T20:48:49.575Z</time>
      </trkpt>
      <trkpt lat="48.20676" lon="-3.07074">
        <ele>124.7</ele>
        <time>2022-02-28T20:48:54.623Z</time>
      </trkpt>
      <trkpt lat="48.20678" lon="-3.0708">
        <ele>124.8</ele>
        <time>2022-02-28T20:48:59.207Z</time>
      </trkpt>
      <trkpt lat="48.20682" lon="-3.07085">
        <ele>125.1</ele>
        <time>2022-02-28T20:49:07.017Z</time>
      </trkpt>
      <trkpt lat="48.20684" lon="-3.0709">
        <ele>125.2</ele>
        <time>2022-02-28T20:49:11.162Z</time>
      </trkpt>
      <trkpt lat="48.20687" lon="-3.07094">
        <ele>125.4</ele>
        <time>2022-02-28T20:49:16.876Z</time>
      </trkpt>
      <trkpt lat="48.20689" lon="-3.07111">
        <ele>124.6</ele>
        <time>2022-02-28T20:49:19.163Z</time>
      </trkpt>
      <trkpt lat="48.20691" lon="-3.07117">
        <ele>124.4</ele>
        <time>2022-02-28T20:49:20.139Z</time>
      </trkpt>
      <trkpt lat="48.20695" lon="-3.0712">
        <ele>124.4</ele>
        <time>2022-02-28T20:49:23.784Z</time>
      </trkpt>
      <trkpt lat="48.20698" lon="-3.07127">
        <ele>124.4</ele>
        <time>2022-02-28T20:49:28.305Z</time>
      </trkpt>
      <trkpt lat="48.20699" lon="-3.07133">
        <ele>124.1</ele>
        <time>2022-02-28T20:49:29.125Z</time>
      </trkpt>
      <trkpt lat="48.20701" lon="-3.0714">
        <ele>123.9</ele>
        <time>2022-02-28T20:49:30.290Z</time>
      </trkpt>
      <trkpt lat="48.20704" lon="-3.07147">
        <ele>124</ele>
        <time>2022-02-28T20:49:35.705Z</time>
      </trkpt>
      <trkpt lat="48.20711" lon="-3.0715">
        <ele>124.7</ele>
        <time>2022-02-28T20:49:50.579Z</time>
      </trkpt>
      <trkpt lat="48.20714" lon="-3.07155">
        <ele>124.8</ele>
        <time>2022-02-28T20:49:55.172Z</time>
      </trkpt>
      <trkpt lat="48.20717" lon="-3.07161">
        <ele>124.8</ele>
        <time>2022-02-28T20:49:59.247Z</time>
      </trkpt>
      <trkpt lat="48.2072" lon="-3.07169">
        <ele>124.6</ele>
        <time>2022-02-28T20:50:00.748Z</time>
      </trkpt>
      <trkpt lat="48.20723" lon="-3.07173">
        <ele>124.7</ele>
        <time>2022-02-28T20:50:04.986Z</time>
      </trkpt>
      <trkpt lat="48.20727" lon="-3.07179">
        <ele>124.9</ele>
        <time>2022-02-28T20:50:11.805Z</time>
      </trkpt>
      <trkpt lat="48.2073" lon="-3.07186">
        <ele>124.8</ele>
        <time>2022-02-28T20:50:13.405Z</time>
      </trkpt>
      <trkpt lat="48.20732" lon="-3.07192">
        <ele>124.6</ele>
        <time>2022-02-28T20:50:14.381Z</time>
      </trkpt>
      <trkpt lat="48.20735" lon="-3.072">
        <ele>124.5</ele>
        <time>2022-02-28T20:50:16.182Z</time>
      </trkpt>
      <trkpt lat="48.20739" lon="-3.07207">
        <ele>124.7</ele>
        <time>2022-02-28T20:50:23.319Z</time>
      </trkpt>
      <trkpt lat="48.20741" lon="-3.07215">
        <ele>124.5</ele>
        <time>2022-02-28T20:50:24.682Z</time>
      </trkpt>
      <trkpt lat="48.20744" lon="-3.07221">
        <ele>124.4</ele>
        <time>2022-02-28T20:50:26.090Z</time>
      </trkpt>
      <trkpt lat="48.20747" lon="-3.07224">
        <ele>124.6</ele>
        <time>2022-02-28T20:50:31.420Z</time>
      </trkpt>
      <trkpt lat="48.2075" lon="-3.07231">
        <ele>124.4</ele>
        <time>2022-02-28T20:50:32.735Z</time>
      </trkpt>
      <trkpt lat="48.20753" lon="-3.07236">
        <ele>124.6</ele>
        <time>2022-02-28T20:50:38.907Z</time>
      </trkpt>
      <trkpt lat="48.20756" lon="-3.07242">
        <ele>124.7</ele>
        <time>2022-02-28T20:50:43.896Z</time>
      </trkpt>
      <trkpt lat="48.20757" lon="-3.07247">
        <ele>124.5</ele>
        <time>2022-02-28T20:50:44.577Z</time>
      </trkpt>
      <trkpt lat="48.20761" lon="-3.07253">
        <ele>124.8</ele>
        <time>2022-02-28T20:50:52.802Z</time>
      </trkpt>
      <trkpt lat="48.20765" lon="-3.07257">
        <ele>125.3</ele>
        <time>2022-02-28T20:51:03.407Z</time>
      </trkpt>
      <trkpt lat="48.20769" lon="-3.07269">
        <ele>125.3</ele>
        <time>2022-02-28T20:51:10.695Z</time>
      </trkpt>
      <trkpt lat="48.20771" lon="-3.07276">
        <ele>125.1</ele>
        <time>2022-02-28T20:51:11.860Z</time>
      </trkpt>
      <trkpt lat="48.20773" lon="-3.07283">
        <ele>124.8</ele>
        <time>2022-02-28T20:51:12.841Z</time>
      </trkpt>
      <trkpt lat="48.20775" lon="-3.0729">
        <ele>124.4</ele>
        <time>2022-02-28T20:51:13.850Z</time>
      </trkpt>
      <trkpt lat="48.20779" lon="-3.07296">
        <ele>124.3</ele>
        <time>2022-02-28T20:51:15.488Z</time>
      </trkpt>
      <trkpt lat="48.20782" lon="-3.07301">
        <ele>124.4</ele>
        <time>2022-02-28T20:51:20.081Z</time>
      </trkpt>
      <trkpt lat="48.20785" lon="-3.0731">
        <ele>124.3</ele>
        <time>2022-02-28T20:51:22.091Z</time>
      </trkpt>
      <trkpt lat="48.20787" lon="-3.07317">
        <ele>124.3</ele>
        <time>2022-02-28T20:51:26.228Z</time>
      </trkpt>
      <trkpt lat="48.2079" lon="-3.07321">
        <ele>124.6</ele>
        <time>2022-02-28T20:51:33.055Z</time>
      </trkpt>
      <trkpt lat="48.20795" lon="-3.07326">
        <ele>125.1</ele>
        <time>2022-02-28T20:51:44.001Z</time>
      </trkpt>
      <trkpt lat="48.20798" lon="-3.0733">
        <ele>125.2</ele>
        <time>2022-02-28T20:51:48.240Z</time>
      </trkpt>
      <trkpt lat="48.20802" lon="-3.07337">
        <ele>125</ele>
        <time>2022-02-28T20:51:49.749Z</time>
      </trkpt>
      <trkpt lat="48.20804" lon="-3.07343">
        <ele>124.5</ele>
        <time>2022-02-28T20:51:50.638Z</time>
      </trkpt>
      <trkpt lat="48.20808" lon="-3.07349">
        <ele>124.4</ele>
        <time>2022-02-28T20:51:52.276Z</time>
      </trkpt>
      <trkpt lat="48.20811" lon="-3.07354">
        <ele>124.4</ele>
        <time>2022-02-28T20:51:55.931Z</time>
      </trkpt>
      <trkpt lat="48.20815" lon="-3.07359">
        <ele>124.7</ele>
        <time>2022-02-28T20:52:03.741Z</time>
      </trkpt>
      <trkpt lat="48.20819" lon="-3.07362">
        <ele>125.3</ele>
        <time>2022-02-28T20:52:17.801Z</time>
      </trkpt>
      <trkpt lat="48.20824" lon="-3.07368">
        <ele>125.8</ele>
        <time>2022-02-28T20:52:28.985Z</time>
      </trkpt>
      <trkpt lat="48.20828" lon="-3.0738">
        <ele>124.9</ele>
        <time>2022-02-28T20:52:30.762Z</time>
      </trkpt>
      <trkpt lat="48.2083" lon="-3.07386">
        <ele>124.2</ele>
        <time>2022-02-28T20:52:31.651Z</time>
      </trkpt>
      <trkpt lat="48.20834" lon="-3.07391">
        <ele>124</ele>
        <time>2022-02-28T20:52:32.858Z</time>
      </trkpt>
      <trkpt lat="48.20838" lon="-3.07396">
        <ele>124.5</ele>
        <time>2022-02-28T20:52:43.483Z</time>
      </trkpt>
      <trkpt lat="48.20842" lon="-3.07401">
        <ele>124.9</ele>
        <time>2022-02-28T20:52:52.486Z</time>
      </trkpt>
      <trkpt lat="48.20845" lon="-3.07405">
        <ele>125</ele>
        <time>2022-02-28T20:52:56.725Z</time>
      </trkpt>
      <trkpt lat="48.20848" lon="-3.07411">
        <ele>124.8</ele>
        <time>2022-02-28T20:52:57.866Z</time>
      </trkpt>
      <trkpt lat="48.20851" lon="-3.07415">
        <ele>124.8</ele>
        <time>2022-02-28T20:53:01.137Z</time>
      </trkpt>
      <trkpt lat="48.20855" lon="-3.0742">
        <ele>124.7</ele>
        <time>2022-02-28T20:53:02.618Z</time>
      </trkpt>
      <trkpt lat="48.20859" lon="-3.07424">
        <ele>124.7</ele>
        <time>2022-02-28T20:53:06.536Z</time>
      </trkpt>
      <trkpt lat="48.20862" lon="-3.07429">
        <ele>124.5</ele>
        <time>2022-02-28T20:53:07.516Z</time>
      </trkpt>
      <trkpt lat="48.20867" lon="-3.07433">
        <ele>125.3</ele>
        <time>2022-02-28T20:53:25.331Z</time>
      </trkpt>
      <trkpt lat="48.20872" lon="-3.0744">
        <ele>125.8</ele>
        <time>2022-02-28T20:53:36.817Z</time>
      </trkpt>
      <trkpt lat="48.20875" lon="-3.07445">
        <ele>126</ele>
        <time>2022-02-28T20:53:42.990Z</time>
      </trkpt>
      <trkpt lat="48.20881" lon="-3.07446">
        <ele>127.5</ele>
        <time>2022-02-28T20:54:01.970Z</time>
      </trkpt>
      <trkpt lat="48.20887" lon="-3.07446">
        <ele>129.1</ele>
        <time>2022-02-28T20:54:20.834Z</time>
      </trkpt>
      <trkpt lat="48.20892" lon="-3.07445">
        <ele>129.2</ele>
        <time>2022-02-28T20:54:25.858Z</time>
      </trkpt>
      <trkpt lat="48.20893" lon="-3.07442">
        <ele>129.5</ele>
        <time>2022-02-28T20:54:32.886Z</time>
        <extensions>
          <visugpx:TrkExtension xmlns:visugpx="https://www.visugpx.com/editgpx/">
            <visugpx:node>8</visugpx:node>
            </visugpx:TrkExtension>
        </extensions>
      </trkpt>
      <trkpt lat="48.20893" lon="-3.07438">
        <ele>130.2</ele>
        <time>2022-02-28T20:54:41.267Z</time>
      </trkpt>
      <trkpt lat="48.20892" lon="-3.0743">
        <ele>131.7</ele>
        <time>2022-02-28T20:54:58.321Z</time>
      </trkpt>
      <trkpt lat="48.2089" lon="-3.07423">
        <ele>133</ele>
        <time>2022-02-28T20:55:14.279Z</time>
      </trkpt>
      <trkpt lat="48.20887" lon="-3.07415">
        <ele>133.6</ele>
        <time>2022-02-28T20:55:27.008Z</time>
      </trkpt>
      <trkpt lat="48.20884" lon="-3.07405">
        <ele>134</ele>
        <time>2022-02-28T20:55:37.758Z</time>
      </trkpt>
      <trkpt lat="48.20881" lon="-3.07398">
        <ele>134.1</ele>
        <time>2022-02-28T20:55:43.173Z</time>
      </trkpt>
      <trkpt lat="48.20878" lon="-3.07394">
        <ele>134</ele>
        <time>2022-02-28T20:55:44.242Z</time>
      </trkpt>
      <trkpt lat="48.20876" lon="-3.07385">
        <ele>134.8</ele>
        <time>2022-02-28T20:56:02.318Z</time>
      </trkpt>
      <trkpt lat="48.20879" lon="-3.0738">
        <ele>136.3</ele>
        <time>2022-02-28T20:56:16.414Z</time>
      </trkpt>
      <trkpt lat="48.20881" lon="-3.07374">
        <ele>137.6</ele>
        <time>2022-02-28T20:56:30.471Z</time>
      </trkpt>
      <trkpt lat="48.20885" lon="-3.07367">
        <ele>139.4</ele>
        <time>2022-02-28T20:56:49.791Z</time>
      </trkpt>
      <trkpt lat="48.2089" lon="-3.07361">
        <ele>141.3</ele>
        <time>2022-02-28T20:57:09.920Z</time>
      </trkpt>
      <trkpt lat="48.20893" lon="-3.07355">
        <ele>142.8</ele>
        <time>2022-02-28T20:57:25.636Z</time>
      </trkpt>
      <trkpt lat="48.20895" lon="-3.07348">
        <ele>144.2</ele>
        <time>2022-02-28T20:57:41.594Z</time>
      </trkpt>
      <trkpt lat="48.20898" lon="-3.07343">
        <ele>145.6</ele>
        <time>2022-02-28T20:57:55.691Z</time>
      </trkpt>
      <trkpt lat="48.20901" lon="-3.07338">
        <ele>146.9</ele>
        <time>2022-02-28T20:58:09.787Z</time>
      </trkpt>
      <trkpt lat="48.20906" lon="-3.07336">
        <ele>148.3</ele>
        <time>2022-02-28T20:58:26.056Z</time>
      </trkpt>
      <trkpt lat="48.20909" lon="-3.07329">
        <ele>149.8</ele>
        <time>2022-02-28T20:58:43.494Z</time>
      </trkpt>
      <trkpt lat="48.2091" lon="-3.07322">
        <ele>150.8</ele>
        <time>2022-02-28T20:58:58.494Z</time>
      </trkpt>
      <trkpt lat="48.20915" lon="-3.0732">
        <ele>152.1</ele>
        <time>2022-02-28T20:59:14.763Z</time>
      </trkpt>
      <trkpt lat="48.20919" lon="-3.07315">
        <ele>153.2</ele>
        <time>2022-02-28T20:59:31.131Z</time>
      </trkpt>
      <trkpt lat="48.20922" lon="-3.07309">
        <ele>154.2</ele>
        <time>2022-02-28T20:59:46.847Z</time>
      </trkpt>
      <trkpt lat="48.20923" lon="-3.07302">
        <ele>155</ele>
        <time>2022-02-28T21:00:01.847Z</time>
      </trkpt>
      <trkpt lat="48.20927" lon="-3.07299">
        <ele>155.6</ele>
        <time>2022-02-28T21:00:15.907Z</time>
      </trkpt>
      <trkpt lat="48.20932" lon="-3.07294">
        <ele>156.4</ele>
        <time>2022-02-28T21:00:34.719Z</time>
      </trkpt>
      <trkpt lat="48.20936" lon="-3.0729">
        <ele>157</ele>
        <time>2022-02-28T21:00:48.159Z</time>
      </trkpt>
      <trkpt lat="48.20941" lon="-3.07287">
        <ele>157.5</ele>
        <time>2022-02-28T21:00:58.830Z</time>
      </trkpt>
      <trkpt lat="48.20944" lon="-3.07283">
        <ele>157.8</ele>
        <time>2022-02-28T21:01:05.657Z</time>
      </trkpt>
      <trkpt lat="48.20947" lon="-3.07277">
        <ele>157.3</ele>
        <time>2022-02-28T21:01:06.651Z</time>
      </trkpt>
      <trkpt lat="48.20954" lon="-3.07279">
        <ele>155.2</ele>
        <time>2022-02-28T21:01:08.068Z</time>
      </trkpt>
      <trkpt lat="48.20958" lon="-3.07281">
        <ele>153.9</ele>
        <time>2022-02-28T21:01:08.906Z</time>
      </trkpt>
      <trkpt lat="48.20962" lon="-3.07284">
        <ele>152.4</ele>
        <time>2022-02-28T21:01:09.795Z</time>
      </trkpt>
      <trkpt lat="48.20967" lon="-3.07298">
        <ele>149.6</ele>
        <time>2022-02-28T21:01:11.899Z</time>
      </trkpt>
      <trkpt lat="48.20969" lon="-3.07303">
        <ele>148.4</ele>
        <time>2022-02-28T21:01:12.671Z</time>
      </trkpt>
      <trkpt lat="48.20973" lon="-3.07308">
        <ele>146.7</ele>
        <time>2022-02-28T21:01:13.706Z</time>
      </trkpt>
      <trkpt lat="48.20979" lon="-3.07306">
        <ele>144.6</ele>
        <time>2022-02-28T21:01:14.928Z</time>
      </trkpt>
      <trkpt lat="48.20983" lon="-3.07308">
        <ele>143.1</ele>
        <time>2022-02-28T21:01:15.766Z</time>
      </trkpt>
      <trkpt lat="48.20989" lon="-3.07308">
        <ele>140.9</ele>
        <time>2022-02-28T21:01:16.959Z</time>
      </trkpt>
      <trkpt lat="48.20996" lon="-3.07307">
        <ele>138.4</ele>
        <time>2022-02-28T21:01:18.356Z</time>
      </trkpt>
      <trkpt lat="48.21" lon="-3.07306">
        <ele>137</ele>
        <time>2022-02-28T21:01:19.163Z</time>
      </trkpt>
      <trkpt lat="48.21005" lon="-3.07301">
        <ele>137.2</ele>
        <time>2022-02-28T21:01:26.209Z</time>
      </trkpt>
      <trkpt lat="48.2101" lon="-3.073">
        <ele>136.6</ele>
        <time>2022-02-28T21:01:27.211Z</time>
      </trkpt>
      <trkpt lat="48.21017" lon="-3.07299">
        <ele>135.8</ele>
        <time>2022-02-28T21:01:28.609Z</time>
      </trkpt>
      <trkpt lat="48.21021" lon="-3.07294">
        <ele>135.6</ele>
        <time>2022-02-28T21:01:29.815Z</time>
      </trkpt>
      <trkpt lat="48.21022" lon="-3.07287">
        <ele>135.8</ele>
        <time>2022-02-28T21:01:36.128Z</time>
      </trkpt>
      <trkpt lat="48.21025" lon="-3.07282">
        <ele>135.5</ele>
        <time>2022-02-28T21:01:37.019Z</time>
      </trkpt>
      <trkpt lat="48.21031" lon="-3.07284">
        <ele>135.8</ele>
        <time>2022-02-28T21:01:45.712Z</time>
      </trkpt>
      <trkpt lat="48.21035" lon="-3.07287">
        <ele>137</ele>
        <time>2022-02-28T21:01:59.771Z</time>
      </trkpt>
      <trkpt lat="48.2104" lon="-3.07289">
        <ele>138.6</ele>
        <time>2022-02-28T21:02:16.040Z</time>
      </trkpt>
      <trkpt lat="48.21042" lon="-3.07294">
        <ele>139.4</ele>
        <time>2022-02-28T21:02:28.259Z</time>
      </trkpt>
      <trkpt lat="48.21045" lon="-3.07301">
        <ele>140.7</ele>
        <time>2022-02-28T21:02:45.696Z</time>
      </trkpt>
      <trkpt lat="48.21047" lon="-3.07309">
        <ele>141.7</ele>
        <time>2022-02-28T21:03:03.598Z</time>
      </trkpt>
      <trkpt lat="48.21052" lon="-3.07315">
        <ele>143.9</ele>
        <time>2022-02-28T21:03:23.727Z</time>
      </trkpt>
      <trkpt lat="48.21055" lon="-3.07316">
        <ele>145.2</ele>
        <time>2022-02-28T21:03:33.389Z</time>
      </trkpt>
      <trkpt lat="48.21056" lon="-3.07324">
        <ele>145.7</ele>
        <time>2022-02-28T21:03:44.072Z</time>
      </trkpt>
      <trkpt lat="48.21056" lon="-3.07332">
        <ele>146</ele>
        <time>2022-02-28T21:03:51.996Z</time>
      </trkpt>
      <trkpt lat="48.21056" lon="-3.07341">
        <ele>146</ele>
        <time>2022-02-28T21:03:56.885Z</time>
      </trkpt>
      <trkpt lat="48.21056" lon="-3.07347">
        <ele>146</ele>
        <time>2022-02-28T21:04:00.144Z</time>
      </trkpt>
      <trkpt lat="48.21056" lon="-3.07354">
        <ele>146</ele>
        <time>2022-02-28T21:04:03.947Z</time>
      </trkpt>
      <trkpt lat="48.21052" lon="-3.07361">
        <ele>144.5</ele>
        <time>2022-02-28T21:04:05.168Z</time>
      </trkpt>
      <trkpt lat="48.21051" lon="-3.07368">
        <ele>144</ele>
        <time>2022-02-28T21:04:06.116Z</time>
      </trkpt>
      <trkpt lat="48.2105" lon="-3.07375">
        <ele>143.6</ele>
        <time>2022-02-28T21:04:07.065Z</time>
      </trkpt>
      <trkpt lat="48.21048" lon="-3.0738">
        <ele>142.7</ele>
        <time>2022-02-28T21:04:07.837Z</time>
      </trkpt>
      <trkpt lat="48.21046" lon="-3.07387">
        <ele>141.9</ele>
        <time>2022-02-28T21:04:08.846Z</time>
      </trkpt>
      <trkpt lat="48.21046" lon="-3.07397">
        <ele>142.4</ele>
        <time>2022-02-28T21:04:20.208Z</time>
      </trkpt>
      <trkpt lat="48.21045" lon="-3.07404">
        <ele>142.5</ele>
        <time>2022-02-28T21:04:25.020Z</time>
      </trkpt>
      <trkpt lat="48.21042" lon="-3.07412">
        <ele>142.2</ele>
        <time>2022-02-28T21:04:26.306Z</time>
        <extensions>
          <visugpx:TrkExtension xmlns:visugpx="https://www.visugpx.com/editgpx/">
            <visugpx:node>9</visugpx:node>
            </visugpx:TrkExtension>
        </extensions>
      </trkpt>
      <trkpt lat="48.21042" lon="-3.07413">
        <ele>142.3</ele>
        <time>2022-02-28T21:04:28.401Z</time>
      </trkpt>
      <trkpt lat="48.2104" lon="-3.07419">
        <ele>142.3</ele>
        <time>2022-02-28T21:04:32.045Z</time>
      </trkpt>
      <trkpt lat="48.21039" lon="-3.07429">
        <ele>143.2</ele>
        <time>2022-02-28T21:04:53.232Z</time>
      </trkpt>
      <trkpt lat="48.21045" lon="-3.0743">
        <ele>144.1</ele>
        <time>2022-02-28T21:05:12.212Z</time>
      </trkpt>
      <trkpt lat="48.21051" lon="-3.07435">
        <ele>144.9</ele>
        <time>2022-02-28T21:05:29.560Z</time>
      </trkpt>
      <trkpt lat="48.21049" lon="-3.07442">
        <ele>144.9</ele>
        <time>2022-02-28T21:05:33.697Z</time>
      </trkpt>
      <trkpt lat="48.21052" lon="-3.07448">
        <ele>144.9</ele>
        <time>2022-02-28T21:05:37.772Z</time>
      </trkpt>
      <trkpt lat="48.21057" lon="-3.07449">
        <ele>144.6</ele>
        <time>2022-02-28T21:05:38.744Z</time>
      </trkpt>
      <trkpt lat="48.21062" lon="-3.07448">
        <ele>143.7</ele>
        <time>2022-02-28T21:05:39.746Z</time>
      </trkpt>
      <trkpt lat="48.21067" lon="-3.07444">
        <ele>143</ele>
        <time>2022-02-28T21:05:40.873Z</time>
      </trkpt>
      <trkpt lat="48.21072" lon="-3.07445">
        <ele>142</ele>
        <time>2022-02-28T21:05:41.875Z</time>
      </trkpt>
      <trkpt lat="48.21076" lon="-3.07451">
        <ele>140.7</ele>
        <time>2022-02-28T21:05:43.000Z</time>
      </trkpt>
      <trkpt lat="48.21076" lon="-3.07458">
        <ele>140.1</ele>
        <time>2022-02-28T21:05:43.927Z</time>
      </trkpt>
      <trkpt lat="48.21079" lon="-3.07467">
        <ele>138.6</ele>
        <time>2022-02-28T21:05:45.260Z</time>
      </trkpt>
      <trkpt lat="48.21084" lon="-3.07464">
        <ele>137.6</ele>
        <time>2022-02-28T21:05:46.330Z</time>
      </trkpt>
      <trkpt lat="48.21088" lon="-3.0746">
        <ele>136.5</ele>
        <time>2022-02-28T21:05:47.286Z</time>
      </trkpt>
      <trkpt lat="48.21092" lon="-3.07456">
        <ele>135.4</ele>
        <time>2022-02-28T21:05:48.241Z</time>
      </trkpt>
      <trkpt lat="48.21096" lon="-3.07452">
        <ele>134.4</ele>
        <time>2022-02-28T21:05:49.197Z</time>
      </trkpt>
      <trkpt lat="48.21101" lon="-3.07454">
        <ele>132.2</ele>
        <time>2022-02-28T21:05:50.225Z</time>
      </trkpt>
      <trkpt lat="48.21107" lon="-3.07458">
        <ele>129.2</ele>
        <time>2022-02-28T21:05:51.531Z</time>
      </trkpt>
      <trkpt lat="48.21109" lon="-3.07462">
        <ele>127.7</ele>
        <time>2022-02-28T21:05:52.193Z</time>
      </trkpt>
      <trkpt lat="48.21114" lon="-3.07465">
        <ele>125.9</ele>
        <time>2022-02-28T21:05:53.263Z</time>
      </trkpt>
      <trkpt lat="48.21119" lon="-3.07461">
        <ele>125.8</ele>
        <time>2022-02-28T21:05:54.905Z</time>
      </trkpt>
      <trkpt lat="48.21124" lon="-3.07455">
        <ele>125.8</ele>
        <time>2022-02-28T21:06:00.124Z</time>
      </trkpt>
      <trkpt lat="48.21128" lon="-3.07451">
        <ele>125.6</ele>
        <time>2022-02-28T21:06:01.204Z</time>
      </trkpt>
      <trkpt lat="48.21131" lon="-3.07445">
        <ele>125.6</ele>
        <time>2022-02-28T21:06:05.279Z</time>
      </trkpt>
      <trkpt lat="48.21133" lon="-3.07437">
        <ele>126.7</ele>
        <time>2022-02-28T21:06:23.181Z</time>
      </trkpt>
      <trkpt lat="48.21137" lon="-3.07431">
        <ele>126.9</ele>
        <time>2022-02-28T21:06:29.999Z</time>
      </trkpt>
      <trkpt lat="48.21138" lon="-3.07424">
        <ele>127.9</ele>
        <time>2022-02-28T21:06:44.999Z</time>
      </trkpt>
      <trkpt lat="48.21141" lon="-3.07417">
        <ele>128.4</ele>
        <time>2022-02-28T21:06:55.726Z</time>
      </trkpt>
      <trkpt lat="48.21146" lon="-3.07409">
        <ele>128.7</ele>
        <time>2022-02-28T21:07:05.273Z</time>
      </trkpt>
      <trkpt lat="48.21148" lon="-3.07409">
        <ele>128.2</ele>
        <time>2022-02-28T21:07:05.670Z</time>
      </trkpt>
      <trkpt lat="48.21151" lon="-3.07404">
        <ele>128.4</ele>
        <time>2022-02-28T21:07:11.842Z</time>
      </trkpt>
      <trkpt lat="48.21158" lon="-3.07401">
        <ele>127.4</ele>
        <time>2022-02-28T21:07:13.289Z</time>
      </trkpt>
      <trkpt lat="48.21163" lon="-3.07398">
        <ele>126.9</ele>
        <time>2022-02-28T21:07:14.360Z</time>
      </trkpt>
      <trkpt lat="48.2117" lon="-3.07396">
        <ele>125.9</ele>
        <time>2022-02-28T21:07:15.776Z</time>
      </trkpt>
      <trkpt lat="48.21174" lon="-3.07393">
        <ele>125.8</ele>
        <time>2022-02-28T21:07:17.002Z</time>
      </trkpt>
      <trkpt lat="48.21179" lon="-3.07389">
        <ele>125.3</ele>
        <time>2022-02-28T21:07:18.129Z</time>
      </trkpt>
      <trkpt lat="48.21181" lon="-3.07381">
        <ele>126.2</ele>
        <time>2022-02-28T21:07:36.030Z</time>
      </trkpt>
      <trkpt lat="48.21183" lon="-3.07373">
        <ele>127.1</ele>
        <time>2022-02-28T21:07:53.932Z</time>
      </trkpt>
      <trkpt lat="48.21185" lon="-3.0737">
        <ele>127.2</ele>
        <time>2022-02-28T21:07:57.341Z</time>
      </trkpt>
      <trkpt lat="48.21188" lon="-3.07364">
        <ele>127.7</ele>
        <time>2022-02-28T21:08:07.940Z</time>
      </trkpt>
      <trkpt lat="48.2119" lon="-3.0736">
        <ele>127.9</ele>
        <time>2022-02-28T21:08:13.023Z</time>
      </trkpt>
      <trkpt lat="48.21195" lon="-3.07357">
        <ele>127.4</ele>
        <time>2022-02-28T21:08:14.094Z</time>
      </trkpt>
      <trkpt lat="48.21199" lon="-3.07357">
        <ele>126.7</ele>
        <time>2022-02-28T21:08:14.889Z</time>
      </trkpt>
      <trkpt lat="48.21203" lon="-3.07352">
        <ele>126.4</ele>
        <time>2022-02-28T21:08:15.907Z</time>
      </trkpt>
      <trkpt lat="48.21203" lon="-3.07342">
        <ele>127.2</ele>
        <time>2022-02-28T21:08:33.462Z</time>
      </trkpt>
      <trkpt lat="48.21205" lon="-3.07334">
        <ele>127.3</ele>
        <time>2022-02-28T21:08:38.993Z</time>
      </trkpt>
      <trkpt lat="48.21205" lon="-3.07327">
        <ele>128.4</ele>
        <time>2022-02-28T21:08:53.659Z</time>
      </trkpt>
      <trkpt lat="48.21208" lon="-3.0732">
        <ele>128.7</ele>
        <time>2022-02-28T21:09:01.782Z</time>
      </trkpt>
      <trkpt lat="48.21213" lon="-3.07312">
        <ele>128.7</ele>
        <time>2022-02-28T21:09:07.739Z</time>
      </trkpt>
      <trkpt lat="48.21218" lon="-3.07308">
        <ele>127.9</ele>
        <time>2022-02-28T21:09:08.865Z</time>
      </trkpt>
      <trkpt lat="48.21221" lon="-3.07305">
        <ele>127.5</ele>
        <time>2022-02-28T21:09:09.582Z</time>
      </trkpt>
      <trkpt lat="48.21225" lon="-3.07301">
        <ele>128.3</ele>
        <time>2022-02-28T21:09:24.695Z</time>
      </trkpt>
      <trkpt lat="48.2123" lon="-3.07297">
        <ele>129.4</ele>
        <time>2022-02-28T21:09:42.509Z</time>
      </trkpt>
      <trkpt lat="48.21233" lon="-3.07294">
        <ele>129.9</ele>
        <time>2022-02-28T21:09:53.844Z</time>
      </trkpt>
      <trkpt lat="48.2124" lon="-3.07294">
        <ele>130.2</ele>
        <time>2022-02-28T21:10:03.237Z</time>
      </trkpt>
      <trkpt lat="48.2124" lon="-3.07296">
        <ele>130.1</ele>
        <time>2022-02-28T21:10:03.502Z</time>
        <extensions>
          <visugpx:TrkExtension xmlns:visugpx="https://www.visugpx.com/editgpx/">
            <visugpx:node>10</visugpx:node>
            </visugpx:TrkExtension>
        </extensions>
      </trkpt>
      <trkpt lat="48.21242" lon="-3.07299">
        <ele>130.1</ele>
        <time>2022-02-28T21:10:05.807Z</time>
      </trkpt>
      <trkpt lat="48.21237" lon="-3.07308">
        <ele>129.2</ele>
        <time>2022-02-28T21:10:07.359Z</time>
      </trkpt>
      <trkpt lat="48.21235" lon="-3.07317">
        <ele>128.7</ele>
        <time>2022-02-28T21:10:08.616Z</time>
      </trkpt>
      <trkpt lat="48.21232" lon="-3.07325">
        <ele>127.6</ele>
        <time>2022-02-28T21:10:09.832Z</time>
      </trkpt>
      <trkpt lat="48.21233" lon="-3.07332">
        <ele>127.7</ele>
        <time>2022-02-28T21:10:14.644Z</time>
      </trkpt>
      <trkpt lat="48.21236" lon="-3.07341">
        <ele>129.5</ele>
        <time>2022-02-28T21:10:35.728Z</time>
      </trkpt>
      <trkpt lat="48.21238" lon="-3.07348">
        <ele>131</ele>
        <time>2022-02-28T21:10:51.685Z</time>
      </trkpt>
      <trkpt lat="48.21241" lon="-3.07353">
        <ele>133</ele>
        <time>2022-02-28T21:11:05.781Z</time>
      </trkpt>
      <trkpt lat="48.21242" lon="-3.07358">
        <ele>134.1</ele>
        <time>2022-02-28T21:11:16.718Z</time>
      </trkpt>
      <trkpt lat="48.21242" lon="-3.07367">
        <ele>134.8</ele>
        <time>2022-02-28T21:11:31.905Z</time>
      </trkpt>
      <trkpt lat="48.21244" lon="-3.07374">
        <ele>136.5</ele>
        <time>2022-02-28T21:11:47.862Z</time>
      </trkpt>
      <trkpt lat="48.21246" lon="-3.07382">
        <ele>138.2</ele>
        <time>2022-02-28T21:12:05.763Z</time>
      </trkpt>
      <trkpt lat="48.21251" lon="-3.07392">
        <ele>141.7</ele>
        <time>2022-02-28T21:12:31.956Z</time>
      </trkpt>
      <trkpt lat="48.21255" lon="-3.07398">
        <ele>144</ele>
        <time>2022-02-28T21:12:49.737Z</time>
      </trkpt>
      <trkpt lat="48.21255" lon="-3.07407">
        <ele>144.6</ele>
        <time>2022-02-28T21:13:02.456Z</time>
      </trkpt>
      <trkpt lat="48.21255" lon="-3.07415">
        <ele>145.2</ele>
        <time>2022-02-28T21:13:15.330Z</time>
      </trkpt>
      <trkpt lat="48.21255" lon="-3.07422">
        <ele>146.1</ele>
        <time>2022-02-28T21:13:29.996Z</time>
      </trkpt>
      <trkpt lat="48.21256" lon="-3.0743">
        <ele>147.6</ele>
        <time>2022-02-28T21:13:47.049Z</time>
      </trkpt>
      <trkpt lat="48.21256" lon="-3.07437">
        <ele>148.6</ele>
        <time>2022-02-28T21:14:01.715Z</time>
      </trkpt>
      <trkpt lat="48.21257" lon="-3.07444">
        <ele>150</ele>
        <time>2022-02-28T21:14:16.713Z</time>
      </trkpt>
      <trkpt lat="48.21257" lon="-3.07451">
        <ele>151</ele>
        <time>2022-02-28T21:14:31.379Z</time>
      </trkpt>
      <trkpt lat="48.21256" lon="-3.07459">
        <ele>151.8</ele>
        <time>2022-02-28T21:14:48.432Z</time>
      </trkpt>
      <trkpt lat="48.21254" lon="-3.07465">
        <ele>152</ele>
        <time>2022-02-28T21:14:54.591Z</time>
      </trkpt>
      <trkpt lat="48.21252" lon="-3.07473">
        <ele>152.7</ele>
        <time>2022-02-28T21:15:10.136Z</time>
      </trkpt>
      <trkpt lat="48.21251" lon="-3.0748">
        <ele>153.4</ele>
        <time>2022-02-28T21:15:25.134Z</time>
      </trkpt>
      <trkpt lat="48.21251" lon="-3.07488">
        <ele>154.5</ele>
        <time>2022-02-28T21:15:41.895Z</time>
      </trkpt>
      <trkpt lat="48.21251" lon="-3.07496">
        <ele>155.6</ele>
        <time>2022-02-28T21:15:58.656Z</time>
      </trkpt>
      <trkpt lat="48.21251" lon="-3.07511">
        <ele>156.5</ele>
        <time>2022-02-28T21:16:17.969Z</time>
      </trkpt>
      <trkpt lat="48.2125" lon="-3.07517">
        <ele>156.6</ele>
        <time>2022-02-28T21:16:22.289Z</time>
      </trkpt>
      <trkpt lat="48.2125" lon="-3.07526">
        <ele>156.9</ele>
        <time>2022-02-28T21:16:30.838Z</time>
      </trkpt>
      <trkpt lat="48.21249" lon="-3.07534">
        <ele>156.9</ele>
        <time>2022-02-28T21:16:35.259Z</time>
      </trkpt>
      <trkpt lat="48.21249" lon="-3.07541">
        <ele>157.2</ele>
        <time>2022-02-28T21:16:42.595Z</time>
      </trkpt>
      <trkpt lat="48.21247" lon="-3.07543">
        <ele>156.7</ele>
        <time>2022-02-28T21:16:43.073Z</time>
        <extensions>
          <visugpx:TrkExtension xmlns:visugpx="https://www.visugpx.com/editgpx/">
            <visugpx:node>11</visugpx:node>
            </visugpx:TrkExtension>
        </extensions>
      </trkpt>
      <trkpt lat="48.21246" lon="-3.07545">
        <ele>156.5</ele>
        <time>2022-02-28T21:16:43.404Z</time>
      </trkpt>
      <trkpt lat="48.21241" lon="-3.07547">
        <ele>155.3</ele>
        <time>2022-02-28T21:16:44.433Z</time>
      </trkpt>
      <trkpt lat="48.21236" lon="-3.07549">
        <ele>154.3</ele>
        <time>2022-02-28T21:16:45.462Z</time>
      </trkpt>
      <trkpt lat="48.2123" lon="-3.07553">
        <ele>153.3</ele>
        <time>2022-02-28T21:16:46.767Z</time>
      </trkpt>
      <trkpt lat="48.21223" lon="-3.07555">
        <ele>152.1</ele>
        <time>2022-02-28T21:16:48.183Z</time>
      </trkpt>
      <trkpt lat="48.21218" lon="-3.07556">
        <ele>150.5</ele>
        <time>2022-02-28T21:16:49.186Z</time>
      </trkpt>
      <trkpt lat="48.21213" lon="-3.07562">
        <ele>149.5</ele>
        <time>2022-02-28T21:16:50.459Z</time>
      </trkpt>
      <trkpt lat="48.21206" lon="-3.07569">
        <ele>148.5</ele>
        <time>2022-02-28T21:16:52.131Z</time>
      </trkpt>
      <trkpt lat="48.21203" lon="-3.07575">
        <ele>148.9</ele>
        <time>2022-02-28T21:17:01.000Z</time>
      </trkpt>
      <trkpt lat="48.21201" lon="-3.07581">
        <ele>149.7</ele>
        <time>2022-02-28T21:17:15.056Z</time>
      </trkpt>
      <trkpt lat="48.21201" lon="-3.07588">
        <ele>150.6</ele>
        <time>2022-02-28T21:17:29.721Z</time>
      </trkpt>
      <trkpt lat="48.212" lon="-3.07597">
        <ele>151.3</ele>
        <time>2022-02-28T21:17:44.838Z</time>
      </trkpt>
      <trkpt lat="48.212" lon="-3.07605">
        <ele>152</ele>
        <time>2022-02-28T21:18:01.099Z</time>
      </trkpt>
      <trkpt lat="48.212" lon="-3.07613">
        <ele>152.7</ele>
        <time>2022-02-28T21:18:17.360Z</time>
      </trkpt>
      <trkpt lat="48.212" lon="-3.07622">
        <ele>153.3</ele>
        <time>2022-02-28T21:18:30.078Z</time>
      </trkpt>
      <trkpt lat="48.212" lon="-3.07631">
        <ele>153.9</ele>
        <time>2022-02-28T21:18:42.797Z</time>
      </trkpt>
      <trkpt lat="48.21201" lon="-3.07637">
        <ele>154.4</ele>
        <time>2022-02-28T21:18:53.823Z</time>
      </trkpt>
      <trkpt lat="48.21201" lon="-3.07646">
        <ele>154.2</ele>
        <time>2022-02-28T21:18:55.285Z</time>
      </trkpt>
      <trkpt lat="48.21201" lon="-3.07652">
        <ele>154</ele>
        <time>2022-02-28T21:18:56.118Z</time>
      </trkpt>
      <trkpt lat="48.21201" lon="-3.07661">
        <ele>153.7</ele>
        <time>2022-02-28T21:18:57.368Z</time>
      </trkpt>
      <trkpt lat="48.21203" lon="-3.0767">
        <ele>153.6</ele>
        <time>2022-02-28T21:18:59.241Z</time>
      </trkpt>
      <trkpt lat="48.21204" lon="-3.07676">
        <ele>153.6</ele>
        <time>2022-02-28T21:19:02.600Z</time>
      </trkpt>
      <trkpt lat="48.21205" lon="-3.07683">
        <ele>153.5</ele>
        <time>2022-02-28T21:19:03.930Z</time>
      </trkpt>
      <trkpt lat="48.21207" lon="-3.07691">
        <ele>153.5</ele>
        <time>2022-02-28T21:19:08.571Z</time>
      </trkpt>
      <trkpt lat="48.21206" lon="-3.07698">
        <ele>152.9</ele>
        <time>2022-02-28T21:19:09.519Z</time>
      </trkpt>
      <trkpt lat="48.21206" lon="-3.07707">
        <ele>151.7</ele>
        <time>2022-02-28T21:19:10.711Z</time>
      </trkpt>
      <trkpt lat="48.21207" lon="-3.07716">
        <ele>150.6</ele>
        <time>2022-02-28T21:19:11.920Z</time>
      </trkpt>
      <trkpt lat="48.21211" lon="-3.07722">
        <ele>150.4</ele>
        <time>2022-02-28T21:19:13.270Z</time>
      </trkpt>
      <trkpt lat="48.21215" lon="-3.07727">
        <ele>150.3</ele>
        <time>2022-02-28T21:19:14.751Z</time>
      </trkpt>
      <trkpt lat="48.2122" lon="-3.07731">
        <ele>150.7</ele>
        <time>2022-02-28T21:19:24.086Z</time>
      </trkpt>
      <trkpt lat="48.21226" lon="-3.07731">
        <ele>151.3</ele>
        <time>2022-02-28T21:19:36.805Z</time>
      </trkpt>
      <trkpt lat="48.21232" lon="-3.07732">
        <ele>151.6</ele>
        <time>2022-02-28T21:19:45.392Z</time>
      </trkpt>
      <trkpt lat="48.21239" lon="-3.07733">
        <ele>152</ele>
        <time>2022-02-28T21:19:55.887Z</time>
      </trkpt>
      <trkpt lat="48.21244" lon="-3.07734">
        <ele>152.3</ele>
        <time>2022-02-28T21:20:03.553Z</time>
      </trkpt>
      <trkpt lat="48.21249" lon="-3.07731">
        <ele>153</ele>
        <time>2022-02-28T21:20:19.681Z</time>
      </trkpt>
      <trkpt lat="48.21254" lon="-3.07727">
        <ele>154.1</ele>
        <time>2022-02-28T21:20:37.496Z</time>
      </trkpt>
      <trkpt lat="48.21259" lon="-3.07724">
        <ele>155.1</ele>
        <time>2022-02-28T21:20:54.426Z</time>
      </trkpt>
      <trkpt lat="48.21262" lon="-3.07722">
        <ele>155.8</ele>
        <time>2022-02-28T21:21:04.747Z</time>
      </trkpt>
      <trkpt lat="48.21267" lon="-3.07723">
        <ele>156.4</ele>
        <time>2022-02-28T21:21:17.860Z</time>
      </trkpt>
      <trkpt lat="48.21272" lon="-3.07724">
        <ele>157</ele>
        <time>2022-02-28T21:21:30.974Z</time>
      </trkpt>
      <trkpt lat="48.21276" lon="-3.0773">
        <ele>156.9</ele>
        <time>2022-02-28T21:21:32.612Z</time>
      </trkpt>
      <trkpt lat="48.21278" lon="-3.07739">
        <ele>156.2</ele>
        <time>2022-02-28T21:21:33.869Z</time>
      </trkpt>
      <trkpt lat="48.21283" lon="-3.07744">
        <ele>156.3</ele>
        <time>2022-02-28T21:21:39.647Z</time>
      </trkpt>
      <trkpt lat="48.21288" lon="-3.07746">
        <ele>156.6</ele>
        <time>2022-02-28T21:21:47.429Z</time>
      </trkpt>
      <trkpt lat="48.21293" lon="-3.07745">
        <ele>157.3</ele>
        <time>2022-02-28T21:22:03.288Z</time>
      </trkpt>
      <trkpt lat="48.21298" lon="-3.07749">
        <ele>157.3</ele>
        <time>2022-02-28T21:22:07.907Z</time>
      </trkpt>
      <trkpt lat="48.21301" lon="-3.07756">
        <ele>155.6</ele>
        <time>2022-02-28T21:22:09.010Z</time>
      </trkpt>
      <trkpt lat="48.21308" lon="-3.07765">
        <ele>153.2</ele>
        <time>2022-02-28T21:22:10.842Z</time>
      </trkpt>
      <trkpt lat="48.21312" lon="-3.0777">
        <ele>151.7</ele>
        <time>2022-02-28T21:22:11.877Z</time>
      </trkpt>
      <trkpt lat="48.21318" lon="-3.07772">
        <ele>151.4</ele>
        <time>2022-02-28T21:22:13.171Z</time>
      </trkpt>
      <trkpt lat="48.21322" lon="-3.07774">
        <ele>151.1</ele>
        <time>2022-02-28T21:22:14.009Z</time>
      </trkpt>
      <trkpt lat="48.21326" lon="-3.07775">
        <ele>151.1</ele>
        <time>2022-02-28T21:22:17.315Z</time>
      </trkpt>
      <trkpt lat="48.21333" lon="-3.07776">
        <ele>151.3</ele>
        <time>2022-02-28T21:22:25.066Z</time>
      </trkpt>
      <trkpt lat="48.21337" lon="-3.07775">
        <ele>151.5</ele>
        <time>2022-02-28T21:22:30.820Z</time>
      </trkpt>
      <trkpt lat="48.21344" lon="-3.07778">
        <ele>150.9</ele>
        <time>2022-02-28T21:22:32.267Z</time>
      </trkpt>
      <trkpt lat="48.21351" lon="-3.07779">
        <ele>150.7</ele>
        <time>2022-02-28T21:22:34.070Z</time>
      </trkpt>
      <trkpt lat="48.21356" lon="-3.07778">
        <ele>151</ele>
        <time>2022-02-28T21:22:41.735Z</time>
      </trkpt>
      <trkpt lat="48.21359" lon="-3.07777">
        <ele>151.2</ele>
        <time>2022-02-28T21:22:46.595Z</time>
      </trkpt>
      <trkpt lat="48.21366" lon="-3.0778">
        <ele>151</ele>
        <time>2022-02-28T21:22:48.481Z</time>
      </trkpt>
      <trkpt lat="48.21371" lon="-3.07782">
        <ele>151.1</ele>
        <time>2022-02-28T21:22:53.606Z</time>
      </trkpt>
      <trkpt lat="48.21376" lon="-3.07786">
        <ele>150.7</ele>
        <time>2022-02-28T21:22:54.733Z</time>
      </trkpt>
      <trkpt lat="48.2138" lon="-3.07787">
        <ele>150.8</ele>
        <time>2022-02-28T21:22:59.003Z</time>
      </trkpt>
      <trkpt lat="48.21387" lon="-3.07787">
        <ele>151.5</ele>
        <time>2022-02-28T21:23:13.841Z</time>
      </trkpt>
      <trkpt lat="48.21391" lon="-3.07786">
        <ele>152.4</ele>
        <time>2022-02-28T21:23:26.590Z</time>
      </trkpt>
      <trkpt lat="48.21397" lon="-3.07789">
        <ele>153.3</ele>
        <time>2022-02-28T21:23:46.474Z</time>
      </trkpt>
      <trkpt lat="48.21401" lon="-3.07791">
        <ele>154.1</ele>
        <time>2022-02-28T21:23:59.730Z</time>
      </trkpt>
      <trkpt lat="48.21403" lon="-3.07796">
        <ele>153.9</ele>
        <time>2022-02-28T21:24:00.529Z</time>
      </trkpt>
      <trkpt lat="48.21406" lon="-3.07803">
        <ele>154.1</ele>
        <time>2022-02-28T21:24:07.280Z</time>
      </trkpt>
      <trkpt lat="48.21407" lon="-3.07812">
        <ele>153.2</ele>
        <time>2022-02-28T21:24:08.488Z</time>
      </trkpt>
      <trkpt lat="48.21407" lon="-3.07819">
        <ele>152.2</ele>
        <time>2022-02-28T21:24:09.416Z</time>
      </trkpt>
      <trkpt lat="48.21407" lon="-3.07827">
        <ele>151.1</ele>
        <time>2022-02-28T21:24:10.475Z</time>
      </trkpt>
      <trkpt lat="48.21408" lon="-3.07835">
        <ele>150.1</ele>
        <time>2022-02-28T21:24:11.554Z</time>
      </trkpt>
      <trkpt lat="48.21408" lon="-3.07843">
        <ele>147.7</ele>
        <time>2022-02-28T21:24:12.613Z</time>
      </trkpt>
      <trkpt lat="48.21412" lon="-3.0785">
        <ele>147.4</ele>
        <time>2022-02-28T21:24:13.907Z</time>
      </trkpt>
      <trkpt lat="48.21416" lon="-3.07849">
        <ele>149.6</ele>
        <time>2022-02-28T21:24:26.657Z</time>
      </trkpt>
      <trkpt lat="48.21421" lon="-3.07853">
        <ele>148.9</ele>
        <time>2022-02-28T21:24:27.783Z</time>
      </trkpt>
      <trkpt lat="48.21421" lon="-3.07864">
        <ele>145.4</ele>
        <time>2022-02-28T21:24:29.240Z</time>
      </trkpt>
      <trkpt lat="48.2142" lon="-3.07879">
        <ele>139.7</ele>
        <time>2022-02-28T21:24:31.237Z</time>
      </trkpt>
      <trkpt lat="48.2142" lon="-3.07891">
        <ele>135.6</ele>
        <time>2022-02-28T21:24:32.826Z</time>
      </trkpt>
      <trkpt lat="48.2142" lon="-3.079">
        <ele>133.3</ele>
        <time>2022-02-28T21:24:34.019Z</time>
      </trkpt>
      <trkpt lat="48.21422" lon="-3.07909">
        <ele>131.8</ele>
        <time>2022-02-28T21:24:35.275Z</time>
      </trkpt>
      <trkpt lat="48.21423" lon="-3.07917">
        <ele>130.2</ele>
        <time>2022-02-28T21:24:36.353Z</time>
      </trkpt>
      <trkpt lat="48.21422" lon="-3.07925">
        <ele>128.9</ele>
        <time>2022-02-28T21:24:37.432Z</time>
      </trkpt>
      <trkpt lat="48.21422" lon="-3.07931">
        <ele>128.2</ele>
        <time>2022-02-28T21:24:38.226Z</time>
      </trkpt>
      <trkpt lat="48.21418" lon="-3.07938">
        <ele>126.1</ele>
        <time>2022-02-28T21:24:39.448Z</time>
      </trkpt>
      <trkpt lat="48.21415" lon="-3.07948">
        <ele>124.9</ele>
        <time>2022-02-28T21:24:40.900Z</time>
      </trkpt>
      <trkpt lat="48.21416" lon="-3.07955">
        <ele>125</ele>
        <time>2022-02-28T21:24:45.713Z</time>
      </trkpt>
      <trkpt lat="48.21415" lon="-3.07962">
        <ele>125</ele>
        <time>2022-02-28T21:24:49.601Z</time>
      </trkpt>
      <trkpt lat="48.21417" lon="-3.07968">
        <ele>125.1</ele>
        <time>2022-02-28T21:24:54.184Z</time>
      </trkpt>
      <trkpt lat="48.21417" lon="-3.07975">
        <ele>125.2</ele>
        <time>2022-02-28T21:24:58.916Z</time>
      </trkpt>
      <trkpt lat="48.21412" lon="-3.07983">
        <ele>126</ele>
        <time>2022-02-28T21:25:15.981Z</time>
      </trkpt>
      <trkpt lat="48.2141" lon="-3.07988">
        <ele>126.8</ele>
        <time>2022-02-28T21:25:28.198Z</time>
      </trkpt>
      <trkpt lat="48.2141" lon="-3.07993">
        <ele>127.2</ele>
        <time>2022-02-28T21:25:36.976Z</time>
        <extensions>
          <visugpx:TrkExtension xmlns:visugpx="https://www.visugpx.com/editgpx/">
            <visugpx:node>12</visugpx:node>
            </visugpx:TrkExtension>
        </extensions>
      </trkpt>
      <trkpt lat="48.21408" lon="-3.08001">
        <ele>128.6</ele>
        <time>2022-02-28T21:25:54.877Z</time>
      </trkpt>
      <trkpt lat="48.21414" lon="-3.08027">
        <ele>128.1</ele>
        <time>2022-02-28T21:25:59.638Z</time>
      </trkpt>
      <trkpt lat="48.21427" lon="-3.08104">
        <ele>134.7</ele>
        <time>2022-02-28T21:28:27.386Z</time>
      </trkpt>
      <trkpt lat="48.21436" lon="-3.08166">
        <ele>139.4</ele>
        <time>2022-02-28T21:30:07.946Z</time>
      </trkpt>
      <trkpt lat="48.21441" lon="-3.08203">
        <ele>141.2</ele>
        <time>2022-02-28T21:30:49.697Z</time>
      </trkpt>
      <trkpt lat="48.21441" lon="-3.08244">
        <ele>146.5</ele>
        <time>2022-02-28T21:32:15.592Z</time>
      </trkpt>
      <trkpt lat="48.21438" lon="-3.08243">
        <ele>146.6</ele>
        <time>2022-02-28T21:32:19.161Z</time>
      </trkpt>
      <trkpt lat="48.21436" lon="-3.0824">
        <ele>146.5</ele>
        <time>2022-02-28T21:32:19.836Z</time>
        <extensions>
          <visugpx:TrkExtension xmlns:visugpx="https://www.visugpx.com/editgpx/">
            <visugpx:node>13</visugpx:node>
            </visugpx:TrkExtension>
        </extensions>
      </trkpt>
      <trkpt lat="48.21435" lon="-3.08238">
        <ele>146.4</ele>
        <time>2022-02-28T21:32:20.156Z</time>
      </trkpt>
      <trkpt lat="48.2143" lon="-3.08235">
        <ele>146.7</ele>
        <time>2022-02-28T21:32:28.129Z</time>
      </trkpt>
      <trkpt lat="48.21425" lon="-3.08231">
        <ele>147.1</ele>
        <time>2022-02-28T21:32:37.465Z</time>
      </trkpt>
      <trkpt lat="48.21421" lon="-3.08227">
        <ele>147.5</ele>
        <time>2022-02-28T21:32:46.221Z</time>
      </trkpt>
      <trkpt lat="48.21416" lon="-3.08222">
        <ele>148.1</ele>
        <time>2022-02-28T21:32:58.940Z</time>
      </trkpt>
      <trkpt lat="48.21412" lon="-3.08218">
        <ele>148.8</ele>
        <time>2022-02-28T21:33:14.053Z</time>
      </trkpt>
      <trkpt lat="48.21407" lon="-3.08214">
        <ele>149.5</ele>
        <time>2022-02-28T21:33:29.639Z</time>
      </trkpt>
      <trkpt lat="48.21403" lon="-3.08211">
        <ele>150.1</ele>
        <time>2022-02-28T21:33:43.698Z</time>
      </trkpt>
      <trkpt lat="48.21398" lon="-3.08207">
        <ele>150.6</ele>
        <time>2022-02-28T21:33:54.474Z</time>
      </trkpt>
      <trkpt lat="48.21393" lon="-3.08203">
        <ele>151.1</ele>
        <time>2022-02-28T21:34:05.250Z</time>
      </trkpt>
      <trkpt lat="48.21387" lon="-3.08203">
        <ele>152.3</ele>
        <time>2022-02-28T21:34:24.114Z</time>
      </trkpt>
      <trkpt lat="48.21385" lon="-3.0821">
        <ele>153.5</ele>
        <time>2022-02-28T21:34:40.071Z</time>
      </trkpt>
      <trkpt lat="48.21385" lon="-3.08217">
        <ele>153.9</ele>
        <time>2022-02-28T21:34:48.753Z</time>
      </trkpt>
      <trkpt lat="48.21383" lon="-3.08226">
        <ele>155</ele>
        <time>2022-02-28T21:35:08.629Z</time>
      </trkpt>
      <trkpt lat="48.21382" lon="-3.08235">
        <ele>155.6</ele>
        <time>2022-02-28T21:35:21.354Z</time>
      </trkpt>
      <trkpt lat="48.21382" lon="-3.08242">
        <ele>155.8</ele>
        <time>2022-02-28T21:35:27.615Z</time>
      </trkpt>
      <trkpt lat="48.21376" lon="-3.0824">
        <ele>157.5</ele>
        <time>2022-02-28T21:35:46.939Z</time>
      </trkpt>
      <trkpt lat="48.21375" lon="-3.08231">
        <ele>157.7</ele>
        <time>2022-02-28T21:35:54.032Z</time>
      </trkpt>
      <trkpt lat="48.21372" lon="-3.08225">
        <ele>158.5</ele>
        <time>2022-02-28T21:36:09.748Z</time>
      </trkpt>
      <trkpt lat="48.21368" lon="-3.0822">
        <ele>159.7</ele>
        <time>2022-02-28T21:36:26.115Z</time>
      </trkpt>
      <trkpt lat="48.21366" lon="-3.08214">
        <ele>160.3</ele>
        <time>2022-02-28T21:36:40.170Z</time>
      </trkpt>
      <trkpt lat="48.21364" lon="-3.08207">
        <ele>161</ele>
        <time>2022-02-28T21:36:56.127Z</time>
      </trkpt>
      <trkpt lat="48.21364" lon="-3.08199">
        <ele>160.9</ele>
        <time>2022-02-28T21:36:57.651Z</time>
      </trkpt>
      <trkpt lat="48.21361" lon="-3.08192">
        <ele>162</ele>
        <time>2022-02-28T21:37:15.088Z</time>
      </trkpt>
      <trkpt lat="48.2136" lon="-3.08185">
        <ele>161.6</ele>
        <time>2022-02-28T21:37:16.036Z</time>
      </trkpt>
      <trkpt lat="48.21357" lon="-3.08179">
        <ele>160.4</ele>
        <time>2022-02-28T21:37:17.030Z</time>
      </trkpt>
      <trkpt lat="48.21354" lon="-3.08171">
        <ele>159.2</ele>
        <time>2022-02-28T21:37:18.246Z</time>
      </trkpt>
      <trkpt lat="48.21353" lon="-3.08163">
        <ele>158.7</ele>
        <time>2022-02-28T21:37:19.324Z</time>
      </trkpt>
      <trkpt lat="48.21353" lon="-3.08154">
        <ele>158.3</ele>
        <time>2022-02-28T21:37:20.416Z</time>
      </trkpt>
      <trkpt lat="48.21352" lon="-3.08147">
        <ele>157.7</ele>
        <time>2022-02-28T21:37:21.364Z</time>
      </trkpt>
      <trkpt lat="48.2135" lon="-3.0814">
        <ele>156.6</ele>
        <time>2022-02-28T21:37:22.373Z</time>
      </trkpt>
      <trkpt lat="48.21346" lon="-3.08145">
        <ele>155.2</ele>
        <time>2022-02-28T21:37:23.408Z</time>
      </trkpt>
      <trkpt lat="48.21342" lon="-3.0815">
        <ele>153.8</ele>
        <time>2022-02-28T21:37:24.443Z</time>
      </trkpt>
      <trkpt lat="48.21339" lon="-3.08145">
        <ele>152.5</ele>
        <time>2022-02-28T21:37:25.334Z</time>
      </trkpt>
      <trkpt lat="48.21334" lon="-3.08144">
        <ele>150.4</ele>
        <time>2022-02-28T21:37:26.337Z</time>
      </trkpt>
      <trkpt lat="48.21331" lon="-3.08137">
        <ele>149.3</ele>
        <time>2022-02-28T21:37:27.439Z</time>
      </trkpt>
      <trkpt lat="48.2133" lon="-3.0813">
        <ele>149</ele>
        <time>2022-02-28T21:37:28.333Z</time>
      </trkpt>
      <trkpt lat="48.2133" lon="-3.08123">
        <ele>148.9</ele>
        <time>2022-02-28T21:37:29.626Z</time>
      </trkpt>
      <trkpt lat="48.21329" lon="-3.08116">
        <ele>148.5</ele>
        <time>2022-02-28T21:37:30.574Z</time>
      </trkpt>
      <trkpt lat="48.21328" lon="-3.08108">
        <ele>148</ele>
        <time>2022-02-28T21:37:31.652Z</time>
      </trkpt>
      <trkpt lat="48.21327" lon="-3.08101">
        <ele>147.6</ele>
        <time>2022-02-28T21:37:32.601Z</time>
      </trkpt>
      <trkpt lat="48.21328" lon="-3.08093">
        <ele>147.8</ele>
        <time>2022-02-28T21:37:39.277Z</time>
      </trkpt>
      <trkpt lat="48.21328" lon="-3.08086">
        <ele>147.7</ele>
        <time>2022-02-28T21:37:40.569Z</time>
      </trkpt>
      <trkpt lat="48.21325" lon="-3.0808">
        <ele>146.3</ele>
        <time>2022-02-28T21:37:41.563Z</time>
      </trkpt>
      <trkpt lat="48.21324" lon="-3.08072">
        <ele>145.6</ele>
        <time>2022-02-28T21:37:42.641Z</time>
      </trkpt>
      <trkpt lat="48.21323" lon="-3.08064">
        <ele>144.8</ele>
        <time>2022-02-28T21:37:43.719Z</time>
      </trkpt>
      <trkpt lat="48.21322" lon="-3.08058">
        <ele>144</ele>
        <time>2022-02-28T21:37:44.538Z</time>
      </trkpt>
      <trkpt lat="48.2132" lon="-3.08051">
        <ele>143</ele>
        <time>2022-02-28T21:37:45.547Z</time>
      </trkpt>
      <trkpt lat="48.21319" lon="-3.08043">
        <ele>142.7</ele>
        <time>2022-02-28T21:37:46.628Z</time>
      </trkpt>
      <trkpt lat="48.21318" lon="-3.08036">
        <ele>142.3</ele>
        <time>2022-02-28T21:37:47.576Z</time>
      </trkpt>
      <trkpt lat="48.21317" lon="-3.08028">
        <ele>141.8</ele>
        <time>2022-02-28T21:37:48.655Z</time>
      </trkpt>
      <trkpt lat="48.21314" lon="-3.08022">
        <ele>139.4</ele>
        <time>2022-02-28T21:37:49.648Z</time>
      </trkpt>
      <trkpt lat="48.21313" lon="-3.08014">
        <ele>138.1</ele>
        <time>2022-02-28T21:37:50.726Z</time>
      </trkpt>
      <trkpt lat="48.2131" lon="-3.08009">
        <ele>135.7</ele>
        <time>2022-02-28T21:37:51.618Z</time>
      </trkpt>
      <trkpt lat="48.21307" lon="-3.08003">
        <ele>133.2</ele>
        <time>2022-02-28T21:37:52.611Z</time>
      </trkpt>
      <trkpt lat="48.21305" lon="-3.07996">
        <ele>131</ele>
        <time>2022-02-28T21:37:53.620Z</time>
      </trkpt>
      <trkpt lat="48.21303" lon="-3.07989">
        <ele>129</ele>
        <time>2022-02-28T21:37:54.629Z</time>
      </trkpt>
      <trkpt lat="48.213" lon="-3.0799">
        <ele>128.5</ele>
        <time>2022-02-28T21:37:55.240Z</time>
        <extensions>
          <visugpx:TrkExtension xmlns:visugpx="https://www.visugpx.com/editgpx/">
            <visugpx:node>14</visugpx:node>
            </visugpx:TrkExtension>
        </extensions>
      </trkpt>
      <trkpt lat="48.21298" lon="-3.0799">
        <ele>128.1</ele>
        <time>2022-02-28T21:37:55.637Z</time>
      </trkpt>
      <trkpt lat="48.21296" lon="-3.07996">
        <ele>128.6</ele>
        <time>2022-02-28T21:38:06.350Z</time>
      </trkpt>
      <trkpt lat="48.2129" lon="-3.07998">
        <ele>127.2</ele>
        <time>2022-02-28T21:38:07.572Z</time>
      </trkpt>
      <trkpt lat="48.21285" lon="-3.08002">
        <ele>126.3</ele>
        <time>2022-02-28T21:38:08.698Z</time>
      </trkpt>
      <trkpt lat="48.21281" lon="-3.08008">
        <ele>125.8</ele>
        <time>2022-02-28T21:38:09.822Z</time>
      </trkpt>
      <trkpt lat="48.21277" lon="-3.08015">
        <ele>125.5</ele>
        <time>2022-02-28T21:38:11.116Z</time>
      </trkpt>
      <trkpt lat="48.21273" lon="-3.0802">
        <ele>125.4</ele>
        <time>2022-02-28T21:38:12.597Z</time>
      </trkpt>
      <trkpt lat="48.21268" lon="-3.08026">
        <ele>125.1</ele>
        <time>2022-02-28T21:38:13.969Z</time>
      </trkpt>
      <trkpt lat="48.21265" lon="-3.0803">
        <ele>124.8</ele>
        <time>2022-02-28T21:38:14.767Z</time>
      </trkpt>
      <trkpt lat="48.21262" lon="-3.08037">
        <ele>124.6</ele>
        <time>2022-02-28T21:38:16.082Z</time>
      </trkpt>
      <trkpt lat="48.2126" lon="-3.08044">
        <ele>124.6</ele>
        <time>2022-02-28T21:38:20.219Z</time>
      </trkpt>
      <trkpt lat="48.21258" lon="-3.08052">
        <ele>124.6</ele>
        <time>2022-02-28T21:38:24.860Z</time>
      </trkpt>
      <trkpt lat="48.21257" lon="-3.08059">
        <ele>124.9</ele>
        <time>2022-02-28T21:38:32.286Z</time>
      </trkpt>
      <trkpt lat="48.21256" lon="-3.08065">
        <ele>125.2</ele>
        <time>2022-02-28T21:38:39.191Z</time>
      </trkpt>
      <trkpt lat="48.21253" lon="-3.08074">
        <ele>125.6</ele>
        <time>2022-02-28T21:38:49.394Z</time>
      </trkpt>
      <trkpt lat="48.21252" lon="-3.08081">
        <ele>126.1</ele>
        <time>2022-02-28T21:39:00.004Z</time>
      </trkpt>
      <trkpt lat="48.2125" lon="-3.0809">
        <ele>126.5</ele>
        <time>2022-02-28T21:39:09.872Z</time>
      </trkpt>
      <trkpt lat="48.21248" lon="-3.08098">
        <ele>126.7</ele>
        <time>2022-02-28T21:39:16.715Z</time>
      </trkpt>
      <trkpt lat="48.21246" lon="-3.08105">
        <ele>126.8</ele>
        <time>2022-02-28T21:39:21.763Z</time>
      </trkpt>
      <trkpt lat="48.21243" lon="-3.08112">
        <ele>126.5</ele>
        <time>2022-02-28T21:39:22.880Z</time>
      </trkpt>
      <trkpt lat="48.21242" lon="-3.0812">
        <ele>126.7</ele>
        <time>2022-02-28T21:39:29.556Z</time>
      </trkpt>
      <trkpt lat="48.21242" lon="-3.08128">
        <ele>127.1</ele>
        <time>2022-02-28T21:39:38.645Z</time>
      </trkpt>
      <trkpt lat="48.21241" lon="-3.08134">
        <ele>127.2</ele>
        <time>2022-02-28T21:39:42.964Z</time>
      </trkpt>
      <trkpt lat="48.21239" lon="-3.08141">
        <ele>127</ele>
        <time>2022-02-28T21:39:44.129Z</time>
      </trkpt>
      <trkpt lat="48.21237" lon="-3.0815">
        <ele>126.9</ele>
        <time>2022-02-28T21:39:46.002Z</time>
      </trkpt>
      <trkpt lat="48.21233" lon="-3.08155">
        <ele>125.9</ele>
        <time>2022-02-28T21:39:47.037Z</time>
      </trkpt>
      <trkpt lat="48.21229" lon="-3.08162">
        <ele>125</ele>
        <time>2022-02-28T21:39:48.258Z</time>
      </trkpt>
      <trkpt lat="48.21231" lon="-3.08171">
        <ele>126.3</ele>
        <time>2022-02-28T21:40:08.135Z</time>
      </trkpt>
      <trkpt lat="48.21231" lon="-3.0818">
        <ele>127.3</ele>
        <time>2022-02-28T21:40:26.991Z</time>
      </trkpt>
      <trkpt lat="48.21227" lon="-3.08186">
        <ele>126.6</ele>
        <time>2022-02-28T21:40:28.115Z</time>
      </trkpt>
      <trkpt lat="48.21225" lon="-3.08193">
        <ele>126.7</ele>
        <time>2022-02-28T21:40:33.163Z</time>
      </trkpt>
      <trkpt lat="48.21222" lon="-3.08201">
        <ele>126.2</ele>
        <time>2022-02-28T21:40:34.379Z</time>
      </trkpt>
      <trkpt lat="48.21221" lon="-3.08208">
        <ele>126.3</ele>
        <time>2022-02-28T21:40:39.192Z</time>
      </trkpt>
      <trkpt lat="48.21218" lon="-3.08216">
        <ele>126.1</ele>
        <time>2022-02-28T21:40:40.692Z</time>
      </trkpt>
      <trkpt lat="48.21216" lon="-3.08223">
        <ele>125.9</ele>
        <time>2022-02-28T21:40:41.857Z</time>
      </trkpt>
      <trkpt lat="48.21215" lon="-3.0823">
        <ele>126.1</ele>
        <time>2022-02-28T21:40:48.170Z</time>
      </trkpt>
      <trkpt lat="48.21212" lon="-3.08235">
        <ele>125.7</ele>
        <time>2022-02-28T21:40:49.061Z</time>
      </trkpt>
      <trkpt lat="48.21209" lon="-3.0824">
        <ele>125.3</ele>
        <time>2022-02-28T21:40:49.953Z</time>
      </trkpt>
      <trkpt lat="48.21205" lon="-3.08247">
        <ele>124.6</ele>
        <time>2022-02-28T21:40:51.174Z</time>
      </trkpt>
      <trkpt lat="48.21202" lon="-3.08253">
        <ele>124.5</ele>
        <time>2022-02-28T21:40:52.582Z</time>
      </trkpt>
      <trkpt lat="48.21198" lon="-3.08259">
        <ele>125</ele>
        <time>2022-02-28T21:41:03.354Z</time>
      </trkpt>
      <trkpt lat="48.21195" lon="-3.08264">
        <ele>125.6</ele>
        <time>2022-02-28T21:41:17.450Z</time>
      </trkpt>
      <trkpt lat="48.21191" lon="-3.0827">
        <ele>126.6</ele>
        <time>2022-02-28T21:41:35.232Z</time>
      </trkpt>
      <trkpt lat="48.21187" lon="-3.08276">
        <ele>127.3</ele>
        <time>2022-02-28T21:41:50.834Z</time>
      </trkpt>
      <trkpt lat="48.21182" lon="-3.0828">
        <ele>127.1</ele>
        <time>2022-02-28T21:41:52.188Z</time>
      </trkpt>
      <trkpt lat="48.21178" lon="-3.08285">
        <ele>127.2</ele>
        <time>2022-02-28T21:41:57.337Z</time>
      </trkpt>
      <trkpt lat="48.21172" lon="-3.08286">
        <ele>126.2</ele>
        <time>2022-02-28T21:41:58.537Z</time>
      </trkpt>
      <trkpt lat="48.21162" lon="-3.08284">
        <ele>124.8</ele>
        <time>2022-02-28T21:42:00.543Z</time>
      </trkpt>
      <trkpt lat="48.21154" lon="-3.08285">
        <ele>124.8</ele>
        <time>2022-02-28T21:42:07.086Z</time>
      </trkpt>
      <trkpt lat="48.21142" lon="-3.08292">
        <ele>125.1</ele>
        <time>2022-02-28T21:42:20.428Z</time>
      </trkpt>
      <trkpt lat="48.21136" lon="-3.08298">
        <ele>125.1</ele>
        <time>2022-02-28T21:42:26.306Z</time>
      </trkpt>
      <trkpt lat="48.21132" lon="-3.08314">
        <ele>126.2</ele>
        <time>2022-02-28T21:42:49.669Z</time>
      </trkpt>
      <trkpt lat="48.21127" lon="-3.08345">
        <ele>129.1</ele>
        <time>2022-02-28T21:43:56.494Z</time>
      </trkpt>
      <trkpt lat="48.2112" lon="-3.08416">
        <ele>133.8</ele>
        <time>2022-02-28T21:45:36.194Z</time>
      </trkpt>
      <trkpt lat="48.2112" lon="-3.08432">
        <ele>136.3</ele>
        <time>2022-02-28T21:46:09.717Z</time>
      </trkpt>
      <trkpt lat="48.21123" lon="-3.08446">
        <ele>138.8</ele>
        <time>2022-02-28T21:46:40.528Z</time>
      </trkpt>
      <trkpt lat="48.21137" lon="-3.08485">
        <ele>142.7</ele>
        <time>2022-02-28T21:48:11.602Z</time>
      </trkpt>
      <trkpt lat="48.21139" lon="-3.08479">
        <ele>143.3</ele>
        <time>2022-02-28T21:48:25.658Z</time>
        <extensions>
          <visugpx:TrkExtension xmlns:visugpx="https://www.visugpx.com/editgpx/">
            <visugpx:node>15</visugpx:node>
            </visugpx:TrkExtension>
        </extensions>
      </trkpt>
      <trkpt lat="48.21137" lon="-3.08485">
        <ele>142.7</ele>
        <time>2022-02-28T21:48:26.547Z</time>
      </trkpt>
      <trkpt lat="48.21133" lon="-3.08497">
        <ele>141.5</ele>
        <time>2022-02-28T21:48:28.324Z</time>
      </trkpt>
      <trkpt lat="48.2113" lon="-3.08515">
        <ele>139.9</ele>
        <time>2022-02-28T21:48:30.782Z</time>
      </trkpt>
      <trkpt lat="48.21131" lon="-3.08531">
        <ele>139.8</ele>
        <time>2022-02-28T21:48:34.231Z</time>
      </trkpt>
      <trkpt lat="48.21132" lon="-3.0855">
        <ele>139.7</ele>
        <time>2022-02-28T21:48:38.403Z</time>
      </trkpt>
      <trkpt lat="48.21136" lon="-3.08582">
        <ele>139.7</ele>
        <time>2022-02-28T21:48:56.088Z</time>
      </trkpt>
      <trkpt lat="48.21147" lon="-3.08668">
        <ele>143.4</ele>
        <time>2022-02-28T21:50:27.269Z</time>
      </trkpt>
      <trkpt lat="48.21152" lon="-3.08721">
        <ele>143.3</ele>
        <time>2022-02-28T21:50:55.147Z</time>
      </trkpt>
      <trkpt lat="48.21151" lon="-3.08724">
        <ele>142.6</ele>
        <time>2022-02-28T21:50:55.592Z</time>
      </trkpt>
      <trkpt lat="48.21152" lon="-3.08731">
        <ele>142</ele>
        <time>2022-02-28T21:50:56.540Z</time>
      </trkpt>
      <trkpt lat="48.21152" lon="-3.08738">
        <ele>141</ele>
        <time>2022-02-28T21:50:57.467Z</time>
      </trkpt>
      <trkpt lat="48.21152" lon="-3.08745">
        <ele>140</ele>
        <time>2022-02-28T21:50:58.395Z</time>
      </trkpt>
      <trkpt lat="48.21153" lon="-3.08752">
        <ele>139.1</ele>
        <time>2022-02-28T21:50:59.343Z</time>
      </trkpt>
      <trkpt lat="48.21153" lon="-3.08759">
        <ele>137.5</ele>
        <time>2022-02-28T21:51:00.270Z</time>
      </trkpt>
      <trkpt lat="48.21155" lon="-3.08767">
        <ele>136.2</ele>
        <time>2022-02-28T21:51:01.402Z</time>
      </trkpt>
      <trkpt lat="48.21154" lon="-3.08774">
        <ele>134.3</ele>
        <time>2022-02-28T21:51:02.350Z</time>
      </trkpt>
      <trkpt lat="48.21156" lon="-3.08781">
        <ele>133.4</ele>
        <time>2022-02-28T21:51:03.359Z</time>
      </trkpt>
      <trkpt lat="48.21158" lon="-3.08788">
        <ele>132.3</ele>
        <time>2022-02-28T21:51:04.368Z</time>
      </trkpt>
      <trkpt lat="48.2116" lon="-3.08796">
        <ele>130.6</ele>
        <time>2022-02-28T21:51:05.500Z</time>
      </trkpt>
      <trkpt lat="48.21162" lon="-3.08805">
        <ele>128.5</ele>
        <time>2022-02-28T21:51:06.757Z</time>
      </trkpt>
      <trkpt lat="48.21163" lon="-3.08811">
        <ele>128.2</ele>
        <time>2022-02-28T21:51:07.576Z</time>
      </trkpt>
      <trkpt lat="48.21163" lon="-3.08818">
        <ele>127.8</ele>
        <time>2022-02-28T21:51:08.503Z</time>
      </trkpt>
      <trkpt lat="48.2116" lon="-3.08823">
        <ele>127.2</ele>
        <time>2022-02-28T21:51:09.394Z</time>
      </trkpt>
      <trkpt lat="48.21158" lon="-3.08825">
        <ele>127</ele>
        <time>2022-02-28T21:51:09.872Z</time>
      </trkpt>
      <trkpt lat="48.21151" lon="-3.08829">
        <ele>126.5</ele>
        <time>2022-02-28T21:51:11.361Z</time>
      </trkpt>
      <trkpt lat="48.21148" lon="-3.08831">
        <ele>126.3</ele>
        <time>2022-02-28T21:51:11.986Z</time>
      </trkpt>
      <trkpt lat="48.21143" lon="-3.08832">
        <ele>126.1</ele>
        <time>2022-02-28T21:51:13.141Z</time>
      </trkpt>
      <trkpt lat="48.21137" lon="-3.08834">
        <ele>126.3</ele>
        <time>2022-02-28T21:51:20.279Z</time>
      </trkpt>
      <trkpt lat="48.21132" lon="-3.08833">
        <ele>126.7</ele>
        <time>2022-02-28T21:51:29.176Z</time>
      </trkpt>
      <trkpt lat="48.21125" lon="-3.08827">
        <ele>126.9</ele>
        <time>2022-02-28T21:51:37.680Z</time>
      </trkpt>
      <trkpt lat="48.21122" lon="-3.08823">
        <ele>126.8</ele>
        <time>2022-02-28T21:51:38.749Z</time>
      </trkpt>
      <trkpt lat="48.21117" lon="-3.08819">
        <ele>126.6</ele>
        <time>2022-02-28T21:51:40.102Z</time>
      </trkpt>
      <trkpt lat="48.21114" lon="-3.08816">
        <ele>126.4</ele>
        <time>2022-02-28T21:51:40.820Z</time>
      </trkpt>
      <trkpt lat="48.2111" lon="-3.08812">
        <ele>126</ele>
        <time>2022-02-28T21:51:41.775Z</time>
      </trkpt>
      <trkpt lat="48.21105" lon="-3.08808">
        <ele>125.8</ele>
        <time>2022-02-28T21:51:43.129Z</time>
      </trkpt>
      <trkpt lat="48.21102" lon="-3.088">
        <ele>125.1</ele>
        <time>2022-02-28T21:51:44.345Z</time>
      </trkpt>
      <trkpt lat="48.21097" lon="-3.08797">
        <ele>125.1</ele>
        <time>2022-02-28T21:51:48.734Z</time>
      </trkpt>
      <trkpt lat="48.21091" lon="-3.08794">
        <ele>125</ele>
        <time>2022-02-28T21:51:50.608Z</time>
      </trkpt>
      <trkpt lat="48.21085" lon="-3.0879">
        <ele>124.7</ele>
        <time>2022-02-28T21:51:52.030Z</time>
      </trkpt>
      <trkpt lat="48.2108" lon="-3.08787">
        <ele>124.7</ele>
        <time>2022-02-28T21:51:56.419Z</time>
      </trkpt>
      <trkpt lat="48.21075" lon="-3.08787">
        <ele>125.2</ele>
        <time>2022-02-28T21:52:07.018Z</time>
      </trkpt>
      <trkpt lat="48.21071" lon="-3.08787">
        <ele>125.7</ele>
        <time>2022-02-28T21:52:18.228Z</time>
      </trkpt>
      <trkpt lat="48.21066" lon="-3.08786">
        <ele>126</ele>
        <time>2022-02-28T21:52:25.893Z</time>
      </trkpt>
      <trkpt lat="48.2106" lon="-3.08785">
        <ele>126.4</ele>
        <time>2022-02-28T21:52:35.523Z</time>
      </trkpt>
      <trkpt lat="48.21056" lon="-3.08782">
        <ele>126</ele>
        <time>2022-02-28T21:52:36.412Z</time>
      </trkpt>
      <trkpt lat="48.21051" lon="-3.08781">
        <ele>126.8</ele>
        <time>2022-02-28T21:52:52.271Z</time>
      </trkpt>
      <trkpt lat="48.21047" lon="-3.08776">
        <ele>126.6</ele>
        <time>2022-02-28T21:52:53.477Z</time>
      </trkpt>
      <trkpt lat="48.21044" lon="-3.08769">
        <ele>126.3</ele>
        <time>2022-02-28T21:52:54.594Z</time>
      </trkpt>
      <trkpt lat="48.21042" lon="-3.08762">
        <ele>125.7</ele>
        <time>2022-02-28T21:52:55.603Z</time>
      </trkpt>
      <trkpt lat="48.21037" lon="-3.08759">
        <ele>126.1</ele>
        <time>2022-02-28T21:53:04.730Z</time>
      </trkpt>
      <trkpt lat="48.21032" lon="-3.08754">
        <ele>126.1</ele>
        <time>2022-02-28T21:53:09.628Z</time>
      </trkpt>
      <trkpt lat="48.21028" lon="-3.08748">
        <ele>125.7</ele>
        <time>2022-02-28T21:53:10.752Z</time>
      </trkpt>
      <trkpt lat="48.21025" lon="-3.08742">
        <ele>125.5</ele>
        <time>2022-02-28T21:53:11.893Z</time>
      </trkpt>
      <trkpt lat="48.21022" lon="-3.08735">
        <ele>125.3</ele>
        <time>2022-02-28T21:53:13.208Z</time>
      </trkpt>
      <trkpt lat="48.21018" lon="-3.0873">
        <ele>125.6</ele>
        <time>2022-02-28T21:53:21.018Z</time>
      </trkpt>
      <trkpt lat="48.21012" lon="-3.08729">
        <ele>127</ele>
        <time>2022-02-28T21:53:39.998Z</time>
      </trkpt>
      <trkpt lat="48.2101" lon="-3.08734">
        <ele>128.2</ele>
        <time>2022-02-28T21:53:52.216Z</time>
      </trkpt>
      <trkpt lat="48.21006" lon="-3.08738">
        <ele>129.8</ele>
        <time>2022-02-28T21:54:07.329Z</time>
      </trkpt>
      <trkpt lat="48.21003" lon="-3.08738">
        <ele>130.5</ele>
        <time>2022-02-28T21:54:16.761Z</time>
        <extensions>
          <visugpx:TrkExtension xmlns:visugpx="https://www.visugpx.com/editgpx/">
            <visugpx:node>16</visugpx:node>
            </visugpx:TrkExtension>
        </extensions>
      </trkpt>
      <trkpt lat="48.21001" lon="-3.08738">
        <ele>131</ele>
        <time>2022-02-28T21:54:23.049Z</time>
      </trkpt>
      <trkpt lat="48.20996" lon="-3.08741">
        <ele>132.4</ele>
        <time>2022-02-28T21:54:39.980Z</time>
      </trkpt>
      <trkpt lat="48.20991" lon="-3.08741">
        <ele>133.3</ele>
        <time>2022-02-28T21:54:55.700Z</time>
      </trkpt>
      <trkpt lat="48.20986" lon="-3.08745">
        <ele>134.8</ele>
        <time>2022-02-28T21:55:13.515Z</time>
      </trkpt>
      <trkpt lat="48.20986" lon="-3.08752">
        <ele>135.7</ele>
        <time>2022-02-28T21:55:28.181Z</time>
      </trkpt>
      <trkpt lat="48.20986" lon="-3.08759">
        <ele>136.5</ele>
        <time>2022-02-28T21:55:42.847Z</time>
      </trkpt>
      <trkpt lat="48.20987" lon="-3.08767">
        <ele>137.2</ele>
        <time>2022-02-28T21:55:58.885Z</time>
      </trkpt>
      <trkpt lat="48.20983" lon="-3.08771">
        <ele>138.3</ele>
        <time>2022-02-28T21:56:13.998Z</time>
      </trkpt>
      <trkpt lat="48.20978" lon="-3.08769">
        <ele>139</ele>
        <time>2022-02-28T21:56:30.267Z</time>
      </trkpt>
      <trkpt lat="48.20973" lon="-3.08773">
        <ele>140.3</ele>
        <time>2022-02-28T21:56:48.082Z</time>
      </trkpt>
      <trkpt lat="48.20969" lon="-3.08772">
        <ele>140.9</ele>
        <time>2022-02-28T21:57:00.831Z</time>
      </trkpt>
      <trkpt lat="48.20963" lon="-3.08773">
        <ele>141.9</ele>
        <time>2022-02-28T21:57:19.812Z</time>
      </trkpt>
      <trkpt lat="48.2096" lon="-3.08778">
        <ele>142.8</ele>
        <time>2022-02-28T21:57:33.908Z</time>
      </trkpt>
      <trkpt lat="48.20956" lon="-3.08783">
        <ele>144</ele>
        <time>2022-02-28T21:57:50.276Z</time>
      </trkpt>
      <trkpt lat="48.20954" lon="-3.08789">
        <ele>145.1</ele>
        <time>2022-02-28T21:58:04.332Z</time>
      </trkpt>
      <trkpt lat="48.20951" lon="-3.08795">
        <ele>146.4</ele>
        <time>2022-02-28T21:58:20.049Z</time>
      </trkpt>
      <trkpt lat="48.20948" lon="-3.08802">
        <ele>147.9</ele>
        <time>2022-02-28T21:58:37.486Z</time>
      </trkpt>
      <trkpt lat="48.20945" lon="-3.0881">
        <ele>149.4</ele>
        <time>2022-02-28T21:58:56.720Z</time>
      </trkpt>
      <trkpt lat="48.20941" lon="-3.08813">
        <ele>150.3</ele>
        <time>2022-02-28T21:59:10.779Z</time>
      </trkpt>
      <trkpt lat="48.20936" lon="-3.08815">
        <ele>151.2</ele>
        <time>2022-02-28T21:59:27.048Z</time>
      </trkpt>
      <trkpt lat="48.20929" lon="-3.08816">
        <ele>152.4</ele>
        <time>2022-02-28T21:59:49.156Z</time>
      </trkpt>
      <trkpt lat="48.20925" lon="-3.08814">
        <ele>152.7</ele>
        <time>2022-02-28T21:59:56.132Z</time>
      </trkpt>
      <trkpt lat="48.20923" lon="-3.08808">
        <ele>152.4</ele>
        <time>2022-02-28T21:59:57.021Z</time>
      </trkpt>
      <trkpt lat="48.20918" lon="-3.08805">
        <ele>152.8</ele>
        <time>2022-02-28T22:00:06.148Z</time>
      </trkpt>
      <trkpt lat="48.20912" lon="-3.08805">
        <ele>154.5</ele>
        <time>2022-02-28T22:00:25.012Z</time>
      </trkpt>
      <trkpt lat="48.20909" lon="-3.08801">
        <ele>155.1</ele>
        <time>2022-02-28T22:00:37.630Z</time>
      </trkpt>
      <trkpt lat="48.20907" lon="-3.08794">
        <ele>155.2</ele>
        <time>2022-02-28T22:00:42.678Z</time>
      </trkpt>
      <trkpt lat="48.20903" lon="-3.0879">
        <ele>156</ele>
        <time>2022-02-28T22:00:57.791Z</time>
      </trkpt>
      <trkpt lat="48.20899" lon="-3.08787">
        <ele>157</ele>
        <time>2022-02-28T22:01:11.851Z</time>
      </trkpt>
      <trkpt lat="48.20895" lon="-3.08789">
        <ele>158.4</ele>
        <time>2022-02-28T22:01:25.107Z</time>
      </trkpt>
      <trkpt lat="48.20889" lon="-3.08785">
        <ele>159.7</ele>
        <time>2022-02-28T22:01:45.749Z</time>
      </trkpt>
      <trkpt lat="48.20886" lon="-3.08781">
        <ele>160.2</ele>
        <time>2022-02-28T22:01:56.936Z</time>
      </trkpt>
      <trkpt lat="48.20883" lon="-3.08775">
        <ele>160.6</ele>
        <time>2022-02-28T22:02:05.805Z</time>
      </trkpt>
      <trkpt lat="48.2088" lon="-3.08769">
        <ele>161.1</ele>
        <time>2022-02-28T22:02:16.404Z</time>
      </trkpt>
      <trkpt lat="48.20876" lon="-3.08765">
        <ele>162</ele>
        <time>2022-02-28T22:02:31.517Z</time>
      </trkpt>
      <trkpt lat="48.20872" lon="-3.08762">
        <ele>163</ele>
        <time>2022-02-28T22:02:45.576Z</time>
      </trkpt>
      <trkpt lat="48.20868" lon="-3.08757">
        <ele>163.7</ele>
        <time>2022-02-28T22:03:01.944Z</time>
      </trkpt>
      <trkpt lat="48.20864" lon="-3.08754">
        <ele>164.5</ele>
        <time>2022-02-28T22:03:16.004Z</time>
      </trkpt>
      <trkpt lat="48.2086" lon="-3.08752">
        <ele>165.1</ele>
        <time>2022-02-28T22:03:29.260Z</time>
      </trkpt>
      <trkpt lat="48.20855" lon="-3.08749">
        <ele>164.7</ele>
        <time>2022-02-28T22:03:30.330Z</time>
      </trkpt>
      <trkpt lat="48.20853" lon="-3.08743">
        <ele>164</ele>
        <time>2022-02-28T22:03:31.219Z</time>
      </trkpt>
      <trkpt lat="48.20849" lon="-3.0874">
        <ele>163.3</ele>
        <time>2022-02-28T22:03:32.108Z</time>
        <extensions>
          <visugpx:TrkExtension xmlns:visugpx="https://www.visugpx.com/editgpx/">
            <visugpx:node>17</visugpx:node>
            </visugpx:TrkExtension>
        </extensions>
      </trkpt>
      <trkpt lat="48.20849" lon="-3.08739">
        <ele>163.1</ele>
        <time>2022-02-28T22:03:32.240Z</time>
      </trkpt>
      <trkpt lat="48.20844" lon="-3.08736">
        <ele>162</ele>
        <time>2022-02-28T22:03:33.311Z</time>
      </trkpt>
      <trkpt lat="48.20839" lon="-3.08733">
        <ele>160.7</ele>
        <time>2022-02-28T22:03:34.381Z</time>
      </trkpt>
      <trkpt lat="48.20835" lon="-3.0873">
        <ele>159.3</ele>
        <time>2022-02-28T22:03:35.270Z</time>
      </trkpt>
      <trkpt lat="48.20831" lon="-3.08728">
        <ele>157.6</ele>
        <time>2022-02-28T22:03:36.108Z</time>
      </trkpt>
      <trkpt lat="48.20826" lon="-3.08727">
        <ele>155.4</ele>
        <time>2022-02-28T22:03:37.111Z</time>
      </trkpt>
      <trkpt lat="48.20822" lon="-3.08723">
        <ele>152.7</ele>
        <time>2022-02-28T22:03:38.067Z</time>
      </trkpt>
      <trkpt lat="48.20819" lon="-3.08721">
        <ele>151.1</ele>
        <time>2022-02-28T22:03:38.719Z</time>
      </trkpt>
      <trkpt lat="48.20812" lon="-3.0872">
        <ele>148.1</ele>
        <time>2022-02-28T22:03:40.117Z</time>
      </trkpt>
      <trkpt lat="48.20809" lon="-3.0873">
        <ele>150.1</ele>
        <time>2022-02-28T22:04:03.095Z</time>
      </trkpt>
      <trkpt lat="48.20808" lon="-3.08736">
        <ele>151.8</ele>
        <time>2022-02-28T22:04:16.054Z</time>
      </trkpt>
      <trkpt lat="48.20806" lon="-3.08742">
        <ele>153.3</ele>
        <time>2022-02-28T22:04:30.110Z</time>
      </trkpt>
      <trkpt lat="48.20804" lon="-3.08751">
        <ele>155.8</ele>
        <time>2022-02-28T22:04:49.988Z</time>
      </trkpt>
      <trkpt lat="48.20803" lon="-3.08759">
        <ele>158.5</ele>
        <time>2022-02-28T22:05:07.043Z</time>
      </trkpt>
      <trkpt lat="48.20802" lon="-3.08766">
        <ele>160.9</ele>
        <time>2022-02-28T22:05:22.043Z</time>
      </trkpt>
      <trkpt lat="48.20801" lon="-3.08774">
        <ele>163.6</ele>
        <time>2022-02-28T22:05:39.098Z</time>
      </trkpt>
      <trkpt lat="48.208" lon="-3.08781">
        <ele>165.8</ele>
        <time>2022-02-28T22:05:54.098Z</time>
      </trkpt>
      <trkpt lat="48.20797" lon="-3.08789">
        <ele>167.5</ele>
        <time>2022-02-28T22:06:13.331Z</time>
      </trkpt>
      <trkpt lat="48.20793" lon="-3.08793">
        <ele>167.1</ele>
        <time>2022-02-28T22:06:14.287Z</time>
      </trkpt>
      <trkpt lat="48.20789" lon="-3.08791">
        <ele>164.5</ele>
        <time>2022-02-28T22:06:15.125Z</time>
      </trkpt>
      <trkpt lat="48.20784" lon="-3.0879">
        <ele>161.8</ele>
        <time>2022-02-28T22:06:16.128Z</time>
      </trkpt>
      <trkpt lat="48.20779" lon="-3.08789">
        <ele>159.2</ele>
        <time>2022-02-28T22:06:17.131Z</time>
      </trkpt>
      <trkpt lat="48.20782" lon="-3.08783">
        <ele>158.6</ele>
        <time>2022-02-28T22:06:18.124Z</time>
      </trkpt>
      <trkpt lat="48.20785" lon="-3.08776">
        <ele>157.5</ele>
        <time>2022-02-28T22:06:19.227Z</time>
      </trkpt>
      <trkpt lat="48.20786" lon="-3.08769">
        <ele>155.3</ele>
        <time>2022-02-28T22:06:20.175Z</time>
      </trkpt>
      <trkpt lat="48.20791" lon="-3.08765">
        <ele>155.9</ele>
        <time>2022-02-28T22:06:32.917Z</time>
      </trkpt>
      <trkpt lat="48.20787" lon="-3.0876">
        <ele>152.4</ele>
        <time>2022-02-28T22:06:33.952Z</time>
      </trkpt>
      <trkpt lat="48.20782" lon="-3.08755">
        <ele>148.5</ele>
        <time>2022-02-28T22:06:35.147Z</time>
      </trkpt>
      <trkpt lat="48.20785" lon="-3.08749">
        <ele>147.5</ele>
        <time>2022-02-28T22:06:36.140Z</time>
      </trkpt>
      <trkpt lat="48.20787" lon="-3.08743">
        <ele>146</ele>
        <time>2022-02-28T22:06:37.029Z</time>
      </trkpt>
      <trkpt lat="48.20792" lon="-3.08739">
        <ele>146.5</ele>
        <time>2022-02-28T22:06:47.805Z</time>
      </trkpt>
      <trkpt lat="48.20795" lon="-3.08734">
        <ele>145.8</ele>
        <time>2022-02-28T22:06:48.697Z</time>
      </trkpt>
      <trkpt lat="48.20797" lon="-3.08727">
        <ele>144.1</ele>
        <time>2022-02-28T22:06:49.706Z</time>
      </trkpt>
      <trkpt lat="48.20794" lon="-3.08719">
        <ele>140.2</ele>
        <time>2022-02-28T22:06:50.922Z</time>
      </trkpt>
      <trkpt lat="48.20791" lon="-3.08721">
        <ele>139.4</ele>
        <time>2022-02-28T22:06:51.574Z</time>
      </trkpt>
      <trkpt lat="48.20788" lon="-3.08712">
        <ele>135.5</ele>
        <time>2022-02-28T22:06:52.907Z</time>
      </trkpt>
      <trkpt lat="48.20791" lon="-3.08704">
        <ele>134.7</ele>
        <time>2022-02-28T22:06:54.123Z</time>
      </trkpt>
      <trkpt lat="48.20787" lon="-3.08701">
        <ele>131.9</ele>
        <time>2022-02-28T22:06:55.012Z</time>
      </trkpt>
      <trkpt lat="48.20782" lon="-3.08704">
        <ele>130.2</ele>
        <time>2022-02-28T22:06:56.083Z</time>
      </trkpt>
      <trkpt lat="48.20777" lon="-3.08705">
        <ele>128.4</ele>
        <time>2022-02-28T22:06:57.085Z</time>
      </trkpt>
      <trkpt lat="48.20772" lon="-3.08695">
        <ele>125.2</ele>
        <time>2022-02-28T22:06:58.742Z</time>
      </trkpt>
      <trkpt lat="48.20767" lon="-3.08694">
        <ele>125</ele>
        <time>2022-02-28T22:06:59.897Z</time>
      </trkpt>
      <trkpt lat="48.20763" lon="-3.08693">
        <ele>124.8</ele>
        <time>2022-02-28T22:07:00.747Z</time>
      </trkpt>
      <trkpt lat="48.20757" lon="-3.08693">
        <ele>124.8</ele>
        <time>2022-02-28T22:07:05.638Z</time>
      </trkpt>
      <trkpt lat="48.20752" lon="-3.08694">
        <ele>125</ele>
        <time>2022-02-28T22:07:12.094Z</time>
      </trkpt>
      <trkpt lat="48.20749" lon="-3.08692">
        <ele>124.7</ele>
        <time>2022-02-28T22:07:12.747Z</time>
      </trkpt>
      <trkpt lat="48.20743" lon="-3.08696">
        <ele>125.1</ele>
        <time>2022-02-28T22:07:22.826Z</time>
      </trkpt>
      <trkpt lat="48.20739" lon="-3.08693">
        <ele>124.1</ele>
        <time>2022-02-28T22:07:23.715Z</time>
      </trkpt>
      <trkpt lat="48.20734" lon="-3.08693">
        <ele>123.8</ele>
        <time>2022-02-28T22:07:24.674Z</time>
      </trkpt>
      <trkpt lat="48.2073" lon="-3.08699">
        <ele>125.3</ele>
        <time>2022-02-28T22:07:42.456Z</time>
      </trkpt>
      <trkpt lat="48.20724" lon="-3.08702">
        <ele>126.1</ele>
        <time>2022-02-28T22:08:00.528Z</time>
      </trkpt>
      <trkpt lat="48.2072" lon="-3.08704">
        <ele>126.8</ele>
        <time>2022-02-28T22:08:13.784Z</time>
      </trkpt>
      <trkpt lat="48.20715" lon="-3.08702">
        <ele>126</ele>
        <time>2022-02-28T22:08:14.812Z</time>
      </trkpt>
      <trkpt lat="48.20711" lon="-3.087">
        <ele>125.4</ele>
        <time>2022-02-28T22:08:15.651Z</time>
      </trkpt>
      <trkpt lat="48.20706" lon="-3.087">
        <ele>125.4</ele>
        <time>2022-02-28T22:08:19.726Z</time>
      </trkpt>
      <trkpt lat="48.207" lon="-3.08701">
        <ele>125.8</ele>
        <time>2022-02-28T22:08:29.356Z</time>
      </trkpt>
      <trkpt lat="48.20695" lon="-3.08698">
        <ele>125</ele>
        <time>2022-02-28T22:08:30.427Z</time>
      </trkpt>
      <trkpt lat="48.20691" lon="-3.08697">
        <ele>125.1</ele>
        <time>2022-02-28T22:08:34.697Z</time>
      </trkpt>
      <trkpt lat="48.20687" lon="-3.08696">
        <ele>125.2</ele>
        <time>2022-02-28T22:08:38.967Z</time>
      </trkpt>
      <trkpt lat="48.20682" lon="-3.08693">
        <ele>125.2</ele>
        <time>2022-02-28T22:08:43.356Z</time>
      </trkpt>
      <trkpt lat="48.20677" lon="-3.08689">
        <ele>125.1</ele>
        <time>2022-02-28T22:08:44.998Z</time>
      </trkpt>
      <trkpt lat="48.20674" lon="-3.08687">
        <ele>125.1</ele>
        <time>2022-02-28T22:08:47.674Z</time>
      </trkpt>
      <trkpt lat="48.20669" lon="-3.08687">
        <ele>125.5</ele>
        <time>2022-02-28T22:08:56.544Z</time>
      </trkpt>
      <trkpt lat="48.20664" lon="-3.08687">
        <ele>125.7</ele>
        <time>2022-02-28T22:09:02.976Z</time>
      </trkpt>
      <trkpt lat="48.20658" lon="-3.08688">
        <ele>125.8</ele>
        <time>2022-02-28T22:09:08.777Z</time>
      </trkpt>
      <trkpt lat="48.20652" lon="-3.08689">
        <ele>126</ele>
        <time>2022-02-28T22:09:15.842Z</time>
      </trkpt>
      <trkpt lat="48.20648" lon="-3.08689">
        <ele>126</ele>
        <time>2022-02-28T22:09:19.102Z</time>
      </trkpt>
      <trkpt lat="48.20642" lon="-3.08689">
        <ele>126</ele>
        <time>2022-02-28T22:09:23.993Z</time>
      </trkpt>
      <trkpt lat="48.20637" lon="-3.08691">
        <ele>126.4</ele>
        <time>2022-02-28T22:09:32.975Z</time>
      </trkpt>
      <trkpt lat="48.20632" lon="-3.08691">
        <ele>126.4</ele>
        <time>2022-02-28T22:09:37.050Z</time>
      </trkpt>
      <trkpt lat="48.20624" lon="-3.08692">
        <ele>126.6</ele>
        <time>2022-02-28T22:09:45.529Z</time>
      </trkpt>
      <trkpt lat="48.2062" lon="-3.08693">
        <ele>126.7</ele>
        <time>2022-02-28T22:09:49.799Z</time>
      </trkpt>
      <trkpt lat="48.20614" lon="-3.08692">
        <ele>126.6</ele>
        <time>2022-02-28T22:09:51.571Z</time>
      </trkpt>
      <trkpt lat="48.20609" lon="-3.0869">
        <ele>126.2</ele>
        <time>2022-02-28T22:09:52.600Z</time>
      </trkpt>
      <trkpt lat="48.20605" lon="-3.08691">
        <ele>126.4</ele>
        <time>2022-02-28T22:09:58.354Z</time>
      </trkpt>
      <trkpt lat="48.20599" lon="-3.08692">
        <ele>126.6</ele>
        <time>2022-02-28T22:10:05.419Z</time>
      </trkpt>
      <trkpt lat="48.20597" lon="-3.08696">
        <ele>127.4</ele>
        <time>2022-02-28T22:10:15.897Z</time>
      </trkpt>
      <trkpt lat="48.2059" lon="-3.08695">
        <ele>127.2</ele>
        <time>2022-02-28T22:10:17.699Z</time>
      </trkpt>
      <trkpt lat="48.20586" lon="-3.08693">
        <ele>126.7</ele>
        <time>2022-02-28T22:10:18.538Z</time>
      </trkpt>
      <trkpt lat="48.2058" lon="-3.08687">
        <ele>125.6</ele>
        <time>2022-02-28T22:10:19.971Z</time>
      </trkpt>
      <trkpt lat="48.20576" lon="-3.08687">
        <ele>125.5</ele>
        <time>2022-02-28T22:10:21.035Z</time>
      </trkpt>
      <trkpt lat="48.2057" lon="-3.08686">
        <ele>125.1</ele>
        <time>2022-02-28T22:10:22.138Z</time>
      </trkpt>
      <trkpt lat="48.20561" lon="-3.08689">
        <ele>125.4</ele>
        <time>2022-02-28T22:10:32.844Z</time>
      </trkpt>
      <trkpt lat="48.20555" lon="-3.08687">
        <ele>124.9</ele>
        <time>2022-02-28T22:10:34.066Z</time>
      </trkpt>
      <trkpt lat="48.20549" lon="-3.08685">
        <ele>124.9</ele>
        <time>2022-02-28T22:10:39.076Z</time>
      </trkpt>
      <trkpt lat="48.20544" lon="-3.08684">
        <ele>124.9</ele>
        <time>2022-02-28T22:10:43.188Z</time>
      </trkpt>
      <trkpt lat="48.2054" lon="-3.08684">
        <ele>125.1</ele>
        <time>2022-02-28T22:10:48.889Z</time>
      </trkpt>
      <trkpt lat="48.20535" lon="-3.08682">
        <ele>124.9</ele>
        <time>2022-02-28T22:10:50.085Z</time>
      </trkpt>
      <trkpt lat="48.2053" lon="-3.08684">
        <ele>125.4</ele>
        <time>2022-02-28T22:11:00.705Z</time>
      </trkpt>
      <trkpt lat="48.20523" lon="-3.08683">
        <ele>125.2</ele>
        <time>2022-02-28T22:11:02.507Z</time>
      </trkpt>
      <trkpt lat="48.20518" lon="-3.08684">
        <ele>125.1</ele>
        <time>2022-02-28T22:11:03.932Z</time>
      </trkpt>
      <trkpt lat="48.20514" lon="-3.08688">
        <ele>125.6</ele>
        <time>2022-02-28T22:11:14.536Z</time>
      </trkpt>
      <trkpt lat="48.2051" lon="-3.08689">
        <ele>125.6</ele>
        <time>2022-02-28T22:11:17.842Z</time>
      </trkpt>
      <trkpt lat="48.20503" lon="-3.08691">
        <ele>125.6</ele>
        <time>2022-02-28T22:11:23.650Z</time>
      </trkpt>
      <trkpt lat="48.20498" lon="-3.08689">
        <ele>125.3</ele>
        <time>2022-02-28T22:11:24.659Z</time>
      </trkpt>
      <trkpt lat="48.20492" lon="-3.08692">
        <ele>125.9</ele>
        <time>2022-02-28T22:11:37.427Z</time>
      </trkpt>
      <trkpt lat="48.20487" lon="-3.0869">
        <ele>125.8</ele>
        <time>2022-02-28T22:11:38.896Z</time>
      </trkpt>
      <trkpt lat="48.20483" lon="-3.08688">
        <ele>125.5</ele>
        <time>2022-02-28T22:11:39.734Z</time>
      </trkpt>
      <trkpt lat="48.20477" lon="-3.08686">
        <ele>125.4</ele>
        <time>2022-02-28T22:11:41.545Z</time>
      </trkpt>
      <trkpt lat="48.20472" lon="-3.08688">
        <ele>125.8</ele>
        <time>2022-02-28T22:11:50.527Z</time>
      </trkpt>
      <trkpt lat="48.20468" lon="-3.08694">
        <ele>126.3</ele>
        <time>2022-02-28T22:12:01.299Z</time>
      </trkpt>
      <trkpt lat="48.20465" lon="-3.087">
        <ele>126.6</ele>
        <time>2022-02-28T22:12:08.924Z</time>
      </trkpt>
      <trkpt lat="48.20463" lon="-3.08705">
        <ele>126.9</ele>
        <time>2022-02-28T22:12:15.665Z</time>
      </trkpt>
      <trkpt lat="48.20462" lon="-3.08712">
        <ele>127.7</ele>
        <time>2022-02-28T22:12:30.666Z</time>
      </trkpt>
      <trkpt lat="48.20462" lon="-3.0872">
        <ele>128.6</ele>
        <time>2022-02-28T22:12:47.429Z</time>
      </trkpt>
      <trkpt lat="48.2046" lon="-3.08728">
        <ele>129.1</ele>
        <time>2022-02-28T22:12:58.218Z</time>
      </trkpt>
      <trkpt lat="48.20457" lon="-3.08732">
        <ele>129</ele>
        <time>2022-02-28T22:12:59.287Z</time>
      </trkpt>
      <trkpt lat="48.20453" lon="-3.08738">
        <ele>128.6</ele>
        <time>2022-02-28T22:13:00.411Z</time>
      </trkpt>
      <trkpt lat="48.20449" lon="-3.08741">
        <ele>127.9</ele>
        <time>2022-02-28T22:13:01.300Z</time>
      </trkpt>
      <trkpt lat="48.20445" lon="-3.08746">
        <ele>127.1</ele>
        <time>2022-02-28T22:13:02.335Z</time>
      </trkpt>
      <trkpt lat="48.20444" lon="-3.08753">
        <ele>127.2</ele>
        <time>2022-02-28T22:13:07.148Z</time>
      </trkpt>
      <trkpt lat="48.20442" lon="-3.08759">
        <ele>127.4</ele>
        <time>2022-02-28T22:13:13.308Z</time>
      </trkpt>
      <trkpt lat="48.20437" lon="-3.08765">
        <ele>126.8</ele>
        <time>2022-02-28T22:13:14.581Z</time>
      </trkpt>
      <trkpt lat="48.20436" lon="-3.0877">
        <ele>127</ele>
        <time>2022-02-28T22:13:19.795Z</time>
      </trkpt>
      <trkpt lat="48.20434" lon="-3.08777">
        <ele>126.9</ele>
        <time>2022-02-28T22:13:21.231Z</time>
      </trkpt>
      <trkpt lat="48.20429" lon="-3.08784">
        <ele>126.3</ele>
        <time>2022-02-28T22:13:22.590Z</time>
      </trkpt>
      <trkpt lat="48.20425" lon="-3.08789">
        <ele>125.4</ele>
        <time>2022-02-28T22:13:23.625Z</time>
      </trkpt>
      <trkpt lat="48.20424" lon="-3.08796">
        <ele>125.6</ele>
        <time>2022-02-28T22:13:29.938Z</time>
      </trkpt>
      <trkpt lat="48.20423" lon="-3.08803">
        <ele>125.8</ele>
        <time>2022-02-28T22:13:36.251Z</time>
      </trkpt>
      <trkpt lat="48.20424" lon="-3.08809">
        <ele>127</ele>
        <time>2022-02-28T22:13:49.211Z</time>
      </trkpt>
      <trkpt lat="48.20425" lon="-3.08818">
        <ele>128.9</ele>
        <time>2022-02-28T22:14:08.330Z</time>
      </trkpt>
      <trkpt lat="48.20426" lon="-3.08825">
        <ele>130.6</ele>
        <time>2022-02-28T22:14:23.331Z</time>
      </trkpt>
      <trkpt lat="48.20421" lon="-3.0883">
        <ele>128.4</ele>
        <time>2022-02-28T22:14:24.526Z</time>
      </trkpt>
      <trkpt lat="48.20417" lon="-3.08833">
        <ele>126.2</ele>
        <time>2022-02-28T22:14:25.415Z</time>
      </trkpt>
      <trkpt lat="48.20414" lon="-3.08835">
        <ele>125.9</ele>
        <time>2022-02-28T22:14:26.067Z</time>
      </trkpt>
      <trkpt lat="48.20411" lon="-3.08844">
        <ele>126.3</ele>
        <time>2022-02-28T22:14:36.271Z</time>
      </trkpt>
      <trkpt lat="48.20408" lon="-3.08849">
        <ele>126.2</ele>
        <time>2022-02-28T22:14:37.501Z</time>
      </trkpt>
      <trkpt lat="48.20409" lon="-3.08856">
        <ele>126.9</ele>
        <time>2022-02-28T22:14:52.502Z</time>
      </trkpt>
      <trkpt lat="48.20408" lon="-3.08864">
        <ele>127.6</ele>
        <time>2022-02-28T22:15:08.539Z</time>
      </trkpt>
      <trkpt lat="48.20406" lon="-3.08871">
        <ele>128</ele>
        <time>2022-02-28T22:15:17.457Z</time>
      </trkpt>
      <trkpt lat="48.20404" lon="-3.08877">
        <ele>128.1</ele>
        <time>2022-02-28T22:15:22.040Z</time>
      </trkpt>
      <trkpt lat="48.20403" lon="-3.08885">
        <ele>128.7</ele>
        <time>2022-02-28T22:15:34.864Z</time>
      </trkpt>
      <trkpt lat="48.20402" lon="-3.08892">
        <ele>129</ele>
        <time>2022-02-28T22:15:42.291Z</time>
      </trkpt>
      <trkpt lat="48.204" lon="-3.08898">
        <ele>128.8</ele>
        <time>2022-02-28T22:15:43.268Z</time>
      </trkpt>
      <trkpt lat="48.20396" lon="-3.08905">
        <ele>127.7</ele>
        <time>2022-02-28T22:15:44.489Z</time>
      </trkpt>
      <trkpt lat="48.20393" lon="-3.08908">
        <ele>126.5</ele>
        <time>2022-02-28T22:15:45.206Z</time>
      </trkpt>
      <trkpt lat="48.20388" lon="-3.08922">
        <ele>126.1</ele>
        <time>2022-02-28T22:15:47.674Z</time>
      </trkpt>
      <trkpt lat="48.20382" lon="-3.08935">
        <ele>127.5</ele>
        <time>2022-02-28T22:16:20.527Z</time>
      </trkpt>
      <trkpt lat="48.20379" lon="-3.0894">
        <ele>127.5</ele>
        <time>2022-02-28T22:16:24.182Z</time>
      </trkpt>
      <trkpt lat="48.20377" lon="-3.08947">
        <ele>127.9</ele>
        <time>2022-02-28T22:16:33.100Z</time>
      </trkpt>
      <trkpt lat="48.20375" lon="-3.08952">
        <ele>127.8</ele>
        <time>2022-02-28T22:16:34.126Z</time>
      </trkpt>
      <trkpt lat="48.2037" lon="-3.08964">
        <ele>127.2</ele>
        <time>2022-02-28T22:16:35.884Z</time>
      </trkpt>
      <trkpt lat="48.20366" lon="-3.08972">
        <ele>126.1</ele>
        <time>2022-02-28T22:16:37.209Z</time>
      </trkpt>
      <trkpt lat="48.20363" lon="-3.08979">
        <ele>126.5</ele>
        <time>2022-02-28T22:16:46.455Z</time>
      </trkpt>
      <trkpt lat="48.2036" lon="-3.08984">
        <ele>126.8</ele>
        <time>2022-02-28T22:16:53.642Z</time>
      </trkpt>
      <trkpt lat="48.20356" lon="-3.0899">
        <ele>127.5</ele>
        <time>2022-02-28T22:17:09.243Z</time>
      </trkpt>
      <trkpt lat="48.20353" lon="-3.08995">
        <ele>127.8</ele>
        <time>2022-02-28T22:17:16.430Z</time>
      </trkpt>
      <trkpt lat="48.20349" lon="-3.09001">
        <ele>127.7</ele>
        <time>2022-02-28T22:17:18.068Z</time>
      </trkpt>
      <trkpt lat="48.20345" lon="-3.09008">
        <ele>127.6</ele>
        <time>2022-02-28T22:17:19.879Z</time>
      </trkpt>
      <trkpt lat="48.20341" lon="-3.09013">
        <ele>127</ele>
        <time>2022-02-28T22:17:20.914Z</time>
      </trkpt>
      <trkpt lat="48.20337" lon="-3.09019">
        <ele>126.4</ele>
        <time>2022-02-28T22:17:22.038Z</time>
      </trkpt>
      <trkpt lat="48.20335" lon="-3.09025">
        <ele>126.3</ele>
        <time>2022-02-28T22:17:23.264Z</time>
      </trkpt>
      <trkpt lat="48.20331" lon="-3.0903">
        <ele>126.3</ele>
        <time>2022-02-28T22:17:27.508Z</time>
      </trkpt>
      <trkpt lat="48.20329" lon="-3.09037">
        <ele>127.5</ele>
        <time>2022-02-28T22:17:43.467Z</time>
      </trkpt>
      <trkpt lat="48.20327" lon="-3.09046">
        <ele>128.9</ele>
        <time>2022-02-28T22:18:03.347Z</time>
      </trkpt>
      <trkpt lat="48.20324" lon="-3.09053">
        <ele>129.2</ele>
        <time>2022-02-28T22:18:11.470Z</time>
      </trkpt>
      <trkpt lat="48.2032" lon="-3.09059">
        <ele>128.5</ele>
        <time>2022-02-28T22:18:12.595Z</time>
      </trkpt>
      <trkpt lat="48.2032" lon="-3.09067">
        <ele>129.3</ele>
        <time>2022-02-28T22:18:29.358Z</time>
      </trkpt>
      <trkpt lat="48.20319" lon="-3.09073">
        <ele>129.4</ele>
        <time>2022-02-28T22:18:33.678Z</time>
      </trkpt>
      <trkpt lat="48.20316" lon="-3.09078">
        <ele>128.5</ele>
        <time>2022-02-28T22:18:34.570Z</time>
      </trkpt>
      <trkpt lat="48.20315" lon="-3.09084">
        <ele>128.5</ele>
        <time>2022-02-28T22:18:37.930Z</time>
      </trkpt>
      <trkpt lat="48.20311" lon="-3.09092">
        <ele>128.1</ele>
        <time>2022-02-28T22:18:39.208Z</time>
      </trkpt>
      <trkpt lat="48.20309" lon="-3.09098">
        <ele>128.3</ele>
        <time>2022-02-28T22:18:45.368Z</time>
      </trkpt>
      <trkpt lat="48.20306" lon="-3.09106">
        <ele>128.3</ele>
        <time>2022-02-28T22:18:50.355Z</time>
      </trkpt>
      <trkpt lat="48.20303" lon="-3.0911">
        <ele>128.2</ele>
        <time>2022-02-28T22:18:51.424Z</time>
      </trkpt>
      <trkpt lat="48.203" lon="-3.09117">
        <ele>128.3</ele>
        <time>2022-02-28T22:18:56.840Z</time>
      </trkpt>
      <trkpt lat="48.20298" lon="-3.09125">
        <ele>128.6</ele>
        <time>2022-02-28T22:19:05.102Z</time>
      </trkpt>
      <trkpt lat="48.20295" lon="-3.09129">
        <ele>127.9</ele>
        <time>2022-02-28T22:19:05.899Z</time>
      </trkpt>
      <trkpt lat="48.20295" lon="-3.09136">
        <ele>128.6</ele>
        <time>2022-02-28T22:19:20.568Z</time>
      </trkpt>
      <trkpt lat="48.20294" lon="-3.09145">
        <ele>129</ele>
        <time>2022-02-28T22:19:30.234Z</time>
      </trkpt>
      <trkpt lat="48.20295" lon="-3.09152">
        <ele>130.2</ele>
        <time>2022-02-28T22:19:45.236Z</time>
      </trkpt>
      <trkpt lat="48.20295" lon="-3.09158">
        <ele>130.8</ele>
        <time>2022-02-28T22:19:57.809Z</time>
      </trkpt>
      <trkpt lat="48.20295" lon="-3.09167">
        <ele>131.7</ele>
        <time>2022-02-28T22:20:16.668Z</time>
      </trkpt>
      <trkpt lat="48.20293" lon="-3.09175">
        <ele>131.3</ele>
        <time>2022-02-28T22:20:17.800Z</time>
      </trkpt>
      <trkpt lat="48.20291" lon="-3.09183">
        <ele>130.8</ele>
        <time>2022-02-28T22:20:18.932Z</time>
      </trkpt>
      <trkpt lat="48.20289" lon="-3.09187">
        <ele>130.1</ele>
        <time>2022-02-28T22:20:19.595Z</time>
      </trkpt>
      <trkpt lat="48.20288" lon="-3.09194">
        <ele>130.1</ele>
        <time>2022-02-28T22:20:23.484Z</time>
      </trkpt>
      <trkpt lat="48.20287" lon="-3.09199">
        <ele>130.2</ele>
        <time>2022-02-28T22:20:27.334Z</time>
      </trkpt>
      <trkpt lat="48.20285" lon="-3.09206">
        <ele>130.1</ele>
        <time>2022-02-28T22:20:28.769Z</time>
      </trkpt>
      <trkpt lat="48.20282" lon="-3.09213">
        <ele>129.6</ele>
        <time>2022-02-28T22:20:29.872Z</time>
      </trkpt>
      <trkpt lat="48.20281" lon="-3.0922">
        <ele>130.1</ele>
        <time>2022-02-28T22:20:40.481Z</time>
      </trkpt>
      <trkpt lat="48.20278" lon="-3.09227">
        <ele>129.8</ele>
        <time>2022-02-28T22:20:41.597Z</time>
      </trkpt>
      <trkpt lat="48.20277" lon="-3.09232">
        <ele>130.2</ele>
        <time>2022-02-28T22:20:50.232Z</time>
      </trkpt>
      <trkpt lat="48.20275" lon="-3.09238">
        <ele>130.4</ele>
        <time>2022-02-28T22:20:56.392Z</time>
      </trkpt>
      <trkpt lat="48.20274" lon="-3.09244">
        <ele>130.9</ele>
        <time>2022-02-28T22:21:07.418Z</time>
      </trkpt>
      <trkpt lat="48.20272" lon="-3.09254">
        <ele>131.4</ele>
        <time>2022-02-28T22:21:18.993Z</time>
      </trkpt>
      <trkpt lat="48.20272" lon="-3.09259">
        <ele>132</ele>
        <time>2022-02-28T22:21:29.471Z</time>
        <extensions>
          <visugpx:TrkExtension xmlns:visugpx="https://www.visugpx.com/editgpx/">
            <visugpx:node>18</visugpx:node>
            </visugpx:TrkExtension>
        </extensions>
      </trkpt>
      <trkpt lat="48.20272" lon="-3.09262">
        <ele>132.4</ele>
        <time>2022-02-28T22:21:35.757Z</time>
      </trkpt>
      <trkpt lat="48.20271" lon="-3.09269">
        <ele>132.8</ele>
        <time>2022-02-28T22:21:44.495Z</time>
      </trkpt>
      <trkpt lat="48.2027" lon="-3.09277">
        <ele>133.3</ele>
        <time>2022-02-28T22:21:55.179Z</time>
      </trkpt>
      <trkpt lat="48.20274" lon="-3.09282">
        <ele>135.7</ele>
        <time>2022-02-28T22:22:11.547Z</time>
      </trkpt>
      <trkpt lat="48.20276" lon="-3.09291">
        <ele>137.7</ele>
        <time>2022-02-28T22:22:31.427Z</time>
      </trkpt>
      <trkpt lat="48.20278" lon="-3.09297">
        <ele>139.1</ele>
        <time>2022-02-28T22:22:45.485Z</time>
      </trkpt>
      <trkpt lat="48.20278" lon="-3.09303">
        <ele>139.8</ele>
        <time>2022-02-28T22:22:58.058Z</time>
      </trkpt>
      <trkpt lat="48.2028" lon="-3.09309">
        <ele>140</ele>
        <time>2022-02-28T22:23:04.218Z</time>
      </trkpt>
      <trkpt lat="48.20283" lon="-3.09316">
        <ele>139.8</ele>
        <time>2022-02-28T22:23:05.533Z</time>
      </trkpt>
      <trkpt lat="48.20286" lon="-3.09323">
        <ele>139.6</ele>
        <time>2022-02-28T22:23:06.849Z</time>
      </trkpt>
      <trkpt lat="48.20288" lon="-3.09329">
        <ele>139.3</ele>
        <time>2022-02-28T22:23:07.737Z</time>
      </trkpt>
      <trkpt lat="48.20295" lon="-3.09332">
        <ele>140.2</ele>
        <time>2022-02-28T22:23:27.784Z</time>
      </trkpt>
      <trkpt lat="48.203" lon="-3.09337">
        <ele>140.4</ele>
        <time>2022-02-28T22:23:34.830Z</time>
      </trkpt>
      <trkpt lat="48.20302" lon="-3.09344">
        <ele>139.6</ele>
        <time>2022-02-28T22:23:35.840Z</time>
      </trkpt>
      <trkpt lat="48.20305" lon="-3.0935">
        <ele>139.5</ele>
        <time>2022-02-28T22:23:37.248Z</time>
      </trkpt>
      <trkpt lat="48.20309" lon="-3.09354">
        <ele>138.9</ele>
        <time>2022-02-28T22:23:38.204Z</time>
      </trkpt>
      <trkpt lat="48.20314" lon="-3.0936">
        <ele>137.3</ele>
        <time>2022-02-28T22:23:39.476Z</time>
      </trkpt>
      <trkpt lat="48.20318" lon="-3.09362">
        <ele>136.4</ele>
        <time>2022-02-28T22:23:40.315Z</time>
      </trkpt>
      <trkpt lat="48.20323" lon="-3.09367">
        <ele>134.5</ele>
        <time>2022-02-28T22:23:41.509Z</time>
      </trkpt>
      <trkpt lat="48.20325" lon="-3.0937">
        <ele>133.4</ele>
        <time>2022-02-28T22:23:42.071Z</time>
      </trkpt>
      <trkpt lat="48.2033" lon="-3.09374">
        <ele>131.7</ele>
        <time>2022-02-28T22:23:43.198Z</time>
      </trkpt>
      <trkpt lat="48.20333" lon="-3.09381">
        <ele>129.3</ele>
        <time>2022-02-28T22:23:44.300Z</time>
      </trkpt>
      <trkpt lat="48.20337" lon="-3.09379">
        <ele>129.2</ele>
        <time>2022-02-28T22:23:45.439Z</time>
      </trkpt>
      <trkpt lat="48.20344" lon="-3.09376">
        <ele>128.8</ele>
        <time>2022-02-28T22:23:46.894Z</time>
      </trkpt>
      <trkpt lat="48.20347" lon="-3.09373">
        <ele>129</ele>
        <time>2022-02-28T22:23:52.223Z</time>
      </trkpt>
      <trkpt lat="48.20351" lon="-3.09369">
        <ele>129.3</ele>
        <time>2022-02-28T22:23:59.681Z</time>
      </trkpt>
      <trkpt lat="48.20357" lon="-3.0937">
        <ele>127.9</ele>
        <time>2022-02-28T22:24:00.881Z</time>
      </trkpt>
      <trkpt lat="48.20361" lon="-3.09372">
        <ele>126.7</ele>
        <time>2022-02-28T22:24:01.719Z</time>
      </trkpt>
      <trkpt lat="48.20366" lon="-3.09373">
        <ele>126.4</ele>
        <time>2022-02-28T22:24:02.691Z</time>
      </trkpt>
      <trkpt lat="48.20373" lon="-3.09372">
        <ele>126.5</ele>
        <time>2022-02-28T22:24:09.281Z</time>
      </trkpt>
      <trkpt lat="48.20379" lon="-3.09372">
        <ele>126.4</ele>
        <time>2022-02-28T22:24:11.040Z</time>
      </trkpt>
      <trkpt lat="48.20386" lon="-3.0937">
        <ele>126.8</ele>
        <time>2022-02-28T22:24:21.622Z</time>
      </trkpt>
      <trkpt lat="48.20392" lon="-3.0937">
        <ele>126.9</ele>
        <time>2022-02-28T22:24:27.394Z</time>
      </trkpt>
      <trkpt lat="48.20397" lon="-3.09371">
        <ele>126.8</ele>
        <time>2022-02-28T22:24:28.818Z</time>
      </trkpt>
      <trkpt lat="48.20407" lon="-3.0937">
        <ele>127.4</ele>
        <time>2022-02-28T22:24:44.090Z</time>
      </trkpt>
      <trkpt lat="48.20414" lon="-3.09368">
        <ele>128.2</ele>
        <time>2022-02-28T22:25:01.245Z</time>
      </trkpt>
      <trkpt lat="48.20419" lon="-3.09366">
        <ele>129.1</ele>
        <time>2022-02-28T22:25:17.515Z</time>
      </trkpt>
      <trkpt lat="48.20423" lon="-3.09369">
        <ele>128.7</ele>
        <time>2022-02-28T22:25:18.403Z</time>
      </trkpt>
      <trkpt lat="48.20429" lon="-3.09371">
        <ele>128.8</ele>
        <time>2022-02-28T22:25:24.291Z</time>
      </trkpt>
      <trkpt lat="48.20438" lon="-3.09377">
        <ele>127.8</ele>
        <time>2022-02-28T22:25:26.249Z</time>
      </trkpt>
      <trkpt lat="48.20441" lon="-3.09382">
        <ele>126.3</ele>
        <time>2022-02-28T22:25:27.140Z</time>
      </trkpt>
      <trkpt lat="48.20445" lon="-3.09386">
        <ele>125.1</ele>
        <time>2022-02-28T22:25:28.095Z</time>
      </trkpt>
      <trkpt lat="48.2045" lon="-3.09387">
        <ele>125.7</ele>
        <time>2022-02-28T22:25:41.209Z</time>
      </trkpt>
      <trkpt lat="48.20455" lon="-3.09389">
        <ele>125.9</ele>
        <time>2022-02-28T22:25:47.739Z</time>
      </trkpt>
      <trkpt lat="48.2046" lon="-3.09393">
        <ele>126.1</ele>
        <time>2022-02-28T22:25:54.564Z</time>
      </trkpt>
      <trkpt lat="48.20463" lon="-3.09394">
        <ele>126.4</ele>
        <time>2022-02-28T22:26:00.931Z</time>
      </trkpt>
      <trkpt lat="48.20467" lon="-3.09397">
        <ele>126.3</ele>
        <time>2022-02-28T22:26:02.157Z</time>
      </trkpt>
      <trkpt lat="48.20473" lon="-3.09397">
        <ele>127.1</ele>
        <time>2022-02-28T22:26:20.994Z</time>
      </trkpt>
      <trkpt lat="48.20477" lon="-3.09401">
        <ele>126.6</ele>
        <time>2022-02-28T22:26:21.949Z</time>
      </trkpt>
      <trkpt lat="48.20483" lon="-3.09404">
        <ele>126.5</ele>
        <time>2022-02-28T22:26:23.823Z</time>
      </trkpt>
      <trkpt lat="48.20487" lon="-3.09407">
        <ele>126.2</ele>
        <time>2022-02-28T22:26:24.712Z</time>
      </trkpt>
      <trkpt lat="48.20492" lon="-3.0941">
        <ele>126</ele>
        <time>2022-02-28T22:26:25.975Z</time>
      </trkpt>
      <trkpt lat="48.20495" lon="-3.09412">
        <ele>125.8</ele>
        <time>2022-02-28T22:26:26.600Z</time>
      </trkpt>
      <trkpt lat="48.205" lon="-3.09414">
        <ele>125.8</ele>
        <time>2022-02-28T22:26:30.818Z</time>
      </trkpt>
      <trkpt lat="48.20511" lon="-3.0942">
        <ele>127.2</ele>
        <time>2022-02-28T22:27:01.491Z</time>
      </trkpt>
      <trkpt lat="48.20513" lon="-3.09424">
        <ele>126.9</ele>
        <time>2022-02-28T22:27:02.153Z</time>
      </trkpt>
      <trkpt lat="48.20522" lon="-3.09432">
        <ele>126.7</ele>
        <time>2022-02-28T22:27:05.132Z</time>
      </trkpt>
      <trkpt lat="48.20527" lon="-3.09436">
        <ele>126.3</ele>
        <time>2022-02-28T22:27:06.258Z</time>
      </trkpt>
      <trkpt lat="48.2053" lon="-3.0944">
        <ele>125.9</ele>
        <time>2022-02-28T22:27:07.056Z</time>
      </trkpt>
      <trkpt lat="48.20535" lon="-3.09445">
        <ele>126</ele>
        <time>2022-02-28T22:27:12.834Z</time>
      </trkpt>
      <trkpt lat="48.20537" lon="-3.09451">
        <ele>125.8</ele>
        <time>2022-02-28T22:27:13.811Z</time>
      </trkpt>
      <trkpt lat="48.20541" lon="-3.09455">
        <ele>126.1</ele>
        <time>2022-02-28T22:27:21.269Z</time>
      </trkpt>
      <trkpt lat="48.20545" lon="-3.0946">
        <ele>126.1</ele>
        <time>2022-02-28T22:27:25.512Z</time>
      </trkpt>
      <trkpt lat="48.20548" lon="-3.09464">
        <ele>125.9</ele>
        <time>2022-02-28T22:27:26.350Z</time>
      </trkpt>
      <trkpt lat="48.20553" lon="-3.09467">
        <ele>126</ele>
        <time>2022-02-28T22:27:31.639Z</time>
      </trkpt>
      <trkpt lat="48.20557" lon="-3.09473">
        <ele>125.3</ele>
        <time>2022-02-28T22:27:32.763Z</time>
      </trkpt>
      <trkpt lat="48.2056" lon="-3.09477">
        <ele>125.5</ele>
        <time>2022-02-28T22:27:38.477Z</time>
      </trkpt>
      <trkpt lat="48.20566" lon="-3.09483">
        <ele>126</ele>
        <time>2022-02-28T22:27:50.246Z</time>
      </trkpt>
      <trkpt lat="48.20569" lon="-3.09486">
        <ele>126.2</ele>
        <time>2022-02-28T22:27:55.575Z</time>
      </trkpt>
      <trkpt lat="48.20573" lon="-3.09491">
        <ele>126.1</ele>
        <time>2022-02-28T22:27:57.056Z</time>
      </trkpt>
      <trkpt lat="48.20577" lon="-3.095">
        <ele>125.1</ele>
        <time>2022-02-28T22:27:58.489Z</time>
      </trkpt>
      <trkpt lat="48.20583" lon="-3.09509">
        <ele>125</ele>
        <time>2022-02-28T22:28:01.135Z</time>
      </trkpt>
      <trkpt lat="48.20587" lon="-3.09516">
        <ele>125</ele>
        <time>2022-02-28T22:28:06.144Z</time>
      </trkpt>
      <trkpt lat="48.20591" lon="-3.09521">
        <ele>125</ele>
        <time>2022-02-28T22:28:10.387Z</time>
      </trkpt>
      <trkpt lat="48.20595" lon="-3.09519">
        <ele>126</ele>
        <time>2022-02-28T22:28:23.643Z</time>
      </trkpt>
      <trkpt lat="48.20601" lon="-3.09522">
        <ele>126.6</ele>
        <time>2022-02-28T22:28:36.411Z</time>
      </trkpt>
      <trkpt lat="48.20607" lon="-3.09531">
        <ele>126</ele>
        <time>2022-02-28T22:28:38.098Z</time>
      </trkpt>
      <trkpt lat="48.20608" lon="-3.09539">
        <ele>125.1</ele>
        <time>2022-02-28T22:28:39.176Z</time>
      </trkpt>
      <trkpt lat="48.20611" lon="-3.09548">
        <ele>124.1</ele>
        <time>2022-02-28T22:28:40.509Z</time>
      </trkpt>
      <trkpt lat="48.20615" lon="-3.09554">
        <ele>124.4</ele>
        <time>2022-02-28T22:28:48.734Z</time>
      </trkpt>
      <trkpt lat="48.20618" lon="-3.09557">
        <ele>124.9</ele>
        <time>2022-02-28T22:29:00.069Z</time>
      </trkpt>
      <trkpt lat="48.20623" lon="-3.09562">
        <ele>125.8</ele>
        <time>2022-02-28T22:29:18.961Z</time>
      </trkpt>
      <trkpt lat="48.20627" lon="-3.09564">
        <ele>126.6</ele>
        <time>2022-02-28T22:29:32.217Z</time>
      </trkpt>
      <trkpt lat="48.20632" lon="-3.09566">
        <ele>127.5</ele>
        <time>2022-02-28T22:29:48.486Z</time>
      </trkpt>
      <trkpt lat="48.20637" lon="-3.09571">
        <ele>127.8</ele>
        <time>2022-02-28T22:29:57.046Z</time>
      </trkpt>
      <trkpt lat="48.20638" lon="-3.0958">
        <ele>126.5</ele>
        <time>2022-02-28T22:29:58.255Z</time>
      </trkpt>
      <trkpt lat="48.20639" lon="-3.09587">
        <ele>125.6</ele>
        <time>2022-02-28T22:29:59.203Z</time>
      </trkpt>
      <trkpt lat="48.20642" lon="-3.09598">
        <ele>125.5</ele>
        <time>2022-02-28T22:30:01.646Z</time>
      </trkpt>
      <trkpt lat="48.20647" lon="-3.09599">
        <ele>127.2</ele>
        <time>2022-02-28T22:30:17.506Z</time>
      </trkpt>
      <trkpt lat="48.20652" lon="-3.09605">
        <ele>128.4</ele>
        <time>2022-02-28T22:30:37.635Z</time>
      </trkpt>
      <trkpt lat="48.20655" lon="-3.09612">
        <ele>128.7</ele>
        <time>2022-02-28T22:30:45.758Z</time>
      </trkpt>
      <trkpt lat="48.20657" lon="-3.09618">
        <ele>128.6</ele>
        <time>2022-02-28T22:30:46.983Z</time>
      </trkpt>
      <trkpt lat="48.20656" lon="-3.09625">
        <ele>127.4</ele>
        <time>2022-02-28T22:30:47.932Z</time>
      </trkpt>
      <trkpt lat="48.20659" lon="-3.09631">
        <ele>127.5</ele>
        <time>2022-02-28T22:30:52.921Z</time>
      </trkpt>
      <trkpt lat="48.20663" lon="-3.09643">
        <ele>126.7</ele>
        <time>2022-02-28T22:30:54.698Z</time>
      </trkpt>
      <trkpt lat="48.20666" lon="-3.09646">
        <ele>126.9</ele>
        <time>2022-02-28T22:31:00.028Z</time>
      </trkpt>
      <trkpt lat="48.20667" lon="-3.0965">
        <ele>126.6</ele>
        <time>2022-02-28T22:31:00.594Z</time>
      </trkpt>
      <trkpt lat="48.20671" lon="-3.09656">
        <ele>127.8</ele>
        <time>2022-02-28T22:31:18.376Z</time>
      </trkpt>
      <trkpt lat="48.20674" lon="-3.09662">
        <ele>128.6</ele>
        <time>2022-02-28T22:31:34.093Z</time>
      </trkpt>
      <trkpt lat="48.20679" lon="-3.0967">
        <ele>130.4</ele>
        <time>2022-02-28T22:31:57.074Z</time>
      </trkpt>
      <trkpt lat="48.20679" lon="-3.09675">
        <ele>129.9</ele>
        <time>2022-02-28T22:31:57.736Z</time>
      </trkpt>
      <trkpt lat="48.20679" lon="-3.09681">
        <ele>129.4</ele>
        <time>2022-02-28T22:31:58.531Z</time>
      </trkpt>
      <trkpt lat="48.20681" lon="-3.09688">
        <ele>129.8</ele>
        <time>2022-02-28T22:32:07.449Z</time>
      </trkpt>
      <trkpt lat="48.20682" lon="-3.09694">
        <ele>129.8</ele>
        <time>2022-02-28T22:32:10.808Z</time>
      </trkpt>
      <trkpt lat="48.20684" lon="-3.09703">
        <ele>130.5</ele>
        <time>2022-02-28T22:32:25.773Z</time>
      </trkpt>
      <trkpt lat="48.20684" lon="-3.09712">
        <ele>130.3</ele>
        <time>2022-02-28T22:32:27.234Z</time>
        <extensions>
          <visugpx:TrkExtension xmlns:visugpx="https://www.visugpx.com/editgpx/">
            <visugpx:node>19</visugpx:node>
            </visugpx:TrkExtension>
        </extensions>
      </trkpt>
      <trkpt lat="48.20684" lon="-3.09719">
        <ele>130.2</ele>
        <time>2022-02-28T22:32:28.527Z</time>
      </trkpt>
      <trkpt lat="48.20685" lon="-3.09726">
        <ele>130.7</ele>
        <time>2022-02-28T22:32:39.136Z</time>
      </trkpt>
      <trkpt lat="48.20684" lon="-3.09733">
        <ele>130.4</ele>
        <time>2022-02-28T22:32:40.031Z</time>
      </trkpt>
      <trkpt lat="48.20683" lon="-3.09743">
        <ele>130.1</ele>
        <time>2022-02-28T22:32:41.506Z</time>
      </trkpt>
      <trkpt lat="48.20683" lon="-3.0975">
        <ele>130.2</ele>
        <time>2022-02-28T22:32:46.237Z</time>
      </trkpt>
      <trkpt lat="48.20683" lon="-3.09758">
        <ele>130.2</ele>
        <time>2022-02-28T22:32:50.583Z</time>
      </trkpt>
      <trkpt lat="48.20681" lon="-3.09764">
        <ele>129.2</ele>
        <time>2022-02-28T22:32:51.472Z</time>
      </trkpt>
      <trkpt lat="48.2068" lon="-3.09773">
        <ele>128.7</ele>
        <time>2022-02-28T22:32:52.681Z</time>
      </trkpt>
      <trkpt lat="48.20682" lon="-3.0978">
        <ele>129.7</ele>
        <time>2022-02-28T22:33:08.639Z</time>
      </trkpt>
      <trkpt lat="48.20682" lon="-3.09787">
        <ele>129.7</ele>
        <time>2022-02-28T22:33:12.442Z</time>
      </trkpt>
      <trkpt lat="48.20683" lon="-3.09795">
        <ele>130.2</ele>
        <time>2022-02-28T22:33:23.125Z</time>
      </trkpt>
      <trkpt lat="48.20686" lon="-3.09801">
        <ele>131.7</ele>
        <time>2022-02-28T22:33:38.842Z</time>
      </trkpt>
      <trkpt lat="48.20687" lon="-3.09808">
        <ele>132.2</ele>
        <time>2022-02-28T22:33:49.452Z</time>
      </trkpt>
      <trkpt lat="48.20688" lon="-3.09816">
        <ele>132.8</ele>
        <time>2022-02-28T22:34:02.276Z</time>
      </trkpt>
      <trkpt lat="48.20686" lon="-3.09824">
        <ele>131.7</ele>
        <time>2022-02-28T22:34:03.408Z</time>
      </trkpt>
      <trkpt lat="48.20687" lon="-3.09829">
        <ele>132.2</ele>
        <time>2022-02-28T22:34:14.346Z</time>
      </trkpt>
      <trkpt lat="48.20683" lon="-3.09839">
        <ele>130.7</ele>
        <time>2022-02-28T22:34:15.891Z</time>
      </trkpt>
      <trkpt lat="48.20685" lon="-3.09846">
        <ele>132.4</ele>
        <time>2022-02-28T22:34:31.849Z</time>
      </trkpt>
      <trkpt lat="48.20685" lon="-3.09854">
        <ele>133.2</ele>
        <time>2022-02-28T22:34:48.612Z</time>
      </trkpt>
      <trkpt lat="48.20683" lon="-3.0986">
        <ele>132.5</ele>
        <time>2022-02-28T22:34:49.501Z</time>
      </trkpt>
      <trkpt lat="48.20682" lon="-3.09867">
        <ele>131.7</ele>
        <time>2022-02-28T22:34:50.449Z</time>
      </trkpt>
      <trkpt lat="48.20681" lon="-3.09875">
        <ele>130.8</ele>
        <time>2022-02-28T22:34:51.527Z</time>
      </trkpt>
      <trkpt lat="48.20682" lon="-3.09882">
        <ele>131.1</ele>
        <time>2022-02-28T22:34:58.954Z</time>
      </trkpt>
      <trkpt lat="48.20682" lon="-3.09887">
        <ele>130.9</ele>
        <time>2022-02-28T22:34:59.593Z</time>
      </trkpt>
      <trkpt lat="48.20682" lon="-3.09894">
        <ele>130.5</ele>
        <time>2022-02-28T22:35:00.521Z</time>
      </trkpt>
      <trkpt lat="48.20678" lon="-3.09901">
        <ele>128</ele>
        <time>2022-02-28T22:35:01.742Z</time>
      </trkpt>
      <trkpt lat="48.20678" lon="-3.09908">
        <ele>127.7</ele>
        <time>2022-02-28T22:35:02.607Z</time>
      </trkpt>
      <trkpt lat="48.2068" lon="-3.09915">
        <ele>128.3</ele>
        <time>2022-02-28T22:35:15.687Z</time>
      </trkpt>
      <trkpt lat="48.20682" lon="-3.09923">
        <ele>129.2</ele>
        <time>2022-02-28T22:35:33.591Z</time>
      </trkpt>
      <trkpt lat="48.20681" lon="-3.09932">
        <ele>128.7</ele>
        <time>2022-02-28T22:35:34.799Z</time>
      </trkpt>
      <trkpt lat="48.20682" lon="-3.09939">
        <ele>129.2</ele>
        <time>2022-02-28T22:35:45.409Z</time>
      </trkpt>
      <trkpt lat="48.20682" lon="-3.09947">
        <ele>129.3</ele>
        <time>2022-02-28T22:35:50.656Z</time>
      </trkpt>
      <trkpt lat="48.20682" lon="-3.09954">
        <ele>129.7</ele>
        <time>2022-02-28T22:35:59.339Z</time>
      </trkpt>
      <trkpt lat="48.20684" lon="-3.09963">
        <ele>131.2</ele>
        <time>2022-02-28T22:36:19.217Z</time>
      </trkpt>
      <trkpt lat="48.20682" lon="-3.0997">
        <ele>130.6</ele>
        <time>2022-02-28T22:36:20.226Z</time>
      </trkpt>
      <trkpt lat="48.20684" lon="-3.09974">
        <ele>131.6</ele>
        <time>2022-02-28T22:36:30.704Z</time>
      </trkpt>
      <trkpt lat="48.20683" lon="-3.09983">
        <ele>130.6</ele>
        <time>2022-02-28T22:36:31.913Z</time>
      </trkpt>
      <trkpt lat="48.20683" lon="-3.0999">
        <ele>130.2</ele>
        <time>2022-02-28T22:36:32.840Z</time>
      </trkpt>
      <trkpt lat="48.20681" lon="-3.09999">
        <ele>128.8</ele>
        <time>2022-02-28T22:36:34.097Z</time>
      </trkpt>
      <trkpt lat="48.2068" lon="-3.10006">
        <ele>128.2</ele>
        <time>2022-02-28T22:36:35.045Z</time>
      </trkpt>
      <trkpt lat="48.20677" lon="-3.10013">
        <ele>126.8</ele>
        <time>2022-02-28T22:36:36.148Z</time>
      </trkpt>
      <trkpt lat="48.20676" lon="-3.1002">
        <ele>126.4</ele>
        <time>2022-02-28T22:36:37.096Z</time>
      </trkpt>
      <trkpt lat="48.20675" lon="-3.10026">
        <ele>125.9</ele>
        <time>2022-02-28T22:36:37.916Z</time>
      </trkpt>
      <trkpt lat="48.20677" lon="-3.10034">
        <ele>127.1</ele>
        <time>2022-02-28T22:36:55.819Z</time>
      </trkpt>
      <trkpt lat="48.20675" lon="-3.10042">
        <ele>126.4</ele>
        <time>2022-02-28T22:36:56.951Z</time>
      </trkpt>
      <trkpt lat="48.20676" lon="-3.1005">
        <ele>127.2</ele>
        <time>2022-02-28T22:37:14.006Z</time>
      </trkpt>
      <trkpt lat="48.20676" lon="-3.10059">
        <ele>127.4</ele>
        <time>2022-02-28T22:37:21.045Z</time>
      </trkpt>
      <trkpt lat="48.20677" lon="-3.10065">
        <ele>127.9</ele>
        <time>2022-02-28T22:37:32.071Z</time>
      </trkpt>
      <trkpt lat="48.20674" lon="-3.10073">
        <ele>126.7</ele>
        <time>2022-02-28T22:37:33.287Z</time>
      </trkpt>
      <trkpt lat="48.20673" lon="-3.10077">
        <ele>126.4</ele>
        <time>2022-02-28T22:37:33.853Z</time>
      </trkpt>
      <trkpt lat="48.20673" lon="-3.10088">
        <ele>126.7</ele>
        <time>2022-02-28T22:37:43.412Z</time>
      </trkpt>
      <trkpt lat="48.20673" lon="-3.10096">
        <ele>127</ele>
        <time>2022-02-28T22:37:51.336Z</time>
      </trkpt>
      <trkpt lat="48.20673" lon="-3.10102">
        <ele>127.2</ele>
        <time>2022-02-28T22:37:57.036Z</time>
      </trkpt>
      <trkpt lat="48.20672" lon="-3.10109">
        <ele>127</ele>
        <time>2022-02-28T22:37:58.106Z</time>
      </trkpt>
      <trkpt lat="48.20671" lon="-3.10117">
        <ele>127.1</ele>
        <time>2022-02-28T22:38:03.426Z</time>
      </trkpt>
      <trkpt lat="48.20668" lon="-3.10125">
        <ele>126.5</ele>
        <time>2022-02-28T22:38:04.642Z</time>
      </trkpt>
      <trkpt lat="48.20667" lon="-3.10133">
        <ele>126.7</ele>
        <time>2022-02-28T22:38:11.318Z</time>
      </trkpt>
      <trkpt lat="48.20664" lon="-3.10141">
        <ele>126.6</ele>
        <time>2022-02-28T22:38:13.119Z</time>
      </trkpt>
      <trkpt lat="48.20666" lon="-3.10149">
        <ele>127.2</ele>
        <time>2022-02-28T22:38:25.856Z</time>
      </trkpt>
      <trkpt lat="48.20665" lon="-3.10155">
        <ele>127.3</ele>
        <time>2022-02-28T22:38:30.175Z</time>
      </trkpt>
      <trkpt lat="48.2066" lon="-3.10163">
        <ele>126.7</ele>
        <time>2022-02-28T22:38:31.628Z</time>
      </trkpt>
      <trkpt lat="48.20657" lon="-3.10169">
        <ele>126.3</ele>
        <time>2022-02-28T22:38:32.622Z</time>
      </trkpt>
      <trkpt lat="48.20656" lon="-3.10177">
        <ele>126.4</ele>
        <time>2022-02-28T22:38:37.942Z</time>
      </trkpt>
      <trkpt lat="48.20654" lon="-3.10185">
        <ele>126.1</ele>
        <time>2022-02-28T22:38:39.102Z</time>
      </trkpt>
      <trkpt lat="48.20652" lon="-3.10192">
        <ele>125.7</ele>
        <time>2022-02-28T22:38:40.111Z</time>
      </trkpt>
      <trkpt lat="48.20652" lon="-3.10198">
        <ele>125.9</ele>
        <time>2022-02-28T22:38:45.811Z</time>
      </trkpt>
      <trkpt lat="48.20651" lon="-3.10206">
        <ele>125.9</ele>
        <time>2022-02-28T22:38:50.232Z</time>
      </trkpt>
      <trkpt lat="48.20651" lon="-3.10214">
        <ele>126.2</ele>
        <time>2022-02-28T22:38:58.157Z</time>
      </trkpt>
      <trkpt lat="48.20649" lon="-3.10223">
        <ele>126</ele>
        <time>2022-02-28T22:38:59.725Z</time>
      </trkpt>
      <trkpt lat="48.20645" lon="-3.10231">
        <ele>125.7</ele>
        <time>2022-02-28T22:39:01.177Z</time>
      </trkpt>
      <trkpt lat="48.20643" lon="-3.10238">
        <ele>125.9</ele>
        <time>2022-02-28T22:39:07.651Z</time>
      </trkpt>
      <trkpt lat="48.20642" lon="-3.10244">
        <ele>126.2</ele>
        <time>2022-02-28T22:39:14.556Z</time>
      </trkpt>
      <trkpt lat="48.20639" lon="-3.1025">
        <ele>126</ele>
        <time>2022-02-28T22:39:15.697Z</time>
      </trkpt>
      <trkpt lat="48.20636" lon="-3.10259">
        <ele>126.5</ele>
        <time>2022-02-28T22:39:27.089Z</time>
      </trkpt>
      <trkpt lat="48.20634" lon="-3.10265">
        <ele>126.6</ele>
        <time>2022-02-28T22:39:31.672Z</time>
      </trkpt>
      <trkpt lat="48.20632" lon="-3.10272">
        <ele>126.8</ele>
        <time>2022-02-28T22:39:38.146Z</time>
      </trkpt>
      <trkpt lat="48.20631" lon="-3.1028">
        <ele>127.2</ele>
        <time>2022-02-28T22:39:47.302Z</time>
      </trkpt>
      <trkpt lat="48.2063" lon="-3.10288">
        <ele>127.5</ele>
        <time>2022-02-28T22:39:55.312Z</time>
      </trkpt>
      <trkpt lat="48.20628" lon="-3.10294">
        <ele>127.4</ele>
        <time>2022-02-28T22:39:56.537Z</time>
      </trkpt>
      <trkpt lat="48.20626" lon="-3.10301">
        <ele>127.4</ele>
        <time>2022-02-28T22:40:00.675Z</time>
      </trkpt>
      <trkpt lat="48.20625" lon="-3.10308">
        <ele>127.7</ele>
        <time>2022-02-28T22:40:08.102Z</time>
      </trkpt>
      <trkpt lat="48.20621" lon="-3.10315">
        <ele>127.2</ele>
        <time>2022-02-28T22:40:09.323Z</time>
      </trkpt>
      <trkpt lat="48.20621" lon="-3.10324">
        <ele>127.8</ele>
        <time>2022-02-28T22:40:22.041Z</time>
      </trkpt>
      <trkpt lat="48.2062" lon="-3.10331">
        <ele>128.1</ele>
        <time>2022-02-28T22:40:29.468Z</time>
      </trkpt>
      <trkpt lat="48.2062" lon="-3.10337">
        <ele>128.5</ele>
        <time>2022-02-28T22:40:37.947Z</time>
      </trkpt>
      <trkpt lat="48.20618" lon="-3.10342">
        <ele>128.4</ele>
        <time>2022-02-28T22:40:38.973Z</time>
      </trkpt>
      <trkpt lat="48.20617" lon="-3.10351">
        <ele>128.9</ele>
        <time>2022-02-28T22:40:49.960Z</time>
      </trkpt>
      <trkpt lat="48.20614" lon="-3.10358">
        <ele>128.6</ele>
        <time>2022-02-28T22:40:51.076Z</time>
      </trkpt>
      <trkpt lat="48.20612" lon="-3.10367">
        <ele>129.3</ele>
        <time>2022-02-28T22:41:06.041Z</time>
      </trkpt>
      <trkpt lat="48.20609" lon="-3.10373">
        <ele>129.6</ele>
        <time>2022-02-28T22:41:13.666Z</time>
      </trkpt>
      <trkpt lat="48.20608" lon="-3.10379">
        <ele>130.2</ele>
        <time>2022-02-28T22:41:26.625Z</time>
      </trkpt>
      <trkpt lat="48.20607" lon="-3.10388">
        <ele>131.2</ele>
        <time>2022-02-28T22:41:45.744Z</time>
      </trkpt>
      <trkpt lat="48.20602" lon="-3.10392">
        <ele>130</ele>
        <time>2022-02-28T22:41:46.870Z</time>
      </trkpt>
      <trkpt lat="48.20601" lon="-3.10399">
        <ele>130.7</ele>
        <time>2022-02-28T22:42:01.871Z</time>
      </trkpt>
      <trkpt lat="48.20601" lon="-3.10406">
        <ele>132</ele>
        <time>2022-02-28T22:42:16.538Z</time>
      </trkpt>
      <trkpt lat="48.20599" lon="-3.10415">
        <ele>132.3</ele>
        <time>2022-02-28T22:42:25.402Z</time>
      </trkpt>
      <trkpt lat="48.20601" lon="-3.10423">
        <ele>134.2</ele>
        <time>2022-02-28T22:42:43.305Z</time>
      </trkpt>
      <trkpt lat="48.20601" lon="-3.10431">
        <ele>134.7</ele>
        <time>2022-02-28T22:42:53.961Z</time>
      </trkpt>
      <trkpt lat="48.20601" lon="-3.10438">
        <ele>135.1</ele>
        <time>2022-02-28T22:43:02.644Z</time>
      </trkpt>
      <trkpt lat="48.206" lon="-3.10444">
        <ele>134.8</ele>
        <time>2022-02-28T22:43:03.463Z</time>
      </trkpt>
      <trkpt lat="48.20599" lon="-3.10453">
        <ele>134.8</ele>
        <time>2022-02-28T22:43:08.420Z</time>
      </trkpt>
      <trkpt lat="48.20598" lon="-3.1046">
        <ele>134.6</ele>
        <time>2022-02-28T22:43:09.489Z</time>
      </trkpt>
      <trkpt lat="48.20598" lon="-3.10466">
        <ele>135.1</ele>
        <time>2022-02-28T22:43:20.701Z</time>
      </trkpt>
      <trkpt lat="48.20596" lon="-3.10474">
        <ele>134.4</ele>
        <time>2022-02-28T22:43:21.833Z</time>
      </trkpt>
      <trkpt lat="48.20595" lon="-3.1048">
        <ele>134.3</ele>
        <time>2022-02-28T22:43:22.939Z</time>
      </trkpt>
      <trkpt lat="48.20592" lon="-3.10485">
        <ele>132.9</ele>
        <time>2022-02-28T22:43:23.830Z</time>
      </trkpt>
      <trkpt lat="48.2059" lon="-3.10492">
        <ele>132.3</ele>
        <time>2022-02-28T22:43:24.839Z</time>
      </trkpt>
      <trkpt lat="48.20588" lon="-3.10499">
        <ele>131.8</ele>
        <time>2022-02-28T22:43:25.848Z</time>
      </trkpt>
      <trkpt lat="48.20589" lon="-3.10508">
        <ele>133.3</ele>
        <time>2022-02-28T22:43:44.967Z</time>
      </trkpt>
      <trkpt lat="48.20589" lon="-3.10513">
        <ele>133.9</ele>
        <time>2022-02-28T22:43:55.444Z</time>
      </trkpt>
      <trkpt lat="48.2059" lon="-3.1052">
        <ele>135.1</ele>
        <time>2022-02-28T22:44:10.445Z</time>
      </trkpt>
      <trkpt lat="48.20591" lon="-3.1053">
        <ele>136.1</ele>
        <time>2022-02-28T22:44:31.633Z</time>
      </trkpt>
      <trkpt lat="48.20593" lon="-3.10537">
        <ele>136.3</ele>
        <time>2022-02-28T22:44:38.107Z</time>
      </trkpt>
      <trkpt lat="48.20597" lon="-3.10538">
        <ele>137.5</ele>
        <time>2022-02-28T22:44:50.856Z</time>
      </trkpt>
      <trkpt lat="48.206" lon="-3.10547">
        <ele>136.9</ele>
        <time>2022-02-28T22:44:52.189Z</time>
      </trkpt>
      <trkpt lat="48.20603" lon="-3.10553">
        <ele>136.4</ele>
        <time>2022-02-28T22:44:53.183Z</time>
      </trkpt>
      <trkpt lat="48.20603" lon="-3.10561">
        <ele>135.2</ele>
        <time>2022-02-28T22:44:54.243Z</time>
      </trkpt>
      <trkpt lat="48.20606" lon="-3.10566">
        <ele>135.2</ele>
        <time>2022-02-28T22:44:57.898Z</time>
      </trkpt>
      <trkpt lat="48.2061" lon="-3.10574">
        <ele>135.4</ele>
        <time>2022-02-28T22:45:05.390Z</time>
      </trkpt>
      <trkpt lat="48.20615" lon="-3.1058">
        <ele>134.2</ele>
        <time>2022-02-28T22:45:06.663Z</time>
      </trkpt>
      <trkpt lat="48.20618" lon="-3.10586">
        <ele>132.8</ele>
        <time>2022-02-28T22:45:07.656Z</time>
      </trkpt>
      <trkpt lat="48.20622" lon="-3.10592">
        <ele>131.4</ele>
        <time>2022-02-28T22:45:08.781Z</time>
      </trkpt>
      <trkpt lat="48.20627" lon="-3.10596">
        <ele>131.1</ele>
        <time>2022-02-28T22:45:09.932Z</time>
      </trkpt>
      <trkpt lat="48.20631" lon="-3.10602">
        <ele>131.6</ele>
        <time>2022-02-28T22:45:20.704Z</time>
      </trkpt>
      <trkpt lat="48.20636" lon="-3.10606">
        <ele>133.1</ele>
        <time>2022-02-28T22:45:38.519Z</time>
        <extensions>
          <visugpx:TrkExtension xmlns:visugpx="https://www.visugpx.com/editgpx/">
            <visugpx:node>20</visugpx:node>
            </visugpx:TrkExtension>
        </extensions>
      </trkpt>
      <trkpt lat="48.20641" lon="-3.10609">
        <ele>134.8</ele>
        <time>2022-02-28T22:45:55.449Z</time>
      </trkpt>
      <trkpt lat="48.20646" lon="-3.1061">
        <ele>135.6</ele>
        <time>2022-02-28T22:46:11.309Z</time>
      </trkpt>
      <trkpt lat="48.20651" lon="-3.10607">
        <ele>135.9</ele>
        <time>2022-02-28T22:46:19.282Z</time>
      </trkpt>
      <trkpt lat="48.20656" lon="-3.10605">
        <ele>136.7</ele>
        <time>2022-02-28T22:46:35.551Z</time>
      </trkpt>
      <trkpt lat="48.2066" lon="-3.10602">
        <ele>137.5</ele>
        <time>2022-02-28T22:46:49.611Z</time>
      </trkpt>
      <trkpt lat="48.20664" lon="-3.10599">
        <ele>138.6</ele>
        <time>2022-02-28T22:47:03.671Z</time>
      </trkpt>
      <trkpt lat="48.20668" lon="-3.10596">
        <ele>139.7</ele>
        <time>2022-02-28T22:47:17.730Z</time>
      </trkpt>
      <trkpt lat="48.20672" lon="-3.10593">
        <ele>140.3</ele>
        <time>2022-02-28T22:47:31.790Z</time>
      </trkpt>
      <trkpt lat="48.20677" lon="-3.10589">
        <ele>141.3</ele>
        <time>2022-02-28T22:47:49.605Z</time>
      </trkpt>
      <trkpt lat="48.20682" lon="-3.10586">
        <ele>142.5</ele>
        <time>2022-02-28T22:48:06.535Z</time>
      </trkpt>
      <trkpt lat="48.20687" lon="-3.10584">
        <ele>143.7</ele>
        <time>2022-02-28T22:48:22.804Z</time>
      </trkpt>
      <trkpt lat="48.20692" lon="-3.10583">
        <ele>144.6</ele>
        <time>2022-02-28T22:48:38.664Z</time>
      </trkpt>
      <trkpt lat="48.20697" lon="-3.10583">
        <ele>144.9</ele>
        <time>2022-02-28T22:48:46.290Z</time>
      </trkpt>
      <trkpt lat="48.20702" lon="-3.10583">
        <ele>144.7</ele>
        <time>2022-02-28T22:48:47.431Z</time>
      </trkpt>
      <trkpt lat="48.20708" lon="-3.10583">
        <ele>144.5</ele>
        <time>2022-02-28T22:48:48.893Z</time>
      </trkpt>
      <trkpt lat="48.20714" lon="-3.10583">
        <ele>144.3</ele>
        <time>2022-02-28T22:48:50.355Z</time>
      </trkpt>
      <trkpt lat="48.20719" lon="-3.10584">
        <ele>143.9</ele>
        <time>2022-02-28T22:48:51.358Z</time>
      </trkpt>
      <trkpt lat="48.20725" lon="-3.10586">
        <ele>142.8</ele>
        <time>2022-02-28T22:48:52.579Z</time>
      </trkpt>
      <trkpt lat="48.2073" lon="-3.10588">
        <ele>141.9</ele>
        <time>2022-02-28T22:48:53.608Z</time>
      </trkpt>
      <trkpt lat="48.20735" lon="-3.1059">
        <ele>141.1</ele>
        <time>2022-02-28T22:48:54.637Z</time>
      </trkpt>
      <trkpt lat="48.2074" lon="-3.10592">
        <ele>140.6</ele>
        <time>2022-02-28T22:48:55.665Z</time>
      </trkpt>
      <trkpt lat="48.20745" lon="-3.10595">
        <ele>140.1</ele>
        <time>2022-02-28T22:48:56.736Z</time>
      </trkpt>
      <trkpt lat="48.20749" lon="-3.10597">
        <ele>140</ele>
        <time>2022-02-28T22:48:57.874Z</time>
      </trkpt>
      <trkpt lat="48.20754" lon="-3.106">
        <ele>139.7</ele>
        <time>2022-02-28T22:48:58.943Z</time>
      </trkpt>
      <trkpt lat="48.20759" lon="-3.10602">
        <ele>139.6</ele>
        <time>2022-02-28T22:49:00.413Z</time>
      </trkpt>
      <trkpt lat="48.20764" lon="-3.10604">
        <ele>139.6</ele>
        <time>2022-02-28T22:49:04.631Z</time>
      </trkpt>
      <trkpt lat="48.20768" lon="-3.10607">
        <ele>139.9</ele>
        <time>2022-02-28T22:49:11.808Z</time>
      </trkpt>
      <trkpt lat="48.20773" lon="-3.10608">
        <ele>140.2</ele>
        <time>2022-02-28T22:49:19.474Z</time>
      </trkpt>
      <trkpt lat="48.20777" lon="-3.10611">
        <ele>140.9</ele>
        <time>2022-02-28T22:49:33.533Z</time>
      </trkpt>
      <trkpt lat="48.20782" lon="-3.10614">
        <ele>139.6</ele>
        <time>2022-02-28T22:49:34.604Z</time>
      </trkpt>
      <trkpt lat="48.20787" lon="-3.10617">
        <ele>138.3</ele>
        <time>2022-02-28T22:49:35.674Z</time>
        <extensions>
          <visugpx:TrkExtension xmlns:visugpx="https://www.visugpx.com/editgpx/">
            <visugpx:node>21</visugpx:node>
            </visugpx:TrkExtension>
        </extensions>
      </trkpt>
      <trkpt lat="48.20791" lon="-3.10619">
        <ele>137.6</ele>
        <time>2022-02-28T22:49:36.512Z</time>
      </trkpt>
      <trkpt lat="48.20796" lon="-3.10621">
        <ele>137.1</ele>
        <time>2022-02-28T22:49:37.541Z</time>
      </trkpt>
      <trkpt lat="48.208" lon="-3.10623">
        <ele>136.7</ele>
        <time>2022-02-28T22:49:38.379Z</time>
      </trkpt>
      <trkpt lat="48.20804" lon="-3.10626">
        <ele>136.2</ele>
        <time>2022-02-28T22:49:39.268Z</time>
      </trkpt>
      <trkpt lat="48.20809" lon="-3.10631">
        <ele>135.7</ele>
        <time>2022-02-28T22:49:40.462Z</time>
      </trkpt>
      <trkpt lat="48.20814" lon="-3.10632">
        <ele>135.8</ele>
        <time>2022-02-28T22:49:45.486Z</time>
      </trkpt>
      <trkpt lat="48.20818" lon="-3.10637">
        <ele>135.2</ele>
        <time>2022-02-28T22:49:46.521Z</time>
      </trkpt>
      <trkpt lat="48.20821" lon="-3.10642">
        <ele>133.9</ele>
        <time>2022-02-28T22:49:47.412Z</time>
      </trkpt>
      <trkpt lat="48.20826" lon="-3.10646">
        <ele>132.7</ele>
        <time>2022-02-28T22:49:48.539Z</time>
      </trkpt>
      <trkpt lat="48.2083" lon="-3.1065">
        <ele>131.4</ele>
        <time>2022-02-28T22:49:49.494Z</time>
      </trkpt>
      <trkpt lat="48.20834" lon="-3.10654">
        <ele>130.2</ele>
        <time>2022-02-28T22:49:50.450Z</time>
      </trkpt>
      <trkpt lat="48.20837" lon="-3.10658">
        <ele>129.4</ele>
        <time>2022-02-28T22:49:51.247Z</time>
      </trkpt>
      <trkpt lat="48.20841" lon="-3.10663">
        <ele>128.4</ele>
        <time>2022-02-28T22:49:52.282Z</time>
      </trkpt>
      <trkpt lat="48.20843" lon="-3.10668">
        <ele>127.2</ele>
        <time>2022-02-28T22:49:53.055Z</time>
      </trkpt>
      <trkpt lat="48.20847" lon="-3.10673">
        <ele>127.3</ele>
        <time>2022-02-28T22:49:58.204Z</time>
      </trkpt>
      <trkpt lat="48.20849" lon="-3.10682">
        <ele>126</ele>
        <time>2022-02-28T22:49:59.461Z</time>
      </trkpt>
      <trkpt lat="48.20854" lon="-3.10686">
        <ele>126</ele>
        <time>2022-02-28T22:50:04.080Z</time>
      </trkpt>
      <trkpt lat="48.20858" lon="-3.10688">
        <ele>126.2</ele>
        <time>2022-02-28T22:50:09.990Z</time>
      </trkpt>
      <trkpt lat="48.20862" lon="-3.10693">
        <ele>125.8</ele>
        <time>2022-02-28T22:50:11.025Z</time>
      </trkpt>
      <trkpt lat="48.20867" lon="-3.10698">
        <ele>127.4</ele>
        <time>2022-02-28T22:50:29.916Z</time>
      </trkpt>
      <trkpt lat="48.2087" lon="-3.10704">
        <ele>127.9</ele>
        <time>2022-02-28T22:50:40.515Z</time>
      </trkpt>
      <trkpt lat="48.20874" lon="-3.10711">
        <ele>128.5</ele>
        <time>2022-02-28T22:50:53.247Z</time>
      </trkpt>
      <trkpt lat="48.20876" lon="-3.10717">
        <ele>128.2</ele>
        <time>2022-02-28T22:50:54.136Z</time>
      </trkpt>
      <trkpt lat="48.2088" lon="-3.10722">
        <ele>128.5</ele>
        <time>2022-02-28T22:51:01.947Z</time>
      </trkpt>
      <trkpt lat="48.20883" lon="-3.10729">
        <ele>128.5</ele>
        <time>2022-02-28T22:51:06.467Z</time>
      </trkpt>
      <trkpt lat="48.20886" lon="-3.10735">
        <ele>128.5</ele>
        <time>2022-02-28T22:51:10.542Z</time>
      </trkpt>
      <trkpt lat="48.20889" lon="-3.10743">
        <ele>128.1</ele>
        <time>2022-02-28T22:51:11.667Z</time>
      </trkpt>
      <trkpt lat="48.20886" lon="-3.10757">
        <ele>126.3</ele>
        <time>2022-02-28T22:51:13.615Z</time>
      </trkpt>
      <trkpt lat="48.20885" lon="-3.10758">
        <ele>126.1</ele>
        <time>2022-02-28T22:51:13.854Z</time>
      </trkpt>
      <trkpt lat="48.20887" lon="-3.10766">
        <ele>126.1</ele>
        <time>2022-02-28T22:51:18.495Z</time>
      </trkpt>
      <trkpt lat="48.20891" lon="-3.10773">
        <ele>126.9</ele>
        <time>2022-02-28T22:51:36.949Z</time>
      </trkpt>
      <trkpt lat="48.20896" lon="-3.10777">
        <ele>128.4</ele>
        <time>2022-02-28T22:51:54.764Z</time>
      </trkpt>
      <trkpt lat="48.20894" lon="-3.10785">
        <ele>127.5</ele>
        <time>2022-02-28T22:51:55.896Z</time>
      </trkpt>
      <trkpt lat="48.20894" lon="-3.10792">
        <ele>127.4</ele>
        <time>2022-02-28T22:51:57.189Z</time>
      </trkpt>
      <trkpt lat="48.20894" lon="-3.10797">
        <ele>127.3</ele>
        <time>2022-02-28T22:51:58.029Z</time>
      </trkpt>
      <trkpt lat="48.20895" lon="-3.10808">
        <ele>127.3</ele>
        <time>2022-02-28T22:52:04.060Z</time>
      </trkpt>
      <trkpt lat="48.20896" lon="-3.10816">
        <ele>127.3</ele>
        <time>2022-02-28T22:52:08.481Z</time>
      </trkpt>
      <trkpt lat="48.20899" lon="-3.10822">
        <ele>127.8</ele>
        <time>2022-02-28T22:52:19.080Z</time>
      </trkpt>
      <trkpt lat="48.20902" lon="-3.1083">
        <ele>128.4</ele>
        <time>2022-02-28T22:52:31.809Z</time>
      </trkpt>
      <trkpt lat="48.20904" lon="-3.10837">
        <ele>128.9</ele>
        <time>2022-02-28T22:52:42.414Z</time>
      </trkpt>
      <trkpt lat="48.20907" lon="-3.10841">
        <ele>129.8</ele>
        <time>2022-02-28T22:52:55.031Z</time>
      </trkpt>
      <trkpt lat="48.20912" lon="-3.10846">
        <ele>131.3</ele>
        <time>2022-02-28T22:53:13.923Z</time>
      </trkpt>
      <trkpt lat="48.20916" lon="-3.10851">
        <ele>132.5</ele>
        <time>2022-02-28T22:53:30.290Z</time>
      </trkpt>
      <trkpt lat="48.2092" lon="-3.10856">
        <ele>133.9</ele>
        <time>2022-02-28T22:53:46.658Z</time>
      </trkpt>
      <trkpt lat="48.2092" lon="-3.10859">
        <ele>134</ele>
        <time>2022-02-28T22:53:49.508Z</time>
        <extensions>
          <visugpx:TrkExtension xmlns:visugpx="https://www.visugpx.com/editgpx/">
            <visugpx:node>22</visugpx:node>
            </visugpx:TrkExtension>
        </extensions>
      </trkpt>
      <trkpt lat="48.20919" lon="-3.10864">
        <ele>133.8</ele>
        <time>2022-02-28T22:53:50.189Z</time>
      </trkpt>
      <trkpt lat="48.20916" lon="-3.10871">
        <ele>132.8</ele>
        <time>2022-02-28T22:53:51.292Z</time>
      </trkpt>
      <trkpt lat="48.20913" lon="-3.10877">
        <ele>132.2</ele>
        <time>2022-02-28T22:53:52.285Z</time>
      </trkpt>
      <trkpt lat="48.2091" lon="-3.10883">
        <ele>131.5</ele>
        <time>2022-02-28T22:53:53.279Z</time>
      </trkpt>
      <trkpt lat="48.20907" lon="-3.1089">
        <ele>131</ele>
        <time>2022-02-28T22:53:54.382Z</time>
      </trkpt>
      <trkpt lat="48.20904" lon="-3.10896">
        <ele>130.8</ele>
        <time>2022-02-28T22:53:55.522Z</time>
      </trkpt>
      <trkpt lat="48.209" lon="-3.10902">
        <ele>130.3</ele>
        <time>2022-02-28T22:53:56.647Z</time>
      </trkpt>
      <trkpt lat="48.20896" lon="-3.10908">
        <ele>129.9</ele>
        <time>2022-02-28T22:53:57.771Z</time>
      </trkpt>
      <trkpt lat="48.20893" lon="-3.10915">
        <ele>129.8</ele>
        <time>2022-02-28T22:53:59.371Z</time>
      </trkpt>
      <trkpt lat="48.20888" lon="-3.1092">
        <ele>129.2</ele>
        <time>2022-02-28T22:54:00.565Z</time>
      </trkpt>
      <trkpt lat="48.20884" lon="-3.10925">
        <ele>129</ele>
        <time>2022-02-28T22:54:01.771Z</time>
      </trkpt>
      <trkpt lat="48.20879" lon="-3.10929">
        <ele>128.6</ele>
        <time>2022-02-28T22:54:02.898Z</time>
      </trkpt>
      <trkpt lat="48.20875" lon="-3.10933">
        <ele>128.3</ele>
        <time>2022-02-28T22:54:03.802Z</time>
      </trkpt>
      <trkpt lat="48.20871" lon="-3.10939">
        <ele>128.2</ele>
        <time>2022-02-28T22:54:05.441Z</time>
      </trkpt>
      <trkpt lat="48.20866" lon="-3.10942">
        <ele>127.6</ele>
        <time>2022-02-28T22:54:06.511Z</time>
      </trkpt>
      <trkpt lat="48.20862" lon="-3.10946">
        <ele>127.3</ele>
        <time>2022-02-28T22:54:07.415Z</time>
      </trkpt>
      <trkpt lat="48.20857" lon="-3.10949">
        <ele>127.2</ele>
        <time>2022-02-28T22:54:08.959Z</time>
      </trkpt>
      <trkpt lat="48.20852" lon="-3.10953">
        <ele>127.2</ele>
        <time>2022-02-28T22:54:13.577Z</time>
      </trkpt>
      <trkpt lat="48.20847" lon="-3.10958">
        <ele>127.2</ele>
        <time>2022-02-28T22:54:18.475Z</time>
      </trkpt>
      <trkpt lat="48.20841" lon="-3.10963">
        <ele>127.1</ele>
        <time>2022-02-28T22:54:20.540Z</time>
      </trkpt>
      <trkpt lat="48.20837" lon="-3.10966">
        <ele>126.9</ele>
        <time>2022-02-28T22:54:21.517Z</time>
      </trkpt>
      <trkpt lat="48.20833" lon="-3.10969">
        <ele>126.7</ele>
        <time>2022-02-28T22:54:22.494Z</time>
      </trkpt>
      <trkpt lat="48.20829" lon="-3.10974">
        <ele>126.8</ele>
        <time>2022-02-28T22:54:27.644Z</time>
      </trkpt>
      <trkpt lat="48.2081" lon="-3.10985">
        <ele>126.2</ele>
        <time>2022-02-28T22:54:32.809Z</time>
      </trkpt>
      <trkpt lat="48.208" lon="-3.10989">
        <ele>126</ele>
        <time>2022-02-28T22:54:35.748Z</time>
      </trkpt>
      <trkpt lat="48.20775" lon="-3.10992">
        <ele>125.3</ele>
        <time>2022-02-28T22:54:42.215Z</time>
      </trkpt>
      <trkpt lat="48.20765" lon="-3.10995">
        <ele>125.2</ele>
        <time>2022-02-28T22:54:45.479Z</time>
      </trkpt>
      <trkpt lat="48.20762" lon="-3.11">
        <ele>125.4</ele>
        <time>2022-02-28T22:54:51.651Z</time>
      </trkpt>
      <trkpt lat="48.20761" lon="-3.11006">
        <ele>126.1</ele>
        <time>2022-02-28T22:55:04.610Z</time>
        <extensions>
          <visugpx:TrkExtension xmlns:visugpx="https://www.visugpx.com/editgpx/">
            <visugpx:node>23</visugpx:node>
            </visugpx:TrkExtension>
        </extensions>
      </trkpt>
      <trkpt lat="48.20762" lon="-3.11">
        <ele>125.4</ele>
        <time>2022-02-28T22:55:05.429Z</time>
      </trkpt>
      <trkpt lat="48.20753" lon="-3.10987">
        <ele>124.2</ele>
        <time>2022-02-28T22:55:07.913Z</time>
      </trkpt>
      <trkpt lat="48.2075" lon="-3.10982">
        <ele>123.7</ele>
        <time>2022-02-28T22:55:08.804Z</time>
      </trkpt>
      <trkpt lat="48.20745" lon="-3.10981">
        <ele>123.6</ele>
        <time>2022-02-28T22:55:10.228Z</time>
      </trkpt>
      <trkpt lat="48.2074" lon="-3.10982">
        <ele>123.7</ele>
        <time>2022-02-28T22:55:15.252Z</time>
      </trkpt>
      <trkpt lat="48.20706" lon="-3.11001">
        <ele>125</ele>
        <time>2022-02-28T22:55:59.274Z</time>
      </trkpt>
      <trkpt lat="48.20679" lon="-3.11017">
        <ele>125.4</ele>
        <time>2022-02-28T22:56:26.354Z</time>
      </trkpt>
      <trkpt lat="48.20656" lon="-3.11027">
        <ele>125.6</ele>
        <time>2022-02-28T22:56:47.490Z</time>
      </trkpt>
      <trkpt lat="48.20638" lon="-3.11035">
        <ele>125.5</ele>
        <time>2022-02-28T22:57:01.638Z</time>
      </trkpt>
      <trkpt lat="48.20616" lon="-3.1104">
        <ele>125.4</ele>
        <time>2022-02-28T22:57:18.607Z</time>
      </trkpt>
      <trkpt lat="48.206" lon="-3.11044">
        <ele>125.3</ele>
        <time>2022-02-28T22:57:30.687Z</time>
      </trkpt>
      <trkpt lat="48.20591" lon="-3.11049">
        <ele>125.2</ele>
        <time>2022-02-28T22:57:33.734Z</time>
      </trkpt>
      <trkpt lat="48.20584" lon="-3.1106">
        <ele>125.2</ele>
        <time>2022-02-28T22:57:41.996Z</time>
      </trkpt>
      <trkpt lat="48.20577" lon="-3.11077">
        <ele>125.4</ele>
        <time>2022-02-28T22:57:54.583Z</time>
      </trkpt>
      <trkpt lat="48.20573" lon="-3.11101">
        <ele>125.7</ele>
        <time>2022-02-28T22:58:10.710Z</time>
      </trkpt>
      <trkpt lat="48.20572" lon="-3.11164">
        <ele>125.8</ele>
        <time>2022-02-28T22:58:45.708Z</time>
      </trkpt>
      <trkpt lat="48.20571" lon="-3.11187">
        <ele>125.7</ele>
        <time>2022-02-28T22:58:57.093Z</time>
      </trkpt>
      <trkpt lat="48.20574" lon="-3.11208">
        <ele>125.7</ele>
        <time>2022-02-28T22:59:08.760Z</time>
      </trkpt>
      <trkpt lat="48.20587" lon="-3.11269">
        <ele>124.9</ele>
        <time>2022-02-28T22:59:20.967Z</time>
      </trkpt>
      <trkpt lat="48.20592" lon="-3.11286">
        <ele>124.8</ele>
        <time>2022-02-28T22:59:25.024Z</time>
      </trkpt>
      <trkpt lat="48.20604" lon="-3.11313">
        <ele>125.3</ele>
        <time>2022-02-28T22:59:47.390Z</time>
      </trkpt>
      <trkpt lat="48.2062" lon="-3.11343">
        <ele>125.3</ele>
        <time>2022-02-28T23:00:08.263Z</time>
      </trkpt>
      <trkpt lat="48.20664" lon="-3.11426">
        <ele>125.8</ele>
        <time>2022-02-28T23:01:09.868Z</time>
      </trkpt>
      <trkpt lat="48.20681" lon="-3.11454">
        <ele>125.5</ele>
        <time>2022-02-28T23:01:17.729Z</time>
      </trkpt>
      <trkpt lat="48.20701" lon="-3.11488">
        <ele>125.5</ele>
        <time>2022-02-28T23:01:42.365Z</time>
      </trkpt>
      <trkpt lat="48.20721" lon="-3.11512">
        <ele>125.1</ele>
        <time>2022-02-28T23:01:49.971Z</time>
      </trkpt>
      <trkpt lat="48.20758" lon="-3.1155">
        <ele>124.6</ele>
        <time>2022-02-28T23:02:04.068Z</time>
      </trkpt>
      <trkpt lat="48.20792" lon="-3.11578">
        <ele>124.8</ele>
        <time>2022-02-28T23:02:37.249Z</time>
      </trkpt>
      <trkpt lat="48.20815" lon="-3.11592">
        <ele>124.9</ele>
        <time>2022-02-28T23:02:58.256Z</time>
        <extensions>
          <visugpx:TrkExtension xmlns:visugpx="https://www.visugpx.com/editgpx/">
            <visugpx:node>24</visugpx:node>
            </visugpx:TrkExtension>
        </extensions>
      </trkpt>
      <trkpt lat="48.20822" lon="-3.11596">
        <ele>124.9</ele>
        <time>2022-02-28T23:03:04.362Z</time>
      </trkpt>
      <trkpt lat="48.20852" lon="-3.11611">
        <ele>124.7</ele>
        <time>2022-02-28T23:03:27.860Z</time>
      </trkpt>
      <trkpt lat="48.20876" lon="-3.11613">
        <ele>124.9</ele>
        <time>2022-02-28T23:03:49.069Z</time>
      </trkpt>
      <trkpt lat="48.20892" lon="-3.11612">
        <ele>124.9</ele>
        <time>2022-02-28T23:04:02.123Z</time>
      </trkpt>
      <trkpt lat="48.20908" lon="-3.11606">
        <ele>124.9</ele>
        <time>2022-02-28T23:04:15.566Z</time>
      </trkpt>
      <trkpt lat="48.20921" lon="-3.11592">
        <ele>125.2</ele>
        <time>2022-02-28T23:04:31.313Z</time>
      </trkpt>
      <trkpt lat="48.20936" lon="-3.11579">
        <ele>125.7</ele>
        <time>2022-02-28T23:04:50.508Z</time>
      </trkpt>
      <trkpt lat="48.20952" lon="-3.11576">
        <ele>126.1</ele>
        <time>2022-02-28T23:05:07.516Z</time>
      </trkpt>
      <trkpt lat="48.20966" lon="-3.11583">
        <ele>124.9</ele>
        <time>2022-02-28T23:05:10.449Z</time>
      </trkpt>
      <trkpt lat="48.20971" lon="-3.11588">
        <ele>124.8</ele>
        <time>2022-02-28T23:05:12.211Z</time>
      </trkpt>
      <trkpt lat="48.20977" lon="-3.11595">
        <ele>125.3</ele>
        <time>2022-02-28T23:05:24.294Z</time>
      </trkpt>
      <trkpt lat="48.20987" lon="-3.1161">
        <ele>124.7</ele>
        <time>2022-02-28T23:05:27.448Z</time>
      </trkpt>
      <trkpt lat="48.21002" lon="-3.11644">
        <ele>125.2</ele>
        <time>2022-02-28T23:05:54.087Z</time>
      </trkpt>
      <trkpt lat="48.21026" lon="-3.11702">
        <ele>124.7</ele>
        <time>2022-02-28T23:06:08.421Z</time>
      </trkpt>
      <trkpt lat="48.21048" lon="-3.11765">
        <ele>125.4</ele>
        <time>2022-02-28T23:06:53.101Z</time>
      </trkpt>
      <trkpt lat="48.2107" lon="-3.11846">
        <ele>126.6</ele>
        <time>2022-02-28T23:07:51.655Z</time>
      </trkpt>
      <trkpt lat="48.21076" lon="-3.11879">
        <ele>126.5</ele>
        <time>2022-02-28T23:08:09.065Z</time>
      </trkpt>
      <trkpt lat="48.21085" lon="-3.11953">
        <ele>125.8</ele>
        <time>2022-02-28T23:08:24.266Z</time>
      </trkpt>
      <trkpt lat="48.21084" lon="-3.11983">
        <ele>125.3</ele>
        <time>2022-02-28T23:08:29.595Z</time>
      </trkpt>
      <trkpt lat="48.21079" lon="-3.12074">
        <ele>124.8</ele>
        <time>2022-02-28T23:08:49.489Z</time>
      </trkpt>
      <trkpt lat="48.21073" lon="-3.12165">
        <ele>124.6</ele>
        <time>2022-02-28T23:09:36.783Z</time>
      </trkpt>
      <trkpt lat="48.21073" lon="-3.12255">
        <ele>124.4</ele>
        <time>2022-02-28T23:10:23.294Z</time>
      </trkpt>
      <trkpt lat="48.21071" lon="-3.1232">
        <ele>124</ele>
        <time>2022-02-28T23:10:37.279Z</time>
      </trkpt>
      <trkpt lat="48.21066" lon="-3.12361">
        <ele>125</ele>
        <time>2022-02-28T23:11:11.060Z</time>
      </trkpt>
      <trkpt lat="48.21054" lon="-3.12453">
        <ele>125</ele>
        <time>2022-02-28T23:12:01.982Z</time>
      </trkpt>
      <trkpt lat="48.21053" lon="-3.12484">
        <ele>125</ele>
        <time>2022-02-28T23:12:18.841Z</time>
      </trkpt>
      <trkpt lat="48.2105" lon="-3.12584">
        <ele>124.8</ele>
        <time>2022-02-28T23:13:10.827Z</time>
      </trkpt>
      <trkpt lat="48.21049" lon="-3.1267">
        <ele>124.8</ele>
        <time>2022-02-28T23:13:57.549Z</time>
      </trkpt>
      <trkpt lat="48.21051" lon="-3.12694">
        <ele>125</ele>
        <time>2022-02-28T23:14:12.371Z</time>
      </trkpt>
      <trkpt lat="48.21056" lon="-3.12715">
        <ele>125</ele>
        <time>2022-02-28T23:14:24.485Z</time>
      </trkpt>
      <trkpt lat="48.21067" lon="-3.12752">
        <ele>124.4</ele>
        <time>2022-02-28T23:14:31.899Z</time>
      </trkpt>
      <trkpt lat="48.21076" lon="-3.12779">
        <ele>124.7</ele>
        <time>2022-02-28T23:14:50.892Z</time>
      </trkpt>
      <trkpt lat="48.21087" lon="-3.12808">
        <ele>124.9</ele>
        <time>2022-02-28T23:15:10.645Z</time>
      </trkpt>
      <trkpt lat="48.21098" lon="-3.12833">
        <ele>125.6</ele>
        <time>2022-02-28T23:15:34.617Z</time>
      </trkpt>
      <trkpt lat="48.21111" lon="-3.12852">
        <ele>125.7</ele>
        <time>2022-02-28T23:15:50.195Z</time>
      </trkpt>
      <trkpt lat="48.21143" lon="-3.12885">
        <ele>125.2</ele>
        <time>2022-02-28T23:16:02.133Z</time>
      </trkpt>
      <trkpt lat="48.21157" lon="-3.12901">
        <ele>125</ele>
        <time>2022-02-28T23:16:07.650Z</time>
      </trkpt>
      <trkpt lat="48.2117" lon="-3.12907">
        <ele>125</ele>
        <time>2022-02-28T23:16:18.737Z</time>
      </trkpt>
      <trkpt lat="48.21202" lon="-3.1291">
        <ele>125.2</ele>
        <time>2022-02-28T23:16:46.455Z</time>
      </trkpt>
      <trkpt lat="48.21211" lon="-3.12914">
        <ele>125.5</ele>
        <time>2022-02-28T23:16:57.273Z</time>
      </trkpt>
      <trkpt lat="48.21225" lon="-3.12925">
        <ele>125.5</ele>
        <time>2022-02-28T23:17:10.155Z</time>
      </trkpt>
      <trkpt lat="48.21239" lon="-3.12944">
        <ele>125.2</ele>
        <time>2022-02-28T23:17:15.742Z</time>
      </trkpt>
      <trkpt lat="48.21237" lon="-3.12947">
        <ele>125</ele>
        <time>2022-02-28T23:17:16.305Z</time>
        <extensions>
          <visugpx:TrkExtension xmlns:visugpx="https://www.visugpx.com/editgpx/">
            <visugpx:node>25</visugpx:node>
            </visugpx:TrkExtension>
        </extensions>
      </trkpt>
      <trkpt lat="48.21216" lon="-3.12984">
        <ele>124.5</ele>
        <time>2022-02-28T23:17:25.946Z</time>
      </trkpt>
      <trkpt lat="48.21209" lon="-3.12996">
        <ele>125.7</ele>
        <time>2022-02-28T23:17:51.717Z</time>
      </trkpt>
      <trkpt lat="48.21207" lon="-3.13">
        <ele>126.2</ele>
        <time>2022-02-28T23:18:02.194Z</time>
      </trkpt>
      <trkpt lat="48.212" lon="-3.1301">
        <ele>127.7</ele>
        <time>2022-02-28T23:18:32.580Z</time>
      </trkpt>
      <trkpt lat="48.21199" lon="-3.1301">
        <ele>127.8</ele>
        <time>2022-02-28T23:18:34.700Z</time>
      </trkpt>
      <trkpt lat="48.21193" lon="-3.13013">
        <ele>128.4</ele>
        <time>2022-02-28T23:18:47.467Z</time>
      </trkpt>
      <trkpt lat="48.21179" lon="-3.13012">
        <ele>128.1</ele>
        <time>2022-02-28T23:18:51.353Z</time>
      </trkpt>
      <trkpt lat="48.21167" lon="-3.13008">
        <ele>127.6</ele>
        <time>2022-02-28T23:18:54.140Z</time>
      </trkpt>
      <trkpt lat="48.21158" lon="-3.13004">
        <ele>127.8</ele>
        <time>2022-02-28T23:19:03.647Z</time>
      </trkpt>
      <trkpt lat="48.21159" lon="-3.1301">
        <ele>128.4</ele>
        <time>2022-02-28T23:19:16.605Z</time>
        <extensions>
          <visugpx:TrkExtension xmlns:visugpx="https://www.visugpx.com/editgpx/">
            <visugpx:node>26</visugpx:node>
            </visugpx:TrkExtension>
        </extensions>
      </trkpt>
      <trkpt lat="48.21158" lon="-3.13004">
        <ele>127.8</ele>
        <time>2022-02-28T23:19:17.424Z</time>
      </trkpt>
      <trkpt lat="48.21157" lon="-3.13004">
        <ele>127.8</ele>
        <time>2022-02-28T23:19:18.239Z</time>
      </trkpt>
      <trkpt lat="48.21124" lon="-3.12977">
        <ele>128.1</ele>
        <time>2022-02-28T23:19:51.293Z</time>
      </trkpt>
      <trkpt lat="48.21115" lon="-3.12966">
        <ele>127.6</ele>
        <time>2022-02-28T23:19:53.867Z</time>
      </trkpt>
      <trkpt lat="48.21113" lon="-3.12969">
        <ele>127.8</ele>
        <time>2022-02-28T23:19:58.531Z</time>
        <extensions>
          <visugpx:TrkExtension xmlns:visugpx="https://www.visugpx.com/editgpx/">
            <visugpx:node>27</visugpx:node>
            </visugpx:TrkExtension>
        </extensions>
      </trkpt>
      <trkpt lat="48.21112" lon="-3.12972">
        <ele>128</ele>
        <time>2022-02-28T23:20:02.828Z</time>
      </trkpt>
      <trkpt lat="48.2111" lon="-3.12978">
        <ele>129.2</ele>
        <time>2022-02-28T23:20:16.884Z</time>
      </trkpt>
      <trkpt lat="48.21114" lon="-3.12985">
        <ele>130</ele>
        <time>2022-02-28T23:20:35.339Z</time>
      </trkpt>
      <trkpt lat="48.2111" lon="-3.12988">
        <ele>131.1</ele>
        <time>2022-02-28T23:20:49.398Z</time>
      </trkpt>
      <trkpt lat="48.21107" lon="-3.12992">
        <ele>132.4</ele>
        <time>2022-02-28T23:21:02.016Z</time>
      </trkpt>
      <trkpt lat="48.211" lon="-3.12997">
        <ele>134.8</ele>
        <time>2022-02-28T23:21:26.390Z</time>
      </trkpt>
      <trkpt lat="48.21096" lon="-3.12993">
        <ele>134.9</ele>
        <time>2022-02-28T23:21:31.230Z</time>
      </trkpt>
      <trkpt lat="48.21093" lon="-3.12991">
        <ele>135.1</ele>
        <time>2022-02-28T23:21:36.270Z</time>
      </trkpt>
      <trkpt lat="48.21088" lon="-3.12987">
        <ele>135.3</ele>
        <time>2022-02-28T23:21:43.095Z</time>
      </trkpt>
      <trkpt lat="48.21082" lon="-3.1298">
        <ele>135.1</ele>
        <time>2022-02-28T23:21:45.089Z</time>
      </trkpt>
      <trkpt lat="48.21075" lon="-3.12976">
        <ele>136.3</ele>
        <time>2022-02-28T23:22:08.639Z</time>
      </trkpt>
      <trkpt lat="48.2107" lon="-3.12972">
        <ele>136.8</ele>
        <time>2022-02-28T23:22:19.415Z</time>
      </trkpt>
      <trkpt lat="48.21066" lon="-3.12966">
        <ele>137</ele>
        <time>2022-02-28T23:22:26.234Z</time>
      </trkpt>
      <trkpt lat="48.21063" lon="-3.12961">
        <ele>137.1</ele>
        <time>2022-02-28T23:22:30.827Z</time>
      </trkpt>
      <trkpt lat="48.21061" lon="-3.12954">
        <ele>136.4</ele>
        <time>2022-02-28T23:22:31.836Z</time>
      </trkpt>
      <trkpt lat="48.21057" lon="-3.12951">
        <ele>136.8</ele>
        <time>2022-02-28T23:22:40.431Z</time>
      </trkpt>
      <trkpt lat="48.21052" lon="-3.12948">
        <ele>137.6</ele>
        <time>2022-02-28T23:22:57.361Z</time>
      </trkpt>
      <trkpt lat="48.21045" lon="-3.12944">
        <ele>138.6</ele>
        <time>2022-02-28T23:23:20.911Z</time>
      </trkpt>
      <trkpt lat="48.21039" lon="-3.12942">
        <ele>139.9</ele>
        <time>2022-02-28T23:23:40.235Z</time>
      </trkpt>
      <trkpt lat="48.21033" lon="-3.12935">
        <ele>140.7</ele>
        <time>2022-02-28T23:23:57.216Z</time>
      </trkpt>
      <trkpt lat="48.21032" lon="-3.12932">
        <ele>140.6</ele>
        <time>2022-02-28T23:23:57.704Z</time>
      </trkpt>
      <trkpt lat="48.21028" lon="-3.12927">
        <ele>141.1</ele>
        <time>2022-02-28T23:24:08.330Z</time>
      </trkpt>
      <trkpt lat="48.21024" lon="-3.12925">
        <ele>142.4</ele>
        <time>2022-02-28T23:24:21.586Z</time>
      </trkpt>
      <trkpt lat="48.21023" lon="-3.12916">
        <ele>141.9</ele>
        <time>2022-02-28T23:24:22.794Z</time>
      </trkpt>
      <trkpt lat="48.21019" lon="-3.1291">
        <ele>143.2</ele>
        <time>2022-02-28T23:24:40.576Z</time>
      </trkpt>
      <trkpt lat="48.21016" lon="-3.12903">
        <ele>144</ele>
        <time>2022-02-28T23:24:58.014Z</time>
      </trkpt>
      <trkpt lat="48.2101" lon="-3.12899">
        <ele>146</ele>
        <time>2022-02-28T23:25:18.656Z</time>
      </trkpt>
      <trkpt lat="48.21007" lon="-3.12894">
        <ele>146.8</ele>
        <time>2022-02-28T23:25:32.752Z</time>
      </trkpt>
      <trkpt lat="48.21007" lon="-3.12888">
        <ele>146.4</ele>
        <time>2022-02-28T23:25:33.547Z</time>
      </trkpt>
      <trkpt lat="48.21005" lon="-3.12883">
        <ele>146.7</ele>
        <time>2022-02-28T23:25:40.287Z</time>
      </trkpt>
      <trkpt lat="48.21" lon="-3.12875">
        <ele>148</ele>
        <time>2022-02-28T23:26:03.267Z</time>
      </trkpt>
      <trkpt lat="48.20996" lon="-3.12869">
        <ele>149.4</ele>
        <time>2022-02-28T23:26:21.049Z</time>
      </trkpt>
      <trkpt lat="48.20994" lon="-3.12862">
        <ele>149.9</ele>
        <time>2022-02-28T23:26:31.654Z</time>
      </trkpt>
      <trkpt lat="48.20989" lon="-3.12862">
        <ele>152.2</ele>
        <time>2022-02-28T23:26:47.374Z</time>
      </trkpt>
      <trkpt lat="48.20983" lon="-3.12875">
        <ele>156</ele>
        <time>2022-02-28T23:27:20.506Z</time>
      </trkpt>
      <trkpt lat="48.20978" lon="-3.12876">
        <ele>158.4</ele>
        <time>2022-02-28T23:27:36.365Z</time>
      </trkpt>
      <trkpt lat="48.20976" lon="-3.1287">
        <ele>158.9</ele>
        <time>2022-02-28T23:27:47.078Z</time>
      </trkpt>
      <trkpt lat="48.20974" lon="-3.12863">
        <ele>159.3</ele>
        <time>2022-02-28T23:27:55.995Z</time>
      </trkpt>
      <trkpt lat="48.20973" lon="-3.12857">
        <ele>159.8</ele>
        <time>2022-02-28T23:28:07.022Z</time>
      </trkpt>
      <trkpt lat="48.20972" lon="-3.1285">
        <ele>160.5</ele>
        <time>2022-02-28T23:28:22.021Z</time>
      </trkpt>
      <trkpt lat="48.20973" lon="-3.12842">
        <ele>160.3</ele>
        <time>2022-02-28T23:28:23.297Z</time>
      </trkpt>
      <trkpt lat="48.20972" lon="-3.12833">
        <ele>161.1</ele>
        <time>2022-02-28T23:28:41.913Z</time>
      </trkpt>
      <trkpt lat="48.20971" lon="-3.12825">
        <ele>161.2</ele>
        <time>2022-02-28T23:28:47.233Z</time>
      </trkpt>
      <trkpt lat="48.2097" lon="-3.12818">
        <ele>161.4</ele>
        <time>2022-02-28T23:28:53.545Z</time>
      </trkpt>
      <trkpt lat="48.20967" lon="-3.12811">
        <ele>162.5</ele>
        <time>2022-02-28T23:29:10.983Z</time>
      </trkpt>
      <trkpt lat="48.20965" lon="-3.12805">
        <ele>163.1</ele>
        <time>2022-02-28T23:29:25.039Z</time>
      </trkpt>
      <trkpt lat="48.20963" lon="-3.12795">
        <ele>162.7</ele>
        <time>2022-02-28T23:29:26.401Z</time>
      </trkpt>
      <trkpt lat="48.20962" lon="-3.1279">
        <ele>162.6</ele>
        <time>2022-02-28T23:29:27.290Z</time>
      </trkpt>
      <trkpt lat="48.20958" lon="-3.12785">
        <ele>163.9</ele>
        <time>2022-02-28T23:29:43.658Z</time>
      </trkpt>
      <trkpt lat="48.20955" lon="-3.12776">
        <ele>164.5</ele>
        <time>2022-02-28T23:29:56.550Z</time>
      </trkpt>
      <trkpt lat="48.20953" lon="-3.12769">
        <ele>164.6</ele>
        <time>2022-02-28T23:30:01.598Z</time>
      </trkpt>
      <trkpt lat="48.20951" lon="-3.12762">
        <ele>164.9</ele>
        <time>2022-02-28T23:30:09.292Z</time>
      </trkpt>
      <trkpt lat="48.2095" lon="-3.12755">
        <ele>164.6</ele>
        <time>2022-02-28T23:30:10.186Z</time>
      </trkpt>
      <trkpt lat="48.20949" lon="-3.1275">
        <ele>164.5</ele>
        <time>2022-02-28T23:30:11.075Z</time>
      </trkpt>
      <trkpt lat="48.20946" lon="-3.12741">
        <ele>164.8</ele>
        <time>2022-02-28T23:30:20.315Z</time>
      </trkpt>
      <trkpt lat="48.20942" lon="-3.12734">
        <ele>165.9</ele>
        <time>2022-02-28T23:30:39.635Z</time>
      </trkpt>
      <trkpt lat="48.2094" lon="-3.12728">
        <ele>166</ele>
        <time>2022-02-28T23:30:44.218Z</time>
      </trkpt>
      <trkpt lat="48.20937" lon="-3.12719">
        <ele>166.2</ele>
        <time>2022-02-28T23:30:51.739Z</time>
      </trkpt>
      <trkpt lat="48.20936" lon="-3.12713">
        <ele>165.8</ele>
        <time>2022-02-28T23:30:52.558Z</time>
      </trkpt>
      <trkpt lat="48.20936" lon="-3.12706">
        <ele>164.7</ele>
        <time>2022-02-28T23:30:53.485Z</time>
      </trkpt>
      <trkpt lat="48.20934" lon="-3.127">
        <ele>164.9</ele>
        <time>2022-02-28T23:30:59.645Z</time>
      </trkpt>
      <trkpt lat="48.20931" lon="-3.12687">
        <ele>164.5</ele>
        <time>2022-02-28T23:31:01.668Z</time>
      </trkpt>
      <trkpt lat="48.20929" lon="-3.12679">
        <ele>164.4</ele>
        <time>2022-02-28T23:31:03.319Z</time>
      </trkpt>
      <trkpt lat="48.20926" lon="-3.12673">
        <ele>165.3</ele>
        <time>2022-02-28T23:31:19.036Z</time>
      </trkpt>
      <trkpt lat="48.20922" lon="-3.12668">
        <ele>166.9</ele>
        <time>2022-02-28T23:31:35.404Z</time>
      </trkpt>
      <trkpt lat="48.2092" lon="-3.12663">
        <ele>167.4</ele>
        <time>2022-02-28T23:31:46.833Z</time>
      </trkpt>
      <trkpt lat="48.20919" lon="-3.12657">
        <ele>167.2</ele>
        <time>2022-02-28T23:31:47.704Z</time>
      </trkpt>
      <trkpt lat="48.20917" lon="-3.12652">
        <ele>167.7</ele>
        <time>2022-02-28T23:31:59.133Z</time>
      </trkpt>
      <trkpt lat="48.20917" lon="-3.12644">
        <ele>166.5</ele>
        <time>2022-02-28T23:32:00.193Z</time>
      </trkpt>
      <trkpt lat="48.20914" lon="-3.12636">
        <ele>167.7</ele>
        <time>2022-02-28T23:32:19.427Z</time>
      </trkpt>
      <trkpt lat="48.20912" lon="-3.1263">
        <ele>168.8</ele>
        <time>2022-02-28T23:32:33.483Z</time>
      </trkpt>
      <trkpt lat="48.2091" lon="-3.12622">
        <ele>169.7</ele>
        <time>2022-02-28T23:32:51.385Z</time>
      </trkpt>
      <trkpt lat="48.20909" lon="-3.12615">
        <ele>169.9</ele>
        <time>2022-02-28T23:32:57.698Z</time>
      </trkpt>
      <trkpt lat="48.20908" lon="-3.12607">
        <ele>170.3</ele>
        <time>2022-02-28T23:33:06.854Z</time>
      </trkpt>
      <trkpt lat="48.20905" lon="-3.12601">
        <ele>172</ele>
        <time>2022-02-28T23:33:22.570Z</time>
      </trkpt>
      <trkpt lat="48.20906" lon="-3.12592">
        <ele>171.3</ele>
        <time>2022-02-28T23:33:23.779Z</time>
      </trkpt>
      <trkpt lat="48.20906" lon="-3.12584">
        <ele>171.2</ele>
        <time>2022-02-28T23:33:25.303Z</time>
      </trkpt>
      <trkpt lat="48.20906" lon="-3.12577">
        <ele>171</ele>
        <time>2022-02-28T23:33:26.340Z</time>
      </trkpt>
      <trkpt lat="48.20904" lon="-3.12569">
        <ele>172</ele>
        <time>2022-02-28T23:33:44.242Z</time>
      </trkpt>
      <trkpt lat="48.20904" lon="-3.12562">
        <ele>171.9</ele>
        <time>2022-02-28T23:33:45.535Z</time>
      </trkpt>
      <trkpt lat="48.20902" lon="-3.12553">
        <ele>172.9</ele>
        <time>2022-02-28T23:34:05.413Z</time>
      </trkpt>
      <trkpt lat="48.209" lon="-3.12546">
        <ele>173.9</ele>
        <time>2022-02-28T23:34:21.371Z</time>
      </trkpt>
      <trkpt lat="48.20898" lon="-3.1254">
        <ele>174.9</ele>
        <time>2022-02-28T23:34:35.427Z</time>
      </trkpt>
      <trkpt lat="48.20896" lon="-3.12534">
        <ele>175.9</ele>
        <time>2022-02-28T23:34:49.483Z</time>
      </trkpt>
      <trkpt lat="48.20891" lon="-3.12528">
        <ele>178.7</ele>
        <time>2022-02-28T23:35:09.612Z</time>
      </trkpt>
      <trkpt lat="48.2089" lon="-3.12521">
        <ele>178.8</ele>
        <time>2022-02-28T23:35:14.425Z</time>
      </trkpt>
      <trkpt lat="48.20888" lon="-3.12514">
        <ele>179.5</ele>
        <time>2022-02-28T23:35:30.383Z</time>
      </trkpt>
      <trkpt lat="48.20885" lon="-3.12507">
        <ele>180.5</ele>
        <time>2022-02-28T23:35:47.820Z</time>
      </trkpt>
      <trkpt lat="48.20885" lon="-3.12499">
        <ele>179.9</ele>
        <time>2022-02-28T23:35:48.880Z</time>
      </trkpt>
      <trkpt lat="48.20885" lon="-3.12493">
        <ele>179.7</ele>
        <time>2022-02-28T23:35:49.714Z</time>
      </trkpt>
      <trkpt lat="48.20884" lon="-3.12485">
        <ele>179.8</ele>
        <time>2022-02-28T23:35:55.033Z</time>
      </trkpt>
      <trkpt lat="48.20882" lon="-3.12478">
        <ele>180.5</ele>
        <time>2022-02-28T23:36:10.991Z</time>
      </trkpt>
      <trkpt lat="48.20878" lon="-3.12463">
        <ele>181</ele>
        <time>2022-02-28T23:36:25.987Z</time>
      </trkpt>
      <trkpt lat="48.20876" lon="-3.12456">
        <ele>181</ele>
        <time>2022-02-28T23:36:30.124Z</time>
      </trkpt>
      <trkpt lat="48.20873" lon="-3.1245">
        <ele>181.6</ele>
        <time>2022-02-28T23:36:43.290Z</time>
      </trkpt>
      <trkpt lat="48.20871" lon="-3.12444">
        <ele>181.7</ele>
        <time>2022-02-28T23:36:47.873Z</time>
      </trkpt>
      <trkpt lat="48.2087" lon="-3.12439">
        <ele>181.8</ele>
        <time>2022-02-28T23:36:51.722Z</time>
      </trkpt>
      <trkpt lat="48.20868" lon="-3.12434">
        <ele>182.3</ele>
        <time>2022-02-28T23:37:03.152Z</time>
        <extensions>
          <visugpx:TrkExtension xmlns:visugpx="https://www.visugpx.com/editgpx/">
            <visugpx:node>28</visugpx:node>
            </visugpx:TrkExtension>
        </extensions>
      </trkpt>
      <trkpt lat="48.20866" lon="-3.12431">
        <ele>182.9</ele>
        <time>2022-02-28T23:37:12.043Z</time>
      </trkpt>
      <trkpt lat="48.20862" lon="-3.12421">
        <ele>183.9</ele>
        <time>2022-02-28T23:37:34.903Z</time>
      </trkpt>
      <trkpt lat="48.20858" lon="-3.1242">
        <ele>185.2</ele>
        <time>2022-02-28T23:37:47.652Z</time>
      </trkpt>
      <trkpt lat="48.20853" lon="-3.12418">
        <ele>186.5</ele>
        <time>2022-02-28T23:38:03.921Z</time>
      </trkpt>
      <trkpt lat="48.20848" lon="-3.12413">
        <ele>187.4</ele>
        <time>2022-02-28T23:38:22.812Z</time>
      </trkpt>
      <trkpt lat="48.20844" lon="-3.12407">
        <ele>188.1</ele>
        <time>2022-02-28T23:38:38.414Z</time>
      </trkpt>
      <trkpt lat="48.20842" lon="-3.12401">
        <ele>188.2</ele>
        <time>2022-02-28T23:38:42.998Z</time>
      </trkpt>
      <trkpt lat="48.20838" lon="-3.12396">
        <ele>189</ele>
        <time>2022-02-28T23:38:59.366Z</time>
      </trkpt>
      <trkpt lat="48.20836" lon="-3.12386">
        <ele>189</ele>
        <time>2022-02-28T23:39:05.037Z</time>
      </trkpt>
      <trkpt lat="48.20832" lon="-3.12382">
        <ele>190.3</ele>
        <time>2022-02-28T23:39:20.150Z</time>
      </trkpt>
      <trkpt lat="48.20828" lon="-3.12375">
        <ele>191.5</ele>
        <time>2022-02-28T23:39:39.471Z</time>
      </trkpt>
      <trkpt lat="48.20823" lon="-3.12371">
        <ele>193.2</ele>
        <time>2022-02-28T23:39:57.285Z</time>
      </trkpt>
      <trkpt lat="48.20822" lon="-3.12363">
        <ele>193.2</ele>
        <time>2022-02-28T23:40:01.707Z</time>
      </trkpt>
      <trkpt lat="48.20823" lon="-3.12356">
        <ele>192.5</ele>
        <time>2022-02-28T23:40:02.655Z</time>
      </trkpt>
      <trkpt lat="48.20823" lon="-3.12349">
        <ele>192.1</ele>
        <time>2022-02-28T23:40:03.583Z</time>
      </trkpt>
      <trkpt lat="48.20823" lon="-3.1234">
        <ele>191.7</ele>
        <time>2022-02-28T23:40:04.675Z</time>
      </trkpt>
      <trkpt lat="48.20824" lon="-3.12331">
        <ele>190.9</ele>
        <time>2022-02-28T23:40:05.883Z</time>
      </trkpt>
      <trkpt lat="48.20823" lon="-3.12328">
        <ele>191.1</ele>
        <time>2022-02-28T23:40:10.181Z</time>
      </trkpt>
      <trkpt lat="48.20821" lon="-3.12321">
        <ele>191.4</ele>
        <time>2022-02-28T23:40:17.874Z</time>
      </trkpt>
      <trkpt lat="48.2082" lon="-3.12312">
        <ele>191.2</ele>
        <time>2022-02-28T23:40:19.362Z</time>
      </trkpt>
      <trkpt lat="48.20819" lon="-3.12305">
        <ele>191.1</ele>
        <time>2022-02-28T23:40:20.692Z</time>
      </trkpt>
      <trkpt lat="48.20817" lon="-3.12294">
        <ele>190.7</ele>
        <time>2022-02-28T23:40:22.240Z</time>
      </trkpt>
      <trkpt lat="48.20816" lon="-3.12288">
        <ele>190.5</ele>
        <time>2022-02-28T23:40:23.110Z</time>
      </trkpt>
      <trkpt lat="48.20816" lon="-3.12282">
        <ele>190</ele>
        <time>2022-02-28T23:40:23.905Z</time>
      </trkpt>
      <trkpt lat="48.20812" lon="-3.12275">
        <ele>190.6</ele>
        <time>2022-02-28T23:40:36.638Z</time>
      </trkpt>
      <trkpt lat="48.2081" lon="-3.12268">
        <ele>190.3</ele>
        <time>2022-02-28T23:40:37.619Z</time>
      </trkpt>
      <trkpt lat="48.20806" lon="-3.12261">
        <ele>190.5</ele>
        <time>2022-02-28T23:40:44.755Z</time>
      </trkpt>
      <trkpt lat="48.20806" lon="-3.12254">
        <ele>189.5</ele>
        <time>2022-02-28T23:40:45.683Z</time>
      </trkpt>
      <trkpt lat="48.20805" lon="-3.12248">
        <ele>189</ele>
        <time>2022-02-28T23:40:46.502Z</time>
      </trkpt>
      <trkpt lat="48.20804" lon="-3.12241">
        <ele>188.8</ele>
        <time>2022-02-28T23:40:47.571Z</time>
      </trkpt>
      <trkpt lat="48.20803" lon="-3.1223">
        <ele>188.3</ele>
        <time>2022-02-28T23:40:49.042Z</time>
      </trkpt>
      <trkpt lat="48.20802" lon="-3.12224">
        <ele>188.2</ele>
        <time>2022-02-28T23:40:50.148Z</time>
      </trkpt>
      <trkpt lat="48.20801" lon="-3.12218">
        <ele>188.1</ele>
        <time>2022-02-28T23:40:51.254Z</time>
      </trkpt>
      <trkpt lat="48.20803" lon="-3.12211">
        <ele>187.3</ele>
        <time>2022-02-28T23:40:52.263Z</time>
      </trkpt>
      <trkpt lat="48.20802" lon="-3.12203">
        <ele>187.2</ele>
        <time>2022-02-28T23:40:53.820Z</time>
      </trkpt>
      <trkpt lat="48.20801" lon="-3.12196">
        <ele>187.2</ele>
        <time>2022-02-28T23:40:57.709Z</time>
      </trkpt>
      <trkpt lat="48.20803" lon="-3.12187">
        <ele>186.4</ele>
        <time>2022-02-28T23:40:58.966Z</time>
      </trkpt>
      <trkpt lat="48.20804" lon="-3.12179">
        <ele>185.9</ele>
        <time>2022-02-28T23:41:00.044Z</time>
      </trkpt>
      <trkpt lat="48.20799" lon="-3.12174">
        <ele>187.1</ele>
        <time>2022-02-28T23:41:18.935Z</time>
      </trkpt>
      <trkpt lat="48.20797" lon="-3.12167">
        <ele>187.5</ele>
        <time>2022-02-28T23:41:27.853Z</time>
      </trkpt>
      <trkpt lat="48.20796" lon="-3.12161">
        <ele>187.8</ele>
        <time>2022-02-28T23:41:34.758Z</time>
      </trkpt>
      <trkpt lat="48.20791" lon="-3.12156">
        <ele>189.4</ele>
        <time>2022-02-28T23:41:53.650Z</time>
      </trkpt>
      <trkpt lat="48.20788" lon="-3.1215">
        <ele>190.6</ele>
        <time>2022-02-28T23:42:09.366Z</time>
      </trkpt>
      <trkpt lat="48.20785" lon="-3.12146">
        <ele>191.8</ele>
        <time>2022-02-28T23:42:21.984Z</time>
      </trkpt>
      <trkpt lat="48.20782" lon="-3.12139">
        <ele>193.3</ele>
        <time>2022-02-28T23:42:39.422Z</time>
      </trkpt>
      <trkpt lat="48.20777" lon="-3.12133">
        <ele>195.3</ele>
        <time>2022-02-28T23:42:59.551Z</time>
      </trkpt>
      <trkpt lat="48.20775" lon="-3.12126">
        <ele>196</ele>
        <time>2022-02-28T23:43:15.509Z</time>
      </trkpt>
      <trkpt lat="48.20771" lon="-3.12123">
        <ele>197.6</ele>
        <time>2022-02-28T23:43:29.569Z</time>
      </trkpt>
      <trkpt lat="48.20768" lon="-3.12127">
        <ele>198.7</ele>
        <time>2022-02-28T23:43:42.187Z</time>
      </trkpt>
      <trkpt lat="48.20765" lon="-3.12134">
        <ele>199.7</ele>
        <time>2022-02-28T23:43:59.625Z</time>
      </trkpt>
      <trkpt lat="48.20763" lon="-3.12141">
        <ele>200.2</ele>
        <time>2022-02-28T23:44:10.230Z</time>
      </trkpt>
      <trkpt lat="48.20762" lon="-3.12147">
        <ele>200.4</ele>
        <time>2022-02-28T23:44:16.048Z</time>
      </trkpt>
      <trkpt lat="48.20757" lon="-3.12154">
        <ele>202.2</ele>
        <time>2022-02-28T23:44:37.548Z</time>
      </trkpt>
      <trkpt lat="48.2075" lon="-3.12154">
        <ele>205</ele>
        <time>2022-02-28T23:44:59.556Z</time>
      </trkpt>
      <trkpt lat="48.20747" lon="-3.12148">
        <ele>206.7</ele>
        <time>2022-02-28T23:45:15.273Z</time>
      </trkpt>
      <trkpt lat="48.20745" lon="-3.12142">
        <ele>207.7</ele>
        <time>2022-02-28T23:45:29.330Z</time>
      </trkpt>
      <trkpt lat="48.20741" lon="-3.12135">
        <ele>209.9</ele>
        <time>2022-02-28T23:45:48.650Z</time>
      </trkpt>
      <trkpt lat="48.20741" lon="-3.12129">
        <ele>210</ele>
        <time>2022-02-28T23:45:52.878Z</time>
      </trkpt>
      <trkpt lat="48.20738" lon="-3.12124">
        <ele>211.6</ele>
        <time>2022-02-28T23:46:06.975Z</time>
      </trkpt>
      <trkpt lat="48.20737" lon="-3.12118">
        <ele>212.1</ele>
        <time>2022-02-28T23:46:18.001Z</time>
      </trkpt>
      <trkpt lat="48.20735" lon="-3.12107">
        <ele>213.1</ele>
        <time>2022-02-28T23:46:41.275Z</time>
      </trkpt>
      <trkpt lat="48.20732" lon="-3.12102">
        <ele>214.4</ele>
        <time>2022-02-28T23:46:55.372Z</time>
      </trkpt>
      <trkpt lat="48.20729" lon="-3.12096">
        <ele>215.7</ele>
        <time>2022-02-28T23:47:11.089Z</time>
      </trkpt>
      <trkpt lat="48.20726" lon="-3.12092">
        <ele>216.8</ele>
        <time>2022-02-28T23:47:23.707Z</time>
      </trkpt>
      <trkpt lat="48.20719" lon="-3.1209">
        <ele>219.1</ele>
        <time>2022-02-28T23:47:46.110Z</time>
      </trkpt>
      <trkpt lat="48.20714" lon="-3.1209">
        <ele>220.4</ele>
        <time>2022-02-28T23:48:01.831Z</time>
      </trkpt>
      <trkpt lat="48.20708" lon="-3.1209">
        <ele>221.9</ele>
        <time>2022-02-28T23:48:20.695Z</time>
      </trkpt>
      <trkpt lat="48.20703" lon="-3.12091">
        <ele>223.3</ele>
        <time>2022-02-28T23:48:36.554Z</time>
      </trkpt>
      <trkpt lat="48.20698" lon="-3.12092">
        <ele>224.7</ele>
        <time>2022-02-28T23:48:52.413Z</time>
      </trkpt>
      <trkpt lat="48.20695" lon="-3.12092">
        <ele>225.5</ele>
        <time>2022-02-28T23:49:01.845Z</time>
      </trkpt>
      <trkpt lat="48.20687" lon="-3.12092">
        <ele>226.8</ele>
        <time>2022-02-28T23:49:26.998Z</time>
      </trkpt>
      <trkpt lat="48.20682" lon="-3.12092">
        <ele>227.6</ele>
        <time>2022-02-28T23:49:42.718Z</time>
      </trkpt>
      <trkpt lat="48.2068" lon="-3.12086">
        <ele>227.3</ele>
        <time>2022-02-28T23:49:43.607Z</time>
      </trkpt>
      <trkpt lat="48.20676" lon="-3.12079">
        <ele>227.1</ele>
        <time>2022-02-28T23:49:45.116Z</time>
      </trkpt>
      <trkpt lat="48.20672" lon="-3.12073">
        <ele>227</ele>
        <time>2022-02-28T23:49:46.754Z</time>
      </trkpt>
      <trkpt lat="48.20669" lon="-3.12067">
        <ele>226.9</ele>
        <time>2022-02-28T23:49:48.163Z</time>
      </trkpt>
      <trkpt lat="48.20667" lon="-3.1206">
        <ele>226.4</ele>
        <time>2022-02-28T23:49:49.172Z</time>
      </trkpt>
      <trkpt lat="48.20665" lon="-3.12054">
        <ele>225.8</ele>
        <time>2022-02-28T23:49:50.061Z</time>
      </trkpt>
      <trkpt lat="48.20663" lon="-3.12046">
        <ele>224.6</ele>
        <time>2022-02-28T23:49:51.193Z</time>
      </trkpt>
      <trkpt lat="48.20655" lon="-3.12045">
        <ele>224.5</ele>
        <time>2022-02-28T23:49:53.674Z</time>
      </trkpt>
      <trkpt lat="48.20653" lon="-3.12034">
        <ele>222.9</ele>
        <time>2022-02-28T23:49:55.185Z</time>
      </trkpt>
      <trkpt lat="48.2065" lon="-3.12017">
        <ele>220.7</ele>
        <time>2022-02-28T23:49:57.514Z</time>
      </trkpt>
      <trkpt lat="48.20647" lon="-3.12013">
        <ele>220.2</ele>
        <time>2022-02-28T23:49:58.312Z</time>
      </trkpt>
      <trkpt lat="48.20644" lon="-3.12007">
        <ele>219.6</ele>
        <time>2022-02-28T23:49:59.306Z</time>
      </trkpt>
      <trkpt lat="48.20637" lon="-3.12002">
        <ele>219.2</ele>
        <time>2022-02-28T23:50:00.900Z</time>
      </trkpt>
      <trkpt lat="48.20633" lon="-3.12001">
        <ele>219.1</ele>
        <time>2022-02-28T23:50:01.983Z</time>
      </trkpt>
      <trkpt lat="48.20628" lon="-3.11999">
        <ele>218.9</ele>
        <time>2022-02-28T23:50:03.180Z</time>
      </trkpt>
      <trkpt lat="48.20623" lon="-3.11994">
        <ele>218.3</ele>
        <time>2022-02-28T23:50:04.374Z</time>
      </trkpt>
      <trkpt lat="48.20617" lon="-3.11994">
        <ele>218.3</ele>
        <time>2022-02-28T23:50:09.265Z</time>
      </trkpt>
      <trkpt lat="48.20612" lon="-3.11995">
        <ele>218.5</ele>
        <time>2022-02-28T23:50:15.721Z</time>
      </trkpt>
      <trkpt lat="48.20608" lon="-3.11997">
        <ele>218.7</ele>
        <time>2022-02-28T23:50:21.631Z</time>
      </trkpt>
      <trkpt lat="48.20603" lon="-3.11998">
        <ele>218.8</ele>
        <time>2022-02-28T23:50:26.655Z</time>
      </trkpt>
      <trkpt lat="48.20599" lon="-3.11999">
        <ele>218.9</ele>
        <time>2022-02-28T23:50:30.925Z</time>
      </trkpt>
      <trkpt lat="48.20593" lon="-3.12">
        <ele>219</ele>
        <time>2022-02-28T23:50:36.726Z</time>
      </trkpt>
      <trkpt lat="48.20588" lon="-3.11997">
        <ele>218.7</ele>
        <time>2022-02-28T23:50:37.796Z</time>
      </trkpt>
      <trkpt lat="48.20582" lon="-3.11998">
        <ele>218.7</ele>
        <time>2022-02-28T23:50:42.716Z</time>
      </trkpt>
      <trkpt lat="48.20579" lon="-3.11996">
        <ele>218.4</ele>
        <time>2022-02-28T23:50:43.369Z</time>
      </trkpt>
      <trkpt lat="48.20574" lon="-3.11994">
        <ele>218</ele>
        <time>2022-02-28T23:50:44.398Z</time>
      </trkpt>
      <trkpt lat="48.20569" lon="-3.11993">
        <ele>217.7</ele>
        <time>2022-02-28T23:50:45.369Z</time>
      </trkpt>
      <trkpt lat="48.20562" lon="-3.11993">
        <ele>217.5</ele>
        <time>2022-02-28T23:50:47.161Z</time>
      </trkpt>
      <trkpt lat="48.20557" lon="-3.11988">
        <ele>216.8</ele>
        <time>2022-02-28T23:50:48.356Z</time>
      </trkpt>
      <trkpt lat="48.20552" lon="-3.11982">
        <ele>216.1</ele>
        <time>2022-02-28T23:50:49.629Z</time>
      </trkpt>
      <trkpt lat="48.20549" lon="-3.11978">
        <ele>215.6</ele>
        <time>2022-02-28T23:50:50.426Z</time>
      </trkpt>
      <trkpt lat="48.2054" lon="-3.11977">
        <ele>215.5</ele>
        <time>2022-02-28T23:50:53.266Z</time>
      </trkpt>
      <trkpt lat="48.20534" lon="-3.1198">
        <ele>215.8</ele>
        <time>2022-02-28T23:51:02.131Z</time>
      </trkpt>
      <trkpt lat="48.20529" lon="-3.1198">
        <ele>215.8</ele>
        <time>2022-02-28T23:51:06.207Z</time>
      </trkpt>
      <trkpt lat="48.20521" lon="-3.11981">
        <ele>215.9</ele>
        <time>2022-02-28T23:51:13.593Z</time>
      </trkpt>
      <trkpt lat="48.20517" lon="-3.1198">
        <ele>215.8</ele>
        <time>2022-02-28T23:51:14.677Z</time>
      </trkpt>
      <trkpt lat="48.20511" lon="-3.11981">
        <ele>215.9</ele>
        <time>2022-02-28T23:51:20.478Z</time>
      </trkpt>
      <trkpt lat="48.20507" lon="-3.11979">
        <ele>215.7</ele>
        <time>2022-02-28T23:51:21.377Z</time>
      </trkpt>
      <trkpt lat="48.20503" lon="-3.1198">
        <ele>215.8</ele>
        <time>2022-02-28T23:51:25.647Z</time>
      </trkpt>
      <trkpt lat="48.20496" lon="-3.11974">
        <ele>215</ele>
        <time>2022-02-28T23:51:27.249Z</time>
      </trkpt>
      <trkpt lat="48.20494" lon="-3.11969">
        <ele>214.2</ele>
        <time>2022-02-28T23:51:28.022Z</time>
      </trkpt>
      <trkpt lat="48.20487" lon="-3.11965">
        <ele>213.2</ele>
        <time>2022-02-28T23:51:29.511Z</time>
      </trkpt>
      <trkpt lat="48.20484" lon="-3.11962">
        <ele>212.6</ele>
        <time>2022-02-28T23:51:30.227Z</time>
      </trkpt>
      <trkpt lat="48.2048" lon="-3.11959">
        <ele>211.9</ele>
        <time>2022-02-28T23:51:31.116Z</time>
      </trkpt>
      <trkpt lat="48.20474" lon="-3.11957">
        <ele>211.3</ele>
        <time>2022-02-28T23:51:32.338Z</time>
      </trkpt>
      <trkpt lat="48.20466" lon="-3.11953">
        <ele>210</ele>
        <time>2022-02-28T23:51:34.014Z</time>
      </trkpt>
      <trkpt lat="48.20461" lon="-3.11948">
        <ele>208.8</ele>
        <time>2022-02-28T23:51:35.209Z</time>
      </trkpt>
      <trkpt lat="48.20459" lon="-3.11945">
        <ele>208.1</ele>
        <time>2022-02-28T23:51:35.771Z</time>
      </trkpt>
      <trkpt lat="48.20452" lon="-3.11941">
        <ele>206.8</ele>
        <time>2022-02-28T23:51:37.260Z</time>
      </trkpt>
      <trkpt lat="48.20448" lon="-3.1194">
        <ele>206.3</ele>
        <time>2022-02-28T23:51:38.066Z</time>
      </trkpt>
      <trkpt lat="48.20444" lon="-3.11938">
        <ele>205.5</ele>
        <time>2022-02-28T23:51:38.904Z</time>
      </trkpt>
      <trkpt lat="48.20439" lon="-3.11936">
        <ele>204.1</ele>
        <time>2022-02-28T23:51:39.933Z</time>
      </trkpt>
      <trkpt lat="48.20433" lon="-3.11941">
        <ele>203.8</ele>
        <time>2022-02-28T23:51:41.446Z</time>
      </trkpt>
      <trkpt lat="48.20427" lon="-3.11942">
        <ele>202.8</ele>
        <time>2022-02-28T23:51:42.646Z</time>
      </trkpt>
      <trkpt lat="48.20422" lon="-3.11944">
        <ele>202.1</ele>
        <time>2022-02-28T23:51:43.674Z</time>
      </trkpt>
      <trkpt lat="48.20415" lon="-3.11937">
        <ele>199.4</ele>
        <time>2022-02-28T23:51:45.347Z</time>
      </trkpt>
      <trkpt lat="48.20414" lon="-3.11935">
        <ele>198.9</ele>
        <time>2022-02-28T23:51:45.678Z</time>
        <extensions>
          <visugpx:TrkExtension xmlns:visugpx="https://www.visugpx.com/editgpx/">
            <visugpx:node>29</visugpx:node>
            </visugpx:TrkExtension>
        </extensions>
      </trkpt>
      <trkpt lat="48.20413" lon="-3.11932">
        <ele>198.2</ele>
        <time>2022-02-28T23:51:46.122Z</time>
      </trkpt>
      <trkpt lat="48.20412" lon="-3.11924">
        <ele>196.7</ele>
        <time>2022-02-28T23:51:47.201Z</time>
      </trkpt>
      <trkpt lat="48.20411" lon="-3.11916">
        <ele>195.3</ele>
        <time>2022-02-28T23:51:48.279Z</time>
      </trkpt>
      <trkpt lat="48.20412" lon="-3.11908">
        <ele>194.6</ele>
        <time>2022-02-28T23:51:49.357Z</time>
      </trkpt>
      <trkpt lat="48.20414" lon="-3.11901">
        <ele>194.1</ele>
        <time>2022-02-28T23:51:50.366Z</time>
      </trkpt>
      <trkpt lat="48.20415" lon="-3.11893">
        <ele>193.3</ele>
        <time>2022-02-28T23:51:51.445Z</time>
      </trkpt>
      <trkpt lat="48.20411" lon="-3.11888">
        <ele>192.5</ele>
        <time>2022-02-28T23:51:52.480Z</time>
      </trkpt>
      <trkpt lat="48.20405" lon="-3.11891">
        <ele>192.4</ele>
        <time>2022-02-28T23:51:54.354Z</time>
      </trkpt>
      <trkpt lat="48.20401" lon="-3.11887">
        <ele>191.7</ele>
        <time>2022-02-28T23:51:55.309Z</time>
      </trkpt>
      <trkpt lat="48.20403" lon="-3.1188">
        <ele>191.2</ele>
        <time>2022-02-28T23:51:56.318Z</time>
      </trkpt>
      <trkpt lat="48.20407" lon="-3.11871">
        <ele>190.6</ele>
        <time>2022-02-28T23:51:57.752Z</time>
      </trkpt>
      <trkpt lat="48.2041" lon="-3.11866">
        <ele>190.2</ele>
        <time>2022-02-28T23:51:58.643Z</time>
      </trkpt>
      <trkpt lat="48.20411" lon="-3.1186">
        <ele>189.6</ele>
        <time>2022-02-28T23:51:59.462Z</time>
      </trkpt>
      <trkpt lat="48.20417" lon="-3.11856">
        <ele>189.3</ele>
        <time>2022-02-28T23:52:00.884Z</time>
      </trkpt>
      <trkpt lat="48.20419" lon="-3.11852">
        <ele>188.7</ele>
        <time>2022-02-28T23:52:01.546Z</time>
      </trkpt>
      <trkpt lat="48.20417" lon="-3.11845">
        <ele>187.7</ele>
        <time>2022-02-28T23:52:02.555Z</time>
      </trkpt>
      <trkpt lat="48.20422" lon="-3.11839">
        <ele>186.9</ele>
        <time>2022-02-28T23:52:03.828Z</time>
      </trkpt>
      <trkpt lat="48.20424" lon="-3.11832">
        <ele>185.7</ele>
        <time>2022-02-28T23:52:04.837Z</time>
      </trkpt>
      <trkpt lat="48.20425" lon="-3.11823">
        <ele>183.7</ele>
        <time>2022-02-28T23:52:06.046Z</time>
      </trkpt>
      <trkpt lat="48.20424" lon="-3.11819">
        <ele>182.8</ele>
        <time>2022-02-28T23:52:06.612Z</time>
      </trkpt>
      <trkpt lat="48.20427" lon="-3.11812">
        <ele>181.1</ele>
        <time>2022-02-28T23:52:07.715Z</time>
      </trkpt>
      <trkpt lat="48.20432" lon="-3.11803">
        <ele>178.8</ele>
        <time>2022-02-28T23:52:09.267Z</time>
      </trkpt>
      <trkpt lat="48.20436" lon="-3.11798">
        <ele>177.5</ele>
        <time>2022-02-28T23:52:10.302Z</time>
      </trkpt>
      <trkpt lat="48.20434" lon="-3.11789">
        <ele>175.4</ele>
        <time>2022-02-28T23:52:11.559Z</time>
      </trkpt>
      <trkpt lat="48.20434" lon="-3.11782">
        <ele>173.8</ele>
        <time>2022-02-28T23:52:12.486Z</time>
      </trkpt>
      <trkpt lat="48.20435" lon="-3.1178">
        <ele>173.2</ele>
        <time>2022-02-28T23:52:12.817Z</time>
      </trkpt>
      <trkpt lat="48.20436" lon="-3.11778">
        <ele>172.7</ele>
        <time>2022-02-28T23:52:13.149Z</time>
      </trkpt>
      <trkpt lat="48.20442" lon="-3.1178">
        <ele>172.7</ele>
        <time>2022-02-28T23:52:18.159Z</time>
      </trkpt>
      <trkpt lat="48.20448" lon="-3.11776">
        <ele>171.1</ele>
        <time>2022-02-28T23:52:19.464Z</time>
      </trkpt>
      <trkpt lat="48.20449" lon="-3.11767">
        <ele>168.3</ele>
        <time>2022-02-28T23:52:20.673Z</time>
      </trkpt>
      <trkpt lat="48.20444" lon="-3.11757">
        <ele>166.1</ele>
        <time>2022-02-28T23:52:22.329Z</time>
      </trkpt>
      <trkpt lat="48.20441" lon="-3.11754">
        <ele>165.5</ele>
        <time>2022-02-28T23:52:23.045Z</time>
      </trkpt>
      <trkpt lat="48.20439" lon="-3.11751">
        <ele>164.9</ele>
        <time>2022-02-28T23:52:23.608Z</time>
      </trkpt>
      <trkpt lat="48.20433" lon="-3.11748">
        <ele>164.6</ele>
        <time>2022-02-28T23:52:24.956Z</time>
      </trkpt>
      <trkpt lat="48.20428" lon="-3.11741">
        <ele>163.1</ele>
        <time>2022-02-28T23:52:26.315Z</time>
      </trkpt>
      <trkpt lat="48.20427" lon="-3.11734">
        <ele>161.1</ele>
        <time>2022-02-28T23:52:27.264Z</time>
      </trkpt>
      <trkpt lat="48.20426" lon="-3.11729">
        <ele>159.7</ele>
        <time>2022-02-28T23:52:27.955Z</time>
      </trkpt>
      <trkpt lat="48.20427" lon="-3.11724">
        <ele>158</ele>
        <time>2022-02-28T23:52:28.647Z</time>
      </trkpt>
      <trkpt lat="48.20426" lon="-3.1172">
        <ele>157.1</ele>
        <time>2022-02-28T23:52:29.213Z</time>
      </trkpt>
      <trkpt lat="48.20424" lon="-3.11714">
        <ele>156</ele>
        <time>2022-02-28T23:52:30.102Z</time>
      </trkpt>
      <trkpt lat="48.20421" lon="-3.11715">
        <ele>156.6</ele>
        <time>2022-02-28T23:52:39.764Z</time>
      </trkpt>
      <trkpt lat="48.20422" lon="-3.11706">
        <ele>154.3</ele>
        <time>2022-02-28T23:52:40.973Z</time>
      </trkpt>
      <trkpt lat="48.20421" lon="-3.11709">
        <ele>155.1</ele>
        <time>2022-02-28T23:52:48.001Z</time>
      </trkpt>
      <trkpt lat="48.20416" lon="-3.11706">
        <ele>155</ele>
        <time>2022-02-28T23:52:49.544Z</time>
      </trkpt>
      <trkpt lat="48.20415" lon="-3.11711">
        <ele>156.3</ele>
        <time>2022-02-28T23:53:00.483Z</time>
      </trkpt>
      <trkpt lat="48.20412" lon="-3.11708">
        <ele>155.8</ele>
        <time>2022-02-28T23:53:01.200Z</time>
      </trkpt>
      <trkpt lat="48.20408" lon="-3.11713">
        <ele>157.3</ele>
        <time>2022-02-28T23:53:17.568Z</time>
      </trkpt>
      <trkpt lat="48.20406" lon="-3.11716">
        <ele>158.2</ele>
        <time>2022-02-28T23:53:26.460Z</time>
      </trkpt>
      <trkpt lat="48.20404" lon="-3.11717">
        <ele>158.5</ele>
        <time>2022-02-28T23:53:33.088Z</time>
      </trkpt>
      <trkpt lat="48.20402" lon="-3.11719">
        <ele>159.2</ele>
        <time>2022-02-28T23:53:40.645Z</time>
      </trkpt>
      <trkpt lat="48.20395" lon="-3.11717">
        <ele>159.2</ele>
        <time>2022-02-28T23:53:46.453Z</time>
      </trkpt>
      <trkpt lat="48.20392" lon="-3.1172">
        <ele>160.2</ele>
        <time>2022-02-28T23:53:57.788Z</time>
      </trkpt>
      <trkpt lat="48.20386" lon="-3.11724">
        <ele>161.4</ele>
        <time>2022-02-28T23:54:18.431Z</time>
      </trkpt>
      <trkpt lat="48.20384" lon="-3.11727">
        <ele>162.2</ele>
        <time>2022-02-28T23:54:27.322Z</time>
      </trkpt>
      <trkpt lat="48.2038" lon="-3.11734">
        <ele>164</ele>
        <time>2022-02-28T23:54:46.643Z</time>
      </trkpt>
      <trkpt lat="48.20373" lon="-3.11743">
        <ele>166.2</ele>
        <time>2022-02-28T23:55:15.627Z</time>
      </trkpt>
      <trkpt lat="48.20372" lon="-3.11749">
        <ele>167.7</ele>
        <time>2022-02-28T23:55:28.586Z</time>
      </trkpt>
      <trkpt lat="48.20377" lon="-3.11761">
        <ele>170.5</ele>
        <time>2022-02-28T23:55:58.241Z</time>
      </trkpt>
      <trkpt lat="48.20373" lon="-3.11757">
        <ele>169.6</ele>
        <time>2022-02-28T23:55:59.197Z</time>
      </trkpt>
      <trkpt lat="48.20377" lon="-3.11767">
        <ele>172</ele>
        <time>2022-02-28T23:56:23.636Z</time>
      </trkpt>
      <trkpt lat="48.20377" lon="-3.11772">
        <ele>173.2</ele>
        <time>2022-02-28T23:56:34.113Z</time>
      </trkpt>
      <trkpt lat="48.20371" lon="-3.11774">
        <ele>173.5</ele>
        <time>2022-02-28T23:56:42.805Z</time>
      </trkpt>
      <trkpt lat="48.20366" lon="-3.1178">
        <ele>174.6</ele>
        <time>2022-02-28T23:57:02.935Z</time>
      </trkpt>
      <trkpt lat="48.20366" lon="-3.11786">
        <ele>175.9</ele>
        <time>2022-02-28T23:57:15.508Z</time>
      </trkpt>
      <trkpt lat="48.20363" lon="-3.11792">
        <ele>177.1</ele>
        <time>2022-02-28T23:57:31.225Z</time>
      </trkpt>
      <trkpt lat="48.20358" lon="-3.11797">
        <ele>177.4</ele>
        <time>2022-02-28T23:57:39.785Z</time>
      </trkpt>
      <trkpt lat="48.20358" lon="-3.11803">
        <ele>178.7</ele>
        <time>2022-02-28T23:57:52.358Z</time>
      </trkpt>
      <trkpt lat="48.20357" lon="-3.11813">
        <ele>180</ele>
        <time>2022-02-28T23:58:13.547Z</time>
      </trkpt>
      <trkpt lat="48.20354" lon="-3.11821">
        <ele>180.4</ele>
        <time>2022-02-28T23:58:23.244Z</time>
      </trkpt>
      <trkpt lat="48.2035" lon="-3.11827">
        <ele>180.3</ele>
        <time>2022-02-28T23:58:24.882Z</time>
      </trkpt>
      <trkpt lat="48.20346" lon="-3.11831">
        <ele>179.9</ele>
        <time>2022-02-28T23:58:25.838Z</time>
      </trkpt>
      <trkpt lat="48.20341" lon="-3.11832">
        <ele>178.7</ele>
        <time>2022-02-28T23:58:26.841Z</time>
      </trkpt>
      <trkpt lat="48.20336" lon="-3.11832">
        <ele>177.5</ele>
        <time>2022-02-28T23:58:27.835Z</time>
      </trkpt>
      <trkpt lat="48.20334" lon="-3.11832">
        <ele>177</ele>
        <time>2022-02-28T23:58:28.232Z</time>
      </trkpt>
      <trkpt lat="48.20333" lon="-3.11833">
        <ele>176.9</ele>
        <time>2022-02-28T23:58:28.471Z</time>
      </trkpt>
      <trkpt lat="48.20332" lon="-3.1183">
        <ele>176.3</ele>
        <time>2022-02-28T23:58:28.916Z</time>
      </trkpt>
      <trkpt lat="48.20326" lon="-3.11832">
        <ele>175.8</ele>
        <time>2022-02-28T23:58:30.137Z</time>
      </trkpt>
      <trkpt lat="48.20322" lon="-3.11831">
        <ele>175</ele>
        <time>2022-02-28T23:58:30.943Z</time>
      </trkpt>
      <trkpt lat="48.20315" lon="-3.11828">
        <ele>173.6</ele>
        <time>2022-02-28T23:58:32.391Z</time>
      </trkpt>
      <trkpt lat="48.2031" lon="-3.11824">
        <ele>172.3</ele>
        <time>2022-02-28T23:58:33.517Z</time>
      </trkpt>
      <trkpt lat="48.20305" lon="-3.11822">
        <ele>171.3</ele>
        <time>2022-02-28T23:58:34.546Z</time>
      </trkpt>
      <trkpt lat="48.20301" lon="-3.11823">
        <ele>170.7</ele>
        <time>2022-02-28T23:58:35.352Z</time>
      </trkpt>
      <trkpt lat="48.20295" lon="-3.1182">
        <ele>169.2</ele>
        <time>2022-02-28T23:58:36.609Z</time>
      </trkpt>
      <trkpt lat="48.2029" lon="-3.11813">
        <ele>167.3</ele>
        <time>2022-02-28T23:58:37.968Z</time>
      </trkpt>
      <trkpt lat="48.20289" lon="-3.11808">
        <ele>166.4</ele>
        <time>2022-02-28T23:58:38.660Z</time>
      </trkpt>
      <trkpt lat="48.20289" lon="-3.11804">
        <ele>165.8</ele>
        <time>2022-02-28T23:58:39.190Z</time>
      </trkpt>
      <trkpt lat="48.2029" lon="-3.11791">
        <ele>163.9</ele>
        <time>2022-02-28T23:58:40.924Z</time>
        <extensions>
          <visugpx:TrkExtension xmlns:visugpx="https://www.visugpx.com/editgpx/">
            <visugpx:node>30</visugpx:node>
            </visugpx:TrkExtension>
        </extensions>
      </trkpt>
      <trkpt lat="48.20292" lon="-3.11773">
        <ele>161.1</ele>
        <time>2022-02-28T23:58:43.341Z</time>
      </trkpt>
      <trkpt lat="48.20301" lon="-3.11765">
        <ele>160.9</ele>
        <time>2022-02-28T23:58:46.320Z</time>
      </trkpt>
      <trkpt lat="48.20304" lon="-3.11761">
        <ele>160.6</ele>
        <time>2022-02-28T23:58:47.118Z</time>
      </trkpt>
      <trkpt lat="48.20308" lon="-3.11756">
        <ele>160.4</ele>
        <time>2022-02-28T23:58:48.324Z</time>
      </trkpt>
      <trkpt lat="48.20312" lon="-3.11752">
        <ele>160.2</ele>
        <time>2022-02-28T23:58:49.405Z</time>
      </trkpt>
      <trkpt lat="48.20311" lon="-3.11745">
        <ele>158.7</ele>
        <time>2022-02-28T23:58:50.353Z</time>
      </trkpt>
      <trkpt lat="48.20308" lon="-3.11733">
        <ele>156.2</ele>
        <time>2022-02-28T23:58:52.051Z</time>
      </trkpt>
      <trkpt lat="48.2029" lon="-3.11737">
        <ele>153.6</ele>
        <time>2022-02-28T23:58:55.668Z</time>
      </trkpt>
      <trkpt lat="48.20294" lon="-3.11709">
        <ele>149.1</ele>
        <time>2022-02-28T23:58:59.462Z</time>
      </trkpt>
      <trkpt lat="48.20295" lon="-3.11694">
        <ele>146.5</ele>
        <time>2022-02-28T23:59:01.459Z</time>
      </trkpt>
      <trkpt lat="48.203" lon="-3.11687">
        <ele>146.2</ele>
        <time>2022-02-28T23:59:02.965Z</time>
      </trkpt>
      <trkpt lat="48.20309" lon="-3.11682">
        <ele>146.5</ele>
        <time>2022-02-28T23:59:13.926Z</time>
      </trkpt>
      <trkpt lat="48.20313" lon="-3.1167">
        <ele>144.9</ele>
        <time>2022-02-28T23:59:15.704Z</time>
      </trkpt>
      <trkpt lat="48.20316" lon="-3.11658">
        <ele>143.8</ele>
        <time>2022-02-28T23:59:17.402Z</time>
      </trkpt>
      <trkpt lat="48.20321" lon="-3.11655">
        <ele>143.8</ele>
        <time>2022-02-28T23:59:21.791Z</time>
      </trkpt>
      <trkpt lat="48.20327" lon="-3.11649">
        <ele>143.6</ele>
        <time>2022-02-28T23:59:23.654Z</time>
      </trkpt>
      <trkpt lat="48.20331" lon="-3.11644">
        <ele>143.4</ele>
        <time>2022-02-28T23:59:24.861Z</time>
      </trkpt>
      <trkpt lat="48.20342" lon="-3.11644">
        <ele>144.2</ele>
        <time>2022-02-28T23:59:43.282Z</time>
      </trkpt>
      <trkpt lat="48.20347" lon="-3.11637">
        <ele>143.9</ele>
        <time>2022-02-28T23:59:44.787Z</time>
      </trkpt>
      <trkpt lat="48.20346" lon="-3.11625">
        <ele>142.7</ele>
        <time>2022-02-28T23:59:46.390Z</time>
      </trkpt>
      <trkpt lat="48.20352" lon="-3.11616">
        <ele>142.2</ele>
        <time>2022-02-28T23:59:48.031Z</time>
      </trkpt>
      <trkpt lat="48.20361" lon="-3.11616">
        <ele>142.5</ele>
        <time>2022-02-28T23:59:58.591Z</time>
      </trkpt>
      <trkpt lat="48.20369" lon="-3.11613">
        <ele>142.2</ele>
        <time>2022-03-01T00:00:00.540Z</time>
      </trkpt>
      <trkpt lat="48.20367" lon="-3.11605">
        <ele>141.7</ele>
        <time>2022-03-01T00:00:01.672Z</time>
      </trkpt>
      <trkpt lat="48.20373" lon="-3.11607">
        <ele>141.8</ele>
        <time>2022-03-01T00:00:07.560Z</time>
      </trkpt>
      <trkpt lat="48.20375" lon="-3.11607">
        <ele>141.8</ele>
        <time>2022-03-01T00:00:09.190Z</time>
      </trkpt>
      <trkpt lat="48.20377" lon="-3.11609">
        <ele>141.9</ele>
        <time>2022-03-01T00:00:12.355Z</time>
      </trkpt>
      <trkpt lat="48.20382" lon="-3.1161">
        <ele>141.9</ele>
        <time>2022-03-01T00:00:16.467Z</time>
      </trkpt>
      <trkpt lat="48.20385" lon="-3.11609">
        <ele>141.8</ele>
        <time>2022-03-01T00:00:17.222Z</time>
      </trkpt>
      <trkpt lat="48.20388" lon="-3.11611">
        <ele>142</ele>
        <time>2022-03-01T00:00:22.262Z</time>
      </trkpt>
      <trkpt lat="48.2039" lon="-3.11612">
        <ele>142</ele>
        <time>2022-03-01T00:00:23.980Z</time>
      </trkpt>
      <trkpt lat="48.20392" lon="-3.11613">
        <ele>141.9</ele>
        <time>2022-03-01T00:00:24.429Z</time>
      </trkpt>
      <trkpt lat="48.20392" lon="-3.11616">
        <ele>142.2</ele>
        <time>2022-03-01T00:00:30.716Z</time>
      </trkpt>
      <trkpt lat="48.20395" lon="-3.11618">
        <ele>142.1</ele>
        <time>2022-03-01T00:00:31.540Z</time>
      </trkpt>
      <trkpt lat="48.20399" lon="-3.1162">
        <ele>142.1</ele>
        <time>2022-03-01T00:00:34.976Z</time>
      </trkpt>
      <trkpt lat="48.204" lon="-3.11622">
        <ele>142.2</ele>
        <time>2022-03-01T00:00:37.518Z</time>
      </trkpt>
      <trkpt lat="48.20402" lon="-3.11624">
        <ele>142.2</ele>
        <time>2022-03-01T00:00:39.477Z</time>
      </trkpt>
      <trkpt lat="48.20405" lon="-3.11626">
        <ele>142.2</ele>
        <time>2022-03-01T00:00:42.153Z</time>
      </trkpt>
      <trkpt lat="48.20408" lon="-3.11626">
        <ele>142.1</ele>
        <time>2022-03-01T00:00:42.884Z</time>
      </trkpt>
      <trkpt lat="48.20412" lon="-3.11628">
        <ele>142</ele>
        <time>2022-03-01T00:00:44.023Z</time>
      </trkpt>
      <trkpt lat="48.20416" lon="-3.11631">
        <ele>142.2</ele>
        <time>2022-03-01T00:00:50.183Z</time>
      </trkpt>
      <trkpt lat="48.2042" lon="-3.11633">
        <ele>142</ele>
        <time>2022-03-01T00:00:51.082Z</time>
      </trkpt>
      <trkpt lat="48.20425" lon="-3.11634">
        <ele>141.6</ele>
        <time>2022-03-01T00:00:52.085Z</time>
      </trkpt>
      <trkpt lat="48.20431" lon="-3.11628">
        <ele>140.5</ele>
        <time>2022-03-01T00:00:53.518Z</time>
      </trkpt>
      <trkpt lat="48.20433" lon="-3.11628">
        <ele>140.3</ele>
        <time>2022-03-01T00:00:53.916Z</time>
      </trkpt>
      <trkpt lat="48.20439" lon="-3.11634">
        <ele>140.3</ele>
        <time>2022-03-01T00:00:59.793Z</time>
      </trkpt>
      <trkpt lat="48.20455" lon="-3.11646">
        <ele>140.2</ele>
        <time>2022-03-01T00:01:13.223Z</time>
      </trkpt>
      <trkpt lat="48.20464" lon="-3.11649">
        <ele>139.8</ele>
        <time>2022-03-01T00:01:15.262Z</time>
      </trkpt>
      <trkpt lat="48.20466" lon="-3.1165">
        <ele>139.7</ele>
        <time>2022-03-01T00:01:15.711Z</time>
      </trkpt>
      <trkpt lat="48.20471" lon="-3.11654">
        <ele>139.7</ele>
        <time>2022-03-01T00:01:20.330Z</time>
      </trkpt>
      <trkpt lat="48.20477" lon="-3.11656">
        <ele>139.4</ele>
        <time>2022-03-01T00:01:21.625Z</time>
      </trkpt>
      <trkpt lat="48.20487" lon="-3.11656">
        <ele>138.5</ele>
        <time>2022-03-01T00:01:23.612Z</time>
      </trkpt>
      <trkpt lat="48.20496" lon="-3.11654">
        <ele>137.5</ele>
        <time>2022-03-01T00:01:25.421Z</time>
      </trkpt>
      <trkpt lat="48.205" lon="-3.11656">
        <ele>137.2</ele>
        <time>2022-03-01T00:01:26.259Z</time>
      </trkpt>
      <trkpt lat="48.20506" lon="-3.11663">
        <ele>137.5</ele>
        <time>2022-03-01T00:01:35.963Z</time>
      </trkpt>
      <trkpt lat="48.20509" lon="-3.11662">
        <ele>137.3</ele>
        <time>2022-03-01T00:01:36.529Z</time>
      </trkpt>
      <trkpt lat="48.20515" lon="-3.11662">
        <ele>137</ele>
        <time>2022-03-01T00:01:37.780Z</time>
      </trkpt>
      <trkpt lat="48.20521" lon="-3.1166">
        <ele>136.6</ele>
        <time>2022-03-01T00:01:38.913Z</time>
      </trkpt>
      <trkpt lat="48.20525" lon="-3.1166">
        <ele>136.4</ele>
        <time>2022-03-01T00:01:39.746Z</time>
      </trkpt>
      <trkpt lat="48.20529" lon="-3.11661">
        <ele>136.1</ele>
        <time>2022-03-01T00:01:40.553Z</time>
      </trkpt>
      <trkpt lat="48.20532" lon="-3.11662">
        <ele>135.4</ele>
        <time>2022-03-01T00:01:41.163Z</time>
      </trkpt>
      <trkpt lat="48.20539" lon="-3.11666">
        <ele>133.7</ele>
        <time>2022-03-01T00:01:42.652Z</time>
      </trkpt>
      <trkpt lat="48.20542" lon="-3.1167">
        <ele>133.4</ele>
        <time>2022-03-01T00:01:43.450Z</time>
      </trkpt>
      <trkpt lat="48.20542" lon="-3.11678">
        <ele>134.5</ele>
        <time>2022-03-01T00:02:00.213Z</time>
      </trkpt>
      <trkpt lat="48.20541" lon="-3.11685">
        <ele>135.8</ele>
        <time>2022-03-01T00:02:15.214Z</time>
      </trkpt>
      <trkpt lat="48.20546" lon="-3.1169">
        <ele>135.4</ele>
        <time>2022-03-01T00:02:16.309Z</time>
      </trkpt>
      <trkpt lat="48.20552" lon="-3.11696">
        <ele>135.3</ele>
        <time>2022-03-01T00:02:18.498Z</time>
      </trkpt>
      <trkpt lat="48.20556" lon="-3.11696">
        <ele>134.5</ele>
        <time>2022-03-01T00:02:19.293Z</time>
      </trkpt>
      <trkpt lat="48.20559" lon="-3.11695">
        <ele>134.1</ele>
        <time>2022-03-01T00:02:19.904Z</time>
      </trkpt>
      <trkpt lat="48.20565" lon="-3.11699">
        <ele>135.2</ele>
        <time>2022-03-01T00:02:40.547Z</time>
      </trkpt>
      <trkpt lat="48.20571" lon="-3.11699">
        <ele>135</ele>
        <time>2022-03-01T00:02:42.009Z</time>
      </trkpt>
      <trkpt lat="48.20574" lon="-3.11698">
        <ele>134.5</ele>
        <time>2022-03-01T00:02:42.620Z</time>
      </trkpt>
      <trkpt lat="48.20579" lon="-3.11694">
        <ele>133.1</ele>
        <time>2022-03-01T00:02:43.746Z</time>
      </trkpt>
      <trkpt lat="48.20585" lon="-3.11689">
        <ele>131.9</ele>
        <time>2022-03-01T00:02:45.110Z</time>
      </trkpt>
      <trkpt lat="48.20589" lon="-3.11686">
        <ele>131.3</ele>
        <time>2022-03-01T00:02:45.999Z</time>
      </trkpt>
      <trkpt lat="48.20592" lon="-3.11685">
        <ele>131.1</ele>
        <time>2022-03-01T00:02:46.566Z</time>
      </trkpt>
      <trkpt lat="48.20596" lon="-3.1168">
        <ele>129.9</ele>
        <time>2022-03-01T00:02:47.601Z</time>
      </trkpt>
      <trkpt lat="48.20603" lon="-3.11678">
        <ele>129.3</ele>
        <time>2022-03-01T00:02:49.017Z</time>
      </trkpt>
      <trkpt lat="48.20606" lon="-3.11671">
        <ele>127.4</ele>
        <time>2022-03-01T00:02:50.120Z</time>
      </trkpt>
      <trkpt lat="48.20612" lon="-3.11671">
        <ele>127.3</ele>
        <time>2022-03-01T00:02:51.879Z</time>
      </trkpt>
      <trkpt lat="48.20618" lon="-3.11671">
        <ele>127.9</ele>
        <time>2022-03-01T00:03:04.597Z</time>
      </trkpt>
      <trkpt lat="48.20622" lon="-3.11669">
        <ele>128</ele>
        <time>2022-03-01T00:03:08.988Z</time>
      </trkpt>
      <trkpt lat="48.20626" lon="-3.1167">
        <ele>128.6</ele>
        <time>2022-03-01T00:03:21.737Z</time>
      </trkpt>
      <trkpt lat="48.20633" lon="-3.11669">
        <ele>129.3</ele>
        <time>2022-03-01T00:03:36.577Z</time>
      </trkpt>
      <trkpt lat="48.20636" lon="-3.11666">
        <ele>129.5</ele>
        <time>2022-03-01T00:03:41.907Z</time>
      </trkpt>
      <trkpt lat="48.20643" lon="-3.11662">
        <ele>130.3</ele>
        <time>2022-03-01T00:03:58.912Z</time>
      </trkpt>
      <trkpt lat="48.20648" lon="-3.11661">
        <ele>131.2</ele>
        <time>2022-03-01T00:04:14.771Z</time>
      </trkpt>
      <trkpt lat="48.20652" lon="-3.11656">
        <ele>131</ele>
        <time>2022-03-01T00:04:15.978Z</time>
      </trkpt>
      <trkpt lat="48.20653" lon="-3.11653">
        <ele>130.6</ele>
        <time>2022-03-01T00:04:16.422Z</time>
      </trkpt>
      <trkpt lat="48.20655" lon="-3.11645">
        <ele>129.1</ele>
        <time>2022-03-01T00:04:17.554Z</time>
      </trkpt>
      <trkpt lat="48.20661" lon="-3.11638">
        <ele>128.3</ele>
        <time>2022-03-01T00:04:19.065Z</time>
      </trkpt>
      <trkpt lat="48.20664" lon="-3.11633">
        <ele>128.1</ele>
        <time>2022-03-01T00:04:20.045Z</time>
      </trkpt>
      <trkpt lat="48.20667" lon="-3.11626">
        <ele>127.7</ele>
        <time>2022-03-01T00:04:21.148Z</time>
      </trkpt>
      <trkpt lat="48.20672" lon="-3.11622">
        <ele>128.2</ele>
        <time>2022-03-01T00:04:31.924Z</time>
      </trkpt>
      <trkpt lat="48.20673" lon="-3.11614">
        <ele>126.8</ele>
        <time>2022-03-01T00:04:33.002Z</time>
      </trkpt>
      <trkpt lat="48.20675" lon="-3.11609">
        <ele>126.2</ele>
        <time>2022-03-01T00:04:33.775Z</time>
      </trkpt>
      <trkpt lat="48.20676" lon="-3.11601">
        <ele>126</ele>
        <time>2022-03-01T00:04:35.051Z</time>
      </trkpt>
      <trkpt lat="48.20676" lon="-3.11594">
        <ele>125.7</ele>
        <time>2022-03-01T00:04:35.916Z</time>
      </trkpt>
      <trkpt lat="48.20676" lon="-3.1159">
        <ele>125.6</ele>
        <time>2022-03-01T00:04:36.539Z</time>
      </trkpt>
      <trkpt lat="48.20681" lon="-3.1159">
        <ele>125.8</ele>
        <time>2022-03-01T00:04:42.971Z</time>
      </trkpt>
      <trkpt lat="48.20682" lon="-3.1159">
        <ele>125.8</ele>
        <time>2022-03-01T00:04:43.786Z</time>
        <extensions>
          <visugpx:TrkExtension xmlns:visugpx="https://www.visugpx.com/editgpx/">
            <visugpx:node>31</visugpx:node>
            </visugpx:TrkExtension>
        </extensions>
      </trkpt>
      <trkpt lat="48.20681" lon="-3.1159">
        <ele>125.8</ele>
        <time>2022-03-01T00:04:44.602Z</time>
      </trkpt>
      <trkpt lat="48.20676" lon="-3.1159">
        <ele>125.6</ele>
        <time>2022-03-01T00:04:45.743Z</time>
      </trkpt>
      <trkpt lat="48.20667" lon="-3.11588">
        <ele>125.2</ele>
        <time>2022-03-01T00:04:47.744Z</time>
      </trkpt>
      <trkpt lat="48.20664" lon="-3.11588">
        <ele>125.2</ele>
        <time>2022-03-01T00:04:50.189Z</time>
      </trkpt>
      <trkpt lat="48.20661" lon="-3.11588">
        <ele>125.2</ele>
        <time>2022-03-01T00:04:52.635Z</time>
      </trkpt>
      <trkpt lat="48.20632" lon="-3.11588">
        <ele>125.4</ele>
        <time>2022-03-01T00:05:17.867Z</time>
      </trkpt>
      <trkpt lat="48.20621" lon="-3.11589">
        <ele>125.7</ele>
        <time>2022-03-01T00:05:29.834Z</time>
      </trkpt>
      <trkpt lat="48.20615" lon="-3.1159">
        <ele>125.9</ele>
        <time>2022-03-01T00:05:36.899Z</time>
        <extensions>
          <visugpx:TrkExtension xmlns:visugpx="https://www.visugpx.com/editgpx/">
            <visugpx:node>32</visugpx:node>
            </visugpx:TrkExtension>
        </extensions>
      </trkpt>
      <trkpt lat="48.20621" lon="-3.11589">
        <ele>125.7</ele>
        <time>2022-03-01T00:05:38.373Z</time>
      </trkpt>
      <trkpt lat="48.20619" lon="-3.11584">
        <ele>125.7</ele>
        <time>2022-03-01T00:05:41.540Z</time>
      </trkpt>
      <trkpt lat="48.20618" lon="-3.11578">
        <ele>125.8</ele>
        <time>2022-03-01T00:05:45.860Z</time>
      </trkpt>
      <trkpt lat="48.20618" lon="-3.11569">
        <ele>126</ele>
        <time>2022-03-01T00:05:52.899Z</time>
      </trkpt>
      <trkpt lat="48.20614" lon="-3.11563">
        <ele>126.5</ele>
        <time>2022-03-01T00:06:03.671Z</time>
      </trkpt>
      <trkpt lat="48.2061" lon="-3.11556">
        <ele>127.1</ele>
        <time>2022-03-01T00:06:16.404Z</time>
      </trkpt>
      <trkpt lat="48.20604" lon="-3.11554">
        <ele>127.5</ele>
        <time>2022-03-01T00:06:26.125Z</time>
      </trkpt>
      <trkpt lat="48.20599" lon="-3.1155">
        <ele>127.8</ele>
        <time>2022-03-01T00:06:34.360Z</time>
      </trkpt>
      <trkpt lat="48.20596" lon="-3.11546">
        <ele>127.9</ele>
        <time>2022-03-01T00:06:38.598Z</time>
      </trkpt>
      <trkpt lat="48.20593" lon="-3.11543">
        <ele>128.1</ele>
        <time>2022-03-01T00:06:43.928Z</time>
      </trkpt>
      <trkpt lat="48.20589" lon="-3.11536">
        <ele>128.4</ele>
        <time>2022-03-01T00:06:52.619Z</time>
      </trkpt>
      <trkpt lat="48.20589" lon="-3.11532">
        <ele>128.4</ele>
        <time>2022-03-01T00:06:54.792Z</time>
      </trkpt>
      <trkpt lat="48.2059" lon="-3.11522">
        <ele>128.2</ele>
        <time>2022-03-01T00:06:56.498Z</time>
      </trkpt>
      <trkpt lat="48.20591" lon="-3.11515">
        <ele>128</ele>
        <time>2022-03-01T00:06:57.567Z</time>
      </trkpt>
      <trkpt lat="48.20593" lon="-3.11507">
        <ele>127.7</ele>
        <time>2022-03-01T00:06:58.727Z</time>
      </trkpt>
      <trkpt lat="48.20595" lon="-3.11498">
        <ele>127.2</ele>
        <time>2022-03-01T00:06:59.984Z</time>
      </trkpt>
      <trkpt lat="48.20592" lon="-3.1149">
        <ele>127.3</ele>
        <time>2022-03-01T00:07:05.849Z</time>
      </trkpt>
      <trkpt lat="48.2059" lon="-3.11482">
        <ele>127.1</ele>
        <time>2022-03-01T00:07:07.212Z</time>
      </trkpt>
      <trkpt lat="48.20589" lon="-3.11476">
        <ele>126.8</ele>
        <time>2022-03-01T00:07:08.031Z</time>
      </trkpt>
      <trkpt lat="48.20588" lon="-3.11472">
        <ele>126.6</ele>
        <time>2022-03-01T00:07:08.597Z</time>
      </trkpt>
      <trkpt lat="48.20586" lon="-3.11463">
        <ele>126.2</ele>
        <time>2022-03-01T00:07:09.779Z</time>
      </trkpt>
      <trkpt lat="48.20583" lon="-3.11454">
        <ele>125.8</ele>
        <time>2022-03-01T00:07:11.069Z</time>
      </trkpt>
      <trkpt lat="48.20582" lon="-3.11445">
        <ele>125.3</ele>
        <time>2022-03-01T00:07:12.278Z</time>
      </trkpt>
      <trkpt lat="48.2058" lon="-3.11439">
        <ele>125.7</ele>
        <time>2022-03-01T00:07:20.873Z</time>
      </trkpt>
      <trkpt lat="48.20576" lon="-3.11431">
        <ele>126.3</ele>
        <time>2022-03-01T00:07:33.749Z</time>
      </trkpt>
      <trkpt lat="48.20575" lon="-3.11425">
        <ele>126.4</ele>
        <time>2022-03-01T00:07:38.069Z</time>
      </trkpt>
      <trkpt lat="48.20573" lon="-3.11417">
        <ele>126.5</ele>
        <time>2022-03-01T00:07:43.600Z</time>
      </trkpt>
      <trkpt lat="48.20571" lon="-3.11409">
        <ele>126.4</ele>
        <time>2022-03-01T00:07:45.252Z</time>
      </trkpt>
      <trkpt lat="48.20567" lon="-3.11403">
        <ele>126.6</ele>
        <time>2022-03-01T00:07:52.071Z</time>
      </trkpt>
      <trkpt lat="48.20566" lon="-3.11398">
        <ele>126.4</ele>
        <time>2022-03-01T00:07:52.752Z</time>
      </trkpt>
      <trkpt lat="48.20564" lon="-3.11392">
        <ele>126.3</ele>
        <time>2022-03-01T00:07:53.977Z</time>
      </trkpt>
      <trkpt lat="48.2056" lon="-3.11384">
        <ele>126.2</ele>
        <time>2022-03-01T00:07:55.972Z</time>
      </trkpt>
      <trkpt lat="48.20554" lon="-3.11378">
        <ele>126.5</ele>
        <time>2022-03-01T00:08:05.469Z</time>
      </trkpt>
      <trkpt lat="48.20551" lon="-3.11373">
        <ele>126.7</ele>
        <time>2022-03-01T00:08:11.641Z</time>
      </trkpt>
      <trkpt lat="48.20546" lon="-3.11367">
        <ele>127.2</ele>
        <time>2022-03-01T00:08:22.826Z</time>
      </trkpt>
      <trkpt lat="48.20543" lon="-3.1136">
        <ele>127.2</ele>
        <time>2022-03-01T00:08:27.347Z</time>
      </trkpt>
      <trkpt lat="48.20541" lon="-3.11355">
        <ele>127.3</ele>
        <time>2022-03-01T00:08:31.491Z</time>
      </trkpt>
      <trkpt lat="48.20538" lon="-3.11349">
        <ele>127.4</ele>
        <time>2022-03-01T00:08:36.480Z</time>
      </trkpt>
      <trkpt lat="48.20534" lon="-3.11341">
        <ele>127.6</ele>
        <time>2022-03-01T00:08:43.973Z</time>
      </trkpt>
      <trkpt lat="48.2053" lon="-3.11338">
        <ele>128</ele>
        <time>2022-03-01T00:08:52.568Z</time>
      </trkpt>
      <trkpt lat="48.20527" lon="-3.11332">
        <ele>128</ele>
        <time>2022-03-01T00:08:56.643Z</time>
      </trkpt>
      <trkpt lat="48.20523" lon="-3.11332">
        <ele>128.6</ele>
        <time>2022-03-01T00:09:09.219Z</time>
      </trkpt>
      <trkpt lat="48.20519" lon="-3.11328">
        <ele>128.9</ele>
        <time>2022-03-01T00:09:16.677Z</time>
      </trkpt>
      <trkpt lat="48.20516" lon="-3.11323">
        <ele>129.1</ele>
        <time>2022-03-01T00:09:22.849Z</time>
      </trkpt>
      <trkpt lat="48.20515" lon="-3.11315">
        <ele>128.8</ele>
        <time>2022-03-01T00:09:23.930Z</time>
      </trkpt>
      <trkpt lat="48.20514" lon="-3.11307">
        <ele>128.6</ele>
        <time>2022-03-01T00:09:25.206Z</time>
      </trkpt>
      <trkpt lat="48.20512" lon="-3.11299">
        <ele>128.7</ele>
        <time>2022-03-01T00:09:30.738Z</time>
      </trkpt>
      <trkpt lat="48.20512" lon="-3.11293">
        <ele>128.6</ele>
        <time>2022-03-01T00:09:31.802Z</time>
      </trkpt>
      <trkpt lat="48.20513" lon="-3.11282">
        <ele>128.3</ele>
        <time>2022-03-01T00:09:33.482Z</time>
      </trkpt>
      <trkpt lat="48.20512" lon="-3.11273">
        <ele>128.3</ele>
        <time>2022-03-01T00:09:38.439Z</time>
      </trkpt>
      <trkpt lat="48.20513" lon="-3.11267">
        <ele>128</ele>
        <time>2022-03-01T00:09:39.258Z</time>
      </trkpt>
      <trkpt lat="48.20516" lon="-3.11258">
        <ele>127.1</ele>
        <time>2022-03-01T00:09:40.591Z</time>
      </trkpt>
      <trkpt lat="48.20515" lon="-3.11249">
        <ele>127.2</ele>
        <time>2022-03-01T00:09:46.427Z</time>
      </trkpt>
      <trkpt lat="48.20513" lon="-3.11243">
        <ele>127.6</ele>
        <time>2022-03-01T00:09:55.022Z</time>
      </trkpt>
      <trkpt lat="48.20513" lon="-3.11238">
        <ele>127.5</ele>
        <time>2022-03-01T00:09:55.862Z</time>
      </trkpt>
      <trkpt lat="48.20514" lon="-3.11233">
        <ele>127.2</ele>
        <time>2022-03-01T00:09:56.554Z</time>
      </trkpt>
      <trkpt lat="48.20512" lon="-3.11225">
        <ele>127.5</ele>
        <time>2022-03-01T00:10:04.815Z</time>
      </trkpt>
      <trkpt lat="48.20512" lon="-3.11224">
        <ele>127.4</ele>
        <time>2022-03-01T00:10:04.948Z</time>
        <extensions>
          <visugpx:TrkExtension xmlns:visugpx="https://www.visugpx.com/editgpx/">
            <visugpx:node>33</visugpx:node>
            </visugpx:TrkExtension>
        </extensions>
      </trkpt>
      <trkpt lat="48.20512" lon="-3.11222">
        <ele>127.4</ele>
        <time>2022-03-01T00:10:06.034Z</time>
      </trkpt>
      <trkpt lat="48.20512" lon="-3.11215">
        <ele>127.4</ele>
        <time>2022-03-01T00:10:09.837Z</time>
      </trkpt>
      <trkpt lat="48.20513" lon="-3.11204">
        <ele>127.2</ele>
        <time>2022-03-01T00:10:11.763Z</time>
      </trkpt>
      <trkpt lat="48.20512" lon="-3.11187">
        <ele>127.3</ele>
        <time>2022-03-01T00:10:21.846Z</time>
      </trkpt>
      <trkpt lat="48.20513" lon="-3.1118">
        <ele>126.9</ele>
        <time>2022-03-01T00:10:22.795Z</time>
      </trkpt>
      <trkpt lat="48.20511" lon="-3.11163">
        <ele>127.1</ele>
        <time>2022-03-01T00:10:33.949Z</time>
      </trkpt>
      <trkpt lat="48.20511" lon="-3.11155">
        <ele>127.3</ele>
        <time>2022-03-01T00:10:40.570Z</time>
      </trkpt>
      <trkpt lat="48.20511" lon="-3.11147">
        <ele>127.4</ele>
        <time>2022-03-01T00:10:45.817Z</time>
      </trkpt>
      <trkpt lat="48.20509" lon="-3.11137">
        <ele>128.1</ele>
        <time>2022-03-01T00:11:00.654Z</time>
      </trkpt>
      <trkpt lat="48.2051" lon="-3.1113">
        <ele>127.8</ele>
        <time>2022-03-01T00:11:01.548Z</time>
      </trkpt>
      <trkpt lat="48.2051" lon="-3.11124">
        <ele>127.8</ele>
        <time>2022-03-01T00:11:04.808Z</time>
      </trkpt>
      <trkpt lat="48.2051" lon="-3.11119">
        <ele>127.8</ele>
        <time>2022-03-01T00:11:07.524Z</time>
      </trkpt>
      <trkpt lat="48.20511" lon="-3.11114">
        <ele>127.6</ele>
        <time>2022-03-01T00:11:08.205Z</time>
      </trkpt>
      <trkpt lat="48.20511" lon="-3.11109">
        <ele>127.7</ele>
        <time>2022-03-01T00:11:11.951Z</time>
      </trkpt>
      <trkpt lat="48.20513" lon="-3.11099">
        <ele>127.4</ele>
        <time>2022-03-01T00:11:13.493Z</time>
      </trkpt>
      <trkpt lat="48.20513" lon="-3.11092">
        <ele>127.6</ele>
        <time>2022-03-01T00:11:19.755Z</time>
      </trkpt>
      <trkpt lat="48.20514" lon="-3.11085">
        <ele>127.4</ele>
        <time>2022-03-01T00:11:20.824Z</time>
      </trkpt>
      <trkpt lat="48.20515" lon="-3.11076">
        <ele>127.7</ele>
        <time>2022-03-01T00:11:29.454Z</time>
      </trkpt>
      <trkpt lat="48.20516" lon="-3.1107">
        <ele>127.9</ele>
        <time>2022-03-01T00:11:35.272Z</time>
      </trkpt>
      <trkpt lat="48.2052" lon="-3.11063">
        <ele>127.1</ele>
        <time>2022-03-01T00:11:36.494Z</time>
      </trkpt>
      <trkpt lat="48.20522" lon="-3.11055">
        <ele>127</ele>
        <time>2022-03-01T00:11:38.146Z</time>
      </trkpt>
      <trkpt lat="48.20526" lon="-3.11048">
        <ele>126.7</ele>
        <time>2022-03-01T00:11:39.440Z</time>
      </trkpt>
      <trkpt lat="48.20529" lon="-3.11042">
        <ele>126.8</ele>
        <time>2022-03-01T00:11:44.429Z</time>
      </trkpt>
      <trkpt lat="48.20534" lon="-3.11037">
        <ele>126.8</ele>
        <time>2022-03-01T00:11:49.327Z</time>
      </trkpt>
      <trkpt lat="48.20538" lon="-3.11029">
        <ele>127</ele>
        <time>2022-03-01T00:11:56.819Z</time>
      </trkpt>
      <trkpt lat="48.20539" lon="-3.11025">
        <ele>127.3</ele>
        <time>2022-03-01T00:12:03.187Z</time>
      </trkpt>
      <trkpt lat="48.20543" lon="-3.1102">
        <ele>127</ele>
        <time>2022-03-01T00:12:04.205Z</time>
      </trkpt>
      <trkpt lat="48.20547" lon="-3.11017">
        <ele>126.4</ele>
        <time>2022-03-01T00:12:05.094Z</time>
      </trkpt>
      <trkpt lat="48.2055" lon="-3.11011">
        <ele>126.1</ele>
        <time>2022-03-01T00:12:06.053Z</time>
      </trkpt>
      <trkpt lat="48.20553" lon="-3.11007">
        <ele>125.5</ele>
        <time>2022-03-01T00:12:06.851Z</time>
      </trkpt>
      <trkpt lat="48.20557" lon="-3.10998">
        <ele>125.4</ele>
        <time>2022-03-01T00:12:09.039Z</time>
      </trkpt>
      <trkpt lat="48.2056" lon="-3.10993">
        <ele>126.4</ele>
        <time>2022-03-01T00:12:23.137Z</time>
      </trkpt>
      <trkpt lat="48.20565" lon="-3.10987">
        <ele>127.1</ele>
        <time>2022-03-01T00:12:38.066Z</time>
      </trkpt>
      <trkpt lat="48.20568" lon="-3.10981">
        <ele>127.8</ele>
        <time>2022-03-01T00:12:53.783Z</time>
      </trkpt>
      <trkpt lat="48.20572" lon="-3.10977">
        <ele>127.8</ele>
        <time>2022-03-01T00:12:57.701Z</time>
      </trkpt>
      <trkpt lat="48.20578" lon="-3.10973">
        <ele>127.1</ele>
        <time>2022-03-01T00:12:59.006Z</time>
      </trkpt>
      <trkpt lat="48.20582" lon="-3.1097">
        <ele>127.1</ele>
        <time>2022-03-01T00:13:02.651Z</time>
      </trkpt>
      <trkpt lat="48.20587" lon="-3.10966">
        <ele>127.9</ele>
        <time>2022-03-01T00:13:20.466Z</time>
      </trkpt>
      <trkpt lat="48.20592" lon="-3.1096">
        <ele>129.2</ele>
        <time>2022-03-01T00:13:40.595Z</time>
      </trkpt>
      <trkpt lat="48.20596" lon="-3.10956">
        <ele>129.9</ele>
        <time>2022-03-01T00:13:55.709Z</time>
      </trkpt>
      <trkpt lat="48.20602" lon="-3.10952">
        <ele>130</ele>
        <time>2022-03-01T00:14:01.928Z</time>
      </trkpt>
      <trkpt lat="48.20607" lon="-3.1095">
        <ele>129.6</ele>
        <time>2022-03-01T00:14:02.957Z</time>
      </trkpt>
      <trkpt lat="48.20613" lon="-3.10952">
        <ele>128.1</ele>
        <time>2022-03-01T00:14:04.178Z</time>
      </trkpt>
      <trkpt lat="48.20619" lon="-3.10951">
        <ele>127.5</ele>
        <time>2022-03-01T00:14:05.379Z</time>
      </trkpt>
      <trkpt lat="48.20624" lon="-3.1095">
        <ele>126.9</ele>
        <time>2022-03-01T00:14:06.381Z</time>
      </trkpt>
      <trkpt lat="48.20632" lon="-3.10943">
        <ele>126.9</ele>
        <time>2022-03-01T00:14:13.930Z</time>
      </trkpt>
      <trkpt lat="48.20636" lon="-3.10939">
        <ele>127.9</ele>
        <time>2022-03-01T00:14:29.043Z</time>
      </trkpt>
      <trkpt lat="48.2064" lon="-3.10937">
        <ele>128.1</ele>
        <time>2022-03-01T00:14:34.953Z</time>
      </trkpt>
      <trkpt lat="48.20646" lon="-3.10937">
        <ele>127.3</ele>
        <time>2022-03-01T00:14:36.146Z</time>
      </trkpt>
      <trkpt lat="48.20651" lon="-3.10933">
        <ele>127.9</ele>
        <time>2022-03-01T00:14:48.888Z</time>
      </trkpt>
      <trkpt lat="48.20654" lon="-3.10931">
        <ele>127.9</ele>
        <time>2022-03-01T00:14:51.564Z</time>
      </trkpt>
      <trkpt lat="48.20658" lon="-3.10927">
        <ele>128</ele>
        <time>2022-03-01T00:14:56.405Z</time>
      </trkpt>
      <trkpt lat="48.20662" lon="-3.10926">
        <ele>127.2</ele>
        <time>2022-03-01T00:14:57.211Z</time>
      </trkpt>
      <trkpt lat="48.20667" lon="-3.10923">
        <ele>126.3</ele>
        <time>2022-03-01T00:14:58.281Z</time>
      </trkpt>
      <trkpt lat="48.20674" lon="-3.10919">
        <ele>125.7</ele>
        <time>2022-03-01T00:14:59.770Z</time>
      </trkpt>
      <trkpt lat="48.20679" lon="-3.1092">
        <ele>125</ele>
        <time>2022-03-01T00:15:00.773Z</time>
      </trkpt>
      <trkpt lat="48.20687" lon="-3.10918">
        <ele>124</ele>
        <time>2022-03-01T00:15:02.385Z</time>
      </trkpt>
      <trkpt lat="48.20686" lon="-3.10909">
        <ele>127.8</ele>
        <time>2022-03-01T00:15:21.503Z</time>
        <extensions>
          <visugpx:TrkExtension xmlns:visugpx="https://www.visugpx.com/editgpx/">
            <visugpx:node>34</visugpx:node>
            </visugpx:TrkExtension>
        </extensions>
      </trkpt>
      <trkpt lat="48.20685" lon="-3.10883">
        <ele>138.2</ele>
        <time>2022-03-01T00:16:16.072Z</time>
      </trkpt>
      <trkpt lat="48.20687" lon="-3.10855">
        <ele>140.4</ele>
        <time>2022-03-01T00:17:03.878Z</time>
      </trkpt>
      <trkpt lat="48.2069" lon="-3.10822">
        <ele>135.5</ele>
        <time>2022-03-01T00:17:08.290Z</time>
      </trkpt>
      <trkpt lat="48.20679" lon="-3.10786">
        <ele>130.5</ele>
        <time>2022-03-01T00:17:13.537Z</time>
      </trkpt>
      <trkpt lat="48.20649" lon="-3.10763">
        <ele>127.8</ele>
        <time>2022-03-01T00:17:20.234Z</time>
      </trkpt>
      <trkpt lat="48.2061" lon="-3.10744">
        <ele>126.8</ele>
        <time>2022-03-01T00:17:31.222Z</time>
      </trkpt>
      <trkpt lat="48.20576" lon="-3.10731">
        <ele>126.1</ele>
        <time>2022-03-01T00:17:41.114Z</time>
      </trkpt>
      <trkpt lat="48.20547" lon="-3.10708">
        <ele>125.5</ele>
        <time>2022-03-01T00:17:50.546Z</time>
      </trkpt>
      <trkpt lat="48.20515" lon="-3.10676">
        <ele>126.8</ele>
        <time>2022-03-01T00:18:35.952Z</time>
      </trkpt>
      <trkpt lat="48.20486" lon="-3.10644">
        <ele>132</ele>
        <time>2022-03-01T00:20:29.130Z</time>
      </trkpt>
      <trkpt lat="48.20475" lon="-3.10591">
        <ele>132.5</ele>
        <time>2022-03-01T00:21:03.547Z</time>
      </trkpt>
      <trkpt lat="48.2048" lon="-3.10528">
        <ele>129.2</ele>
        <time>2022-03-01T00:21:11.952Z</time>
      </trkpt>
      <trkpt lat="48.20486" lon="-3.10464">
        <ele>130.7</ele>
        <time>2022-03-01T00:22:03.508Z</time>
      </trkpt>
      <trkpt lat="48.20495" lon="-3.1041">
        <ele>130.1</ele>
        <time>2022-03-01T00:22:14.452Z</time>
      </trkpt>
      <trkpt lat="48.20499" lon="-3.10333">
        <ele>134.6</ele>
        <time>2022-03-01T00:23:51.650Z</time>
      </trkpt>
      <trkpt lat="48.20501" lon="-3.10283">
        <ele>138.7</ele>
        <time>2022-03-01T00:25:22.644Z</time>
      </trkpt>
      <trkpt lat="48.2051" lon="-3.10216">
        <ele>138.7</ele>
        <time>2022-03-01T00:25:59.774Z</time>
      </trkpt>
      <trkpt lat="48.20524" lon="-3.10137">
        <ele>138.4</ele>
        <time>2022-03-01T00:26:40.727Z</time>
      </trkpt>
      <trkpt lat="48.20541" lon="-3.10085">
        <ele>138.9</ele>
        <time>2022-03-01T00:27:16.427Z</time>
      </trkpt>
      <trkpt lat="48.20562" lon="-3.10037">
        <ele>135.6</ele>
        <time>2022-03-01T00:27:24.034Z</time>
      </trkpt>
      <trkpt lat="48.2057" lon="-3.0998">
        <ele>132.7</ele>
        <time>2022-03-01T00:27:31.751Z</time>
      </trkpt>
      <trkpt lat="48.20573" lon="-3.09923">
        <ele>133</ele>
        <time>2022-03-01T00:28:05.226Z</time>
      </trkpt>
      <trkpt lat="48.20569" lon="-3.09847">
        <ele>133.7</ele>
        <time>2022-03-01T00:28:52.623Z</time>
      </trkpt>
      <trkpt lat="48.2056" lon="-3.09798">
        <ele>131.5</ele>
        <time>2022-03-01T00:28:58.873Z</time>
      </trkpt>
      <trkpt lat="48.20551" lon="-3.09764">
        <ele>130.2</ele>
        <time>2022-03-01T00:29:03.813Z</time>
      </trkpt>
      <trkpt lat="48.20529" lon="-3.09709">
        <ele>126.9</ele>
        <time>2022-03-01T00:29:12.311Z</time>
      </trkpt>
      <trkpt lat="48.20514" lon="-3.09677">
        <ele>127.1</ele>
        <time>2022-03-01T00:29:35.170Z</time>
      </trkpt>
      <trkpt lat="48.20489" lon="-3.09648">
        <ele>129.3</ele>
        <time>2022-03-01T00:30:26.853Z</time>
      </trkpt>
      <trkpt lat="48.20468" lon="-3.09615">
        <ele>124.8</ele>
        <time>2022-03-01T00:30:32.898Z</time>
      </trkpt>
      <trkpt lat="48.20439" lon="-3.09603">
        <ele>126.6</ele>
        <time>2022-03-01T00:31:18.728Z</time>
      </trkpt>
      <trkpt lat="48.20413" lon="-3.09591">
        <ele>127.4</ele>
        <time>2022-03-01T00:31:49.076Z</time>
      </trkpt>
      <trkpt lat="48.20387" lon="-3.09581">
        <ele>128.3</ele>
        <time>2022-03-01T00:32:20.653Z</time>
      </trkpt>
      <trkpt lat="48.20363" lon="-3.09565">
        <ele>130.6</ele>
        <time>2022-03-01T00:33:10.311Z</time>
      </trkpt>
      <trkpt lat="48.20315" lon="-3.09592">
        <ele>131.3</ele>
        <time>2022-03-01T00:33:58.069Z</time>
      </trkpt>
      <trkpt lat="48.20283" lon="-3.09603">
        <ele>128.5</ele>
        <time>2022-03-01T00:34:04.595Z</time>
      </trkpt>
      <trkpt lat="48.20256" lon="-3.09617">
        <ele>129.5</ele>
        <time>2022-03-01T00:34:38.871Z</time>
      </trkpt>
      <trkpt lat="48.20224" lon="-3.09595">
        <ele>128.5</ele>
        <time>2022-03-01T00:34:47.899Z</time>
      </trkpt>
      <trkpt lat="48.20172" lon="-3.09552">
        <ele>128.2</ele>
        <time>2022-03-01T00:35:32.819Z</time>
      </trkpt>
      <trkpt lat="48.20146" lon="-3.09526">
        <ele>128.9</ele>
        <time>2022-03-01T00:36:04.864Z</time>
      </trkpt>
      <trkpt lat="48.20129" lon="-3.09498">
        <ele>129.3</ele>
        <time>2022-03-01T00:36:28.935Z</time>
      </trkpt>
      <trkpt lat="48.20122" lon="-3.09474">
        <ele>128.7</ele>
        <time>2022-03-01T00:36:33.146Z</time>
      </trkpt>
      <trkpt lat="48.20123" lon="-3.09436">
        <ele>126.3</ele>
        <time>2022-03-01T00:36:38.185Z</time>
      </trkpt>
      <trkpt lat="48.20121" lon="-3.09371">
        <ele>126.3</ele>
        <time>2022-03-01T00:37:13.536Z</time>
      </trkpt>
      <trkpt lat="48.20122" lon="-3.09302">
        <ele>129.4</ele>
        <time>2022-03-01T00:38:27.531Z</time>
      </trkpt>
      <trkpt lat="48.20127" lon="-3.09259">
        <ele>130.3</ele>
        <time>2022-03-01T00:39:00.622Z</time>
      </trkpt>
      <trkpt lat="48.20141" lon="-3.09207">
        <ele>128.8</ele>
        <time>2022-03-01T00:39:09.143Z</time>
      </trkpt>
      <trkpt lat="48.20141" lon="-3.09085">
        <ele>126.6</ele>
        <time>2022-03-01T00:39:30.305Z</time>
      </trkpt>
      <trkpt lat="48.20164" lon="-3.08994">
        <ele>126</ele>
        <time>2022-03-01T00:39:51.220Z</time>
      </trkpt>
      <trkpt lat="48.20177" lon="-3.08889">
        <ele>128</ele>
        <time>2022-03-01T00:41:09.348Z</time>
      </trkpt>
      <trkpt lat="48.20193" lon="-3.08842">
        <ele>125.6</ele>
        <time>2022-03-01T00:41:16.341Z</time>
      </trkpt>
      <trkpt lat="48.20194" lon="-3.08777">
        <ele>130.2</ele>
        <time>2022-03-01T00:42:54.054Z</time>
      </trkpt>
      <trkpt lat="48.20222" lon="-3.08718">
        <ele>131.5</ele>
        <time>2022-03-01T00:43:46.288Z</time>
        <extensions>
          <visugpx:TrkExtension xmlns:visugpx="https://www.visugpx.com/editgpx/">
            <visugpx:node>35</visugpx:node>
            </visugpx:TrkExtension>
        </extensions>
      </trkpt>
      <trkpt lat="48.20223" lon="-3.08717">
        <ele>131.4</ele>
        <time>2022-03-01T00:43:46.527Z</time>
      </trkpt>
      <trkpt lat="48.2029" lon="-3.08555">
        <ele>133.2</ele>
        <time>2022-03-01T00:45:45.548Z</time>
      </trkpt>
      <trkpt lat="48.20402" lon="-3.08409">
        <ele>140.4</ele>
        <time>2022-03-01T00:49:14.994Z</time>
      </trkpt>
      <trkpt lat="48.20452" lon="-3.08383">
        <ele>140.5</ele>
        <time>2022-03-01T00:49:58.888Z</time>
      </trkpt>
      <trkpt lat="48.2058" lon="-3.08393">
        <ele>143.2</ele>
        <time>2022-03-01T00:52:08.343Z</time>
      </trkpt>
      <trkpt lat="48.20633" lon="-3.08414">
        <ele>141.2</ele>
        <time>2022-03-01T00:52:21.287Z</time>
      </trkpt>
      <trkpt lat="48.20671" lon="-3.08445">
        <ele>136.8</ele>
        <time>2022-03-01T00:52:29.885Z</time>
      </trkpt>
      <trkpt lat="48.20702" lon="-3.0844">
        <ele>137.3</ele>
        <time>2022-03-01T00:52:59.675Z</time>
      </trkpt>
      <trkpt lat="48.20714" lon="-3.08409">
        <ele>145.5</ele>
        <time>2022-03-01T00:54:14.792Z</time>
      </trkpt>
      <trkpt lat="48.20732" lon="-3.0838">
        <ele>148.9</ele>
        <time>2022-03-01T00:55:32.549Z</time>
      </trkpt>
      <trkpt lat="48.20777" lon="-3.08394">
        <ele>132</ele>
        <time>2022-03-01T00:55:41.684Z</time>
      </trkpt>
      <trkpt lat="48.20858" lon="-3.08299">
        <ele>127</ele>
        <time>2022-03-01T00:56:03.370Z</time>
      </trkpt>
      <trkpt lat="48.20861" lon="-3.08267">
        <ele>130</ele>
        <time>2022-03-01T00:57:11.078Z</time>
      </trkpt>
      <trkpt lat="48.20861" lon="-3.08125">
        <ele>127</ele>
        <time>2022-03-01T00:57:34.525Z</time>
      </trkpt>
      <trkpt lat="48.20872" lon="-3.07976">
        <ele>131.9</ele>
        <time>2022-03-01T00:59:56.033Z</time>
      </trkpt>
      <trkpt lat="48.20903" lon="-3.07915">
        <ele>126.5</ele>
        <time>2022-03-01T01:00:06.195Z</time>
      </trkpt>
      <trkpt lat="48.20914" lon="-3.07899">
        <ele>126.1</ele>
        <time>2022-03-01T01:00:10.224Z</time>
      </trkpt>
      <trkpt lat="48.20918" lon="-3.07884">
        <ele>126.4</ele>
        <time>2022-03-01T01:00:22.007Z</time>
      </trkpt>
      <trkpt lat="48.20915" lon="-3.07883">
        <ele>126.2</ele>
        <time>2022-03-01T01:00:22.574Z</time>
        <extensions>
          <visugpx:TrkExtension xmlns:visugpx="https://www.visugpx.com/editgpx/">
            <visugpx:node>36</visugpx:node>
            </visugpx:TrkExtension>
        </extensions>
      </trkpt>
      <trkpt lat="48.20853" lon="-3.0785">
        <ele>127.4</ele>
        <time>2022-03-01T01:01:26.953Z</time>
      </trkpt>
      <trkpt lat="48.20789" lon="-3.07789">
        <ele>127</ele>
        <time>2022-03-01T01:02:24.133Z</time>
      </trkpt>
      <trkpt lat="48.20756" lon="-3.07759">
        <ele>127.7</ele>
        <time>2022-03-01T01:03:01.852Z</time>
      </trkpt>
      <trkpt lat="48.207" lon="-3.07696">
        <ele>127.3</ele>
        <time>2022-03-01T01:03:54.310Z</time>
      </trkpt>
      <trkpt lat="48.20639" lon="-3.07628">
        <ele>128.2</ele>
        <time>2022-03-01T01:05:03.790Z</time>
      </trkpt>
      <trkpt lat="48.20565" lon="-3.07493">
        <ele>129.6</ele>
        <time>2022-03-01T01:06:50.492Z</time>
      </trkpt>
      <trkpt lat="48.20492" lon="-3.07369">
        <ele>133.5</ele>
        <time>2022-03-01T01:09:03.445Z</time>
      </trkpt>
      <trkpt lat="48.2047" lon="-3.07299">
        <ele>140.4</ele>
        <time>2022-03-01T01:11:45.615Z</time>
      </trkpt>
      <trkpt lat="48.20422" lon="-3.0712">
        <ele>138</ele>
        <time>2022-03-01T01:12:22.426Z</time>
      </trkpt>
      <trkpt lat="48.20394" lon="-3.06984">
        <ele>133</ele>
        <time>2022-03-01T01:12:41.747Z</time>
      </trkpt>
      <trkpt lat="48.20377" lon="-3.06951">
        <ele>127.6</ele>
        <time>2022-03-01T01:12:47.272Z</time>
      </trkpt>
      <trkpt lat="48.20326" lon="-3.06928">
        <ele>127.7</ele>
        <time>2022-03-01T01:13:31.441Z</time>
      </trkpt>
      <trkpt lat="48.20258" lon="-3.06916">
        <ele>125.6</ele>
        <time>2022-03-01T01:13:48.587Z</time>
      </trkpt>
      <trkpt lat="48.20246" lon="-3.06921">
        <ele>126.3</ele>
        <time>2022-03-01T01:14:07.091Z</time>
      </trkpt>
      <trkpt lat="48.20205" lon="-3.0694">
        <ele>126.7</ele>
        <time>2022-03-01T01:14:45.334Z</time>
      </trkpt>
      <trkpt lat="48.20176" lon="-3.06905">
        <ele>128.7</ele>
        <time>2022-03-01T01:15:39.712Z</time>
      </trkpt>
      <trkpt lat="48.20177" lon="-3.06904">
        <ele>128.6</ele>
        <time>2022-03-01T01:15:39.950Z</time>
        <extensions>
          <visugpx:TrkExtension xmlns:visugpx="https://www.visugpx.com/editgpx/">
            <visugpx:node>37</visugpx:node>
            </visugpx:TrkExtension>
        </extensions>
      </trkpt>
      <trkpt lat="48.20182" lon="-3.06898">
        <ele>128.3</ele>
        <time>2022-03-01T01:15:41.322Z</time>
      </trkpt>
      <trkpt lat="48.20191" lon="-3.06885">
        <ele>127.7</ele>
        <time>2022-03-01T01:15:43.972Z</time>
      </trkpt>
      <trkpt lat="48.20201" lon="-3.06865">
        <ele>127.2</ele>
        <time>2022-03-01T01:15:48.174Z</time>
      </trkpt>
      <trkpt lat="48.20223" lon="-3.06828">
        <ele>126.9</ele>
        <time>2022-03-01T01:15:58.854Z</time>
      </trkpt>
      <trkpt lat="48.2024" lon="-3.06808">
        <ele>127.5</ele>
        <time>2022-03-01T01:16:22.472Z</time>
      </trkpt>
      <trkpt lat="48.20257" lon="-3.06793">
        <ele>127.4</ele>
        <time>2022-03-01T01:16:37.388Z</time>
      </trkpt>
      <trkpt lat="48.20276" lon="-3.06779">
        <ele>127.1</ele>
        <time>2022-03-01T01:16:43.790Z</time>
      </trkpt>
      <trkpt lat="48.20283" lon="-3.06775">
        <ele>126.9</ele>
        <time>2022-03-01T01:16:45.747Z</time>
      </trkpt>
      <trkpt lat="48.20291" lon="-3.0677">
        <ele>126.8</ele>
        <time>2022-03-01T01:16:48.458Z</time>
      </trkpt>
      <trkpt lat="48.20313" lon="-3.06759">
        <ele>126.7</ele>
        <time>2022-03-01T01:17:06.189Z</time>
      </trkpt>
      <trkpt lat="48.20328" lon="-3.06771">
        <ele>125</ele>
        <time>2022-03-01T01:17:09.568Z</time>
      </trkpt>
      <trkpt lat="48.20347" lon="-3.06759">
        <ele>125.7</ele>
        <time>2022-03-01T01:17:33.957Z</time>
      </trkpt>
      <trkpt lat="48.2037" lon="-3.06743">
        <ele>126.4</ele>
        <time>2022-03-01T01:18:01.618Z</time>
      </trkpt>
      <trkpt lat="48.20386" lon="-3.06729">
        <ele>126.5</ele>
        <time>2022-03-01T01:18:17.501Z</time>
      </trkpt>
      <trkpt lat="48.20402" lon="-3.06709">
        <ele>125.6</ele>
        <time>2022-03-01T01:18:22.113Z</time>
      </trkpt>
      <trkpt lat="48.20413" lon="-3.06687">
        <ele>125.5</ele>
        <time>2022-03-01T01:18:35.902Z</time>
      </trkpt>
      <trkpt lat="48.20425" lon="-3.06662">
        <ele>125.9</ele>
        <time>2022-03-01T01:18:56.274Z</time>
      </trkpt>
      <trkpt lat="48.20436" lon="-3.06632">
        <ele>126.4</ele>
        <time>2022-03-01T01:19:19.546Z</time>
      </trkpt>
      <trkpt lat="48.20437" lon="-3.06606">
        <ele>126.4</ele>
        <time>2022-03-01T01:19:33.694Z</time>
      </trkpt>
      <trkpt lat="48.20434" lon="-3.06571">
        <ele>126.2</ele>
        <time>2022-03-01T01:19:41.354Z</time>
      </trkpt>
      <trkpt lat="48.20429" lon="-3.06534">
        <ele>127.1</ele>
        <time>2022-03-01T01:20:11.858Z</time>
      </trkpt>
      <trkpt lat="48.20424" lon="-3.06476">
        <ele>128.2</ele>
        <time>2022-03-01T01:20:54.705Z</time>
      </trkpt>
      <trkpt lat="48.20421" lon="-3.06374">
        <ele>129.2</ele>
        <time>2022-03-01T01:21:58.800Z</time>
      </trkpt>
      <trkpt lat="48.20429" lon="-3.06187">
        <ele>129.1</ele>
        <time>2022-03-01T01:23:39.364Z</time>
      </trkpt>
      <trkpt lat="48.20454" lon="-3.06002">
        <ele>129.8</ele>
        <time>2022-03-01T01:25:27.419Z</time>
      </trkpt>
      <trkpt lat="48.20458" lon="-3.05938">
        <ele>133</ele>
        <time>2022-03-01T01:26:40.267Z</time>
      </trkpt>
      <trkpt lat="48.20484" lon="-3.05741">
        <ele>133.8</ele>
        <time>2022-03-01T01:28:35.686Z</time>
      </trkpt>
      <trkpt lat="48.20529" lon="-3.05544">
        <ele>132.3</ele>
        <time>2022-03-01T01:29:19.519Z</time>
      </trkpt>
      <trkpt lat="48.20529" lon="-3.05536">
        <ele>132</ele>
        <time>2022-03-01T01:29:20.573Z</time>
        <extensions>
          <visugpx:TrkExtension xmlns:visugpx="https://www.visugpx.com/editgpx/">
            <visugpx:node>38</visugpx:node>
            </visugpx:TrkExtension>
        </extensions>
      </trkpt>
      <trkpt lat="48.20527" lon="-3.05494">
        <ele>130.7</ele>
        <time>2022-03-01T01:29:26.615Z</time>
      </trkpt>
      <trkpt lat="48.20486" lon="-3.05419">
        <ele>129.3</ele>
        <time>2022-03-01T01:29:44.485Z</time>
      </trkpt>
      <trkpt lat="48.20472" lon="-3.05392">
        <ele>129.3</ele>
        <time>2022-03-01T01:30:03.069Z</time>
      </trkpt>
      <trkpt lat="48.20435" lon="-3.05342">
        <ele>129.8</ele>
        <time>2022-03-01T01:30:47.769Z</time>
      </trkpt>
      <trkpt lat="48.20375" lon="-3.05302">
        <ele>129.1</ele>
        <time>2022-03-01T01:31:08.544Z</time>
      </trkpt>
      <trkpt lat="48.20348" lon="-3.05264">
        <ele>129.6</ele>
        <time>2022-03-01T01:31:42.980Z</time>
      </trkpt>
      <trkpt lat="48.20341" lon="-3.05194">
        <ele>125.9</ele>
        <time>2022-03-01T01:31:52.357Z</time>
      </trkpt>
      <trkpt lat="48.20286" lon="-3.05114">
        <ele>133</ele>
        <time>2022-03-01T01:34:23.931Z</time>
      </trkpt>
      <trkpt lat="48.20199" lon="-3.04958">
        <ele>140.6</ele>
        <time>2022-03-01T01:37:45.147Z</time>
      </trkpt>
      <trkpt lat="48.20168" lon="-3.04878">
        <ele>142.3</ele>
        <time>2022-03-01T01:38:52.401Z</time>
      </trkpt>
      <trkpt lat="48.20153" lon="-3.04809">
        <ele>147.2</ele>
        <time>2022-03-01T01:40:36.250Z</time>
      </trkpt>
      <trkpt lat="48.2015" lon="-3.047">
        <ele>141.1</ele>
        <time>2022-03-01T01:40:50.704Z</time>
      </trkpt>
      <trkpt lat="48.20163" lon="-3.0461">
        <ele>140.3</ele>
        <time>2022-03-01T01:41:09.538Z</time>
      </trkpt>
      <trkpt lat="48.2017" lon="-3.04533">
        <ele>137.7</ele>
        <time>2022-03-01T01:41:20.316Z</time>
      </trkpt>
      <trkpt lat="48.20169" lon="-3.04463">
        <ele>138.9</ele>
        <time>2022-03-01T01:42:10.074Z</time>
      </trkpt>
      <trkpt lat="48.20166" lon="-3.04393">
        <ele>142.4</ele>
        <time>2022-03-01T01:43:29.677Z</time>
      </trkpt>
      <trkpt lat="48.20196" lon="-3.04246">
        <ele>135.8</ele>
        <time>2022-03-01T01:43:48.662Z</time>
      </trkpt>
      <trkpt lat="48.20204" lon="-3.04143">
        <ele>135.3</ele>
        <time>2022-03-01T01:44:39.377Z</time>
      </trkpt>
      <trkpt lat="48.20188" lon="-3.04034">
        <ele>133.7</ele>
        <time>2022-03-01T01:44:59.974Z</time>
      </trkpt>
      <trkpt lat="48.20163" lon="-3.0389">
        <ele>132.1</ele>
        <time>2022-03-01T01:45:29.248Z</time>
      </trkpt>
      <trkpt lat="48.20158" lon="-3.0385">
        <ele>131.8</ele>
        <time>2022-03-01T01:45:37.787Z</time>
      </trkpt>
      <trkpt lat="48.20158" lon="-3.03847">
        <ele>131.7</ele>
        <time>2022-03-01T01:45:38.203Z</time>
        <extensions>
          <visugpx:TrkExtension xmlns:visugpx="https://www.visugpx.com/editgpx/">
            <visugpx:node>39</visugpx:node>
            </visugpx:TrkExtension>
        </extensions>
      </trkpt>
      <trkpt lat="48.2016" lon="-3.0381">
        <ele>129.6</ele>
        <time>2022-03-01T01:45:43.122Z</time>
      </trkpt>
      <trkpt lat="48.20156" lon="-3.03789">
        <ele>128.9</ele>
        <time>2022-03-01T01:45:46.207Z</time>
      </trkpt>
      <trkpt lat="48.20142" lon="-3.0377">
        <ele>129.9</ele>
        <time>2022-03-01T01:46:13.648Z</time>
      </trkpt>
      <trkpt lat="48.20094" lon="-3.03724">
        <ele>135.2</ele>
        <time>2022-03-01T01:48:06.725Z</time>
      </trkpt>
      <trkpt lat="48.20071" lon="-3.03705">
        <ele>138.1</ele>
        <time>2022-03-01T01:49:08.691Z</time>
      </trkpt>
      <trkpt lat="48.20065" lon="-3.03694">
        <ele>137.6</ele>
        <time>2022-03-01T01:49:10.620Z</time>
        <extensions>
          <visugpx:TrkExtension xmlns:visugpx="https://www.visugpx.com/editgpx/">
            <visugpx:node>40</visugpx:node>
            </visugpx:TrkExtension>
        </extensions>
      </trkpt>
      <trkpt lat="48.20035" lon="-3.03637">
        <ele>135.3</ele>
        <time>2022-03-01T01:49:20.932Z</time>
      </trkpt>
      <trkpt lat="48.20014" lon="-3.03611">
        <ele>133.5</ele>
        <time>2022-03-01T01:49:25.912Z</time>
      </trkpt>
      <trkpt lat="48.19984" lon="-3.03609">
        <ele>138.8</ele>
        <time>2022-03-01T01:51:00.326Z</time>
      </trkpt>
      <trkpt lat="48.19951" lon="-3.0361">
        <ele>135.6</ele>
        <time>2022-03-01T01:51:06.887Z</time>
      </trkpt>
      <trkpt lat="48.19918" lon="-3.03624">
        <ele>135.9</ele>
        <time>2022-03-01T01:51:37.276Z</time>
      </trkpt>
      <trkpt lat="48.19907" lon="-3.0362">
        <ele>137.1</ele>
        <time>2022-03-01T01:52:02.763Z</time>
      </trkpt>
      <trkpt lat="48.19894" lon="-3.03601">
        <ele>137.7</ele>
        <time>2022-03-01T01:52:23.983Z</time>
      </trkpt>
      <trkpt lat="48.19879" lon="-3.03545">
        <ele>136.1</ele>
        <time>2022-03-01T01:52:33.184Z</time>
      </trkpt>
      <trkpt lat="48.19868" lon="-3.03509">
        <ele>134.6</ele>
        <time>2022-03-01T01:52:38.378Z</time>
      </trkpt>
      <trkpt lat="48.19834" lon="-3.03462">
        <ele>137.9</ele>
        <time>2022-03-01T01:53:55.007Z</time>
      </trkpt>
      <trkpt lat="48.19815" lon="-3.03434">
        <ele>140.5</ele>
        <time>2022-03-01T01:54:50.183Z</time>
      </trkpt>
      <trkpt lat="48.19806" lon="-3.03404">
        <ele>137.7</ele>
        <time>2022-03-01T01:54:54.542Z</time>
      </trkpt>
      <trkpt lat="48.19777" lon="-3.03383">
        <ele>138.8</ele>
        <time>2022-03-01T01:55:32.743Z</time>
      </trkpt>
      <trkpt lat="48.19754" lon="-3.03353">
        <ele>134.8</ele>
        <time>2022-03-01T01:55:38.802Z</time>
      </trkpt>
      <trkpt lat="48.19733" lon="-3.03319">
        <ele>132.1</ele>
        <time>2022-03-01T01:55:44.944Z</time>
        <extensions>
          <visugpx:TrkExtension xmlns:visugpx="https://www.visugpx.com/editgpx/">
            <visugpx:node>41</visugpx:node>
            </visugpx:TrkExtension>
        </extensions>
      </trkpt>
      <trkpt lat="48.19732" lon="-3.03317">
        <ele>131.7</ele>
        <time>2022-03-01T01:55:45.275Z</time>
      </trkpt>
      <trkpt lat="48.19698" lon="-3.03303">
        <ele>135.5</ele>
        <time>2022-03-01T01:57:06.140Z</time>
      </trkpt>
      <trkpt lat="48.19667" lon="-3.03293">
        <ele>141.3</ele>
        <time>2022-03-01T01:58:45.833Z</time>
      </trkpt>
      <trkpt lat="48.19636" lon="-3.03272">
        <ele>147.8</ele>
        <time>2022-03-01T02:00:32.774Z</time>
      </trkpt>
      <trkpt lat="48.19608" lon="-3.03229">
        <ele>147</ele>
        <time>2022-03-01T02:00:44.070Z</time>
      </trkpt>
      <trkpt lat="48.19585" lon="-3.03196">
        <ele>144.9</ele>
        <time>2022-03-01T02:00:49.895Z</time>
      </trkpt>
      <trkpt lat="48.19559" lon="-3.03139">
        <ele>138.8</ele>
        <time>2022-03-01T02:00:59.047Z</time>
      </trkpt>
      <trkpt lat="48.19533" lon="-3.03086">
        <ele>142.5</ele>
        <time>2022-03-01T02:02:19.725Z</time>
      </trkpt>
      <trkpt lat="48.195" lon="-3.02993">
        <ele>147.2</ele>
        <time>2022-03-01T02:04:12.306Z</time>
      </trkpt>
      <trkpt lat="48.19484" lon="-3.02928">
        <ele>148.7</ele>
        <time>2022-03-01T02:05:05.897Z</time>
      </trkpt>
      <trkpt lat="48.19483" lon="-3.02865">
        <ele>142.3</ele>
        <time>2022-03-01T02:05:14.247Z</time>
      </trkpt>
      <trkpt lat="48.19483" lon="-3.02797">
        <ele>142.3</ele>
        <time>2022-03-01T02:05:51.196Z</time>
      </trkpt>
      <trkpt lat="48.19486" lon="-3.02745">
        <ele>144.5</ele>
        <time>2022-03-01T02:06:45.493Z</time>
      </trkpt>
      <trkpt lat="48.19493" lon="-3.02659">
        <ele>144.4</ele>
        <time>2022-03-01T02:07:31.352Z</time>
      </trkpt>
      <trkpt lat="48.19499" lon="-3.02575">
        <ele>139.8</ele>
        <time>2022-03-01T02:07:42.546Z</time>
      </trkpt>
      <trkpt lat="48.19493" lon="-3.02501">
        <ele>151.2</ele>
        <time>2022-03-01T02:10:18.780Z</time>
      </trkpt>
      <trkpt lat="48.19506" lon="-3.02415">
        <ele>148</ele>
        <time>2022-03-01T02:10:30.578Z</time>
      </trkpt>
      <trkpt lat="48.1952" lon="-3.02315">
        <ele>146.8</ele>
        <time>2022-03-01T02:10:50.322Z</time>
      </trkpt>
      <trkpt lat="48.19535" lon="-3.02247">
        <ele>144.4</ele>
        <time>2022-03-01T02:11:00.251Z</time>
      </trkpt>
      <trkpt lat="48.19551" lon="-3.02181">
        <ele>144</ele>
        <time>2022-03-01T02:11:15.490Z</time>
      </trkpt>
      <trkpt lat="48.19563" lon="-3.02131">
        <ele>145.9</ele>
        <time>2022-03-01T02:12:07.211Z</time>
      </trkpt>
      <trkpt lat="48.19579" lon="-3.02079">
        <ele>145.8</ele>
        <time>2022-03-01T02:12:37.129Z</time>
      </trkpt>
      <trkpt lat="48.19585" lon="-3.02079">
        <ele>143.6</ele>
        <time>2022-03-01T02:12:38.322Z</time>
      </trkpt>
      <trkpt lat="48.1959" lon="-3.02073">
        <ele>140.1</ele>
        <time>2022-03-01T02:12:39.595Z</time>
      </trkpt>
      <trkpt lat="48.19589" lon="-3.02063">
        <ele>141</ele>
        <time>2022-03-01T02:13:00.787Z</time>
      </trkpt>
      <trkpt lat="48.19591" lon="-3.02057">
        <ele>140.1</ele>
        <time>2022-03-01T02:13:01.676Z</time>
      </trkpt>
      <trkpt lat="48.19596" lon="-3.02055">
        <ele>137.6</ele>
        <time>2022-03-01T02:13:02.705Z</time>
      </trkpt>
      <trkpt lat="48.19598" lon="-3.02057">
        <ele>136.4</ele>
        <time>2022-03-01T02:13:03.182Z</time>
      </trkpt>
      <trkpt lat="48.196" lon="-3.0206">
        <ele>135</ele>
        <time>2022-03-01T02:13:03.745Z</time>
      </trkpt>
      <trkpt lat="48.19603" lon="-3.02061">
        <ele>133.2</ele>
        <time>2022-03-01T02:13:04.356Z</time>
      </trkpt>
      <trkpt lat="48.19606" lon="-3.02057">
        <ele>132.3</ele>
        <time>2022-03-01T02:13:05.153Z</time>
      </trkpt>
      <trkpt lat="48.19608" lon="-3.0205">
        <ele>131.6</ele>
        <time>2022-03-01T02:13:06.163Z</time>
      </trkpt>
      <trkpt lat="48.1961" lon="-3.02042">
        <ele>130.6</ele>
        <time>2022-03-01T02:13:07.295Z</time>
      </trkpt>
      <trkpt lat="48.1961" lon="-3.02033">
        <ele>130.6</ele>
        <time>2022-03-01T02:13:12.185Z</time>
      </trkpt>
      <trkpt lat="48.19609" lon="-3.02025">
        <ele>130.8</ele>
        <time>2022-03-01T02:13:18.862Z</time>
      </trkpt>
      <trkpt lat="48.19609" lon="-3.02017">
        <ele>129.9</ele>
        <time>2022-03-01T02:13:19.922Z</time>
      </trkpt>
      <trkpt lat="48.19612" lon="-3.02008">
        <ele>127.7</ele>
        <time>2022-03-01T02:13:21.255Z</time>
      </trkpt>
      <trkpt lat="48.19614" lon="-3.02001">
        <ele>126.6</ele>
        <time>2022-03-01T02:13:22.264Z</time>
      </trkpt>
      <trkpt lat="48.19615" lon="-3.01992">
        <ele>126.8</ele>
        <time>2022-03-01T02:13:29.359Z</time>
      </trkpt>
      <trkpt lat="48.19618" lon="-3.01987">
        <ele>126.5</ele>
        <time>2022-03-01T02:13:30.250Z</time>
      </trkpt>
      <trkpt lat="48.1962" lon="-3.01979">
        <ele>126.4</ele>
        <time>2022-03-01T02:13:31.902Z</time>
      </trkpt>
      <trkpt lat="48.19622" lon="-3.01972">
        <ele>126.3</ele>
        <time>2022-03-01T02:13:33.338Z</time>
      </trkpt>
      <trkpt lat="48.19623" lon="-3.01964">
        <ele>126.3</ele>
        <time>2022-03-01T02:13:37.760Z</time>
      </trkpt>
      <trkpt lat="48.19625" lon="-3.01956">
        <ele>126.1</ele>
        <time>2022-03-01T02:13:39.124Z</time>
      </trkpt>
      <trkpt lat="48.19625" lon="-3.01949">
        <ele>126.3</ele>
        <time>2022-03-01T02:13:45.386Z</time>
      </trkpt>
      <trkpt lat="48.19624" lon="-3.01941">
        <ele>126.8</ele>
        <time>2022-03-01T02:13:56.070Z</time>
      </trkpt>
      <trkpt lat="48.19626" lon="-3.01932">
        <ele>126.2</ele>
        <time>2022-03-01T02:13:57.327Z</time>
      </trkpt>
      <trkpt lat="48.19626" lon="-3.01923">
        <ele>126.2</ele>
        <time>2022-03-01T02:14:02.217Z</time>
      </trkpt>
      <trkpt lat="48.19626" lon="-3.01914">
        <ele>126.1</ele>
        <time>2022-03-01T02:14:03.976Z</time>
      </trkpt>
      <trkpt lat="48.19625" lon="-3.01906">
        <ele>125.9</ele>
        <time>2022-03-01T02:14:05.252Z</time>
      </trkpt>
      <trkpt lat="48.19623" lon="-3.01899">
        <ele>126</ele>
        <time>2022-03-01T02:14:10.301Z</time>
      </trkpt>
      <trkpt lat="48.19622" lon="-3.01898">
        <ele>126.2</ele>
        <time>2022-03-01T02:14:14.080Z</time>
      </trkpt>
      <trkpt lat="48.19623" lon="-3.01888">
        <ele>125.4</ele>
        <time>2022-03-01T02:14:15.420Z</time>
      </trkpt>
      <trkpt lat="48.19622" lon="-3.01882">
        <ele>125.3</ele>
        <time>2022-03-01T02:14:16.526Z</time>
      </trkpt>
      <trkpt lat="48.1962" lon="-3.01875">
        <ele>125.4</ele>
        <time>2022-03-01T02:14:21.575Z</time>
      </trkpt>
      <trkpt lat="48.19617" lon="-3.01867">
        <ele>125.5</ele>
        <time>2022-03-01T02:14:27.441Z</time>
      </trkpt>
      <trkpt lat="48.19615" lon="-3.01859">
        <ele>125.3</ele>
        <time>2022-03-01T02:14:28.804Z</time>
      </trkpt>
      <trkpt lat="48.19613" lon="-3.01852">
        <ele>125.1</ele>
        <time>2022-03-01T02:14:29.969Z</time>
      </trkpt>
      <trkpt lat="48.1961" lon="-3.01846">
        <ele>124.9</ele>
        <time>2022-03-01T02:14:31.110Z</time>
      </trkpt>
      <trkpt lat="48.19608" lon="-3.0184">
        <ele>124.5</ele>
        <time>2022-03-01T02:14:31.999Z</time>
      </trkpt>
      <trkpt lat="48.19607" lon="-3.01834">
        <ele>124.1</ele>
        <time>2022-03-01T02:14:32.819Z</time>
      </trkpt>
      <trkpt lat="48.19605" lon="-3.01832">
        <ele>123.9</ele>
        <time>2022-03-01T02:14:33.297Z</time>
        <extensions>
          <visugpx:TrkExtension xmlns:visugpx="https://www.visugpx.com/editgpx/">
            <visugpx:node>42</visugpx:node>
            </visugpx:TrkExtension>
        </extensions>
      </trkpt>
      <trkpt lat="48.19604" lon="-3.01831">
        <ele>123.8</ele>
        <time>2022-03-01T02:14:33.535Z</time>
      </trkpt>
      <trkpt lat="48.196" lon="-3.01831">
        <ele>123.8</ele>
        <time>2022-03-01T02:14:36.796Z</time>
      </trkpt>
      <trkpt lat="48.19596" lon="-3.01841">
        <ele>124.9</ele>
        <time>2022-03-01T02:15:01.237Z</time>
      </trkpt>
      <trkpt lat="48.19591" lon="-3.01857">
        <ele>126.9</ele>
        <time>2022-03-01T02:15:38.272Z</time>
      </trkpt>
      <trkpt lat="48.19585" lon="-3.01872">
        <ele>129</ele>
        <time>2022-03-01T02:16:14.934Z</time>
      </trkpt>
      <trkpt lat="48.1958" lon="-3.01878">
        <ele>129.3</ele>
        <time>2022-03-01T02:16:23.876Z</time>
      </trkpt>
      <trkpt lat="48.19574" lon="-3.01888">
        <ele>129.5</ele>
        <time>2022-03-01T02:16:33.062Z</time>
      </trkpt>
      <trkpt lat="48.1957" lon="-3.01896">
        <ele>129.8</ele>
        <time>2022-03-01T02:16:42.262Z</time>
      </trkpt>
      <trkpt lat="48.19564" lon="-3.01917">
        <ele>131.3</ele>
        <time>2022-03-01T02:17:14.078Z</time>
      </trkpt>
      <trkpt lat="48.19557" lon="-3.01945">
        <ele>134.2</ele>
        <time>2022-03-01T02:18:16.751Z</time>
      </trkpt>
      <trkpt lat="48.19555" lon="-3.01968">
        <ele>137.3</ele>
        <time>2022-03-01T02:19:05.362Z</time>
      </trkpt>
      <trkpt lat="48.19557" lon="-3.0198">
        <ele>139.1</ele>
        <time>2022-03-01T02:19:31.286Z</time>
        <extensions>
          <visugpx:TrkExtension xmlns:visugpx="https://www.visugpx.com/editgpx/">
            <visugpx:node>43</visugpx:node>
            </visugpx:TrkExtension>
        </extensions>
      </trkpt>
      <trkpt lat="48.19559" lon="-3.01991">
        <ele>140.6</ele>
        <time>2022-03-01T02:19:55.182Z</time>
      </trkpt>
      <trkpt lat="48.19572" lon="-3.02">
        <ele>141.4</ele>
        <time>2022-03-01T02:20:16.405Z</time>
      </trkpt>
      <trkpt lat="48.19577" lon="-3.02009">
        <ele>142.1</ele>
        <time>2022-03-01T02:20:31.441Z</time>
      </trkpt>
      <trkpt lat="48.19579" lon="-3.02024">
        <ele>143.6</ele>
        <time>2022-03-01T02:21:03.500Z</time>
      </trkpt>
      <trkpt lat="48.19578" lon="-3.02034">
        <ele>144.1</ele>
        <time>2022-03-01T02:21:14.916Z</time>
      </trkpt>
      <trkpt lat="48.19576" lon="-3.02045">
        <ele>144.3</ele>
        <time>2022-03-01T02:21:23.078Z</time>
      </trkpt>
      <trkpt lat="48.19572" lon="-3.02054">
        <ele>144.8</ele>
        <time>2022-03-01T02:21:34.847Z</time>
      </trkpt>
      <trkpt lat="48.19567" lon="-3.02059">
        <ele>145.7</ele>
        <time>2022-03-01T02:21:53.740Z</time>
      </trkpt>
      <trkpt lat="48.19579" lon="-3.02079">
        <ele>145.8</ele>
        <time>2022-03-01T02:22:09.147Z</time>
      </trkpt>
      <trkpt lat="48.19525" lon="-3.02083">
        <ele>151.3</ele>
        <time>2022-03-01T02:24:05.714Z</time>
        <extensions>
          <visugpx:TrkExtension xmlns:visugpx="https://www.visugpx.com/editgpx/">
            <visugpx:node>44</visugpx:node>
            </visugpx:TrkExtension>
        </extensions>
      </trkpt>
      <trkpt lat="48.19524" lon="-3.02083">
        <ele>151.1</ele>
        <time>2022-03-01T02:24:05.913Z</time>
      </trkpt>
      <trkpt lat="48.19501" lon="-3.02147">
        <ele>161.5</ele>
        <time>2022-03-01T02:26:38.296Z</time>
      </trkpt>
      <trkpt lat="48.19484" lon="-3.02171">
        <ele>163.7</ele>
        <time>2022-03-01T02:27:25.150Z</time>
      </trkpt>
      <trkpt lat="48.19465" lon="-3.022">
        <ele>168.8</ele>
        <time>2022-03-01T02:28:50.370Z</time>
      </trkpt>
      <trkpt lat="48.19416" lon="-3.0231">
        <ele>184.1</ele>
        <time>2022-03-01T02:33:27.649Z</time>
      </trkpt>
      <trkpt lat="48.19422" lon="-3.02342">
        <ele>185.2</ele>
        <time>2022-03-01T02:33:59.158Z</time>
      </trkpt>
      <trkpt lat="48.19421" lon="-3.02368">
        <ele>185.4</ele>
        <time>2022-03-01T02:34:14.978Z</time>
      </trkpt>
      <trkpt lat="48.19418" lon="-3.02382">
        <ele>186.4</ele>
        <time>2022-03-01T02:34:36.173Z</time>
      </trkpt>
      <trkpt lat="48.19418" lon="-3.02393">
        <ele>186.5</ele>
        <time>2022-03-01T02:34:43.003Z</time>
      </trkpt>
      <trkpt lat="48.1942" lon="-3.02419">
        <ele>185.2</ele>
        <time>2022-03-01T02:34:46.471Z</time>
      </trkpt>
      <trkpt lat="48.19421" lon="-3.02431">
        <ele>184.4</ele>
        <time>2022-03-01T02:34:48.074Z</time>
      </trkpt>
      <trkpt lat="48.19422" lon="-3.02437">
        <ele>183.9</ele>
        <time>2022-03-01T02:34:48.893Z</time>
      </trkpt>
      <trkpt lat="48.19413" lon="-3.02449">
        <ele>183.6</ele>
        <time>2022-03-01T02:34:52.101Z</time>
      </trkpt>
      <trkpt lat="48.19407" lon="-3.02452">
        <ele>182.8</ele>
        <time>2022-03-01T02:34:53.358Z</time>
      </trkpt>
      <trkpt lat="48.19395" lon="-3.02456">
        <ele>181</ele>
        <time>2022-03-01T02:34:55.802Z</time>
      </trkpt>
      <trkpt lat="48.19378" lon="-3.0246">
        <ele>177.5</ele>
        <time>2022-03-01T02:34:59.223Z</time>
      </trkpt>
      <trkpt lat="48.19372" lon="-3.02465">
        <ele>176.2</ele>
        <time>2022-03-01T02:35:00.587Z</time>
      </trkpt>
      <trkpt lat="48.19369" lon="-3.02474">
        <ele>175.7</ele>
        <time>2022-03-01T02:35:01.920Z</time>
      </trkpt>
      <trkpt lat="48.19366" lon="-3.02488">
        <ele>175.3</ele>
        <time>2022-03-01T02:35:04.141Z</time>
      </trkpt>
      <trkpt lat="48.1936" lon="-3.02509">
        <ele>173.3</ele>
        <time>2022-03-01T02:35:07.169Z</time>
      </trkpt>
      <trkpt lat="48.19352" lon="-3.02527">
        <ele>170.7</ele>
        <time>2022-03-01T02:35:10.035Z</time>
      </trkpt>
      <trkpt lat="48.19344" lon="-3.02546">
        <ele>168.8</ele>
        <time>2022-03-01T02:35:13.013Z</time>
      </trkpt>
      <trkpt lat="48.1933" lon="-3.02569">
        <ele>167.1</ele>
        <time>2022-03-01T02:35:17.140Z</time>
      </trkpt>
      <trkpt lat="48.19319" lon="-3.02583">
        <ele>166.4</ele>
        <time>2022-03-01T02:35:20.186Z</time>
      </trkpt>
      <trkpt lat="48.19312" lon="-3.0259">
        <ele>165.9</ele>
        <time>2022-03-01T02:35:21.807Z</time>
      </trkpt>
      <trkpt lat="48.19301" lon="-3.02597">
        <ele>164.8</ele>
        <time>2022-03-01T02:35:24.182Z</time>
      </trkpt>
      <trkpt lat="48.19296" lon="-3.02598">
        <ele>164.2</ele>
        <time>2022-03-01T02:35:25.185Z</time>
      </trkpt>
      <trkpt lat="48.19286" lon="-3.02597">
        <ele>162.7</ele>
        <time>2022-03-01T02:35:27.177Z</time>
      </trkpt>
      <trkpt lat="48.19284" lon="-3.02597">
        <ele>162.4</ele>
        <time>2022-03-01T02:35:27.575Z</time>
        <extensions>
          <visugpx:TrkExtension xmlns:visugpx="https://www.visugpx.com/editgpx/">
            <visugpx:node>45</visugpx:node>
            </visugpx:TrkExtension>
        </extensions>
      </trkpt>
      <trkpt lat="48.19275" lon="-3.02599">
        <ele>161.7</ele>
        <time>2022-03-01T02:35:29.384Z</time>
      </trkpt>
      <trkpt lat="48.19271" lon="-3.02604">
        <ele>162</ele>
        <time>2022-03-01T02:35:37.194Z</time>
      </trkpt>
      <trkpt lat="48.19268" lon="-3.02608">
        <ele>162.2</ele>
        <time>2022-03-01T02:35:42.909Z</time>
      </trkpt>
      <trkpt lat="48.19264" lon="-3.02609">
        <ele>162.4</ele>
        <time>2022-03-01T02:35:48.663Z</time>
      </trkpt>
      <trkpt lat="48.19259" lon="-3.02611">
        <ele>162.7</ele>
        <time>2022-03-01T02:35:56.445Z</time>
      </trkpt>
      <trkpt lat="48.19251" lon="-3.02612">
        <ele>163</ele>
        <time>2022-03-01T02:36:06.394Z</time>
      </trkpt>
      <trkpt lat="48.19247" lon="-3.02615">
        <ele>163</ele>
        <time>2022-03-01T02:36:10.039Z</time>
      </trkpt>
      <trkpt lat="48.19243" lon="-3.02616">
        <ele>163</ele>
        <time>2022-03-01T02:36:13.345Z</time>
      </trkpt>
      <trkpt lat="48.19237" lon="-3.02617">
        <ele>163</ele>
        <time>2022-03-01T02:36:18.266Z</time>
      </trkpt>
      <trkpt lat="48.19231" lon="-3.02615">
        <ele>163</ele>
        <time>2022-03-01T02:36:23.276Z</time>
      </trkpt>
      <trkpt lat="48.19227" lon="-3.02612">
        <ele>163</ele>
        <time>2022-03-01T02:36:26.921Z</time>
      </trkpt>
      <trkpt lat="48.19221" lon="-3.02612">
        <ele>163.1</ele>
        <time>2022-03-01T02:36:32.693Z</time>
      </trkpt>
      <trkpt lat="48.19216" lon="-3.02613">
        <ele>163.7</ele>
        <time>2022-03-01T02:36:45.807Z</time>
      </trkpt>
      <trkpt lat="48.19211" lon="-3.02611">
        <ele>164.2</ele>
        <time>2022-03-01T02:36:56.426Z</time>
      </trkpt>
      <trkpt lat="48.19205" lon="-3.02612">
        <ele>164.9</ele>
        <time>2022-03-01T02:37:11.578Z</time>
      </trkpt>
      <trkpt lat="48.192" lon="-3.02613">
        <ele>165.4</ele>
        <time>2022-03-01T02:37:22.180Z</time>
      </trkpt>
      <trkpt lat="48.19196" lon="-3.02612">
        <ele>165.8</ele>
        <time>2022-03-01T02:37:30.663Z</time>
      </trkpt>
      <trkpt lat="48.19192" lon="-3.02608">
        <ele>166.3</ele>
        <time>2022-03-01T02:37:41.268Z</time>
      </trkpt>
      <trkpt lat="48.19192" lon="-3.02607">
        <ele>166.3</ele>
        <time>2022-03-01T02:37:41.811Z</time>
      </trkpt>
      <trkpt lat="48.19192" lon="-3.02599">
        <ele>166</ele>
        <time>2022-03-01T02:37:42.865Z</time>
      </trkpt>
      <trkpt lat="48.19191" lon="-3.02592">
        <ele>166</ele>
        <time>2022-03-01T02:37:46.756Z</time>
      </trkpt>
      <trkpt lat="48.1919" lon="-3.02585">
        <ele>166</ele>
        <time>2022-03-01T02:37:50.646Z</time>
      </trkpt>
      <trkpt lat="48.19189" lon="-3.02577">
        <ele>165.9</ele>
        <time>2022-03-01T02:37:52.203Z</time>
      </trkpt>
      <trkpt lat="48.19189" lon="-3.02568">
        <ele>165.6</ele>
        <time>2022-03-01T02:37:53.454Z</time>
      </trkpt>
      <trkpt lat="48.19188" lon="-3.0256">
        <ele>165.6</ele>
        <time>2022-03-01T02:37:57.877Z</time>
      </trkpt>
      <trkpt lat="48.1919" lon="-3.02552">
        <ele>164.7</ele>
        <time>2022-03-01T02:37:59.009Z</time>
      </trkpt>
      <trkpt lat="48.19188" lon="-3.02544">
        <ele>164.7</ele>
        <time>2022-03-01T02:38:03.652Z</time>
      </trkpt>
      <trkpt lat="48.19184" lon="-3.02539">
        <ele>165.3</ele>
        <time>2022-03-01T02:38:16.613Z</time>
      </trkpt>
      <trkpt lat="48.19182" lon="-3.02533">
        <ele>165.4</ele>
        <time>2022-03-01T02:38:21.197Z</time>
      </trkpt>
      <trkpt lat="48.19181" lon="-3.02525">
        <ele>165.1</ele>
        <time>2022-03-01T02:38:22.278Z</time>
      </trkpt>
      <trkpt lat="48.19181" lon="-3.02516">
        <ele>164.1</ele>
        <time>2022-03-01T02:38:23.471Z</time>
      </trkpt>
      <trkpt lat="48.19185" lon="-3.02499">
        <ele>161.2</ele>
        <time>2022-03-01T02:38:25.860Z</time>
      </trkpt>
      <trkpt lat="48.19188" lon="-3.02487">
        <ele>158.8</ele>
        <time>2022-03-01T02:38:27.558Z</time>
      </trkpt>
      <trkpt lat="48.19189" lon="-3.02479">
        <ele>157.3</ele>
        <time>2022-03-01T02:38:28.637Z</time>
      </trkpt>
      <trkpt lat="48.19194" lon="-3.02463">
        <ele>153.1</ele>
        <time>2022-03-01T02:38:30.979Z</time>
      </trkpt>
      <trkpt lat="48.19195" lon="-3.02454">
        <ele>151</ele>
        <time>2022-03-01T02:38:32.188Z</time>
      </trkpt>
      <trkpt lat="48.19197" lon="-3.02448">
        <ele>149.5</ele>
        <time>2022-03-01T02:38:33.077Z</time>
      </trkpt>
      <trkpt lat="48.192" lon="-3.02441">
        <ele>148.2</ele>
        <time>2022-03-01T02:38:34.179Z</time>
      </trkpt>
      <trkpt lat="48.19204" lon="-3.02439">
        <ele>147.7</ele>
        <time>2022-03-01T02:38:35.018Z</time>
      </trkpt>
      <trkpt lat="48.19207" lon="-3.02435">
        <ele>146.9</ele>
        <time>2022-03-01T02:38:35.815Z</time>
      </trkpt>
      <trkpt lat="48.19213" lon="-3.02431">
        <ele>145.9</ele>
        <time>2022-03-01T02:38:37.121Z</time>
      </trkpt>
      <trkpt lat="48.19217" lon="-3.02426">
        <ele>144.8</ele>
        <time>2022-03-01T02:38:38.156Z</time>
      </trkpt>
      <trkpt lat="48.19222" lon="-3.02413">
        <ele>142.5</ele>
        <time>2022-03-01T02:38:40.145Z</time>
      </trkpt>
      <trkpt lat="48.19223" lon="-3.02405">
        <ele>141.3</ele>
        <time>2022-03-01T02:38:41.223Z</time>
      </trkpt>
      <trkpt lat="48.1922" lon="-3.02398">
        <ele>140.7</ele>
        <time>2022-03-01T02:38:42.326Z</time>
      </trkpt>
      <trkpt lat="48.19219" lon="-3.02389">
        <ele>139.6</ele>
        <time>2022-03-01T02:38:43.535Z</time>
      </trkpt>
      <trkpt lat="48.19222" lon="-3.02381">
        <ele>138.5</ele>
        <time>2022-03-01T02:38:44.751Z</time>
      </trkpt>
      <trkpt lat="48.19223" lon="-3.02374">
        <ele>137.8</ele>
        <time>2022-03-01T02:38:45.700Z</time>
      </trkpt>
      <trkpt lat="48.19223" lon="-3.02366">
        <ele>137.2</ele>
        <time>2022-03-01T02:38:46.760Z</time>
      </trkpt>
      <trkpt lat="48.19223" lon="-3.02359">
        <ele>136.6</ele>
        <time>2022-03-01T02:38:47.688Z</time>
      </trkpt>
      <trkpt lat="48.19224" lon="-3.0235">
        <ele>135.5</ele>
        <time>2022-03-01T02:38:48.897Z</time>
      </trkpt>
      <trkpt lat="48.19222" lon="-3.02342">
        <ele>135</ele>
        <time>2022-03-01T02:38:50.029Z</time>
      </trkpt>
      <trkpt lat="48.1922" lon="-3.02333">
        <ele>134.4</ele>
        <time>2022-03-01T02:38:51.286Z</time>
      </trkpt>
      <trkpt lat="48.19219" lon="-3.02327">
        <ele>133.8</ele>
        <time>2022-03-01T02:38:52.106Z</time>
      </trkpt>
      <trkpt lat="48.19219" lon="-3.02317">
        <ele>132.5</ele>
        <time>2022-03-01T02:38:53.431Z</time>
      </trkpt>
      <trkpt lat="48.19218" lon="-3.02311">
        <ele>131.9</ele>
        <time>2022-03-01T02:38:54.251Z</time>
      </trkpt>
      <trkpt lat="48.19217" lon="-3.02303">
        <ele>131.1</ele>
        <time>2022-03-01T02:38:55.329Z</time>
      </trkpt>
      <trkpt lat="48.19217" lon="-3.02295">
        <ele>130</ele>
        <time>2022-03-01T02:38:56.389Z</time>
      </trkpt>
      <trkpt lat="48.19216" lon="-3.02288">
        <ele>129.3</ele>
        <time>2022-03-01T02:38:57.338Z</time>
      </trkpt>
      <trkpt lat="48.19214" lon="-3.0228">
        <ele>128.7</ele>
        <time>2022-03-01T02:38:58.470Z</time>
      </trkpt>
      <trkpt lat="48.19209" lon="-3.02264">
        <ele>128.1</ele>
        <time>2022-03-01T02:39:00.906Z</time>
      </trkpt>
      <trkpt lat="48.19207" lon="-3.02258">
        <ele>127.9</ele>
        <time>2022-03-01T02:39:01.883Z</time>
      </trkpt>
      <trkpt lat="48.19206" lon="-3.0225">
        <ele>127.3</ele>
        <time>2022-03-01T02:39:02.961Z</time>
      </trkpt>
      <trkpt lat="48.19205" lon="-3.02242">
        <ele>126.1</ele>
        <time>2022-03-01T02:39:04.040Z</time>
      </trkpt>
      <trkpt lat="48.19203" lon="-3.02234">
        <ele>125.3</ele>
        <time>2022-03-01T02:39:05.172Z</time>
      </trkpt>
      <trkpt lat="48.19201" lon="-3.02228">
        <ele>124.9</ele>
        <time>2022-03-01T02:39:06.061Z</time>
      </trkpt>
      <trkpt lat="48.19196" lon="-3.02216">
        <ele>124.2</ele>
        <time>2022-03-01T02:39:07.936Z</time>
      </trkpt>
      <trkpt lat="48.19193" lon="-3.02212">
        <ele>124.2</ele>
        <time>2022-03-01T02:39:11.208Z</time>
      </trkpt>
      <trkpt lat="48.19188" lon="-3.02205">
        <ele>123.9</ele>
        <time>2022-03-01T02:39:12.714Z</time>
      </trkpt>
      <trkpt lat="48.19183" lon="-3.02201">
        <ele>124.3</ele>
        <time>2022-03-01T02:39:22.050Z</time>
      </trkpt>
      <trkpt lat="48.1918" lon="-3.02198">
        <ele>124.4</ele>
        <time>2022-03-01T02:39:25.990Z</time>
      </trkpt>
      <trkpt lat="48.19178" lon="-3.0219">
        <ele>123</ele>
        <time>2022-03-01T02:39:27.122Z</time>
      </trkpt>
      <trkpt lat="48.19181" lon="-3.02187">
        <ele>121.5</ele>
        <time>2022-03-01T02:39:27.839Z</time>
      </trkpt>
      <trkpt lat="48.19184" lon="-3.02188">
        <ele>121</ele>
        <time>2022-03-01T02:39:28.449Z</time>
      </trkpt>
      <trkpt lat="48.19189" lon="-3.02188">
        <ele>119.7</ele>
        <time>2022-03-01T02:39:29.443Z</time>
      </trkpt>
      <trkpt lat="48.19195" lon="-3.02189">
        <ele>118.5</ele>
        <time>2022-03-01T02:39:30.643Z</time>
      </trkpt>
      <trkpt lat="48.192" lon="-3.02188">
        <ele>117</ele>
        <time>2022-03-01T02:39:31.646Z</time>
      </trkpt>
      <trkpt lat="48.19206" lon="-3.02186">
        <ele>115.1</ele>
        <time>2022-03-01T02:39:32.868Z</time>
      </trkpt>
      <trkpt lat="48.19209" lon="-3.02187">
        <ele>114.6</ele>
        <time>2022-03-01T02:39:33.479Z</time>
      </trkpt>
      <trkpt lat="48.19216" lon="-3.02187">
        <ele>112.9</ele>
        <time>2022-03-01T02:39:34.870Z</time>
      </trkpt>
      <trkpt lat="48.19216" lon="-3.0218">
        <ele>111.3</ele>
        <time>2022-03-01T02:39:35.798Z</time>
      </trkpt>
      <trkpt lat="48.19211" lon="-3.02174">
        <ele>111.1</ele>
        <time>2022-03-01T02:39:37.392Z</time>
      </trkpt>
      <trkpt lat="48.19209" lon="-3.02171">
        <ele>110.9</ele>
        <time>2022-03-01T02:39:37.954Z</time>
      </trkpt>
      <trkpt lat="48.19208" lon="-3.02166">
        <ele>109.8</ele>
        <time>2022-03-01T02:39:38.646Z</time>
      </trkpt>
      <trkpt lat="48.19211" lon="-3.02164">
        <ele>108.5</ele>
        <time>2022-03-01T02:39:39.299Z</time>
      </trkpt>
      <trkpt lat="48.19217" lon="-3.02166">
        <ele>107.9</ele>
        <time>2022-03-01T02:39:40.520Z</time>
      </trkpt>
      <trkpt lat="48.1922" lon="-3.02163">
        <ele>106.3</ele>
        <time>2022-03-01T02:39:41.237Z</time>
      </trkpt>
      <trkpt lat="48.19219" lon="-3.02158">
        <ele>104.8</ele>
        <time>2022-03-01T02:39:41.929Z</time>
      </trkpt>
      <trkpt lat="48.19212" lon="-3.02151">
        <ele>103.7</ele>
        <time>2022-03-01T02:39:43.601Z</time>
      </trkpt>
      <trkpt lat="48.19207" lon="-3.02147">
        <ele>103.1</ele>
        <time>2022-03-01T02:39:44.728Z</time>
      </trkpt>
      <trkpt lat="48.19203" lon="-3.02139">
        <ele>100.8</ele>
        <time>2022-03-01T02:39:46.053Z</time>
      </trkpt>
      <trkpt lat="48.19206" lon="-3.02135">
        <ele>98.9</ele>
        <time>2022-03-01T02:39:46.851Z</time>
      </trkpt>
      <trkpt lat="48.19212" lon="-3.02135">
        <ele>98</ele>
        <time>2022-03-01T02:39:48.044Z</time>
      </trkpt>
      <trkpt lat="48.19219" lon="-3.02136">
        <ele>97.3</ele>
        <time>2022-03-01T02:39:49.441Z</time>
      </trkpt>
      <trkpt lat="48.19222" lon="-3.02133">
        <ele>95.7</ele>
        <time>2022-03-01T02:39:50.158Z</time>
      </trkpt>
      <trkpt lat="48.1922" lon="-3.0213">
        <ele>94.8</ele>
        <time>2022-03-01T02:39:50.720Z</time>
      </trkpt>
      <trkpt lat="48.19218" lon="-3.02125">
        <ele>93.2</ele>
        <time>2022-03-01T02:39:51.493Z</time>
      </trkpt>
      <trkpt lat="48.19222" lon="-3.0212">
        <ele>90.6</ele>
        <time>2022-03-01T02:39:52.528Z</time>
      </trkpt>
      <trkpt lat="48.1922" lon="-3.02116">
        <ele>89.3</ele>
        <time>2022-03-01T02:39:53.191Z</time>
      </trkpt>
      <trkpt lat="48.19217" lon="-3.02112">
        <ele>88.3</ele>
        <time>2022-03-01T02:39:53.988Z</time>
      </trkpt>
      <trkpt lat="48.19215" lon="-3.02105">
        <ele>86.9</ele>
        <time>2022-03-01T02:39:54.998Z</time>
      </trkpt>
      <trkpt lat="48.19214" lon="-3.02099">
        <ele>85.7</ele>
        <time>2022-03-01T02:39:55.817Z</time>
      </trkpt>
      <trkpt lat="48.19212" lon="-3.02092">
        <ele>84.5</ele>
        <time>2022-03-01T02:39:56.826Z</time>
      </trkpt>
      <trkpt lat="48.19214" lon="-3.02093">
        <ele>84.4</ele>
        <time>2022-03-01T02:39:57.276Z</time>
        <extensions>
          <visugpx:TrkExtension xmlns:visugpx="https://www.visugpx.com/editgpx/">
            <visugpx:node>46</visugpx:node>
            </visugpx:TrkExtension>
        </extensions>
      </trkpt>
      <trkpt lat="48.19212" lon="-3.02092">
        <ele>84.5</ele>
        <time>2022-03-01T02:40:00.231Z</time>
      </trkpt>
      <trkpt lat="48.19208" lon="-3.02089">
        <ele>84.4</ele>
        <time>2022-03-01T02:40:01.457Z</time>
      </trkpt>
      <trkpt lat="48.19199" lon="-3.02085">
        <ele>84.8</ele>
        <time>2022-03-01T02:40:14.007Z</time>
      </trkpt>
      <trkpt lat="48.19186" lon="-3.02075">
        <ele>85.4</ele>
        <time>2022-03-01T02:40:33.097Z</time>
      </trkpt>
      <trkpt lat="48.19165" lon="-3.02059">
        <ele>83.7</ele>
        <time>2022-03-01T02:40:37.779Z</time>
      </trkpt>
      <trkpt lat="48.19123" lon="-3.02035">
        <ele>88</ele>
        <time>2022-03-01T02:42:09.195Z</time>
      </trkpt>
      <trkpt lat="48.19103" lon="-3.02009">
        <ele>85.4</ele>
        <time>2022-03-01T02:42:14.456Z</time>
      </trkpt>
      <trkpt lat="48.19095" lon="-3.02002">
        <ele>85.2</ele>
        <time>2022-03-01T02:42:17.017Z</time>
      </trkpt>
      <trkpt lat="48.19084" lon="-3.01997">
        <ele>86.2</ele>
        <time>2022-03-01T02:42:38.642Z</time>
      </trkpt>
      <trkpt lat="48.19068" lon="-3.01988">
        <ele>87.7</ele>
        <time>2022-03-01T02:43:11.010Z</time>
      </trkpt>
      <trkpt lat="48.19058" lon="-3.01967">
        <ele>85.6</ele>
        <time>2022-03-01T02:43:14.430Z</time>
      </trkpt>
      <trkpt lat="48.19042" lon="-3.01941">
        <ele>83.6</ele>
        <time>2022-03-01T02:43:19.119Z</time>
      </trkpt>
      <trkpt lat="48.19037" lon="-3.01936">
        <ele>83.8</ele>
        <time>2022-03-01T02:43:26.166Z</time>
      </trkpt>
      <trkpt lat="48.19021" lon="-3.01953">
        <ele>89.4</ele>
        <time>2022-03-01T02:44:27.811Z</time>
      </trkpt>
      <trkpt lat="48.19012" lon="-3.0195">
        <ele>88.4</ele>
        <time>2022-03-01T02:44:29.644Z</time>
      </trkpt>
      <trkpt lat="48.18989" lon="-3.01939">
        <ele>87.4</ele>
        <time>2022-03-01T02:44:35.080Z</time>
      </trkpt>
      <trkpt lat="48.1897" lon="-3.01925">
        <ele>86.8</ele>
        <time>2022-03-01T02:44:40.513Z</time>
      </trkpt>
      <trkpt lat="48.18948" lon="-3.01902">
        <ele>86</ele>
        <time>2022-03-01T02:44:47.288Z</time>
      </trkpt>
      <trkpt lat="48.18938" lon="-3.01893">
        <ele>85.4</ele>
        <time>2022-03-01T02:44:49.689Z</time>
      </trkpt>
      <trkpt lat="48.18896" lon="-3.01867">
        <ele>85.3</ele>
        <time>2022-03-01T02:45:25.517Z</time>
      </trkpt>
      <trkpt lat="48.18892" lon="-3.01865">
        <ele>85.3</ele>
        <time>2022-03-01T02:45:28.954Z</time>
        <extensions>
          <visugpx:TrkExtension xmlns:visugpx="https://www.visugpx.com/editgpx/">
            <visugpx:node>47</visugpx:node>
            </visugpx:TrkExtension>
        </extensions>
      </trkpt>
      <trkpt lat="48.18896" lon="-3.01867">
        <ele>85.3</ele>
        <time>2022-03-01T02:45:32.391Z</time>
      </trkpt>
      <trkpt lat="48.18959" lon="-3.01783">
        <ele>80.9</ele>
        <time>2022-03-01T02:45:49.631Z</time>
      </trkpt>
      <trkpt lat="48.18966" lon="-3.01773">
        <ele>80.9</ele>
        <time>2022-03-01T02:45:57.510Z</time>
      </trkpt>
      <trkpt lat="48.18987" lon="-3.0174">
        <ele>82.5</ele>
        <time>2022-03-01T02:46:41.612Z</time>
      </trkpt>
      <trkpt lat="48.1899" lon="-3.01742">
        <ele>82.6</ele>
        <time>2022-03-01T02:46:45.324Z</time>
      </trkpt>
      <trkpt lat="48.18992" lon="-3.01742">
        <ele>82.7</ele>
        <time>2022-03-01T02:46:48.174Z</time>
      </trkpt>
      <trkpt lat="48.18995" lon="-3.01741">
        <ele>82.8</ele>
        <time>2022-03-01T02:46:51.743Z</time>
      </trkpt>
      <trkpt lat="48.18996" lon="-3.01739">
        <ele>82.9</ele>
        <time>2022-03-01T02:46:54.285Z</time>
      </trkpt>
      <trkpt lat="48.19003" lon="-3.01732">
        <ele>83.1</ele>
        <time>2022-03-01T02:47:03.052Z</time>
      </trkpt>
      <trkpt lat="48.19008" lon="-3.01726">
        <ele>83.3</ele>
        <time>2022-03-01T02:47:10.363Z</time>
      </trkpt>
      <trkpt lat="48.19007" lon="-3.01716">
        <ele>83.6</ele>
        <time>2022-03-01T02:47:19.637Z</time>
        <extensions>
          <visugpx:TrkExtension xmlns:visugpx="https://www.visugpx.com/editgpx/">
            <visugpx:node>48</visugpx:node>
            </visugpx:TrkExtension>
        </extensions>
      </trkpt>
      <trkpt lat="48.19008" lon="-3.01726">
        <ele>83.3</ele>
        <time>2022-03-01T02:47:21.112Z</time>
      </trkpt>
      <trkpt lat="48.19013" lon="-3.01735">
        <ele>83.5</ele>
        <time>2022-03-01T02:47:29.429Z</time>
      </trkpt>
      <trkpt lat="48.19028" lon="-3.01769">
        <ele>82</ele>
        <time>2022-03-01T02:47:34.851Z</time>
      </trkpt>
      <trkpt lat="48.19061" lon="-3.01836">
        <ele>83.3</ele>
        <time>2022-03-01T02:48:32.473Z</time>
      </trkpt>
      <trkpt lat="48.19092" lon="-3.01899">
        <ele>82.5</ele>
        <time>2022-03-01T02:48:48.035Z</time>
      </trkpt>
      <trkpt lat="48.19103" lon="-3.01916">
        <ele>82.9</ele>
        <time>2022-03-01T02:49:04.798Z</time>
      </trkpt>
      <trkpt lat="48.19109" lon="-3.01926">
        <ele>82.8</ele>
        <time>2022-03-01T02:49:07.618Z</time>
      </trkpt>
      <trkpt lat="48.19117" lon="-3.01934">
        <ele>82.8</ele>
        <time>2022-03-01T02:49:15.455Z</time>
      </trkpt>
      <trkpt lat="48.19127" lon="-3.01944">
        <ele>82.2</ele>
        <time>2022-03-01T02:49:17.962Z</time>
      </trkpt>
      <trkpt lat="48.19136" lon="-3.01952">
        <ele>82.1</ele>
        <time>2022-03-01T02:49:21.321Z</time>
      </trkpt>
      <trkpt lat="48.19147" lon="-3.01959">
        <ele>82.3</ele>
        <time>2022-03-01T02:49:32.824Z</time>
      </trkpt>
      <trkpt lat="48.19158" lon="-3.01965">
        <ele>82.8</ele>
        <time>2022-03-01T02:49:48.498Z</time>
      </trkpt>
      <trkpt lat="48.19196" lon="-3.01981">
        <ele>83</ele>
        <time>2022-03-01T02:50:22.235Z</time>
      </trkpt>
      <trkpt lat="48.19269" lon="-3.02005">
        <ele>82.4</ele>
        <time>2022-03-01T02:50:46.732Z</time>
      </trkpt>
      <trkpt lat="48.19274" lon="-3.02005">
        <ele>82.5</ele>
        <time>2022-03-01T02:50:51.722Z</time>
      </trkpt>
      <trkpt lat="48.19278" lon="-3.02005">
        <ele>82.6</ele>
        <time>2022-03-01T02:50:55.951Z</time>
      </trkpt>
      <trkpt lat="48.19282" lon="-3.02004">
        <ele>82.5</ele>
        <time>2022-03-01T02:50:57.034Z</time>
      </trkpt>
      <trkpt lat="48.19287" lon="-3.02002">
        <ele>82.2</ele>
        <time>2022-03-01T02:50:58.043Z</time>
      </trkpt>
      <trkpt lat="48.19293" lon="-3.01998">
        <ele>82</ele>
        <time>2022-03-01T02:50:59.691Z</time>
      </trkpt>
      <trkpt lat="48.19296" lon="-3.01996">
        <ele>81.9</ele>
        <time>2022-03-01T02:51:00.515Z</time>
      </trkpt>
      <trkpt lat="48.19295" lon="-3.01992">
        <ele>82.1</ele>
        <time>2022-03-01T02:51:05.194Z</time>
      </trkpt>
      <trkpt lat="48.19294" lon="-3.01989">
        <ele>82.3</ele>
        <time>2022-03-01T02:51:09.492Z</time>
        <extensions>
          <visugpx:TrkExtension xmlns:visugpx="https://www.visugpx.com/editgpx/">
            <visugpx:node>49</visugpx:node>
            </visugpx:TrkExtension>
        </extensions>
      </trkpt>
      <trkpt lat="48.19293" lon="-3.01985">
        <ele>82.5</ele>
        <time>2022-03-01T02:51:14.171Z</time>
      </trkpt>
      <trkpt lat="48.19293" lon="-3.01978">
        <ele>82.8</ele>
        <time>2022-03-01T02:51:21.509Z</time>
      </trkpt>
      <trkpt lat="48.19291" lon="-3.0197">
        <ele>83.2</ele>
        <time>2022-03-01T02:51:30.867Z</time>
      </trkpt>
      <trkpt lat="48.19291" lon="-3.01963">
        <ele>84</ele>
        <time>2022-03-01T02:51:45.539Z</time>
      </trkpt>
      <trkpt lat="48.19288" lon="-3.01957">
        <ele>84.6</ele>
        <time>2022-03-01T02:51:58.703Z</time>
      </trkpt>
      <trkpt lat="48.19289" lon="-3.0195">
        <ele>85.4</ele>
        <time>2022-03-01T02:52:13.707Z</time>
      </trkpt>
      <trkpt lat="48.19288" lon="-3.01944">
        <ele>86.1</ele>
        <time>2022-03-01T02:52:26.670Z</time>
      </trkpt>
      <trkpt lat="48.19287" lon="-3.01938">
        <ele>87.5</ele>
        <time>2022-03-01T02:52:39.632Z</time>
      </trkpt>
      <trkpt lat="48.19287" lon="-3.0193">
        <ele>89.5</ele>
        <time>2022-03-01T02:52:56.400Z</time>
      </trkpt>
      <trkpt lat="48.19287" lon="-3.01922">
        <ele>91.4</ele>
        <time>2022-03-01T02:53:13.167Z</time>
      </trkpt>
      <trkpt lat="48.19286" lon="-3.01915">
        <ele>93.2</ele>
        <time>2022-03-01T02:53:28.171Z</time>
      </trkpt>
      <trkpt lat="48.19285" lon="-3.01908">
        <ele>94.8</ele>
        <time>2022-03-01T02:53:43.175Z</time>
      </trkpt>
      <trkpt lat="48.19285" lon="-3.01901">
        <ele>96.3</ele>
        <time>2022-03-01T02:53:57.847Z</time>
      </trkpt>
      <trkpt lat="48.19287" lon="-3.01894">
        <ele>97.6</ele>
        <time>2022-03-01T02:54:13.809Z</time>
      </trkpt>
      <trkpt lat="48.19288" lon="-3.01887">
        <ele>99</ele>
        <time>2022-03-01T02:54:28.813Z</time>
      </trkpt>
      <trkpt lat="48.1929" lon="-3.01882">
        <ele>100.1</ele>
        <time>2022-03-01T02:54:41.034Z</time>
      </trkpt>
      <trkpt lat="48.19294" lon="-3.01875">
        <ele>101.4</ele>
        <time>2022-03-01T02:55:00.358Z</time>
      </trkpt>
      <trkpt lat="48.19297" lon="-3.01869">
        <ele>102.5</ele>
        <time>2022-03-01T02:55:16.078Z</time>
      </trkpt>
      <trkpt lat="48.19301" lon="-3.01862">
        <ele>103.6</ele>
        <time>2022-03-01T02:55:35.401Z</time>
      </trkpt>
      <trkpt lat="48.19304" lon="-3.01856">
        <ele>104.2</ele>
        <time>2022-03-01T02:55:48.566Z</time>
      </trkpt>
      <trkpt lat="48.19307" lon="-3.01847">
        <ele>105.1</ele>
        <time>2022-03-01T02:56:09.656Z</time>
      </trkpt>
      <trkpt lat="48.19308" lon="-3.0184">
        <ele>106.2</ele>
        <time>2022-03-01T02:56:24.660Z</time>
      </trkpt>
      <trkpt lat="48.19308" lon="-3.01832">
        <ele>108</ele>
        <time>2022-03-01T02:56:41.427Z</time>
      </trkpt>
      <trkpt lat="48.19304" lon="-3.01825">
        <ele>111.3</ele>
        <time>2022-03-01T02:57:00.751Z</time>
      </trkpt>
      <trkpt lat="48.19299" lon="-3.01822">
        <ele>113</ele>
        <time>2022-03-01T02:57:17.682Z</time>
      </trkpt>
      <trkpt lat="48.19292" lon="-3.01816">
        <ele>115.6</ele>
        <time>2022-03-01T02:57:43.029Z</time>
      </trkpt>
      <trkpt lat="48.19292" lon="-3.01809">
        <ele>117.6</ele>
        <time>2022-03-01T02:57:57.701Z</time>
      </trkpt>
      <trkpt lat="48.19289" lon="-3.01802">
        <ele>120</ele>
        <time>2022-03-01T02:58:15.142Z</time>
      </trkpt>
      <trkpt lat="48.19285" lon="-3.01799">
        <ele>121.1</ele>
        <time>2022-03-01T02:58:29.203Z</time>
      </trkpt>
      <trkpt lat="48.19284" lon="-3.01791">
        <ele>123.8</ele>
        <time>2022-03-01T02:58:46.262Z</time>
      </trkpt>
      <trkpt lat="48.19284" lon="-3.01784">
        <ele>126.2</ele>
        <time>2022-03-01T02:59:00.933Z</time>
      </trkpt>
      <trkpt lat="48.19283" lon="-3.01772">
        <ele>129.5</ele>
        <time>2022-03-01T02:59:26.280Z</time>
      </trkpt>
      <trkpt lat="48.19286" lon="-3.01763">
        <ele>132.6</ele>
        <time>2022-03-01T02:59:47.370Z</time>
      </trkpt>
      <trkpt lat="48.19293" lon="-3.01763">
        <ele>134.6</ele>
        <time>2022-03-01T03:00:09.378Z</time>
      </trkpt>
      <trkpt lat="48.193" lon="-3.0176">
        <ele>137.7</ele>
        <time>2022-03-01T03:00:32.267Z</time>
      </trkpt>
      <trkpt lat="48.19305" lon="-3.01758">
        <ele>139.9</ele>
        <time>2022-03-01T03:00:48.536Z</time>
      </trkpt>
      <trkpt lat="48.1931" lon="-3.01758">
        <ele>139.5</ele>
        <time>2022-03-01T03:00:49.530Z</time>
      </trkpt>
      <trkpt lat="48.19315" lon="-3.01757">
        <ele>139.2</ele>
        <time>2022-03-01T03:00:50.502Z</time>
      </trkpt>
      <trkpt lat="48.1932" lon="-3.01758">
        <ele>138.1</ele>
        <time>2022-03-01T03:00:51.504Z</time>
      </trkpt>
      <trkpt lat="48.19322" lon="-3.01752">
        <ele>140.4</ele>
        <time>2022-03-01T03:01:05.564Z</time>
      </trkpt>
      <trkpt lat="48.19326" lon="-3.01746">
        <ele>141.9</ele>
        <time>2022-03-01T03:01:23.349Z</time>
      </trkpt>
      <trkpt lat="48.1933" lon="-3.01739">
        <ele>143.7</ele>
        <time>2022-03-01T03:01:42.673Z</time>
      </trkpt>
      <trkpt lat="48.19333" lon="-3.01734">
        <ele>145.2</ele>
        <time>2022-03-01T03:01:56.772Z</time>
      </trkpt>
      <trkpt lat="48.19337" lon="-3.01729">
        <ele>144.9</ele>
        <time>2022-03-01T03:01:57.790Z</time>
      </trkpt>
      <trkpt lat="48.19339" lon="-3.01721">
        <ele>146</ele>
        <time>2022-03-01T03:02:15.697Z</time>
      </trkpt>
      <trkpt lat="48.19341" lon="-3.01714">
        <ele>146.6</ele>
        <time>2022-03-01T03:02:28.776Z</time>
      </trkpt>
      <trkpt lat="48.19344" lon="-3.01707">
        <ele>146.9</ele>
        <time>2022-03-01T03:02:36.900Z</time>
      </trkpt>
      <trkpt lat="48.19348" lon="-3.017">
        <ele>147.1</ele>
        <time>2022-03-01T03:02:44.037Z</time>
      </trkpt>
      <trkpt lat="48.19352" lon="-3.01691">
        <ele>147.7</ele>
        <time>2022-03-01T03:02:57.172Z</time>
      </trkpt>
      <trkpt lat="48.19356" lon="-3.0168">
        <ele>147.5</ele>
        <time>2022-03-01T03:02:59.422Z</time>
      </trkpt>
      <trkpt lat="48.19358" lon="-3.01673">
        <ele>147.5</ele>
        <time>2022-03-01T03:03:03.560Z</time>
      </trkpt>
      <trkpt lat="48.1936" lon="-3.01668">
        <ele>147.3</ele>
        <time>2022-03-01T03:03:04.360Z</time>
      </trkpt>
      <trkpt lat="48.19366" lon="-3.01666">
        <ele>144.7</ele>
        <time>2022-03-01T03:03:05.582Z</time>
      </trkpt>
      <trkpt lat="48.19372" lon="-3.01666">
        <ele>141.7</ele>
        <time>2022-03-01T03:03:06.775Z</time>
      </trkpt>
      <trkpt lat="48.19376" lon="-3.01661">
        <ele>141</ele>
        <time>2022-03-01T03:03:07.810Z</time>
      </trkpt>
      <trkpt lat="48.19381" lon="-3.01661">
        <ele>138.6</ele>
        <time>2022-03-01T03:03:08.804Z</time>
      </trkpt>
      <trkpt lat="48.19385" lon="-3.01657">
        <ele>137.7</ele>
        <time>2022-03-01T03:03:09.759Z</time>
      </trkpt>
      <trkpt lat="48.19389" lon="-3.01651">
        <ele>137.5</ele>
        <time>2022-03-01T03:03:11.110Z</time>
      </trkpt>
      <trkpt lat="48.19394" lon="-3.01643">
        <ele>137.6</ele>
        <time>2022-03-01T03:03:17.922Z</time>
      </trkpt>
      <trkpt lat="48.19398" lon="-3.01637">
        <ele>137.5</ele>
        <time>2022-03-01T03:03:19.561Z</time>
      </trkpt>
      <trkpt lat="48.19401" lon="-3.01632">
        <ele>137.4</ele>
        <time>2022-03-01T03:03:20.791Z</time>
      </trkpt>
      <trkpt lat="48.19408" lon="-3.01628">
        <ele>135.8</ele>
        <time>2022-03-01T03:03:22.280Z</time>
      </trkpt>
      <trkpt lat="48.19411" lon="-3.01623">
        <ele>136.1</ele>
        <time>2022-03-01T03:03:29.468Z</time>
      </trkpt>
      <trkpt lat="48.19415" lon="-3.01616">
        <ele>136.9</ele>
        <time>2022-03-01T03:03:47.919Z</time>
      </trkpt>
      <trkpt lat="48.19418" lon="-3.0161">
        <ele>137.7</ele>
        <time>2022-03-01T03:04:03.638Z</time>
      </trkpt>
      <trkpt lat="48.19419" lon="-3.01603">
        <ele>138.8</ele>
        <time>2022-03-01T03:04:18.642Z</time>
      </trkpt>
      <trkpt lat="48.19422" lon="-3.01598">
        <ele>138.6</ele>
        <time>2022-03-01T03:04:19.623Z</time>
      </trkpt>
      <trkpt lat="48.19426" lon="-3.01594">
        <ele>137.8</ele>
        <time>2022-03-01T03:04:20.579Z</time>
      </trkpt>
      <trkpt lat="48.19431" lon="-3.01591">
        <ele>136.3</ele>
        <time>2022-03-01T03:04:21.649Z</time>
      </trkpt>
      <trkpt lat="48.19434" lon="-3.01586">
        <ele>136</ele>
        <time>2022-03-01T03:04:22.541Z</time>
      </trkpt>
      <trkpt lat="48.19437" lon="-3.0158">
        <ele>136.1</ele>
        <time>2022-03-01T03:04:27.530Z</time>
      </trkpt>
      <trkpt lat="48.19442" lon="-3.01574">
        <ele>135.2</ele>
        <time>2022-03-01T03:04:28.803Z</time>
      </trkpt>
      <trkpt lat="48.19447" lon="-3.01569">
        <ele>133.9</ele>
        <time>2022-03-01T03:04:29.997Z</time>
      </trkpt>
      <trkpt lat="48.1945" lon="-3.01564">
        <ele>133.5</ele>
        <time>2022-03-01T03:04:30.889Z</time>
      </trkpt>
      <trkpt lat="48.19452" lon="-3.01558">
        <ele>133.5</ele>
        <time>2022-03-01T03:04:34.534Z</time>
      </trkpt>
      <trkpt lat="48.19454" lon="-3.01555">
        <ele>132.9</ele>
        <time>2022-03-01T03:04:35.096Z</time>
      </trkpt>
      <trkpt lat="48.19457" lon="-3.01551">
        <ele>132.2</ele>
        <time>2022-03-01T03:04:35.894Z</time>
      </trkpt>
      <trkpt lat="48.19459" lon="-3.01546">
        <ele>132.2</ele>
        <time>2022-03-01T03:04:39.062Z</time>
      </trkpt>
      <trkpt lat="48.19464" lon="-3.01537">
        <ele>132</ele>
        <time>2022-03-01T03:04:41.127Z</time>
      </trkpt>
      <trkpt lat="48.19467" lon="-3.01533">
        <ele>131.7</ele>
        <time>2022-03-01T03:04:41.925Z</time>
      </trkpt>
      <trkpt lat="48.19473" lon="-3.01528">
        <ele>130.7</ele>
        <time>2022-03-01T03:04:43.289Z</time>
      </trkpt>
      <trkpt lat="48.19479" lon="-3.01528">
        <ele>128.8</ele>
        <time>2022-03-01T03:04:44.482Z</time>
      </trkpt>
      <trkpt lat="48.19482" lon="-3.01525">
        <ele>128.8</ele>
        <time>2022-03-01T03:04:47.421Z</time>
      </trkpt>
      <trkpt lat="48.19484" lon="-3.01521">
        <ele>129.4</ele>
        <time>2022-03-01T03:04:57.900Z</time>
      </trkpt>
      <trkpt lat="48.19488" lon="-3.01515">
        <ele>130</ele>
        <time>2022-03-01T03:05:10.645Z</time>
      </trkpt>
      <trkpt lat="48.19497" lon="-3.01513">
        <ele>127.3</ele>
        <time>2022-03-01T03:05:12.453Z</time>
      </trkpt>
      <trkpt lat="48.19501" lon="-3.0151">
        <ele>126.9</ele>
        <time>2022-03-01T03:05:13.342Z</time>
      </trkpt>
      <trkpt lat="48.19507" lon="-3.01501">
        <ele>127.8</ele>
        <time>2022-03-01T03:05:32.459Z</time>
      </trkpt>
      <trkpt lat="48.19509" lon="-3.01497">
        <ele>128.4</ele>
        <time>2022-03-01T03:05:42.938Z</time>
      </trkpt>
      <trkpt lat="48.19512" lon="-3.0149">
        <ele>129.6</ele>
        <time>2022-03-01T03:06:00.379Z</time>
      </trkpt>
      <trkpt lat="48.19518" lon="-3.01487">
        <ele>128.1</ele>
        <time>2022-03-01T03:06:01.637Z</time>
      </trkpt>
      <trkpt lat="48.1952" lon="-3.0148">
        <ele>129</ele>
        <time>2022-03-01T03:06:17.598Z</time>
      </trkpt>
      <trkpt lat="48.19522" lon="-3.01477">
        <ele>128.8</ele>
        <time>2022-03-01T03:06:18.160Z</time>
      </trkpt>
      <trkpt lat="48.19527" lon="-3.01473">
        <ele>127.2</ele>
        <time>2022-03-01T03:06:19.287Z</time>
      </trkpt>
      <trkpt lat="48.19534" lon="-3.01469">
        <ele>127.1</ele>
        <time>2022-03-01T03:06:21.576Z</time>
      </trkpt>
      <trkpt lat="48.19539" lon="-3.01462">
        <ele>128</ele>
        <time>2022-03-01T03:06:42.522Z</time>
      </trkpt>
      <trkpt lat="48.19543" lon="-3.01457">
        <ele>127.8</ele>
        <time>2022-03-01T03:06:43.728Z</time>
      </trkpt>
      <trkpt lat="48.19547" lon="-3.0145">
        <ele>127.3</ele>
        <time>2022-03-01T03:06:44.950Z</time>
      </trkpt>
      <trkpt lat="48.1955" lon="-3.01445">
        <ele>126.3</ele>
        <time>2022-03-01T03:06:45.842Z</time>
      </trkpt>
      <trkpt lat="48.19551" lon="-3.01438">
        <ele>127.9</ele>
        <time>2022-03-01T03:07:00.845Z</time>
      </trkpt>
      <trkpt lat="48.19553" lon="-3.0143">
        <ele>129.2</ele>
        <time>2022-03-01T03:07:18.752Z</time>
      </trkpt>
      <trkpt lat="48.19557" lon="-3.01427">
        <ele>128.3</ele>
        <time>2022-03-01T03:07:19.641Z</time>
      </trkpt>
      <trkpt lat="48.19565" lon="-3.01423">
        <ele>127.2</ele>
        <time>2022-03-01T03:07:21.317Z</time>
      </trkpt>
      <trkpt lat="48.19566" lon="-3.01419">
        <ele>127.8</ele>
        <time>2022-03-01T03:07:30.270Z</time>
      </trkpt>
      <trkpt lat="48.19569" lon="-3.01411">
        <ele>128.3</ele>
        <time>2022-03-01T03:07:41.279Z</time>
      </trkpt>
      <trkpt lat="48.19574" lon="-3.014">
        <ele>128.6</ele>
        <time>2022-03-01T03:07:51.758Z</time>
      </trkpt>
      <trkpt lat="48.19577" lon="-3.01396">
        <ele>128.2</ele>
        <time>2022-03-01T03:07:52.556Z</time>
      </trkpt>
      <trkpt lat="48.19579" lon="-3.01389">
        <ele>128.7</ele>
        <time>2022-03-01T03:08:03.161Z</time>
      </trkpt>
      <trkpt lat="48.19584" lon="-3.01386">
        <ele>127.8</ele>
        <time>2022-03-01T03:08:04.231Z</time>
      </trkpt>
      <trkpt lat="48.19588" lon="-3.01381">
        <ele>128.4</ele>
        <time>2022-03-01T03:08:17.192Z</time>
      </trkpt>
      <trkpt lat="48.19593" lon="-3.01374">
        <ele>129</ele>
        <time>2022-03-01T03:08:30.141Z</time>
      </trkpt>
      <trkpt lat="48.19596" lon="-3.0137">
        <ele>129</ele>
        <time>2022-03-01T03:08:33.413Z</time>
      </trkpt>
      <trkpt lat="48.19599" lon="-3.01366">
        <ele>128.8</ele>
        <time>2022-03-01T03:08:34.250Z</time>
      </trkpt>
      <trkpt lat="48.19602" lon="-3.01361">
        <ele>128.6</ele>
        <time>2022-03-01T03:08:35.231Z</time>
      </trkpt>
      <trkpt lat="48.19604" lon="-3.01358">
        <ele>128.4</ele>
        <time>2022-03-01T03:08:35.793Z</time>
      </trkpt>
      <trkpt lat="48.19607" lon="-3.0135">
        <ele>128.9</ele>
        <time>2022-03-01T03:08:46.802Z</time>
      </trkpt>
      <trkpt lat="48.1961" lon="-3.01346">
        <ele>128.6</ele>
        <time>2022-03-01T03:08:47.600Z</time>
      </trkpt>
      <trkpt lat="48.19615" lon="-3.0134">
        <ele>128.6</ele>
        <time>2022-03-01T03:08:52.819Z</time>
      </trkpt>
      <trkpt lat="48.1962" lon="-3.01334">
        <ele>128.3</ele>
        <time>2022-03-01T03:08:54.191Z</time>
      </trkpt>
      <trkpt lat="48.19625" lon="-3.01327">
        <ele>128.1</ele>
        <time>2022-03-01T03:08:55.929Z</time>
      </trkpt>
      <trkpt lat="48.19628" lon="-3.0132">
        <ele>128.5</ele>
        <time>2022-03-01T03:09:05.175Z</time>
      </trkpt>
      <trkpt lat="48.19633" lon="-3.01318">
        <ele>127.5</ele>
        <time>2022-03-01T03:09:06.204Z</time>
      </trkpt>
      <trkpt lat="48.19636" lon="-3.01314">
        <ele>127.3</ele>
        <time>2022-03-01T03:09:07.042Z</time>
      </trkpt>
      <trkpt lat="48.19639" lon="-3.01308">
        <ele>127.5</ele>
        <time>2022-03-01T03:09:13.474Z</time>
      </trkpt>
      <trkpt lat="48.19642" lon="-3.01303">
        <ele>127.7</ele>
        <time>2022-03-01T03:09:19.647Z</time>
      </trkpt>
      <trkpt lat="48.19646" lon="-3.01298">
        <ele>127.4</ele>
        <time>2022-03-01T03:09:20.665Z</time>
      </trkpt>
      <trkpt lat="48.19648" lon="-3.01294">
        <ele>127.4</ele>
        <time>2022-03-01T03:09:23.381Z</time>
      </trkpt>
      <trkpt lat="48.19654" lon="-3.01289">
        <ele>126.5</ele>
        <time>2022-03-01T03:09:24.746Z</time>
      </trkpt>
      <trkpt lat="48.19656" lon="-3.01284">
        <ele>126.5</ele>
        <time>2022-03-01T03:09:27.914Z</time>
      </trkpt>
      <trkpt lat="48.1966" lon="-3.01277">
        <ele>126</ele>
        <time>2022-03-01T03:09:29.136Z</time>
      </trkpt>
      <trkpt lat="48.19663" lon="-3.01271">
        <ele>126.1</ele>
        <time>2022-03-01T03:09:34.125Z</time>
      </trkpt>
      <trkpt lat="48.19667" lon="-3.01265">
        <ele>126.3</ele>
        <time>2022-03-01T03:09:40.944Z</time>
      </trkpt>
      <trkpt lat="48.19672" lon="-3.01261">
        <ele>126.8</ele>
        <time>2022-03-01T03:09:51.721Z</time>
      </trkpt>
      <trkpt lat="48.19676" lon="-3.01258">
        <ele>127.1</ele>
        <time>2022-03-01T03:09:58.898Z</time>
      </trkpt>
      <trkpt lat="48.19681" lon="-3.01256">
        <ele>127.3</ele>
        <time>2022-03-01T03:10:05.428Z</time>
      </trkpt>
      <trkpt lat="48.19684" lon="-3.01254">
        <ele>127.6</ele>
        <time>2022-03-01T03:10:11.847Z</time>
      </trkpt>
      <trkpt lat="48.1969" lon="-3.01256">
        <ele>126.9</ele>
        <time>2022-03-01T03:10:13.069Z</time>
      </trkpt>
      <trkpt lat="48.19694" lon="-3.01256">
        <ele>126.7</ele>
        <time>2022-03-01T03:10:13.903Z</time>
      </trkpt>
      <trkpt lat="48.197" lon="-3.01258">
        <ele>126.8</ele>
        <time>2022-03-01T03:10:19.790Z</time>
      </trkpt>
      <trkpt lat="48.19705" lon="-3.01261">
        <ele>126.5</ele>
        <time>2022-03-01T03:10:20.860Z</time>
      </trkpt>
      <trkpt lat="48.1971" lon="-3.01263">
        <ele>126.3</ele>
        <time>2022-03-01T03:10:22.056Z</time>
      </trkpt>
      <trkpt lat="48.19716" lon="-3.01266">
        <ele>126</ele>
        <time>2022-03-01T03:10:23.404Z</time>
      </trkpt>
      <trkpt lat="48.19719" lon="-3.01268">
        <ele>125.6</ele>
        <time>2022-03-01T03:10:24.057Z</time>
      </trkpt>
      <trkpt lat="48.19724" lon="-3.01272">
        <ele>124.5</ele>
        <time>2022-03-01T03:10:25.183Z</time>
      </trkpt>
      <trkpt lat="48.19728" lon="-3.01275">
        <ele>123.4</ele>
        <time>2022-03-01T03:10:26.072Z</time>
      </trkpt>
      <trkpt lat="48.19733" lon="-3.01276">
        <ele>123</ele>
        <time>2022-03-01T03:10:27.075Z</time>
      </trkpt>
      <trkpt lat="48.19738" lon="-3.0128">
        <ele>122.4</ele>
        <time>2022-03-01T03:10:28.201Z</time>
      </trkpt>
      <trkpt lat="48.19742" lon="-3.01278">
        <ele>122.3</ele>
        <time>2022-03-01T03:10:29.340Z</time>
      </trkpt>
      <trkpt lat="48.19743" lon="-3.01276">
        <ele>122.4</ele>
        <time>2022-03-01T03:10:31.882Z</time>
        <extensions>
          <visugpx:TrkExtension xmlns:visugpx="https://www.visugpx.com/editgpx/">
            <visugpx:node>50</visugpx:node>
            </visugpx:TrkExtension>
        </extensions>
      </trkpt>
      <trkpt lat="48.19744" lon="-3.01271">
        <ele>122.8</ele>
        <time>2022-03-01T03:10:40.516Z</time>
      </trkpt>
      <trkpt lat="48.19744" lon="-3.01264">
        <ele>123.5</ele>
        <time>2022-03-01T03:10:55.186Z</time>
      </trkpt>
      <trkpt lat="48.19743" lon="-3.01256">
        <ele>124.4</ele>
        <time>2022-03-01T03:11:12.244Z</time>
      </trkpt>
      <trkpt lat="48.19744" lon="-3.01248">
        <ele>124.8</ele>
        <time>2022-03-01T03:11:21.400Z</time>
      </trkpt>
      <trkpt lat="48.19743" lon="-3.01241">
        <ele>125.5</ele>
        <time>2022-03-01T03:11:36.403Z</time>
      </trkpt>
      <trkpt lat="48.19743" lon="-3.01235">
        <ele>125.8</ele>
        <time>2022-03-01T03:11:43.221Z</time>
      </trkpt>
      <trkpt lat="48.19744" lon="-3.01228">
        <ele>125.9</ele>
        <time>2022-03-01T03:11:48.034Z</time>
      </trkpt>
      <trkpt lat="48.19748" lon="-3.01218">
        <ele>125</ele>
        <time>2022-03-01T03:11:49.580Z</time>
      </trkpt>
      <trkpt lat="48.19748" lon="-3.01215">
        <ele>125.2</ele>
        <time>2022-03-01T03:11:53.819Z</time>
      </trkpt>
      <trkpt lat="48.19749" lon="-3.01206">
        <ele>125.5</ele>
        <time>2022-03-01T03:12:02.449Z</time>
      </trkpt>
      <trkpt lat="48.19751" lon="-3.012">
        <ele>125.6</ele>
        <time>2022-03-01T03:12:07.033Z</time>
      </trkpt>
      <trkpt lat="48.19754" lon="-3.01192">
        <ele>126.2</ele>
        <time>2022-03-01T03:12:19.762Z</time>
      </trkpt>
      <trkpt lat="48.1976" lon="-3.01195">
        <ele>126</ele>
        <time>2022-03-01T03:12:21.331Z</time>
      </trkpt>
      <trkpt lat="48.19764" lon="-3.01197">
        <ele>125.8</ele>
        <time>2022-03-01T03:12:22.230Z</time>
      </trkpt>
      <trkpt lat="48.19769" lon="-3.01199">
        <ele>125.6</ele>
        <time>2022-03-01T03:12:23.426Z</time>
      </trkpt>
      <trkpt lat="48.19775" lon="-3.01201">
        <ele>125.3</ele>
        <time>2022-03-01T03:12:24.720Z</time>
      </trkpt>
      <trkpt lat="48.1978" lon="-3.01203">
        <ele>125.6</ele>
        <time>2022-03-01T03:12:32.502Z</time>
      </trkpt>
      <trkpt lat="48.19786" lon="-3.01206">
        <ele>126.7</ele>
        <time>2022-03-01T03:12:52.387Z</time>
      </trkpt>
      <trkpt lat="48.19788" lon="-3.01211">
        <ele>126.9</ele>
        <time>2022-03-01T03:12:57.980Z</time>
      </trkpt>
      <trkpt lat="48.19789" lon="-3.01217">
        <ele>126.9</ele>
        <time>2022-03-01T03:13:01.340Z</time>
      </trkpt>
      <trkpt lat="48.19792" lon="-3.01226">
        <ele>127.3</ele>
        <time>2022-03-01T03:13:11.544Z</time>
      </trkpt>
      <trkpt lat="48.19795" lon="-3.0123">
        <ele>128</ele>
        <time>2022-03-01T03:13:24.163Z</time>
      </trkpt>
      <trkpt lat="48.19797" lon="-3.01237">
        <ele>128</ele>
        <time>2022-03-01T03:13:28.301Z</time>
      </trkpt>
      <trkpt lat="48.198" lon="-3.01244">
        <ele>128.2</ele>
        <time>2022-03-01T03:13:35.052Z</time>
      </trkpt>
      <trkpt lat="48.19804" lon="-3.01246">
        <ele>129</ele>
        <time>2022-03-01T03:13:48.309Z</time>
      </trkpt>
      <trkpt lat="48.19807" lon="-3.01246">
        <ele>129.9</ele>
        <time>2022-03-01T03:13:57.741Z</time>
      </trkpt>
      <trkpt lat="48.19811" lon="-3.01242">
        <ele>131.7</ele>
        <time>2022-03-01T03:14:12.855Z</time>
      </trkpt>
      <trkpt lat="48.19812" lon="-3.01235">
        <ele>132.6</ele>
        <time>2022-03-01T03:14:27.858Z</time>
      </trkpt>
      <trkpt lat="48.19816" lon="-3.01229">
        <ele>134.2</ele>
        <time>2022-03-01T03:14:45.642Z</time>
      </trkpt>
      <trkpt lat="48.19817" lon="-3.01221">
        <ele>134.9</ele>
        <time>2022-03-01T03:15:01.677Z</time>
      </trkpt>
      <trkpt lat="48.19819" lon="-3.01214">
        <ele>135.2</ele>
        <time>2022-03-01T03:15:09.371Z</time>
      </trkpt>
      <trkpt lat="48.19826" lon="-3.01212">
        <ele>137.1</ele>
        <time>2022-03-01T03:15:31.775Z</time>
      </trkpt>
      <trkpt lat="48.19829" lon="-3.01232">
        <ele>137.7</ele>
        <time>2022-03-01T03:15:50.407Z</time>
      </trkpt>
      <trkpt lat="48.19854" lon="-3.01277">
        <ele>139.5</ele>
        <time>2022-03-01T03:16:44.673Z</time>
      </trkpt>
      <trkpt lat="48.19859" lon="-3.01288">
        <ele>139.5</ele>
        <time>2022-03-01T03:16:51.907Z</time>
      </trkpt>
      <trkpt lat="48.19862" lon="-3.01297">
        <ele>139.4</ele>
        <time>2022-03-01T03:16:53.917Z</time>
      </trkpt>
      <trkpt lat="48.1987" lon="-3.01319">
        <ele>139.5</ele>
        <time>2022-03-01T03:17:08.323Z</time>
      </trkpt>
      <trkpt lat="48.19875" lon="-3.01338">
        <ele>139.3</ele>
        <time>2022-03-01T03:17:12.414Z</time>
      </trkpt>
      <trkpt lat="48.19877" lon="-3.01349">
        <ele>138.9</ele>
        <time>2022-03-01T03:17:13.963Z</time>
      </trkpt>
      <trkpt lat="48.19878" lon="-3.01357">
        <ele>138.6</ele>
        <time>2022-03-01T03:17:15.044Z</time>
      </trkpt>
      <trkpt lat="48.19878" lon="-3.01364">
        <ele>138.1</ele>
        <time>2022-03-01T03:17:15.971Z</time>
      </trkpt>
      <trkpt lat="48.19877" lon="-3.01368">
        <ele>137.8</ele>
        <time>2022-03-01T03:17:16.538Z</time>
      </trkpt>
      <trkpt lat="48.19874" lon="-3.0137">
        <ele>137.7</ele>
        <time>2022-03-01T03:17:17.361Z</time>
        <extensions>
          <visugpx:TrkExtension xmlns:visugpx="https://www.visugpx.com/editgpx/">
            <visugpx:node>51</visugpx:node>
            </visugpx:TrkExtension>
        </extensions>
      </trkpt>
      <trkpt lat="48.19877" lon="-3.01368">
        <ele>137.8</ele>
        <time>2022-03-01T03:17:21.073Z</time>
      </trkpt>
      <trkpt lat="48.19878" lon="-3.01364">
        <ele>138.1</ele>
        <time>2022-03-01T03:17:27.441Z</time>
      </trkpt>
      <trkpt lat="48.19878" lon="-3.01357">
        <ele>138.6</ele>
        <time>2022-03-01T03:17:38.073Z</time>
      </trkpt>
      <trkpt lat="48.19877" lon="-3.01349">
        <ele>138.9</ele>
        <time>2022-03-01T03:17:46.084Z</time>
      </trkpt>
      <trkpt lat="48.1988" lon="-3.0135">
        <ele>138.9</ele>
        <time>2022-03-01T03:17:48.589Z</time>
      </trkpt>
      <trkpt lat="48.19887" lon="-3.01348">
        <ele>138.9</ele>
        <time>2022-03-01T03:17:54.398Z</time>
      </trkpt>
      <trkpt lat="48.19891" lon="-3.01346">
        <ele>139.2</ele>
        <time>2022-03-01T03:18:01.374Z</time>
      </trkpt>
      <trkpt lat="48.19894" lon="-3.01343">
        <ele>139.4</ele>
        <time>2022-03-01T03:18:06.704Z</time>
      </trkpt>
      <trkpt lat="48.199" lon="-3.01345">
        <ele>139.5</ele>
        <time>2022-03-01T03:18:12.591Z</time>
      </trkpt>
      <trkpt lat="48.19904" lon="-3.01348">
        <ele>139.5</ele>
        <time>2022-03-01T03:18:16.236Z</time>
      </trkpt>
      <trkpt lat="48.19908" lon="-3.01353">
        <ele>139.6</ele>
        <time>2022-03-01T03:18:21.386Z</time>
      </trkpt>
      <trkpt lat="48.19911" lon="-3.01357">
        <ele>139.7</ele>
        <time>2022-03-01T03:18:25.625Z</time>
      </trkpt>
      <trkpt lat="48.19913" lon="-3.01357">
        <ele>139.8</ele>
        <time>2022-03-01T03:18:28.476Z</time>
      </trkpt>
      <trkpt lat="48.19917" lon="-3.01359">
        <ele>140</ele>
        <time>2022-03-01T03:18:34.386Z</time>
      </trkpt>
      <trkpt lat="48.19924" lon="-3.01361">
        <ele>140.3</ele>
        <time>2022-03-01T03:18:43.840Z</time>
      </trkpt>
      <trkpt lat="48.19928" lon="-3.01361">
        <ele>140.4</ele>
        <time>2022-03-01T03:18:48.069Z</time>
      </trkpt>
      <trkpt lat="48.19933" lon="-3.01361">
        <ele>140.6</ele>
        <time>2022-03-01T03:18:54.501Z</time>
      </trkpt>
      <trkpt lat="48.19942" lon="-3.01364">
        <ele>140.4</ele>
        <time>2022-03-01T03:18:57.048Z</time>
      </trkpt>
      <trkpt lat="48.1995" lon="-3.0136">
        <ele>142.1</ele>
        <time>2022-03-01T03:19:23.561Z</time>
      </trkpt>
      <trkpt lat="48.19951" lon="-3.01356">
        <ele>142.7</ele>
        <time>2022-03-01T03:19:32.513Z</time>
      </trkpt>
      <trkpt lat="48.19954" lon="-3.01351">
        <ele>143.8</ele>
        <time>2022-03-01T03:19:46.612Z</time>
      </trkpt>
      <trkpt lat="48.19958" lon="-3.01345">
        <ele>145.2</ele>
        <time>2022-03-01T03:20:04.395Z</time>
      </trkpt>
      <trkpt lat="48.19964" lon="-3.0134">
        <ele>146.8</ele>
        <time>2022-03-01T03:20:25.974Z</time>
      </trkpt>
      <trkpt lat="48.1997" lon="-3.01335">
        <ele>148.4</ele>
        <time>2022-03-01T03:20:47.553Z</time>
      </trkpt>
      <trkpt lat="48.19973" lon="-3.01336">
        <ele>148.8</ele>
        <time>2022-03-01T03:20:56.779Z</time>
      </trkpt>
      <trkpt lat="48.19977" lon="-3.01337">
        <ele>149.2</ele>
        <time>2022-03-01T03:21:05.262Z</time>
      </trkpt>
      <trkpt lat="48.19981" lon="-3.01343">
        <ele>149.1</ele>
        <time>2022-03-01T03:21:06.900Z</time>
      </trkpt>
      <trkpt lat="48.19982" lon="-3.01346">
        <ele>149</ele>
        <time>2022-03-01T03:21:07.389Z</time>
      </trkpt>
      <trkpt lat="48.19985" lon="-3.01355">
        <ele>148.8</ele>
        <time>2022-03-01T03:21:09.083Z</time>
      </trkpt>
      <trkpt lat="48.19984" lon="-3.01359">
        <ele>148.3</ele>
        <time>2022-03-01T03:21:09.649Z</time>
      </trkpt>
      <trkpt lat="48.19983" lon="-3.01364">
        <ele>147.7</ele>
        <time>2022-03-01T03:21:10.341Z</time>
      </trkpt>
      <trkpt lat="48.19986" lon="-3.01372">
        <ele>147.5</ele>
        <time>2022-03-01T03:21:11.842Z</time>
      </trkpt>
      <trkpt lat="48.1999" lon="-3.01377">
        <ele>147.9</ele>
        <time>2022-03-01T03:21:20.845Z</time>
      </trkpt>
      <trkpt lat="48.19993" lon="-3.01381">
        <ele>148.1</ele>
        <time>2022-03-01T03:21:26.559Z</time>
      </trkpt>
      <trkpt lat="48.19994" lon="-3.01381">
        <ele>148.3</ele>
        <time>2022-03-01T03:21:29.703Z</time>
      </trkpt>
      <trkpt lat="48.19999" lon="-3.0139">
        <ele>148.6</ele>
        <time>2022-03-01T03:21:39.525Z</time>
      </trkpt>
      <trkpt lat="48.20006" lon="-3.01396">
        <ele>148</ele>
        <time>2022-03-01T03:21:41.127Z</time>
      </trkpt>
      <trkpt lat="48.20012" lon="-3.014">
        <ele>147.4</ele>
        <time>2022-03-01T03:21:42.432Z</time>
      </trkpt>
      <trkpt lat="48.20025" lon="-3.01406">
        <ele>146.5</ele>
        <time>2022-03-01T03:21:44.919Z</time>
      </trkpt>
      <trkpt lat="48.20031" lon="-3.01408">
        <ele>146.5</ele>
        <time>2022-03-01T03:21:49.929Z</time>
      </trkpt>
      <trkpt lat="48.20036" lon="-3.01409">
        <ele>146.7</ele>
        <time>2022-03-01T03:21:56.385Z</time>
      </trkpt>
      <trkpt lat="48.20041" lon="-3.0141">
        <ele>147</ele>
        <time>2022-03-01T03:22:04.050Z</time>
      </trkpt>
      <trkpt lat="48.20047" lon="-3.01411">
        <ele>147.5</ele>
        <time>2022-03-01T03:22:15.012Z</time>
      </trkpt>
      <trkpt lat="48.20057" lon="-3.01415">
        <ele>147.9</ele>
        <time>2022-03-01T03:22:28.071Z</time>
      </trkpt>
      <trkpt lat="48.20058" lon="-3.01415">
        <ele>147.8</ele>
        <time>2022-03-01T03:22:28.270Z</time>
      </trkpt>
      <trkpt lat="48.2006" lon="-3.01415">
        <ele>147.6</ele>
        <time>2022-03-01T03:22:28.668Z</time>
      </trkpt>
      <trkpt lat="48.20065" lon="-3.01417">
        <ele>146.9</ele>
        <time>2022-03-01T03:22:29.696Z</time>
      </trkpt>
      <trkpt lat="48.20071" lon="-3.01417">
        <ele>146.3</ele>
        <time>2022-03-01T03:22:30.889Z</time>
      </trkpt>
      <trkpt lat="48.20075" lon="-3.01427">
        <ele>145</ele>
        <time>2022-03-01T03:22:32.434Z</time>
      </trkpt>
      <trkpt lat="48.20081" lon="-3.0143">
        <ele>144.6</ele>
        <time>2022-03-01T03:22:33.617Z</time>
      </trkpt>
      <trkpt lat="48.20086" lon="-3.01437">
        <ele>143.6</ele>
        <time>2022-03-01T03:22:34.976Z</time>
      </trkpt>
      <trkpt lat="48.20091" lon="-3.01445">
        <ele>142</ele>
        <time>2022-03-01T03:22:36.429Z</time>
      </trkpt>
      <trkpt lat="48.20093" lon="-3.01452">
        <ele>140.2</ele>
        <time>2022-03-01T03:22:37.438Z</time>
      </trkpt>
      <trkpt lat="48.20096" lon="-3.01457">
        <ele>138.9</ele>
        <time>2022-03-01T03:22:38.330Z</time>
      </trkpt>
      <trkpt lat="48.20099" lon="-3.01463">
        <ele>137.6</ele>
        <time>2022-03-01T03:22:39.323Z</time>
      </trkpt>
      <trkpt lat="48.20103" lon="-3.0147">
        <ele>136.5</ele>
        <time>2022-03-01T03:22:40.545Z</time>
      </trkpt>
      <trkpt lat="48.20105" lon="-3.01478">
        <ele>135.2</ele>
        <time>2022-03-01T03:22:41.677Z</time>
      </trkpt>
      <trkpt lat="48.20105" lon="-3.01486">
        <ele>133.9</ele>
        <time>2022-03-01T03:22:42.737Z</time>
      </trkpt>
      <trkpt lat="48.20106" lon="-3.01492">
        <ele>133</ele>
        <time>2022-03-01T03:22:43.556Z</time>
      </trkpt>
      <trkpt lat="48.2011" lon="-3.01498">
        <ele>133</ele>
        <time>2022-03-01T03:22:48.167Z</time>
      </trkpt>
      <trkpt lat="48.20112" lon="-3.015">
        <ele>132.8</ele>
        <time>2022-03-01T03:22:48.645Z</time>
      </trkpt>
      <trkpt lat="48.20115" lon="-3.01507">
        <ele>129.7</ele>
        <time>2022-03-01T03:22:49.747Z</time>
      </trkpt>
      <trkpt lat="48.20119" lon="-3.01514">
        <ele>126.8</ele>
        <time>2022-03-01T03:22:50.969Z</time>
      </trkpt>
      <trkpt lat="48.20123" lon="-3.01514">
        <ele>126.3</ele>
        <time>2022-03-01T03:22:51.764Z</time>
      </trkpt>
      <trkpt lat="48.20129" lon="-3.01513">
        <ele>125.6</ele>
        <time>2022-03-01T03:22:52.964Z</time>
        <extensions>
          <visugpx:TrkExtension xmlns:visugpx="https://www.visugpx.com/editgpx/">
            <visugpx:node>52</visugpx:node>
            </visugpx:TrkExtension>
        </extensions>
      </trkpt>
      <trkpt lat="48.20132" lon="-3.01507">
        <ele>126.4</ele>
        <time>2022-03-01T03:23:08.682Z</time>
      </trkpt>
      <trkpt lat="48.20135" lon="-3.015">
        <ele>127</ele>
        <time>2022-03-01T03:23:21.457Z</time>
      </trkpt>
      <trkpt lat="48.20138" lon="-3.01493">
        <ele>126.5</ele>
        <time>2022-03-01T03:23:22.560Z</time>
      </trkpt>
      <trkpt lat="48.20139" lon="-3.01486">
        <ele>126.5</ele>
        <time>2022-03-01T03:23:26.449Z</time>
      </trkpt>
      <trkpt lat="48.20139" lon="-3.0147">
        <ele>127</ele>
        <time>2022-03-01T03:23:41.345Z</time>
      </trkpt>
      <trkpt lat="48.2014" lon="-3.01455">
        <ele>126.8</ele>
        <time>2022-03-01T03:23:44.179Z</time>
      </trkpt>
      <trkpt lat="48.2014" lon="-3.01448">
        <ele>126.8</ele>
        <time>2022-03-01T03:23:47.982Z</time>
      </trkpt>
      <trkpt lat="48.20144" lon="-3.01434">
        <ele>126.5</ele>
        <time>2022-03-01T03:23:50.554Z</time>
      </trkpt>
      <trkpt lat="48.20148" lon="-3.01421">
        <ele>126.2</ele>
        <time>2022-03-01T03:23:52.926Z</time>
      </trkpt>
      <trkpt lat="48.20152" lon="-3.01412">
        <ele>126</ele>
        <time>2022-03-01T03:23:54.788Z</time>
      </trkpt>
      <trkpt lat="48.20154" lon="-3.01407">
        <ele>126</ele>
        <time>2022-03-01T03:23:57.956Z</time>
      </trkpt>
      <trkpt lat="48.20157" lon="-3.01402">
        <ele>126</ele>
        <time>2022-03-01T03:24:01.611Z</time>
      </trkpt>
      <trkpt lat="48.20166" lon="-3.01399">
        <ele>125</ele>
        <time>2022-03-01T03:24:03.444Z</time>
      </trkpt>
      <trkpt lat="48.20171" lon="-3.014">
        <ele>124.8</ele>
        <time>2022-03-01T03:24:04.599Z</time>
      </trkpt>
      <trkpt lat="48.20176" lon="-3.014">
        <ele>124.9</ele>
        <time>2022-03-01T03:24:09.589Z</time>
      </trkpt>
      <trkpt lat="48.2019" lon="-3.01395">
        <ele>125.8</ele>
        <time>2022-03-01T03:24:31.936Z</time>
      </trkpt>
      <trkpt lat="48.20198" lon="-3.01395">
        <ele>126</ele>
        <time>2022-03-01T03:24:40.394Z</time>
      </trkpt>
      <trkpt lat="48.20204" lon="-3.01395">
        <ele>126.2</ele>
        <time>2022-03-01T03:24:47.434Z</time>
      </trkpt>
      <trkpt lat="48.2021" lon="-3.01397">
        <ele>125.9</ele>
        <time>2022-03-01T03:24:48.729Z</time>
      </trkpt>
      <trkpt lat="48.20217" lon="-3.01399">
        <ele>125.7</ele>
        <time>2022-03-01T03:24:50.563Z</time>
      </trkpt>
      <trkpt lat="48.20227" lon="-3.01398">
        <ele>126.1</ele>
        <time>2022-03-01T03:25:03.440Z</time>
      </trkpt>
      <trkpt lat="48.20233" lon="-3.01398">
        <ele>126.3</ele>
        <time>2022-03-01T03:25:10.480Z</time>
      </trkpt>
      <trkpt lat="48.20239" lon="-3.01398">
        <ele>126.4</ele>
        <time>2022-03-01T03:25:16.252Z</time>
      </trkpt>
      <trkpt lat="48.20242" lon="-3.01398">
        <ele>126.5</ele>
        <time>2022-03-01T03:25:19.772Z</time>
      </trkpt>
      <trkpt lat="48.20248" lon="-3.01399">
        <ele>126.4</ele>
        <time>2022-03-01T03:25:21.544Z</time>
      </trkpt>
      <trkpt lat="48.20255" lon="-3.014">
        <ele>126.6</ele>
        <time>2022-03-01T03:25:29.296Z</time>
      </trkpt>
      <trkpt lat="48.20259" lon="-3.014">
        <ele>126.9</ele>
        <time>2022-03-01T03:25:36.113Z</time>
      </trkpt>
      <trkpt lat="48.20265" lon="-3.01401">
        <ele>127.1</ele>
        <time>2022-03-01T03:25:43.178Z</time>
      </trkpt>
      <trkpt lat="48.20273" lon="-3.01402">
        <ele>127.4</ele>
        <time>2022-03-01T03:25:53.127Z</time>
      </trkpt>
      <trkpt lat="48.20283" lon="-3.01407">
        <ele>125.9</ele>
        <time>2022-03-01T03:25:55.223Z</time>
      </trkpt>
      <trkpt lat="48.20294" lon="-3.01405">
        <ele>126</ele>
        <time>2022-03-01T03:26:05.068Z</time>
      </trkpt>
      <trkpt lat="48.20298" lon="-3.01404">
        <ele>126.1</ele>
        <time>2022-03-01T03:26:09.338Z</time>
      </trkpt>
      <trkpt lat="48.20304" lon="-3.014">
        <ele>126.7</ele>
        <time>2022-03-01T03:26:22.178Z</time>
      </trkpt>
      <trkpt lat="48.20308" lon="-3.01397">
        <ele>126.8</ele>
        <time>2022-03-01T03:26:26.762Z</time>
      </trkpt>
      <trkpt lat="48.20313" lon="-3.01392">
        <ele>126.9</ele>
        <time>2022-03-01T03:26:32.541Z</time>
      </trkpt>
      <trkpt lat="48.20316" lon="-3.01385">
        <ele>127.6</ele>
        <time>2022-03-01T03:26:48.329Z</time>
      </trkpt>
      <trkpt lat="48.20321" lon="-3.01384">
        <ele>126.6</ele>
        <time>2022-03-01T03:26:49.332Z</time>
      </trkpt>
      <trkpt lat="48.20324" lon="-3.01378">
        <ele>127</ele>
        <time>2022-03-01T03:26:58.201Z</time>
      </trkpt>
      <trkpt lat="48.20328" lon="-3.01374">
        <ele>126.6</ele>
        <time>2022-03-01T03:26:59.157Z</time>
      </trkpt>
      <trkpt lat="48.20332" lon="-3.01369">
        <ele>126.3</ele>
        <time>2022-03-01T03:27:00.175Z</time>
      </trkpt>
      <trkpt lat="48.20335" lon="-3.01364">
        <ele>126.3</ele>
        <time>2022-03-01T03:27:03.830Z</time>
      </trkpt>
      <trkpt lat="48.20339" lon="-3.01356">
        <ele>126.5</ele>
        <time>2022-03-01T03:27:11.322Z</time>
      </trkpt>
      <trkpt lat="48.20344" lon="-3.01341">
        <ele>126.7</ele>
        <time>2022-03-01T03:27:22.219Z</time>
      </trkpt>
      <trkpt lat="48.20347" lon="-3.01335">
        <ele>126.4</ele>
        <time>2022-03-01T03:27:23.178Z</time>
      </trkpt>
      <trkpt lat="48.2035" lon="-3.01328">
        <ele>126.3</ele>
        <time>2022-03-01T03:27:24.778Z</time>
      </trkpt>
      <trkpt lat="48.20352" lon="-3.01324">
        <ele>126.2</ele>
        <time>2022-03-01T03:27:25.619Z</time>
      </trkpt>
      <trkpt lat="48.20357" lon="-3.01317">
        <ele>125.7</ele>
        <time>2022-03-01T03:27:26.978Z</time>
      </trkpt>
      <trkpt lat="48.2036" lon="-3.01314">
        <ele>125.3</ele>
        <time>2022-03-01T03:27:27.695Z</time>
      </trkpt>
      <trkpt lat="48.20363" lon="-3.01309">
        <ele>125.5</ele>
        <time>2022-03-01T03:27:33.867Z</time>
      </trkpt>
      <trkpt lat="48.2037" lon="-3.01296">
        <ele>126.6</ele>
        <time>2022-03-01T03:27:57.195Z</time>
      </trkpt>
      <trkpt lat="48.20373" lon="-3.01293">
        <ele>126.8</ele>
        <time>2022-03-01T03:28:02.525Z</time>
      </trkpt>
      <trkpt lat="48.20376" lon="-3.01289">
        <ele>127</ele>
        <time>2022-03-01T03:28:08.239Z</time>
      </trkpt>
      <trkpt lat="48.20383" lon="-3.01286">
        <ele>126.7</ele>
        <time>2022-03-01T03:28:09.881Z</time>
      </trkpt>
      <trkpt lat="48.2039" lon="-3.01287">
        <ele>126.2</ele>
        <time>2022-03-01T03:28:11.279Z</time>
      </trkpt>
      <trkpt lat="48.20394" lon="-3.0129">
        <ele>126.6</ele>
        <time>2022-03-01T03:28:19.875Z</time>
      </trkpt>
      <trkpt lat="48.20398" lon="-3.01293">
        <ele>127</ele>
        <time>2022-03-01T03:28:28.470Z</time>
      </trkpt>
      <trkpt lat="48.20402" lon="-3.01293">
        <ele>127.7</ele>
        <time>2022-03-01T03:28:41.046Z</time>
      </trkpt>
      <trkpt lat="48.20407" lon="-3.01295">
        <ele>128.4</ele>
        <time>2022-03-01T03:28:57.315Z</time>
      </trkpt>
      <trkpt lat="48.20412" lon="-3.01293">
        <ele>129.5</ele>
        <time>2022-03-01T03:29:13.585Z</time>
      </trkpt>
      <trkpt lat="48.20417" lon="-3.01292">
        <ele>130.5</ele>
        <time>2022-03-01T03:29:29.444Z</time>
      </trkpt>
      <trkpt lat="48.20422" lon="-3.0129">
        <ele>131</ele>
        <time>2022-03-01T03:29:40.063Z</time>
      </trkpt>
      <trkpt lat="48.20428" lon="-3.01287">
        <ele>132</ele>
        <time>2022-03-01T03:29:59.947Z</time>
      </trkpt>
      <trkpt lat="48.20437" lon="-3.01284">
        <ele>133.4</ele>
        <time>2022-03-01T03:30:28.934Z</time>
      </trkpt>
      <trkpt lat="48.20441" lon="-3.01282">
        <ele>134.4</ele>
        <time>2022-03-01T03:30:42.190Z</time>
      </trkpt>
      <trkpt lat="48.20447" lon="-3.01282">
        <ele>134.8</ele>
        <time>2022-03-01T03:30:51.790Z</time>
      </trkpt>
      <trkpt lat="48.2045" lon="-3.01282">
        <ele>134.9</ele>
        <time>2022-03-01T03:30:55.310Z</time>
        <extensions>
          <visugpx:TrkExtension xmlns:visugpx="https://www.visugpx.com/editgpx/">
            <visugpx:node>53</visugpx:node>
            </visugpx:TrkExtension>
        </extensions>
      </trkpt>
      <trkpt lat="48.20453" lon="-3.01282">
        <ele>135</ele>
        <time>2022-03-01T03:30:58.830Z</time>
      </trkpt>
      <trkpt lat="48.20456" lon="-3.01284">
        <ele>134.6</ele>
        <time>2022-03-01T03:30:59.483Z</time>
      </trkpt>
      <trkpt lat="48.20459" lon="-3.01288">
        <ele>133.8</ele>
        <time>2022-03-01T03:31:00.280Z</time>
      </trkpt>
      <trkpt lat="48.20463" lon="-3.01292">
        <ele>133.3</ele>
        <time>2022-03-01T03:31:01.236Z</time>
      </trkpt>
      <trkpt lat="48.20469" lon="-3.01299">
        <ele>132.6</ele>
        <time>2022-03-01T03:31:02.747Z</time>
      </trkpt>
      <trkpt lat="48.2047" lon="-3.01303">
        <ele>132.1</ele>
        <time>2022-03-01T03:31:03.313Z</time>
      </trkpt>
      <trkpt lat="48.20475" lon="-3.01308">
        <ele>130.5</ele>
        <time>2022-03-01T03:31:04.507Z</time>
      </trkpt>
      <trkpt lat="48.20478" lon="-3.01309">
        <ele>129.4</ele>
        <time>2022-03-01T03:31:05.118Z</time>
      </trkpt>
      <trkpt lat="48.20482" lon="-3.01307">
        <ele>128.8</ele>
        <time>2022-03-01T03:31:05.956Z</time>
      </trkpt>
      <trkpt lat="48.20487" lon="-3.01301">
        <ele>128.5</ele>
        <time>2022-03-01T03:31:07.328Z</time>
      </trkpt>
      <trkpt lat="48.20492" lon="-3.013">
        <ele>127.2</ele>
        <time>2022-03-01T03:31:08.331Z</time>
      </trkpt>
      <trkpt lat="48.205" lon="-3.01299">
        <ele>125.2</ele>
        <time>2022-03-01T03:31:09.927Z</time>
      </trkpt>
      <trkpt lat="48.20502" lon="-3.01292">
        <ele>126.4</ele>
        <time>2022-03-01T03:31:25.885Z</time>
      </trkpt>
      <trkpt lat="48.20508" lon="-3.01292">
        <ele>126.4</ele>
        <time>2022-03-01T03:31:30.776Z</time>
      </trkpt>
      <trkpt lat="48.20511" lon="-3.0129">
        <ele>126.8</ele>
        <time>2022-03-01T03:31:39.617Z</time>
      </trkpt>
      <trkpt lat="48.20515" lon="-3.01291">
        <ele>126.6</ele>
        <time>2022-03-01T03:31:40.467Z</time>
      </trkpt>
      <trkpt lat="48.2052" lon="-3.01294">
        <ele>126.1</ele>
        <time>2022-03-01T03:31:41.538Z</time>
      </trkpt>
      <trkpt lat="48.20525" lon="-3.01297">
        <ele>125.5</ele>
        <time>2022-03-01T03:31:42.608Z</time>
      </trkpt>
      <trkpt lat="48.20531" lon="-3.01295">
        <ele>125.6</ele>
        <time>2022-03-01T03:31:48.495Z</time>
      </trkpt>
      <trkpt lat="48.20535" lon="-3.0129">
        <ele>126</ele>
        <time>2022-03-01T03:31:57.498Z</time>
      </trkpt>
      <trkpt lat="48.20539" lon="-3.01282">
        <ele>126.7</ele>
        <time>2022-03-01T03:32:12.354Z</time>
      </trkpt>
      <trkpt lat="48.20544" lon="-3.01281">
        <ele>126.2</ele>
        <time>2022-03-01T03:32:13.357Z</time>
      </trkpt>
      <trkpt lat="48.20549" lon="-3.01279">
        <ele>125.8</ele>
        <time>2022-03-01T03:32:14.385Z</time>
      </trkpt>
      <trkpt lat="48.20554" lon="-3.01277">
        <ele>125.4</ele>
        <time>2022-03-01T03:32:15.414Z</time>
      </trkpt>
      <trkpt lat="48.2056" lon="-3.01275">
        <ele>125.9</ele>
        <time>2022-03-01T03:32:26.439Z</time>
      </trkpt>
      <trkpt lat="48.20563" lon="-3.01272">
        <ele>126.8</ele>
        <time>2022-03-01T03:32:37.774Z</time>
      </trkpt>
      <trkpt lat="48.20566" lon="-3.01272">
        <ele>126.9</ele>
        <time>2022-03-01T03:32:41.294Z</time>
      </trkpt>
      <trkpt lat="48.20572" lon="-3.01273">
        <ele>126.9</ele>
        <time>2022-03-01T03:32:46.215Z</time>
      </trkpt>
      <trkpt lat="48.2058" lon="-3.01273">
        <ele>127.2</ele>
        <time>2022-03-01T03:32:56.147Z</time>
      </trkpt>
      <trkpt lat="48.20584" lon="-3.01271">
        <ele>128.2</ele>
        <time>2022-03-01T03:33:09.403Z</time>
      </trkpt>
      <trkpt lat="48.2059" lon="-3.01278">
        <ele>128.8</ele>
        <time>2022-03-01T03:33:22.771Z</time>
      </trkpt>
      <trkpt lat="48.20593" lon="-3.01285">
        <ele>128.7</ele>
        <time>2022-03-01T03:33:24.371Z</time>
      </trkpt>
      <trkpt lat="48.20596" lon="-3.01291">
        <ele>128.5</ele>
        <time>2022-03-01T03:33:25.512Z</time>
      </trkpt>
      <trkpt lat="48.206" lon="-3.01297">
        <ele>128.4</ele>
        <time>2022-03-01T03:33:27.150Z</time>
      </trkpt>
      <trkpt lat="48.20603" lon="-3.01303">
        <ele>127.6</ele>
        <time>2022-03-01T03:33:28.144Z</time>
      </trkpt>
      <trkpt lat="48.20606" lon="-3.01309">
        <ele>127.1</ele>
        <time>2022-03-01T03:33:29.138Z</time>
      </trkpt>
      <trkpt lat="48.2061" lon="-3.01311">
        <ele>127.6</ele>
        <time>2022-03-01T03:33:40.052Z</time>
      </trkpt>
      <trkpt lat="48.20614" lon="-3.01311">
        <ele>127.7</ele>
        <time>2022-03-01T03:33:44.281Z</time>
      </trkpt>
      <trkpt lat="48.20619" lon="-3.01312">
        <ele>127.3</ele>
        <time>2022-03-01T03:33:45.283Z</time>
      </trkpt>
      <trkpt lat="48.20623" lon="-3.01311">
        <ele>127.4</ele>
        <time>2022-03-01T03:33:49.553Z</time>
      </trkpt>
      <trkpt lat="48.20627" lon="-3.01313">
        <ele>126.8</ele>
        <time>2022-03-01T03:33:50.391Z</time>
      </trkpt>
      <trkpt lat="48.20631" lon="-3.01312">
        <ele>126.9</ele>
        <time>2022-03-01T03:33:54.661Z</time>
      </trkpt>
      <trkpt lat="48.20639" lon="-3.01315">
        <ele>126</ele>
        <time>2022-03-01T03:33:56.301Z</time>
      </trkpt>
      <trkpt lat="48.20644" lon="-3.01315">
        <ele>127</ele>
        <time>2022-03-01T03:34:12.021Z</time>
      </trkpt>
      <trkpt lat="48.20649" lon="-3.01317">
        <ele>127.6</ele>
        <time>2022-03-01T03:34:25.008Z</time>
      </trkpt>
      <trkpt lat="48.20651" lon="-3.0132">
        <ele>127.3</ele>
        <time>2022-03-01T03:34:25.570Z</time>
      </trkpt>
      <trkpt lat="48.20655" lon="-3.01327">
        <ele>126.4</ele>
        <time>2022-03-01T03:34:26.792Z</time>
      </trkpt>
      <trkpt lat="48.2066" lon="-3.01331">
        <ele>126.4</ele>
        <time>2022-03-01T03:34:31.411Z</time>
      </trkpt>
      <trkpt lat="48.20665" lon="-3.01337">
        <ele>126.2</ele>
        <time>2022-03-01T03:34:33.004Z</time>
      </trkpt>
      <trkpt lat="48.20669" lon="-3.01342">
        <ele>126.8</ele>
        <time>2022-03-01T03:34:45.966Z</time>
      </trkpt>
      <trkpt lat="48.2067" lon="-3.01349">
        <ele>126.2</ele>
        <time>2022-03-01T03:34:46.914Z</time>
      </trkpt>
      <trkpt lat="48.20675" lon="-3.01353">
        <ele>127.6</ele>
        <time>2022-03-01T03:35:04.729Z</time>
      </trkpt>
      <trkpt lat="48.20679" lon="-3.01358">
        <ele>128.4</ele>
        <time>2022-03-01T03:35:21.098Z</time>
      </trkpt>
      <trkpt lat="48.20684" lon="-3.01362">
        <ele>129.7</ele>
        <time>2022-03-01T03:35:38.912Z</time>
      </trkpt>
      <trkpt lat="48.20688" lon="-3.01368">
        <ele>130.2</ele>
        <time>2022-03-01T03:35:49.684Z</time>
      </trkpt>
      <trkpt lat="48.20689" lon="-3.01376">
        <ele>129.2</ele>
        <time>2022-03-01T03:35:50.762Z</time>
      </trkpt>
      <trkpt lat="48.20694" lon="-3.0138">
        <ele>129.8</ele>
        <time>2022-03-01T03:36:03.505Z</time>
      </trkpt>
      <trkpt lat="48.20697" lon="-3.01387">
        <ele>129</ele>
        <time>2022-03-01T03:36:04.607Z</time>
      </trkpt>
      <trkpt lat="48.20699" lon="-3.01392">
        <ele>128.3</ele>
        <time>2022-03-01T03:36:05.380Z</time>
      </trkpt>
      <trkpt lat="48.20702" lon="-3.01395">
        <ele>128.2</ele>
        <time>2022-03-01T03:36:06.311Z</time>
      </trkpt>
      <trkpt lat="48.20707" lon="-3.01402">
        <ele>127.5</ele>
        <time>2022-03-01T03:36:07.670Z</time>
      </trkpt>
      <trkpt lat="48.2071" lon="-3.01405">
        <ele>127.2</ele>
        <time>2022-03-01T03:36:08.387Z</time>
      </trkpt>
      <trkpt lat="48.20716" lon="-3.01408">
        <ele>127.5</ele>
        <time>2022-03-01T03:36:17.252Z</time>
      </trkpt>
      <trkpt lat="48.2072" lon="-3.01405">
        <ele>129</ele>
        <time>2022-03-01T03:36:31.312Z</time>
      </trkpt>
      <trkpt lat="48.20726" lon="-3.01407">
        <ele>129.6</ele>
        <time>2022-03-01T03:36:44.045Z</time>
      </trkpt>
      <trkpt lat="48.2073" lon="-3.01401">
        <ele>131.8</ele>
        <time>2022-03-01T03:37:01.827Z</time>
      </trkpt>
      <trkpt lat="48.20735" lon="-3.01394">
        <ele>134</ele>
        <time>2022-03-01T03:37:23.327Z</time>
      </trkpt>
      <trkpt lat="48.20739" lon="-3.01392">
        <ele>134.7</ele>
        <time>2022-03-01T03:37:36.583Z</time>
      </trkpt>
      <trkpt lat="48.20743" lon="-3.01389">
        <ele>135.5</ele>
        <time>2022-03-01T03:37:50.643Z</time>
      </trkpt>
      <trkpt lat="48.20746" lon="-3.0139">
        <ele>135.6</ele>
        <time>2022-03-01T03:37:54.211Z</time>
      </trkpt>
      <trkpt lat="48.20753" lon="-3.01394">
        <ele>136.1</ele>
        <time>2022-03-01T03:38:06.204Z</time>
      </trkpt>
      <trkpt lat="48.20759" lon="-3.01394">
        <ele>137</ele>
        <time>2022-03-01T03:38:25.068Z</time>
      </trkpt>
      <trkpt lat="48.20766" lon="-3.01395">
        <ele>138</ele>
        <time>2022-03-01T03:38:47.176Z</time>
      </trkpt>
      <trkpt lat="48.20775" lon="-3.014">
        <ele>139.2</ele>
        <time>2022-03-01T03:39:14.084Z</time>
      </trkpt>
      <trkpt lat="48.20781" lon="-3.01395">
        <ele>139.6</ele>
        <time>2022-03-01T03:39:24.427Z</time>
      </trkpt>
      <trkpt lat="48.20783" lon="-3.01391">
        <ele>139.7</ele>
        <time>2022-03-01T03:39:28.173Z</time>
      </trkpt>
      <trkpt lat="48.20783" lon="-3.01389">
        <ele>139.8</ele>
        <time>2022-03-01T03:39:30.446Z</time>
        <extensions>
          <visugpx:TrkExtension xmlns:visugpx="https://www.visugpx.com/editgpx/">
            <visugpx:node>54</visugpx:node>
            </visugpx:TrkExtension>
        </extensions>
      </trkpt>
      <trkpt lat="48.20785" lon="-3.01379">
        <ele>140.1</ele>
        <time>2022-03-01T03:39:39.819Z</time>
      </trkpt>
      <trkpt lat="48.20792" lon="-3.01361">
        <ele>140.5</ele>
        <time>2022-03-01T03:39:55.197Z</time>
      </trkpt>
      <trkpt lat="48.20798" lon="-3.01345">
        <ele>140.4</ele>
        <time>2022-03-01T03:39:59.200Z</time>
      </trkpt>
      <trkpt lat="48.20797" lon="-3.01323">
        <ele>141.2</ele>
        <time>2022-03-01T03:40:20.772Z</time>
      </trkpt>
      <trkpt lat="48.20807" lon="-3.01322">
        <ele>140.7</ele>
        <time>2022-03-01T03:40:22.863Z</time>
      </trkpt>
      <trkpt lat="48.20839" lon="-3.01324">
        <ele>138.9</ele>
        <time>2022-03-01T03:40:29.198Z</time>
      </trkpt>
      <trkpt lat="48.20847" lon="-3.01317">
        <ele>138.6</ele>
        <time>2022-03-01T03:40:31.477Z</time>
      </trkpt>
      <trkpt lat="48.20852" lon="-3.01314">
        <ele>138.4</ele>
        <time>2022-03-01T03:40:32.740Z</time>
      </trkpt>
      <trkpt lat="48.20859" lon="-3.0131">
        <ele>138</ele>
        <time>2022-03-01T03:40:34.256Z</time>
      </trkpt>
      <trkpt lat="48.20889" lon="-3.01309">
        <ele>134</ele>
        <time>2022-03-01T03:40:40.221Z</time>
      </trkpt>
      <trkpt lat="48.20949" lon="-3.01309">
        <ele>126.7</ele>
        <time>2022-03-01T03:40:52.148Z</time>
      </trkpt>
      <trkpt lat="48.20972" lon="-3.01307">
        <ele>125</ele>
        <time>2022-03-01T03:40:56.728Z</time>
        <extensions>
          <visugpx:TrkExtension xmlns:visugpx="https://www.visugpx.com/editgpx/">
            <visugpx:node>55</visugpx:node>
            </visugpx:TrkExtension>
        </extensions>
      </trkpt>
      <trkpt lat="48.20972" lon="-3.01211">
        <ele>125</ele>
        <time>2022-03-01T03:41:48.876Z</time>
      </trkpt>
      <trkpt lat="48.20973" lon="-3.01125">
        <ele>125.9</ele>
        <time>2022-03-01T03:42:43.446Z</time>
      </trkpt>
      <trkpt lat="48.20972" lon="-3.01091">
        <ele>126.8</ele>
        <time>2022-03-01T03:43:12.490Z</time>
      </trkpt>
      <trkpt lat="48.20971" lon="-3.01042">
        <ele>127.7</ele>
        <time>2022-03-01T03:43:48.107Z</time>
      </trkpt>
      <trkpt lat="48.20971" lon="-3.01029">
        <ele>128.1</ele>
        <time>2022-03-01T03:44:00.153Z</time>
      </trkpt>
      <trkpt lat="48.20973" lon="-3.01029">
        <ele>127.9</ele>
        <time>2022-03-01T03:44:00.550Z</time>
        <extensions>
          <visugpx:TrkExtension xmlns:visugpx="https://www.visugpx.com/editgpx/">
            <visugpx:node>56</visugpx:node>
            </visugpx:TrkExtension>
        </extensions>
      </trkpt>
      <trkpt lat="48.20991" lon="-3.01024">
        <ele>126</ele>
        <time>2022-03-01T03:44:04.189Z</time>
      </trkpt>
      <trkpt lat="48.20996" lon="-3.01023">
        <ele>125.5</ele>
        <time>2022-03-01T03:44:05.192Z</time>
      </trkpt>
      <trkpt lat="48.20999" lon="-3.01024">
        <ele>125.1</ele>
        <time>2022-03-01T03:44:05.803Z</time>
      </trkpt>
      <trkpt lat="48.21001" lon="-3.01027">
        <ele>125</ele>
        <time>2022-03-01T03:44:06.478Z</time>
      </trkpt>
      <trkpt lat="48.21003" lon="-3.0103">
        <ele>124.9</ele>
        <time>2022-03-01T03:44:07.153Z</time>
      </trkpt>
      <trkpt lat="48.21005" lon="-3.01035">
        <ele>124.8</ele>
        <time>2022-03-01T03:44:08.179Z</time>
      </trkpt>
      <trkpt lat="48.21008" lon="-3.01041">
        <ele>124.7</ele>
        <time>2022-03-01T03:44:09.588Z</time>
      </trkpt>
      <trkpt lat="48.21018" lon="-3.01058">
        <ele>124.6</ele>
        <time>2022-03-01T03:44:20.771Z</time>
      </trkpt>
      <trkpt lat="48.21037" lon="-3.0108">
        <ele>124.4</ele>
        <time>2022-03-01T03:44:28.605Z</time>
      </trkpt>
      <trkpt lat="48.21054" lon="-3.01097">
        <ele>124</ele>
        <time>2022-03-01T03:44:34.390Z</time>
      </trkpt>
      <trkpt lat="48.21059" lon="-3.01103">
        <ele>123.8</ele>
        <time>2022-03-01T03:44:35.984Z</time>
      </trkpt>
      <trkpt lat="48.21084" lon="-3.01127">
        <ele>123.9</ele>
        <time>2022-03-01T03:45:00.945Z</time>
      </trkpt>
      <trkpt lat="48.21109" lon="-3.01148">
        <ele>123.9</ele>
        <time>2022-03-01T03:45:24.299Z</time>
      </trkpt>
      <trkpt lat="48.21126" lon="-3.01161">
        <ele>123.8</ele>
        <time>2022-03-01T03:45:38.695Z</time>
      </trkpt>
      <trkpt lat="48.2114" lon="-3.0117">
        <ele>124.6</ele>
        <time>2022-03-01T03:46:00.769Z</time>
      </trkpt>
      <trkpt lat="48.21154" lon="-3.01173">
        <ele>124.6</ele>
        <time>2022-03-01T03:46:12.296Z</time>
      </trkpt>
      <trkpt lat="48.21173" lon="-3.01175">
        <ele>124.6</ele>
        <time>2022-03-01T03:46:27.821Z</time>
      </trkpt>
      <trkpt lat="48.21196" lon="-3.01176">
        <ele>124.4</ele>
        <time>2022-03-01T03:46:35.296Z</time>
      </trkpt>
      <trkpt lat="48.21207" lon="-3.01176">
        <ele>124.6</ele>
        <time>2022-03-01T03:46:46.054Z</time>
      </trkpt>
      <trkpt lat="48.21274" lon="-3.01179">
        <ele>127.2</ele>
        <time>2022-03-01T03:48:10.802Z</time>
      </trkpt>
      <trkpt lat="48.21274" lon="-3.01178">
        <ele>127.2</ele>
        <time>2022-03-01T03:48:11.345Z</time>
        <extensions>
          <visugpx:TrkExtension xmlns:visugpx="https://www.visugpx.com/editgpx/">
            <visugpx:node>57</visugpx:node>
            </visugpx:TrkExtension>
        </extensions>
      </trkpt>
      <trkpt lat="48.21274" lon="-3.01179">
        <ele>127.2</ele>
        <time>2022-03-01T03:48:11.889Z</time>
      </trkpt>
      <trkpt lat="48.21276" lon="-3.01195">
        <ele>127.9</ele>
        <time>2022-03-01T03:48:28.976Z</time>
      </trkpt>
      <trkpt lat="48.21281" lon="-3.01229">
        <ele>129.5</ele>
        <time>2022-03-01T03:49:06.736Z</time>
      </trkpt>
      <trkpt lat="48.21283" lon="-3.01242">
        <ele>130.1</ele>
        <time>2022-03-01T03:49:21.048Z</time>
      </trkpt>
      <trkpt lat="48.21286" lon="-3.01258">
        <ele>130.8</ele>
        <time>2022-03-01T03:49:38.329Z</time>
      </trkpt>
      <trkpt lat="48.2129" lon="-3.01272">
        <ele>131.3</ele>
        <time>2022-03-01T03:49:52.726Z</time>
      </trkpt>
      <trkpt lat="48.21294" lon="-3.01282">
        <ele>131.7</ele>
        <time>2022-03-01T03:50:03.911Z</time>
      </trkpt>
      <trkpt lat="48.21302" lon="-3.01305">
        <ele>132.9</ele>
        <time>2022-03-01T03:50:32.143Z</time>
      </trkpt>
      <trkpt lat="48.21308" lon="-3.01321">
        <ele>133.6</ele>
        <time>2022-03-01T03:50:50.445Z</time>
      </trkpt>
      <trkpt lat="48.2131" lon="-3.01332">
        <ele>134.1</ele>
        <time>2022-03-01T03:51:02.526Z</time>
      </trkpt>
      <trkpt lat="48.21314" lon="-3.01351">
        <ele>134.5</ele>
        <time>2022-03-01T03:51:17.473Z</time>
      </trkpt>
      <trkpt lat="48.2132" lon="-3.01394">
        <ele>135.5</ele>
        <time>2022-03-01T03:51:52.202Z</time>
      </trkpt>
      <trkpt lat="48.21324" lon="-3.01417">
        <ele>135.7</ele>
        <time>2022-03-01T03:52:06.802Z</time>
      </trkpt>
      <trkpt lat="48.2133" lon="-3.01436">
        <ele>135.9</ele>
        <time>2022-03-01T03:52:19.940Z</time>
      </trkpt>
      <trkpt lat="48.21338" lon="-3.01459">
        <ele>135.7</ele>
        <time>2022-03-01T03:52:25.346Z</time>
      </trkpt>
      <trkpt lat="48.21348" lon="-3.01485">
        <ele>136.1</ele>
        <time>2022-03-01T03:52:45.308Z</time>
      </trkpt>
      <trkpt lat="48.21354" lon="-3.01501">
        <ele>136.5</ele>
        <time>2022-03-01T03:52:59.544Z</time>
      </trkpt>
      <trkpt lat="48.21358" lon="-3.01513">
        <ele>136.3</ele>
        <time>2022-03-01T03:53:01.995Z</time>
      </trkpt>
      <trkpt lat="48.21361" lon="-3.01528">
        <ele>136</ele>
        <time>2022-03-01T03:53:04.662Z</time>
      </trkpt>
      <trkpt lat="48.21363" lon="-3.01545">
        <ele>135.5</ele>
        <time>2022-03-01T03:53:07.204Z</time>
      </trkpt>
      <trkpt lat="48.21363" lon="-3.01577">
        <ele>135.1</ele>
        <time>2022-03-01T03:53:13.301Z</time>
      </trkpt>
      <trkpt lat="48.21363" lon="-3.01622">
        <ele>135.2</ele>
        <time>2022-03-01T03:53:38.513Z</time>
      </trkpt>
      <trkpt lat="48.21362" lon="-3.01648">
        <ele>135.1</ele>
        <time>2022-03-01T03:53:51.511Z</time>
      </trkpt>
      <trkpt lat="48.21359" lon="-3.01664">
        <ele>134.8</ele>
        <time>2022-03-01T03:53:54.393Z</time>
      </trkpt>
      <trkpt lat="48.21354" lon="-3.0168">
        <ele>134.8</ele>
        <time>2022-03-01T03:54:03.991Z</time>
      </trkpt>
      <trkpt lat="48.21348" lon="-3.01691">
        <ele>134.5</ele>
        <time>2022-03-01T03:54:06.339Z</time>
      </trkpt>
      <trkpt lat="48.21341" lon="-3.01705">
        <ele>133.7</ele>
        <time>2022-03-01T03:54:08.658Z</time>
      </trkpt>
      <trkpt lat="48.21332" lon="-3.01726">
        <ele>132.9</ele>
        <time>2022-03-01T03:54:12.184Z</time>
      </trkpt>
      <trkpt lat="48.21326" lon="-3.01741">
        <ele>132.5</ele>
        <time>2022-03-01T03:54:14.997Z</time>
      </trkpt>
      <trkpt lat="48.21319" lon="-3.01766">
        <ele>131.4</ele>
        <time>2022-03-01T03:54:18.439Z</time>
      </trkpt>
      <trkpt lat="48.21307" lon="-3.01812">
        <ele>129.9</ele>
        <time>2022-03-01T03:54:25.575Z</time>
      </trkpt>
      <trkpt lat="48.21306" lon="-3.01819">
        <ele>129.5</ele>
        <time>2022-03-01T03:54:26.523Z</time>
      </trkpt>
      <trkpt lat="48.21306" lon="-3.01825">
        <ele>129.3</ele>
        <time>2022-03-01T03:54:27.356Z</time>
      </trkpt>
      <trkpt lat="48.21307" lon="-3.0183">
        <ele>129.2</ele>
        <time>2022-03-01T03:54:28.245Z</time>
        <extensions>
          <visugpx:TrkExtension xmlns:visugpx="https://www.visugpx.com/editgpx/">
            <visugpx:node>58</visugpx:node>
            </visugpx:TrkExtension>
        </extensions>
      </trkpt>
      <trkpt lat="48.21306" lon="-3.01825">
        <ele>129.3</ele>
        <time>2022-03-01T03:54:32.094Z</time>
      </trkpt>
      <trkpt lat="48.21306" lon="-3.01819">
        <ele>129.5</ele>
        <time>2022-03-01T03:54:37.793Z</time>
      </trkpt>
      <trkpt lat="48.21302" lon="-3.01827">
        <ele>129.1</ele>
        <time>2022-03-01T03:54:39.072Z</time>
      </trkpt>
      <trkpt lat="48.21295" lon="-3.01844">
        <ele>128.1</ele>
        <time>2022-03-01T03:54:41.719Z</time>
      </trkpt>
      <trkpt lat="48.21273" lon="-3.01929">
        <ele>124.8</ele>
        <time>2022-03-01T03:54:53.928Z</time>
      </trkpt>
      <trkpt lat="48.21269" lon="-3.01946">
        <ele>124.4</ele>
        <time>2022-03-01T03:54:56.856Z</time>
      </trkpt>
      <trkpt lat="48.21269" lon="-3.01959">
        <ele>124.4</ele>
        <time>2022-03-01T03:55:03.917Z</time>
      </trkpt>
      <trkpt lat="48.21272" lon="-3.01967">
        <ele>124.6</ele>
        <time>2022-03-01T03:55:11.035Z</time>
      </trkpt>
      <trkpt lat="48.21283" lon="-3.01998">
        <ele>124.3</ele>
        <time>2022-03-01T03:55:18.236Z</time>
      </trkpt>
      <trkpt lat="48.21295" lon="-3.02032">
        <ele>124.1</ele>
        <time>2022-03-01T03:55:26.666Z</time>
      </trkpt>
      <trkpt lat="48.21306" lon="-3.02057">
        <ele>124</ele>
        <time>2022-03-01T03:55:41.779Z</time>
      </trkpt>
      <trkpt lat="48.21312" lon="-3.02079">
        <ele>124.3</ele>
        <time>2022-03-01T03:55:57.401Z</time>
      </trkpt>
      <trkpt lat="48.21311" lon="-3.02099">
        <ele>124.2</ele>
        <time>2022-03-01T03:56:01.815Z</time>
      </trkpt>
      <trkpt lat="48.21311" lon="-3.02122">
        <ele>124.2</ele>
        <time>2022-03-01T03:56:14.307Z</time>
      </trkpt>
      <trkpt lat="48.21308" lon="-3.0214">
        <ele>124.1</ele>
        <time>2022-03-01T03:56:18.357Z</time>
      </trkpt>
      <trkpt lat="48.21302" lon="-3.02156">
        <ele>123.9</ele>
        <time>2022-03-01T03:56:21.958Z</time>
      </trkpt>
      <trkpt lat="48.21302" lon="-3.02162">
        <ele>123.9</ele>
        <time>2022-03-01T03:56:25.217Z</time>
      </trkpt>
      <trkpt lat="48.21304" lon="-3.02173">
        <ele>123.9</ele>
        <time>2022-03-01T03:56:31.411Z</time>
      </trkpt>
      <trkpt lat="48.21304" lon="-3.02181">
        <ele>123.9</ele>
        <time>2022-03-01T03:56:35.756Z</time>
      </trkpt>
      <trkpt lat="48.2129" lon="-3.02202">
        <ele>123.7</ele>
        <time>2022-03-01T03:56:42.066Z</time>
      </trkpt>
      <trkpt lat="48.21254" lon="-3.02252">
        <ele>124.2</ele>
        <time>2022-03-01T03:57:26.167Z</time>
      </trkpt>
      <trkpt lat="48.21244" lon="-3.02266">
        <ele>124.2</ele>
        <time>2022-03-01T03:57:37.315Z</time>
      </trkpt>
      <trkpt lat="48.21241" lon="-3.02278">
        <ele>124.4</ele>
        <time>2022-03-01T03:57:46.177Z</time>
      </trkpt>
      <trkpt lat="48.21223" lon="-3.02341">
        <ele>124.1</ele>
        <time>2022-03-01T03:58:20.006Z</time>
      </trkpt>
      <trkpt lat="48.21214" lon="-3.02376">
        <ele>124.2</ele>
        <time>2022-03-01T03:58:41.158Z</time>
      </trkpt>
      <trkpt lat="48.21196" lon="-3.02424">
        <ele>124.1</ele>
        <time>2022-03-01T03:59:09.877Z</time>
      </trkpt>
      <trkpt lat="48.21169" lon="-3.02465">
        <ele>123.8</ele>
        <time>2022-03-01T03:59:22.506Z</time>
      </trkpt>
      <trkpt lat="48.21143" lon="-3.02478">
        <ele>124</ele>
        <time>2022-03-01T03:59:46.445Z</time>
      </trkpt>
      <trkpt lat="48.2112" lon="-3.02467">
        <ele>123.8</ele>
        <time>2022-03-01T03:59:54.330Z</time>
      </trkpt>
      <trkpt lat="48.21092" lon="-3.0247">
        <ele>123.9</ele>
        <time>2022-03-01T04:00:17.983Z</time>
      </trkpt>
      <trkpt lat="48.21064" lon="-3.02482">
        <ele>124.5</ele>
        <time>2022-03-01T04:00:47.241Z</time>
      </trkpt>
      <trkpt lat="48.21046" lon="-3.02494">
        <ele>124.7</ele>
        <time>2022-03-01T04:01:04.943Z</time>
      </trkpt>
      <trkpt lat="48.21023" lon="-3.02501">
        <ele>124.9</ele>
        <time>2022-03-01T04:01:25.692Z</time>
      </trkpt>
      <trkpt lat="48.21008" lon="-3.02506">
        <ele>124.7</ele>
        <time>2022-03-01T04:01:30.408Z</time>
        <extensions>
          <visugpx:TrkExtension xmlns:visugpx="https://www.visugpx.com/editgpx/">
            <visugpx:node>59</visugpx:node>
            </visugpx:TrkExtension>
        </extensions>
      </trkpt>
      <trkpt lat="48.21023" lon="-3.02599">
        <ele>130.9</ele>
        <time>2022-03-01T04:03:42.022Z</time>
      </trkpt>
      <trkpt lat="48.21023" lon="-3.02601">
        <ele>131</ele>
        <time>2022-03-01T04:03:44.294Z</time>
        <extensions>
          <visugpx:TrkExtension xmlns:visugpx="https://www.visugpx.com/editgpx/">
            <visugpx:node>60</visugpx:node>
            </visugpx:TrkExtension>
        </extensions>
      </trkpt>
      <trkpt lat="48.21023" lon="-3.02599">
        <ele>130.9</ele>
        <time>2022-03-01T04:03:44.559Z</time>
      </trkpt>
      <trkpt lat="48.20987" lon="-3.02588">
        <ele>128.8</ele>
        <time>2022-03-01T04:03:51.769Z</time>
      </trkpt>
      <trkpt lat="48.20941" lon="-3.02572">
        <ele>128.2</ele>
        <time>2022-03-01T04:04:06.318Z</time>
      </trkpt>
      <trkpt lat="48.20932" lon="-3.02564">
        <ele>127.9</ele>
        <time>2022-03-01T04:04:08.994Z</time>
      </trkpt>
      <trkpt lat="48.20926" lon="-3.02548">
        <ele>127.2</ele>
        <time>2022-03-01T04:04:11.394Z</time>
      </trkpt>
      <trkpt lat="48.20908" lon="-3.025">
        <ele>125.6</ele>
        <time>2022-03-01T04:04:19.495Z</time>
      </trkpt>
      <trkpt lat="48.20881" lon="-3.0242">
        <ele>126.9</ele>
        <time>2022-03-01T04:05:20.328Z</time>
      </trkpt>
      <trkpt lat="48.20863" lon="-3.02372">
        <ele>127.3</ele>
        <time>2022-03-01T04:05:53.565Z</time>
      </trkpt>
      <trkpt lat="48.20843" lon="-3.02325">
        <ele>127</ele>
        <time>2022-03-01T04:06:05.739Z</time>
      </trkpt>
      <trkpt lat="48.20821" lon="-3.0228">
        <ele>127.9</ele>
        <time>2022-03-01T04:06:44.689Z</time>
      </trkpt>
      <trkpt lat="48.208" lon="-3.02235">
        <ele>127.6</ele>
        <time>2022-03-01T04:06:56.663Z</time>
      </trkpt>
      <trkpt lat="48.20785" lon="-3.02213">
        <ele>129.1</ele>
        <time>2022-03-01T04:07:31.464Z</time>
      </trkpt>
      <trkpt lat="48.20783" lon="-3.02206">
        <ele>129</ele>
        <time>2022-03-01T04:07:32.900Z</time>
      </trkpt>
      <trkpt lat="48.20773" lon="-3.02194">
        <ele>129.7</ele>
        <time>2022-03-01T04:07:51.725Z</time>
      </trkpt>
      <trkpt lat="48.20766" lon="-3.02179">
        <ele>129.6</ele>
        <time>2022-03-01T04:07:55.717Z</time>
      </trkpt>
      <trkpt lat="48.2076" lon="-3.02161">
        <ele>129</ele>
        <time>2022-03-01T04:07:58.646Z</time>
      </trkpt>
      <trkpt lat="48.20753" lon="-3.02133">
        <ele>127.5</ele>
        <time>2022-03-01T04:08:02.608Z</time>
      </trkpt>
      <trkpt lat="48.20745" lon="-3.02113">
        <ele>128</ele>
        <time>2022-03-01T04:08:20.572Z</time>
      </trkpt>
      <trkpt lat="48.2073" lon="-3.02088">
        <ele>129.2</ele>
        <time>2022-03-01T04:08:53.280Z</time>
      </trkpt>
      <trkpt lat="48.20716" lon="-3.02054">
        <ele>130.3</ele>
        <time>2022-03-01T04:09:28.201Z</time>
      </trkpt>
      <trkpt lat="48.20703" lon="-3.02019">
        <ele>132.3</ele>
        <time>2022-03-01T04:10:13.680Z</time>
      </trkpt>
      <trkpt lat="48.20691" lon="-3.01984">
        <ele>132</ele>
        <time>2022-03-01T04:10:21.897Z</time>
      </trkpt>
      <trkpt lat="48.20681" lon="-3.01951">
        <ele>132</ele>
        <time>2022-03-01T04:10:41.589Z</time>
      </trkpt>
      <trkpt lat="48.20672" lon="-3.01922">
        <ele>132</ele>
        <time>2022-03-01T04:10:58.967Z</time>
      </trkpt>
      <trkpt lat="48.20661" lon="-3.01882">
        <ele>132.5</ele>
        <time>2022-03-01T04:11:26.912Z</time>
      </trkpt>
      <trkpt lat="48.20656" lon="-3.01854">
        <ele>132.4</ele>
        <time>2022-03-01T04:11:41.502Z</time>
      </trkpt>
      <trkpt lat="48.20651" lon="-3.01821">
        <ele>132.7</ele>
        <time>2022-03-01T04:12:02.437Z</time>
      </trkpt>
      <trkpt lat="48.2065" lon="-3.01796">
        <ele>132.4</ele>
        <time>2022-03-01T04:12:07.255Z</time>
      </trkpt>
      <trkpt lat="48.20649" lon="-3.01775">
        <ele>133</ele>
        <time>2022-03-01T04:12:26.056Z</time>
      </trkpt>
      <trkpt lat="48.20649" lon="-3.0175">
        <ele>133.5</ele>
        <time>2022-03-01T04:12:44.785Z</time>
      </trkpt>
      <trkpt lat="48.2065" lon="-3.01739">
        <ele>133.5</ele>
        <time>2022-03-01T04:12:50.816Z</time>
      </trkpt>
      <trkpt lat="48.20652" lon="-3.01731">
        <ele>132.6</ele>
        <time>2022-03-01T04:12:51.948Z</time>
      </trkpt>
      <trkpt lat="48.20651" lon="-3.01717">
        <ele>133.3</ele>
        <time>2022-03-01T04:13:07.892Z</time>
      </trkpt>
      <trkpt lat="48.20648" lon="-3.01698">
        <ele>134</ele>
        <time>2022-03-01T04:13:26.912Z</time>
      </trkpt>
      <trkpt lat="48.20645" lon="-3.01681">
        <ele>134.2</ele>
        <time>2022-03-01T04:13:38.235Z</time>
      </trkpt>
      <trkpt lat="48.2064" lon="-3.01659">
        <ele>133.9</ele>
        <time>2022-03-01T04:13:42.633Z</time>
      </trkpt>
      <trkpt lat="48.20635" lon="-3.01642">
        <ele>132.6</ele>
        <time>2022-03-01T04:13:45.095Z</time>
      </trkpt>
      <trkpt lat="48.2063" lon="-3.0162">
        <ele>132.7</ele>
        <time>2022-03-01T04:13:58.515Z</time>
      </trkpt>
      <trkpt lat="48.2063" lon="-3.01606">
        <ele>131.6</ele>
        <time>2022-03-01T04:14:00.370Z</time>
      </trkpt>
      <trkpt lat="48.2063" lon="-3.01588">
        <ele>130.7</ele>
        <time>2022-03-01T04:14:02.755Z</time>
      </trkpt>
      <trkpt lat="48.20629" lon="-3.01568">
        <ele>129.5</ele>
        <time>2022-03-01T04:14:05.412Z</time>
      </trkpt>
      <trkpt lat="48.20628" lon="-3.01556">
        <ele>128.7</ele>
        <time>2022-03-01T04:14:07.014Z</time>
      </trkpt>
      <trkpt lat="48.20625" lon="-3.01546">
        <ele>128.6</ele>
        <time>2022-03-01T04:14:09.238Z</time>
      </trkpt>
      <trkpt lat="48.20625" lon="-3.01545">
        <ele>128.5</ele>
        <time>2022-03-01T04:14:09.370Z</time>
        <extensions>
          <visugpx:TrkExtension xmlns:visugpx="https://www.visugpx.com/editgpx/">
            <visugpx:node>61</visugpx:node>
            </visugpx:TrkExtension>
        </extensions>
      </trkpt>
      <trkpt lat="48.2062" lon="-3.01536">
        <ele>128.6</ele>
        <time>2022-03-01T04:14:16.581Z</time>
      </trkpt>
      <trkpt lat="48.20613" lon="-3.01528">
        <ele>128.6</ele>
        <time>2022-03-01T04:14:23.754Z</time>
      </trkpt>
      <trkpt lat="48.20605" lon="-3.01523">
        <ele>127.1</ele>
        <time>2022-03-01T04:14:25.477Z</time>
      </trkpt>
      <trkpt lat="48.20595" lon="-3.0152">
        <ele>125.4</ele>
        <time>2022-03-01T04:14:27.504Z</time>
      </trkpt>
      <trkpt lat="48.20584" lon="-3.01521">
        <ele>124.3</ele>
        <time>2022-03-01T04:14:29.694Z</time>
      </trkpt>
      <trkpt lat="48.20572" lon="-3.01523">
        <ele>125.6</ele>
        <time>2022-03-01T04:14:57.355Z</time>
      </trkpt>
      <trkpt lat="48.20559" lon="-3.01523">
        <ele>126.8</ele>
        <time>2022-03-01T04:15:22.990Z</time>
      </trkpt>
      <trkpt lat="48.20554" lon="-3.01521">
        <ele>127</ele>
        <time>2022-03-01T04:15:29.520Z</time>
      </trkpt>
      <trkpt lat="48.20547" lon="-3.01518">
        <ele>127.6</ele>
        <time>2022-03-01T04:15:42.694Z</time>
      </trkpt>
      <trkpt lat="48.20539" lon="-3.01515">
        <ele>128.1</ele>
        <time>2022-03-01T04:15:55.327Z</time>
      </trkpt>
      <trkpt lat="48.2053" lon="-3.01514">
        <ele>129.2</ele>
        <time>2022-03-01T04:16:19.643Z</time>
      </trkpt>
      <trkpt lat="48.20516" lon="-3.01521">
        <ele>128.4</ele>
        <time>2022-03-01T04:16:22.611Z</time>
      </trkpt>
      <trkpt lat="48.20502" lon="-3.01534">
        <ele>127.3</ele>
        <time>2022-03-01T04:16:25.884Z</time>
      </trkpt>
      <trkpt lat="48.20484" lon="-3.01548">
        <ele>128.3</ele>
        <time>2022-03-01T04:16:54.653Z</time>
      </trkpt>
      <trkpt lat="48.20465" lon="-3.01561">
        <ele>129.5</ele>
        <time>2022-03-01T04:17:25.947Z</time>
      </trkpt>
      <trkpt lat="48.20448" lon="-3.01569">
        <ele>131.1</ele>
        <time>2022-03-01T04:18:00.300Z</time>
      </trkpt>
      <trkpt lat="48.20433" lon="-3.01571">
        <ele>130.9</ele>
        <time>2022-03-01T04:18:04.906Z</time>
      </trkpt>
      <trkpt lat="48.20412" lon="-3.01578">
        <ele>133</ele>
        <time>2022-03-01T04:18:49.472Z</time>
      </trkpt>
      <trkpt lat="48.20401" lon="-3.01581">
        <ele>135.6</ele>
        <time>2022-03-01T04:19:24.623Z</time>
      </trkpt>
      <trkpt lat="48.20392" lon="-3.01583">
        <ele>137.5</ele>
        <time>2022-03-01T04:19:53.228Z</time>
      </trkpt>
      <trkpt lat="48.20373" lon="-3.01593">
        <ele>134.6</ele>
        <time>2022-03-01T04:19:57.231Z</time>
      </trkpt>
      <trkpt lat="48.20363" lon="-3.01606">
        <ele>135</ele>
        <time>2022-03-01T04:20:12.146Z</time>
      </trkpt>
      <trkpt lat="48.20345" lon="-3.01633">
        <ele>131.8</ele>
        <time>2022-03-01T04:20:17.206Z</time>
      </trkpt>
      <trkpt lat="48.20339" lon="-3.01646">
        <ele>129.9</ele>
        <time>2022-03-01T04:20:19.301Z</time>
      </trkpt>
      <trkpt lat="48.20333" lon="-3.01666">
        <ele>130.7</ele>
        <time>2022-03-01T04:20:40.801Z</time>
      </trkpt>
      <trkpt lat="48.20324" lon="-3.01707">
        <ele>131.7</ele>
        <time>2022-03-01T04:21:15.206Z</time>
      </trkpt>
      <trkpt lat="48.20317" lon="-3.01747">
        <ele>129.9</ele>
        <time>2022-03-01T04:21:20.278Z</time>
      </trkpt>
      <trkpt lat="48.20316" lon="-3.01768">
        <ele>129.9</ele>
        <time>2022-03-01T04:21:31.716Z</time>
      </trkpt>
      <trkpt lat="48.20316" lon="-3.01791">
        <ele>130</ele>
        <time>2022-03-01T04:21:45.005Z</time>
      </trkpt>
      <trkpt lat="48.20316" lon="-3.0181">
        <ele>129.8</ele>
        <time>2022-03-01T04:21:48.758Z</time>
      </trkpt>
      <trkpt lat="48.20319" lon="-3.0183">
        <ele>130.8</ele>
        <time>2022-03-01T04:22:11.721Z</time>
      </trkpt>
      <trkpt lat="48.20322" lon="-3.0185">
        <ele>131</ele>
        <time>2022-03-01T04:22:24.583Z</time>
      </trkpt>
      <trkpt lat="48.20322" lon="-3.01851">
        <ele>130.9</ele>
        <time>2022-03-01T04:22:24.715Z</time>
      </trkpt>
      <trkpt lat="48.20326" lon="-3.01913">
        <ele>129.8</ele>
        <time>2022-03-01T04:22:35.585Z</time>
      </trkpt>
      <trkpt lat="48.20329" lon="-3.01931">
        <ele>130.1</ele>
        <time>2022-03-01T04:22:48.545Z</time>
      </trkpt>
      <trkpt lat="48.20332" lon="-3.01944">
        <ele>130.6</ele>
        <time>2022-03-01T04:23:02.013Z</time>
      </trkpt>
      <trkpt lat="48.20334" lon="-3.01963">
        <ele>128.5</ele>
        <time>2022-03-01T04:23:04.562Z</time>
      </trkpt>
      <trkpt lat="48.20333" lon="-3.01973">
        <ele>126.9</ele>
        <time>2022-03-01T04:23:05.902Z</time>
      </trkpt>
      <trkpt lat="48.20328" lon="-3.01984">
        <ele>126.1</ele>
        <time>2022-03-01T04:23:07.666Z</time>
      </trkpt>
      <trkpt lat="48.20322" lon="-3.0199">
        <ele>125.5</ele>
        <time>2022-03-01T04:23:09.099Z</time>
        <extensions>
          <visugpx:TrkExtension xmlns:visugpx="https://www.visugpx.com/editgpx/">
            <visugpx:node>62</visugpx:node>
            </visugpx:TrkExtension>
        </extensions>
      </trkpt>
      <trkpt lat="48.20315" lon="-3.01995">
        <ele>125.2</ele>
        <time>2022-03-01T04:23:10.891Z</time>
      </trkpt>
      <trkpt lat="48.20305" lon="-3.01994">
        <ele>124.7</ele>
        <time>2022-03-01T04:23:12.982Z</time>
      </trkpt>
      <trkpt lat="48.203" lon="-3.01992">
        <ele>125.7</ele>
        <time>2022-03-01T04:23:29.251Z</time>
      </trkpt>
      <trkpt lat="48.20281" lon="-3.01969">
        <ele>126.1</ele>
        <time>2022-03-01T04:23:52.664Z</time>
      </trkpt>
      <trkpt lat="48.2027" lon="-3.01958">
        <ele>127</ele>
        <time>2022-03-01T04:24:14.038Z</time>
      </trkpt>
      <trkpt lat="48.20259" lon="-3.01938">
        <ele>126.7</ele>
        <time>2022-03-01T04:24:19.063Z</time>
      </trkpt>
      <trkpt lat="48.20252" lon="-3.01925">
        <ele>125.5</ele>
        <time>2022-03-01T04:24:21.278Z</time>
      </trkpt>
      <trkpt lat="48.20247" lon="-3.01917">
        <ele>124.4</ele>
        <time>2022-03-01T04:24:22.731Z</time>
      </trkpt>
      <trkpt lat="48.2024" lon="-3.01909">
        <ele>124.2</ele>
        <time>2022-03-01T04:24:25.133Z</time>
      </trkpt>
      <trkpt lat="48.20232" lon="-3.01912">
        <ele>125.3</ele>
        <time>2022-03-01T04:24:51.045Z</time>
      </trkpt>
      <trkpt lat="48.20223" lon="-3.01916">
        <ele>126.8</ele>
        <time>2022-03-01T04:25:20.557Z</time>
      </trkpt>
      <trkpt lat="48.20208" lon="-3.01921">
        <ele>125.8</ele>
        <time>2022-03-01T04:25:23.389Z</time>
      </trkpt>
      <trkpt lat="48.202" lon="-3.01924">
        <ele>125.3</ele>
        <time>2022-03-01T04:25:24.963Z</time>
      </trkpt>
      <trkpt lat="48.20191" lon="-3.01927">
        <ele>125.6</ele>
        <time>2022-03-01T04:25:35.669Z</time>
      </trkpt>
      <trkpt lat="48.20186" lon="-3.01925">
        <ele>125.8</ele>
        <time>2022-03-01T04:25:42.198Z</time>
      </trkpt>
      <trkpt lat="48.2018" lon="-3.01914">
        <ele>125.6</ele>
        <time>2022-03-01T04:25:44.833Z</time>
      </trkpt>
      <trkpt lat="48.20177" lon="-3.01906">
        <ele>126.2</ele>
        <time>2022-03-01T04:25:57.563Z</time>
      </trkpt>
      <trkpt lat="48.20173" lon="-3.01898">
        <ele>127.2</ele>
        <time>2022-03-01T04:26:18.520Z</time>
      </trkpt>
      <trkpt lat="48.20171" lon="-3.01887">
        <ele>128</ele>
        <time>2022-03-01T04:26:35.501Z</time>
      </trkpt>
      <trkpt lat="48.20173" lon="-3.01875">
        <ele>128</ele>
        <time>2022-03-01T04:26:42.221Z</time>
      </trkpt>
      <trkpt lat="48.20176" lon="-3.01864">
        <ele>127.8</ele>
        <time>2022-03-01T04:26:44.324Z</time>
      </trkpt>
      <trkpt lat="48.20182" lon="-3.01845">
        <ele>127.3</ele>
        <time>2022-03-01T04:26:47.659Z</time>
      </trkpt>
      <trkpt lat="48.20183" lon="-3.0183">
        <ele>127.5</ele>
        <time>2022-03-01T04:26:57.675Z</time>
      </trkpt>
      <trkpt lat="48.20184" lon="-3.01808">
        <ele>126.6</ele>
        <time>2022-03-01T04:27:00.466Z</time>
      </trkpt>
      <trkpt lat="48.20183" lon="-3.01792">
        <ele>125.8</ele>
        <time>2022-03-01T04:27:02.595Z</time>
      </trkpt>
      <trkpt lat="48.20181" lon="-3.01779">
        <ele>125.1</ele>
        <time>2022-03-01T04:27:04.363Z</time>
      </trkpt>
      <trkpt lat="48.20176" lon="-3.0177">
        <ele>124.6</ele>
        <time>2022-03-01T04:27:05.814Z</time>
      </trkpt>
      <trkpt lat="48.20167" lon="-3.0177">
        <ele>125.1</ele>
        <time>2022-03-01T04:27:19.126Z</time>
      </trkpt>
      <trkpt lat="48.20157" lon="-3.01772">
        <ele>124.8</ele>
        <time>2022-03-01T04:27:21.678Z</time>
      </trkpt>
      <trkpt lat="48.2015" lon="-3.01782">
        <ele>125.3</ele>
        <time>2022-03-01T04:27:35.612Z</time>
      </trkpt>
      <trkpt lat="48.20143" lon="-3.0179">
        <ele>126</ele>
        <time>2022-03-01T04:27:51.165Z</time>
      </trkpt>
      <trkpt lat="48.20134" lon="-3.01783">
        <ele>125.1</ele>
        <time>2022-03-01T04:27:53.180Z</time>
      </trkpt>
      <trkpt lat="48.20123" lon="-3.01776">
        <ele>124.9</ele>
        <time>2022-03-01T04:27:56.681Z</time>
      </trkpt>
      <trkpt lat="48.20113" lon="-3.01776">
        <ele>125.6</ele>
        <time>2022-03-01T04:28:13.083Z</time>
      </trkpt>
      <trkpt lat="48.20103" lon="-3.01775">
        <ele>126.7</ele>
        <time>2022-03-01T04:28:36.559Z</time>
      </trkpt>
      <trkpt lat="48.20086" lon="-3.01761">
        <ele>125.6</ele>
        <time>2022-03-01T04:28:40.379Z</time>
      </trkpt>
      <trkpt lat="48.2007" lon="-3.01753">
        <ele>126.1</ele>
        <time>2022-03-01T04:28:59.251Z</time>
      </trkpt>
      <trkpt lat="48.20051" lon="-3.01755">
        <ele>128.7</ele>
        <time>2022-03-01T04:29:59.134Z</time>
      </trkpt>
      <trkpt lat="48.20031" lon="-3.01755">
        <ele>127.6</ele>
        <time>2022-03-01T04:30:03.130Z</time>
      </trkpt>
      <trkpt lat="48.20018" lon="-3.01751">
        <ele>128.7</ele>
        <time>2022-03-01T04:30:27.240Z</time>
      </trkpt>
      <trkpt lat="48.19999" lon="-3.01728">
        <ele>126.9</ele>
        <time>2022-03-01T04:30:32.093Z</time>
      </trkpt>
      <trkpt lat="48.19988" lon="-3.01714">
        <ele>126.5</ele>
        <time>2022-03-01T04:30:35.820Z</time>
      </trkpt>
      <trkpt lat="48.19974" lon="-3.01704">
        <ele>126.5</ele>
        <time>2022-03-01T04:30:48.459Z</time>
      </trkpt>
      <trkpt lat="48.1996" lon="-3.01699">
        <ele>126.2</ele>
        <time>2022-03-01T04:30:52.474Z</time>
      </trkpt>
      <trkpt lat="48.1995" lon="-3.01698">
        <ele>126.6</ele>
        <time>2022-03-01T04:31:05.351Z</time>
      </trkpt>
      <trkpt lat="48.1994" lon="-3.01693">
        <ele>126.1</ele>
        <time>2022-03-01T04:31:07.598Z</time>
      </trkpt>
      <trkpt lat="48.19935" lon="-3.01697">
        <ele>127.4</ele>
        <time>2022-03-01T04:31:25.413Z</time>
      </trkpt>
      <trkpt lat="48.19929" lon="-3.01698">
        <ele>128.1</ele>
        <time>2022-03-01T04:31:40.565Z</time>
      </trkpt>
      <trkpt lat="48.19922" lon="-3.01696">
        <ele>128</ele>
        <time>2022-03-01T04:31:42.724Z</time>
      </trkpt>
      <trkpt lat="48.19919" lon="-3.01687">
        <ele>126.5</ele>
        <time>2022-03-01T04:31:44.057Z</time>
      </trkpt>
      <trkpt lat="48.19914" lon="-3.0168">
        <ele>125.3</ele>
        <time>2022-03-01T04:31:45.417Z</time>
      </trkpt>
      <trkpt lat="48.19909" lon="-3.01676">
        <ele>124.7</ele>
        <time>2022-03-01T04:31:46.543Z</time>
      </trkpt>
      <trkpt lat="48.19902" lon="-3.01679">
        <ele>124.9</ele>
        <time>2022-03-01T04:31:54.473Z</time>
      </trkpt>
      <trkpt lat="48.19899" lon="-3.0169">
        <ele>125.3</ele>
        <time>2022-03-01T04:32:05.800Z</time>
      </trkpt>
      <trkpt lat="48.19899" lon="-3.01692">
        <ele>125.4</ele>
        <time>2022-03-01T04:32:08.073Z</time>
        <extensions>
          <visugpx:TrkExtension xmlns:visugpx="https://www.visugpx.com/editgpx/">
            <visugpx:node>63</visugpx:node>
            </visugpx:TrkExtension>
        </extensions>
      </trkpt>
      <trkpt lat="48.19898" lon="-3.01697">
        <ele>125.8</ele>
        <time>2022-03-01T04:32:16.707Z</time>
      </trkpt>
      <trkpt lat="48.19901" lon="-3.01718">
        <ele>130.2</ele>
        <time>2022-03-01T04:33:01.715Z</time>
      </trkpt>
      <trkpt lat="48.19901" lon="-3.01736">
        <ele>131.7</ele>
        <time>2022-03-01T04:33:35.348Z</time>
      </trkpt>
      <trkpt lat="48.19898" lon="-3.01758">
        <ele>131.8</ele>
        <time>2022-03-01T04:33:48.344Z</time>
      </trkpt>
      <trkpt lat="48.19892" lon="-3.01792">
        <ele>132.2</ele>
        <time>2022-03-01T04:34:10.993Z</time>
      </trkpt>
      <trkpt lat="48.19886" lon="-3.01826">
        <ele>133.8</ele>
        <time>2022-03-01T04:34:48.944Z</time>
      </trkpt>
      <trkpt lat="48.19882" lon="-3.01863">
        <ele>134.3</ele>
        <time>2022-03-01T04:35:13.881Z</time>
      </trkpt>
      <trkpt lat="48.19879" lon="-3.01888">
        <ele>133.3</ele>
        <time>2022-03-01T04:35:17.153Z</time>
      </trkpt>
      <trkpt lat="48.1988" lon="-3.01917">
        <ele>134.5</ele>
        <time>2022-03-01T04:35:47.094Z</time>
      </trkpt>
      <trkpt lat="48.19886" lon="-3.01945">
        <ele>137.2</ele>
        <time>2022-03-01T04:36:48.730Z</time>
      </trkpt>
      <trkpt lat="48.19892" lon="-3.0198">
        <ele>136.8</ele>
        <time>2022-03-01T04:36:55.799Z</time>
      </trkpt>
      <trkpt lat="48.19894" lon="-3.02013">
        <ele>135.8</ele>
        <time>2022-03-01T04:37:00.599Z</time>
      </trkpt>
      <trkpt lat="48.19889" lon="-3.02044">
        <ele>130.9</ele>
        <time>2022-03-01T04:37:04.825Z</time>
      </trkpt>
      <trkpt lat="48.19893" lon="-3.02068">
        <ele>130.7</ele>
        <time>2022-03-01T04:37:09.944Z</time>
      </trkpt>
      <trkpt lat="48.19894" lon="-3.02093">
        <ele>129.1</ele>
        <time>2022-03-01T04:37:13.262Z</time>
      </trkpt>
      <trkpt lat="48.19893" lon="-3.02119">
        <ele>127.6</ele>
        <time>2022-03-01T04:37:16.713Z</time>
      </trkpt>
      <trkpt lat="48.19888" lon="-3.02142">
        <ele>126.1</ele>
        <time>2022-03-01T04:37:19.918Z</time>
      </trkpt>
      <trkpt lat="48.19886" lon="-3.02182">
        <ele>127.9</ele>
        <time>2022-03-01T04:38:02.905Z</time>
      </trkpt>
      <trkpt lat="48.19879" lon="-3.0225">
        <ele>126.5</ele>
        <time>2022-03-01T04:38:14.408Z</time>
      </trkpt>
      <trkpt lat="48.19876" lon="-3.02267">
        <ele>126.4</ele>
        <time>2022-03-01T04:38:18.224Z</time>
        <extensions>
          <visugpx:TrkExtension xmlns:visugpx="https://www.visugpx.com/editgpx/">
            <visugpx:node>64</visugpx:node>
            </visugpx:TrkExtension>
        </extensions>
      </trkpt>
      <trkpt lat="48.19873" lon="-3.02279">
        <ele>126.1</ele>
        <time>2022-03-01T04:38:20.269Z</time>
      </trkpt>
      <trkpt lat="48.19883" lon="-3.02295">
        <ele>130</ele>
        <time>2022-03-01T04:39:06.234Z</time>
      </trkpt>
      <trkpt lat="48.19895" lon="-3.02314">
        <ele>134.8</ele>
        <time>2022-03-01T04:40:01.087Z</time>
      </trkpt>
      <trkpt lat="48.19901" lon="-3.02329">
        <ele>138.1</ele>
        <time>2022-03-01T04:40:37.748Z</time>
      </trkpt>
      <trkpt lat="48.19914" lon="-3.0234">
        <ele>142.3</ele>
        <time>2022-03-01T04:41:24.673Z</time>
      </trkpt>
      <trkpt lat="48.19933" lon="-3.02358">
        <ele>145.9</ele>
        <time>2022-03-01T04:42:35.322Z</time>
      </trkpt>
      <trkpt lat="48.19936" lon="-3.02349">
        <ele>146.5</ele>
        <time>2022-03-01T04:42:48.215Z</time>
        <extensions>
          <visugpx:TrkExtension xmlns:visugpx="https://www.visugpx.com/editgpx/">
            <visugpx:node>65</visugpx:node>
            </visugpx:TrkExtension>
        </extensions>
      </trkpt>
      <trkpt lat="48.19933" lon="-3.02358">
        <ele>145.9</ele>
        <time>2022-03-01T04:42:49.548Z</time>
      </trkpt>
      <trkpt lat="48.19938" lon="-3.02398">
        <ele>147.8</ele>
        <time>2022-03-01T04:43:34.056Z</time>
      </trkpt>
      <trkpt lat="48.19944" lon="-3.02458">
        <ele>147.9</ele>
        <time>2022-03-01T04:44:07.783Z</time>
      </trkpt>
      <trkpt lat="48.19959" lon="-3.0254">
        <ele>150.1</ele>
        <time>2022-03-01T04:45:19.470Z</time>
      </trkpt>
      <trkpt lat="48.19966" lon="-3.02599">
        <ele>148.8</ele>
        <time>2022-03-01T04:45:29.282Z</time>
      </trkpt>
      <trkpt lat="48.1997" lon="-3.02663">
        <ele>144.3</ele>
        <time>2022-03-01T04:45:37.799Z</time>
      </trkpt>
      <trkpt lat="48.19971" lon="-3.02703">
        <ele>140</ele>
        <time>2022-03-01T04:45:43.102Z</time>
      </trkpt>
      <trkpt lat="48.1997" lon="-3.02757">
        <ele>137.9</ele>
        <time>2022-03-01T04:45:50.102Z</time>
      </trkpt>
      <trkpt lat="48.19969" lon="-3.02792">
        <ele>140</ele>
        <time>2022-03-01T04:46:35.177Z</time>
      </trkpt>
      <trkpt lat="48.19972" lon="-3.02818">
        <ele>142.4</ele>
        <time>2022-03-01T04:47:30.474Z</time>
      </trkpt>
      <trkpt lat="48.19972" lon="-3.0282">
        <ele>142.5</ele>
        <time>2022-03-01T04:47:32.746Z</time>
      </trkpt>
      <trkpt lat="48.19975" lon="-3.02856">
        <ele>144.2</ele>
        <time>2022-03-01T04:48:12.500Z</time>
      </trkpt>
      <trkpt lat="48.1998" lon="-3.0289">
        <ele>144.3</ele>
        <time>2022-03-01T04:48:32.194Z</time>
      </trkpt>
      <trkpt lat="48.19976" lon="-3.02886">
        <ele>143.8</ele>
        <time>2022-03-01T04:48:33.150Z</time>
        <extensions>
          <visugpx:TrkExtension xmlns:visugpx="https://www.visugpx.com/editgpx/">
            <visugpx:node>66</visugpx:node>
            </visugpx:TrkExtension>
        </extensions>
      </trkpt>
      <trkpt lat="48.1998" lon="-3.0289">
        <ele>144.3</ele>
        <time>2022-03-01T04:48:43.754Z</time>
      </trkpt>
      <trkpt lat="48.19989" lon="-3.02908">
        <ele>144.9</ele>
        <time>2022-03-01T04:49:03.050Z</time>
      </trkpt>
      <trkpt lat="48.20016" lon="-3.02946">
        <ele>147.2</ele>
        <time>2022-03-01T04:50:00.370Z</time>
      </trkpt>
      <trkpt lat="48.2004" lon="-3.02978">
        <ele>147.8</ele>
        <time>2022-03-01T04:50:31.947Z</time>
      </trkpt>
      <trkpt lat="48.20089" lon="-3.03038">
        <ele>149.2</ele>
        <time>2022-03-01T04:51:36.613Z</time>
      </trkpt>
      <trkpt lat="48.20125" lon="-3.03083">
        <ele>151</ele>
        <time>2022-03-01T04:52:35.542Z</time>
      </trkpt>
      <trkpt lat="48.20155" lon="-3.03119">
        <ele>155.8</ele>
        <time>2022-03-01T04:54:23.129Z</time>
      </trkpt>
      <trkpt lat="48.20176" lon="-3.03136">
        <ele>160.4</ele>
        <time>2022-03-01T04:55:38.152Z</time>
      </trkpt>
      <trkpt lat="48.20205" lon="-3.03161">
        <ele>162.6</ele>
        <time>2022-03-01T04:56:31.318Z</time>
      </trkpt>
      <trkpt lat="48.20251" lon="-3.032">
        <ele>166.1</ele>
        <time>2022-03-01T04:57:55.594Z</time>
      </trkpt>
      <trkpt lat="48.2028" lon="-3.03221">
        <ele>166.5</ele>
        <time>2022-03-01T04:58:25.211Z</time>
      </trkpt>
      <trkpt lat="48.20308" lon="-3.03236">
        <ele>171.5</ele>
        <time>2022-03-01T04:59:58.688Z</time>
      </trkpt>
      <trkpt lat="48.2033" lon="-3.03245">
        <ele>175.6</ele>
        <time>2022-03-01T05:01:10.382Z</time>
      </trkpt>
      <trkpt lat="48.2035" lon="-3.03245">
        <ele>177.8</ele>
        <time>2022-03-01T05:01:57.353Z</time>
      </trkpt>
      <trkpt lat="48.20367" lon="-3.0323">
        <ele>178.4</ele>
        <time>2022-03-01T05:02:19.639Z</time>
      </trkpt>
      <trkpt lat="48.20365" lon="-3.03225">
        <ele>178.2</ele>
        <time>2022-03-01T05:02:20.439Z</time>
        <extensions>
          <visugpx:TrkExtension xmlns:visugpx="https://www.visugpx.com/editgpx/">
            <visugpx:node>67</visugpx:node>
            </visugpx:TrkExtension>
        </extensions>
      </trkpt>
      <trkpt lat="48.20367" lon="-3.0323">
        <ele>178.4</ele>
        <time>2022-03-01T05:02:26.032Z</time>
      </trkpt>
      <trkpt lat="48.2039" lon="-3.03283">
        <ele>179.9</ele>
        <time>2022-03-01T05:03:17.006Z</time>
      </trkpt>
      <trkpt lat="48.2041" lon="-3.03332">
        <ele>179.4</ele>
        <time>2022-03-01T05:03:28.753Z</time>
      </trkpt>
      <trkpt lat="48.20415" lon="-3.03347">
        <ele>179.1</ele>
        <time>2022-03-01T05:03:31.669Z</time>
      </trkpt>
      <trkpt lat="48.20416" lon="-3.03362">
        <ele>179</ele>
        <time>2022-03-01T05:03:34.878Z</time>
      </trkpt>
      <trkpt lat="48.20418" lon="-3.03369">
        <ele>178.9</ele>
        <time>2022-03-01T05:03:36.313Z</time>
        <extensions>
          <visugpx:TrkExtension xmlns:visugpx="https://www.visugpx.com/editgpx/">
            <visugpx:node>68</visugpx:node>
            </visugpx:TrkExtension>
        </extensions>
      </trkpt>
      <trkpt lat="48.20416" lon="-3.03362">
        <ele>179</ele>
        <time>2022-03-01T05:03:41.362Z</time>
      </trkpt>
      <trkpt lat="48.20414" lon="-3.03375">
        <ele>178.7</ele>
        <time>2022-03-01T05:03:43.520Z</time>
      </trkpt>
      <trkpt lat="48.20413" lon="-3.03376">
        <ele>178.5</ele>
        <time>2022-03-01T05:03:43.759Z</time>
      </trkpt>
      <trkpt lat="48.2041" lon="-3.03384">
        <ele>177.6</ele>
        <time>2022-03-01T05:03:44.975Z</time>
      </trkpt>
      <trkpt lat="48.2041" lon="-3.03395">
        <ele>176.8</ele>
        <time>2022-03-01T05:03:46.432Z</time>
      </trkpt>
      <trkpt lat="48.20412" lon="-3.034">
        <ele>177</ele>
        <time>2022-03-01T05:03:52.025Z</time>
      </trkpt>
      <trkpt lat="48.20414" lon="-3.03407">
        <ele>177.3</ele>
        <time>2022-03-01T05:03:59.719Z</time>
      </trkpt>
      <trkpt lat="48.20415" lon="-3.03415">
        <ele>177.3</ele>
        <time>2022-03-01T05:04:04.141Z</time>
      </trkpt>
      <trkpt lat="48.20414" lon="-3.03425">
        <ele>175.7</ele>
        <time>2022-03-01T05:04:05.480Z</time>
      </trkpt>
      <trkpt lat="48.20416" lon="-3.0343">
        <ele>176.2</ele>
        <time>2022-03-01T05:04:16.909Z</time>
      </trkpt>
      <trkpt lat="48.20419" lon="-3.03438">
        <ele>175.9</ele>
        <time>2022-03-01T05:04:18.195Z</time>
      </trkpt>
      <trkpt lat="48.20421" lon="-3.03446">
        <ele>175.1</ele>
        <time>2022-03-01T05:04:19.327Z</time>
      </trkpt>
      <trkpt lat="48.20426" lon="-3.03452">
        <ele>174.7</ele>
        <time>2022-03-01T05:04:20.531Z</time>
      </trkpt>
      <trkpt lat="48.20431" lon="-3.03452">
        <ele>175.6</ele>
        <time>2022-03-01T05:04:36.252Z</time>
      </trkpt>
      <trkpt lat="48.20435" lon="-3.03458">
        <ele>175.8</ele>
        <time>2022-03-01T05:04:43.071Z</time>
      </trkpt>
      <trkpt lat="48.20437" lon="-3.03465">
        <ele>175.8</ele>
        <time>2022-03-01T05:04:47.208Z</time>
      </trkpt>
      <trkpt lat="48.20438" lon="-3.0347">
        <ele>175.8</ele>
        <time>2022-03-01T05:04:50.044Z</time>
      </trkpt>
      <trkpt lat="48.20442" lon="-3.0348">
        <ele>175.4</ele>
        <time>2022-03-01T05:04:51.644Z</time>
      </trkpt>
      <trkpt lat="48.20444" lon="-3.03483">
        <ele>175.8</ele>
        <time>2022-03-01T05:05:00.535Z</time>
      </trkpt>
      <trkpt lat="48.20448" lon="-3.03489">
        <ele>175.1</ele>
        <time>2022-03-01T05:05:01.660Z</time>
      </trkpt>
      <trkpt lat="48.20453" lon="-3.03496">
        <ele>174.4</ele>
        <time>2022-03-01T05:05:03.019Z</time>
      </trkpt>
      <trkpt lat="48.20458" lon="-3.03503">
        <ele>173.9</ele>
        <time>2022-03-01T05:05:04.379Z</time>
      </trkpt>
      <trkpt lat="48.20461" lon="-3.03509">
        <ele>173.3</ele>
        <time>2022-03-01T05:05:05.372Z</time>
      </trkpt>
      <trkpt lat="48.20463" lon="-3.0352">
        <ele>172.4</ele>
        <time>2022-03-01T05:05:06.883Z</time>
      </trkpt>
      <trkpt lat="48.20465" lon="-3.03525">
        <ele>172.6</ele>
        <time>2022-03-01T05:05:12.476Z</time>
      </trkpt>
      <trkpt lat="48.20467" lon="-3.03534">
        <ele>172</ele>
        <time>2022-03-01T05:05:13.733Z</time>
      </trkpt>
      <trkpt lat="48.20469" lon="-3.03542">
        <ele>171.4</ele>
        <time>2022-03-01T05:05:14.865Z</time>
      </trkpt>
      <trkpt lat="48.20471" lon="-3.03548">
        <ele>171.5</ele>
        <time>2022-03-01T05:05:19.448Z</time>
      </trkpt>
      <trkpt lat="48.20473" lon="-3.03554">
        <ele>171.4</ele>
        <time>2022-03-01T05:05:20.674Z</time>
      </trkpt>
      <trkpt lat="48.20478" lon="-3.0357">
        <ele>167.6</ele>
        <time>2022-03-01T05:05:23.015Z</time>
      </trkpt>
      <trkpt lat="48.20479" lon="-3.03576">
        <ele>166.2</ele>
        <time>2022-03-01T05:05:23.834Z</time>
      </trkpt>
      <trkpt lat="48.20485" lon="-3.03578">
        <ele>167.3</ele>
        <time>2022-03-01T05:05:43.159Z</time>
      </trkpt>
      <trkpt lat="48.20489" lon="-3.03581">
        <ele>167.9</ele>
        <time>2022-03-01T05:05:57.218Z</time>
      </trkpt>
      <trkpt lat="48.20494" lon="-3.03588">
        <ele>168.1</ele>
        <time>2022-03-01T05:06:04.832Z</time>
      </trkpt>
      <trkpt lat="48.20496" lon="-3.03594">
        <ele>167.6</ele>
        <time>2022-03-01T05:06:05.721Z</time>
      </trkpt>
      <trkpt lat="48.20499" lon="-3.03603">
        <ele>167.1</ele>
        <time>2022-03-01T05:06:07.054Z</time>
      </trkpt>
      <trkpt lat="48.20501" lon="-3.03609">
        <ele>166.6</ele>
        <time>2022-03-01T05:06:07.943Z</time>
      </trkpt>
      <trkpt lat="48.20504" lon="-3.03614">
        <ele>166.6</ele>
        <time>2022-03-01T05:06:11.598Z</time>
      </trkpt>
      <trkpt lat="48.20509" lon="-3.03619">
        <ele>167.3</ele>
        <time>2022-03-01T05:06:26.774Z</time>
      </trkpt>
      <trkpt lat="48.20511" lon="-3.03624">
        <ele>167.5</ele>
        <time>2022-03-01T05:06:32.367Z</time>
      </trkpt>
      <trkpt lat="48.20512" lon="-3.0363">
        <ele>167.5</ele>
        <time>2022-03-01T05:06:35.727Z</time>
        <extensions>
          <visugpx:TrkExtension xmlns:visugpx="https://www.visugpx.com/editgpx/">
            <visugpx:node>69</visugpx:node>
            </visugpx:TrkExtension>
        </extensions>
      </trkpt>
      <trkpt lat="48.20512" lon="-3.03631">
        <ele>167.4</ele>
        <time>2022-03-01T05:06:35.860Z</time>
      </trkpt>
      <trkpt lat="48.20512" lon="-3.03642">
        <ele>167.1</ele>
        <time>2022-03-01T05:06:37.518Z</time>
      </trkpt>
      <trkpt lat="48.20511" lon="-3.03653">
        <ele>166.7</ele>
        <time>2022-03-01T05:06:39.008Z</time>
      </trkpt>
      <trkpt lat="48.20507" lon="-3.03662">
        <ele>165.6</ele>
        <time>2022-03-01T05:06:40.441Z</time>
      </trkpt>
      <trkpt lat="48.20507" lon="-3.03668">
        <ele>165.3</ele>
        <time>2022-03-01T05:06:41.236Z</time>
      </trkpt>
      <trkpt lat="48.20507" lon="-3.03675">
        <ele>164.3</ele>
        <time>2022-03-01T05:06:42.163Z</time>
      </trkpt>
      <trkpt lat="48.20507" lon="-3.03682">
        <ele>163.3</ele>
        <time>2022-03-01T05:06:43.091Z</time>
      </trkpt>
      <trkpt lat="48.20508" lon="-3.03689">
        <ele>162.6</ele>
        <time>2022-03-01T05:06:44.039Z</time>
      </trkpt>
      <trkpt lat="48.2051" lon="-3.03694">
        <ele>162.7</ele>
        <time>2022-03-01T05:06:48.184Z</time>
      </trkpt>
      <trkpt lat="48.20513" lon="-3.03701">
        <ele>163.3</ele>
        <time>2022-03-01T05:07:00.959Z</time>
      </trkpt>
      <trkpt lat="48.20517" lon="-3.03706">
        <ele>164.6</ele>
        <time>2022-03-01T05:07:17.327Z</time>
      </trkpt>
      <trkpt lat="48.2052" lon="-3.03713">
        <ele>165.6</ele>
        <time>2022-03-01T05:07:34.766Z</time>
      </trkpt>
      <trkpt lat="48.20523" lon="-3.03718">
        <ele>166.8</ele>
        <time>2022-03-01T05:07:48.863Z</time>
      </trkpt>
      <trkpt lat="48.20526" lon="-3.03725">
        <ele>167.6</ele>
        <time>2022-03-01T05:08:06.302Z</time>
      </trkpt>
      <trkpt lat="48.20526" lon="-3.03733">
        <ele>166.1</ele>
        <time>2022-03-01T05:08:07.362Z</time>
      </trkpt>
      <trkpt lat="48.20528" lon="-3.03739">
        <ele>166</ele>
        <time>2022-03-01T05:08:08.588Z</time>
      </trkpt>
      <trkpt lat="48.20532" lon="-3.03744">
        <ele>165.5</ele>
        <time>2022-03-01T05:08:09.622Z</time>
      </trkpt>
      <trkpt lat="48.20535" lon="-3.0375">
        <ele>165</ele>
        <time>2022-03-01T05:08:10.616Z</time>
      </trkpt>
      <trkpt lat="48.20537" lon="-3.03757">
        <ele>164.2</ele>
        <time>2022-03-01T05:08:11.625Z</time>
      </trkpt>
      <trkpt lat="48.20538" lon="-3.03765">
        <ele>163.3</ele>
        <time>2022-03-01T05:08:12.704Z</time>
      </trkpt>
      <trkpt lat="48.2054" lon="-3.03772">
        <ele>163</ele>
        <time>2022-03-01T05:08:13.684Z</time>
      </trkpt>
      <trkpt lat="48.20544" lon="-3.03775">
        <ele>164.2</ele>
        <time>2022-03-01T05:08:27.744Z</time>
      </trkpt>
      <trkpt lat="48.2055" lon="-3.03775">
        <ele>166.7</ele>
        <time>2022-03-01T05:08:46.608Z</time>
      </trkpt>
      <trkpt lat="48.20553" lon="-3.0378">
        <ele>167.6</ele>
        <time>2022-03-01T05:09:00.705Z</time>
      </trkpt>
      <trkpt lat="48.20556" lon="-3.03787">
        <ele>168</ele>
        <time>2022-03-01T05:09:09.950Z</time>
      </trkpt>
      <trkpt lat="48.20558" lon="-3.03794">
        <ele>167</ele>
        <time>2022-03-01T05:09:10.959Z</time>
      </trkpt>
      <trkpt lat="48.20561" lon="-3.038">
        <ele>166.1</ele>
        <time>2022-03-01T05:09:11.953Z</time>
      </trkpt>
      <trkpt lat="48.20562" lon="-3.03807">
        <ele>165.3</ele>
        <time>2022-03-01T05:09:12.902Z</time>
      </trkpt>
      <trkpt lat="48.20564" lon="-3.03814">
        <ele>164.1</ele>
        <time>2022-03-01T05:09:13.911Z</time>
      </trkpt>
      <trkpt lat="48.20565" lon="-3.03821">
        <ele>163.1</ele>
        <time>2022-03-01T05:09:14.859Z</time>
      </trkpt>
      <trkpt lat="48.20563" lon="-3.03829">
        <ele>161.8</ele>
        <time>2022-03-01T05:09:15.991Z</time>
        <extensions>
          <visugpx:TrkExtension xmlns:visugpx="https://www.visugpx.com/editgpx/">
            <visugpx:node>70</visugpx:node>
            </visugpx:TrkExtension>
        </extensions>
      </trkpt>
      <trkpt lat="48.20561" lon="-3.03848">
        <ele>159.5</ele>
        <time>2022-03-01T05:09:18.539Z</time>
      </trkpt>
      <trkpt lat="48.20557" lon="-3.03867">
        <ele>157.4</ele>
        <time>2022-03-01T05:09:21.179Z</time>
      </trkpt>
      <trkpt lat="48.20551" lon="-3.03874">
        <ele>154.3</ele>
        <time>2022-03-01T05:09:22.690Z</time>
      </trkpt>
      <trkpt lat="48.20541" lon="-3.03877">
        <ele>148.3</ele>
        <time>2022-03-01T05:09:24.717Z</time>
      </trkpt>
      <trkpt lat="48.20528" lon="-3.03877">
        <ele>140.6</ele>
        <time>2022-03-01T05:09:27.301Z</time>
      </trkpt>
      <trkpt lat="48.20521" lon="-3.03877">
        <ele>136.4</ele>
        <time>2022-03-01T05:09:28.693Z</time>
      </trkpt>
      <trkpt lat="48.20512" lon="-3.03887">
        <ele>130.9</ele>
        <time>2022-03-01T05:09:30.919Z</time>
      </trkpt>
      <trkpt lat="48.20509" lon="-3.03918">
        <ele>128.5</ele>
        <time>2022-03-01T05:09:35.069Z</time>
      </trkpt>
      <trkpt lat="48.20516" lon="-3.03974">
        <ele>128</ele>
        <time>2022-03-01T05:09:46.701Z</time>
      </trkpt>
      <trkpt lat="48.20537" lon="-3.04095">
        <ele>124.6</ele>
        <time>2022-03-01T05:10:05.577Z</time>
      </trkpt>
      <trkpt lat="48.20546" lon="-3.0413">
        <ele>124.8</ele>
        <time>2022-03-01T05:10:27.568Z</time>
      </trkpt>
      <trkpt lat="48.20547" lon="-3.0415">
        <ele>124.8</ele>
        <time>2022-03-01T05:10:38.463Z</time>
      </trkpt>
      <trkpt lat="48.20545" lon="-3.04167">
        <ele>124.5</ele>
        <time>2022-03-01T05:10:41.490Z</time>
      </trkpt>
      <trkpt lat="48.20545" lon="-3.04185">
        <ele>124.1</ele>
        <time>2022-03-01T05:10:44.412Z</time>
      </trkpt>
      <trkpt lat="48.2055" lon="-3.04212">
        <ele>123.9</ele>
        <time>2022-03-01T05:10:50.318Z</time>
      </trkpt>
      <trkpt lat="48.20557" lon="-3.04228">
        <ele>123.7</ele>
        <time>2022-03-01T05:10:54.104Z</time>
      </trkpt>
      <trkpt lat="48.20574" lon="-3.04248">
        <ele>124.1</ele>
        <time>2022-03-01T05:11:15.310Z</time>
      </trkpt>
      <trkpt lat="48.20604" lon="-3.0427">
        <ele>125.5</ele>
        <time>2022-03-01T05:11:59.498Z</time>
      </trkpt>
      <trkpt lat="48.20621" lon="-3.04278">
        <ele>126</ele>
        <time>2022-03-01T05:12:19.045Z</time>
      </trkpt>
      <trkpt lat="48.20631" lon="-3.04279">
        <ele>126.9</ele>
        <time>2022-03-01T05:12:38.369Z</time>
      </trkpt>
      <trkpt lat="48.20643" lon="-3.04271">
        <ele>128.6</ele>
        <time>2022-03-01T05:13:17.413Z</time>
      </trkpt>
      <trkpt lat="48.2066" lon="-3.04265">
        <ele>128.6</ele>
        <time>2022-03-01T05:13:31.648Z</time>
      </trkpt>
      <trkpt lat="48.20668" lon="-3.04264">
        <ele>128.7</ele>
        <time>2022-03-01T05:13:39.035Z</time>
      </trkpt>
      <trkpt lat="48.20679" lon="-3.04271">
        <ele>129.4</ele>
        <time>2022-03-01T05:13:57.079Z</time>
      </trkpt>
      <trkpt lat="48.20688" lon="-3.04282">
        <ele>131.3</ele>
        <time>2022-03-01T05:14:33.575Z</time>
      </trkpt>
      <trkpt lat="48.20694" lon="-3.04295">
        <ele>133.5</ele>
        <time>2022-03-01T05:15:06.708Z</time>
      </trkpt>
      <trkpt lat="48.20693" lon="-3.04303">
        <ele>133.4</ele>
        <time>2022-03-01T05:15:08.266Z</time>
      </trkpt>
      <trkpt lat="48.20687" lon="-3.04337">
        <ele>131.6</ele>
        <time>2022-03-01T05:15:12.925Z</time>
      </trkpt>
      <trkpt lat="48.20688" lon="-3.04354">
        <ele>130.4</ele>
        <time>2022-03-01T05:15:15.186Z</time>
      </trkpt>
      <trkpt lat="48.20703" lon="-3.04376">
        <ele>129.9</ele>
        <time>2022-03-01T05:15:20.842Z</time>
      </trkpt>
      <trkpt lat="48.20763" lon="-3.04445">
        <ele>130.2</ele>
        <time>2022-03-01T05:16:24.785Z</time>
      </trkpt>
      <trkpt lat="48.20778" lon="-3.04456">
        <ele>134.6</ele>
        <time>2022-03-01T05:17:17.276Z</time>
      </trkpt>
      <trkpt lat="48.20785" lon="-3.04463">
        <ele>133.2</ele>
        <time>2022-03-01T05:17:18.948Z</time>
      </trkpt>
      <trkpt lat="48.20786" lon="-3.04463">
        <ele>133</ele>
        <time>2022-03-01T05:17:19.147Z</time>
        <extensions>
          <visugpx:TrkExtension xmlns:visugpx="https://www.visugpx.com/editgpx/">
            <visugpx:node>71</visugpx:node>
            </visugpx:TrkExtension>
        </extensions>
      </trkpt>
      <trkpt lat="48.20801" lon="-3.04457">
        <ele>131.3</ele>
        <time>2022-03-01T05:17:22.233Z</time>
      </trkpt>
      <trkpt lat="48.20835" lon="-3.0443">
        <ele>127</ele>
        <time>2022-03-01T05:17:29.880Z</time>
      </trkpt>
      <trkpt lat="48.20878" lon="-3.04386">
        <ele>128.1</ele>
        <time>2022-03-01T05:18:22.488Z</time>
      </trkpt>
      <trkpt lat="48.20898" lon="-3.04354">
        <ele>128.2</ele>
        <time>2022-03-01T05:18:47.090Z</time>
        <extensions>
          <visugpx:TrkExtension xmlns:visugpx="https://www.visugpx.com/editgpx/">
            <visugpx:node>72</visugpx:node>
            </visugpx:TrkExtension>
        </extensions>
      </trkpt>
      <trkpt lat="48.20919" lon="-3.0432">
        <ele>128.4</ele>
        <time>2022-03-01T05:19:13.860Z</time>
      </trkpt>
      <trkpt lat="48.20979" lon="-3.04192">
        <ele>125.9</ele>
        <time>2022-03-01T05:19:41.937Z</time>
      </trkpt>
      <trkpt lat="48.21004" lon="-3.04139">
        <ele>124.7</ele>
        <time>2022-03-01T05:19:53.117Z</time>
      </trkpt>
      <trkpt lat="48.21026" lon="-3.04085">
        <ele>124.3</ele>
        <time>2022-03-01T05:20:06.673Z</time>
      </trkpt>
      <trkpt lat="48.21027" lon="-3.04086">
        <ele>124.1</ele>
        <time>2022-03-01T05:20:06.912Z</time>
        <extensions>
          <visugpx:TrkExtension xmlns:visugpx="https://www.visugpx.com/editgpx/">
            <visugpx:node>73</visugpx:node>
            </visugpx:TrkExtension>
        </extensions>
      </trkpt>
      <trkpt lat="48.21043" lon="-3.04112">
        <ele>124.6</ele>
        <time>2022-03-01T05:20:30.769Z</time>
      </trkpt>
      <trkpt lat="48.2105" lon="-3.04124">
        <ele>125.1</ele>
        <time>2022-03-01T05:20:45.629Z</time>
      </trkpt>
      <trkpt lat="48.21049" lon="-3.04144">
        <ele>125.8</ele>
        <time>2022-03-01T05:21:04.979Z</time>
      </trkpt>
      <trkpt lat="48.21041" lon="-3.0421">
        <ele>126.2</ele>
        <time>2022-03-01T05:21:44.671Z</time>
      </trkpt>
      <trkpt lat="48.21024" lon="-3.04294">
        <ele>124.7</ele>
        <time>2022-03-01T05:22:00.133Z</time>
      </trkpt>
      <trkpt lat="48.2101" lon="-3.04366">
        <ele>126.7</ele>
        <time>2022-03-01T05:23:04.447Z</time>
      </trkpt>
      <trkpt lat="48.20998" lon="-3.04405">
        <ele>126.9</ele>
        <time>2022-03-01T05:23:29.376Z</time>
      </trkpt>
      <trkpt lat="48.20952" lon="-3.04493">
        <ele>125.6</ele>
        <time>2022-03-01T05:23:51.027Z</time>
      </trkpt>
      <trkpt lat="48.20903" lon="-3.04559">
        <ele>125.3</ele>
        <time>2022-03-01T05:24:41.196Z</time>
      </trkpt>
      <trkpt lat="48.20879" lon="-3.04579">
        <ele>125.2</ele>
        <time>2022-03-01T05:25:02.390Z</time>
      </trkpt>
      <trkpt lat="48.20871" lon="-3.04597">
        <ele>125.7</ele>
        <time>2022-03-01T05:25:19.614Z</time>
      </trkpt>
      <trkpt lat="48.20871" lon="-3.04617">
        <ele>126</ele>
        <time>2022-03-01T05:25:33.300Z</time>
      </trkpt>
      <trkpt lat="48.20872" lon="-3.04644">
        <ele>125.7</ele>
        <time>2022-03-01T05:25:38.585Z</time>
      </trkpt>
      <trkpt lat="48.20877" lon="-3.0466">
        <ele>124.9</ele>
        <time>2022-03-01T05:25:40.926Z</time>
      </trkpt>
      <trkpt lat="48.20896" lon="-3.04687">
        <ele>124.5</ele>
        <time>2022-03-01T05:25:48.731Z</time>
      </trkpt>
      <trkpt lat="48.20904" lon="-3.04705">
        <ele>124.4</ele>
        <time>2022-03-01T05:25:59.355Z</time>
      </trkpt>
      <trkpt lat="48.20911" lon="-3.04726">
        <ele>123.5</ele>
        <time>2022-03-01T05:26:02.417Z</time>
      </trkpt>
      <trkpt lat="48.20926" lon="-3.04761">
        <ele>124</ele>
        <time>2022-03-01T05:26:29.493Z</time>
      </trkpt>
      <trkpt lat="48.20953" lon="-3.04798">
        <ele>125.1</ele>
        <time>2022-03-01T05:27:10.635Z</time>
      </trkpt>
      <trkpt lat="48.20997" lon="-3.04839">
        <ele>127.9</ele>
        <time>2022-03-01T05:28:26.473Z</time>
      </trkpt>
      <trkpt lat="48.21036" lon="-3.0488">
        <ele>125.9</ele>
        <time>2022-03-01T05:28:37.139Z</time>
      </trkpt>
      <trkpt lat="48.21053" lon="-3.04885">
        <ele>128.2</ele>
        <time>2022-03-01T05:29:31.085Z</time>
      </trkpt>
      <trkpt lat="48.21062" lon="-3.04885">
        <ele>129.6</ele>
        <time>2022-03-01T05:29:59.381Z</time>
      </trkpt>
      <trkpt lat="48.21069" lon="-3.04885">
        <ele>130.5</ele>
        <time>2022-03-01T05:30:19.944Z</time>
      </trkpt>
      <trkpt lat="48.21075" lon="-3.0489">
        <ele>130.5</ele>
        <time>2022-03-01T05:30:25.539Z</time>
      </trkpt>
      <trkpt lat="48.21077" lon="-3.04899">
        <ele>128.7</ele>
        <time>2022-03-01T05:30:26.795Z</time>
      </trkpt>
      <trkpt lat="48.21075" lon="-3.04914">
        <ele>125</ele>
        <time>2022-03-01T05:30:28.822Z</time>
      </trkpt>
      <trkpt lat="48.21068" lon="-3.04939">
        <ele>124.3</ele>
        <time>2022-03-01T05:30:32.996Z</time>
      </trkpt>
      <trkpt lat="48.21067" lon="-3.04939">
        <ele>124.3</ele>
        <time>2022-03-01T05:30:33.811Z</time>
        <extensions>
          <visugpx:TrkExtension xmlns:visugpx="https://www.visugpx.com/editgpx/">
            <visugpx:node>74</visugpx:node>
            </visugpx:TrkExtension>
        </extensions>
      </trkpt>
      <trkpt lat="48.21052" lon="-3.04948">
        <ele>124.8</ele>
        <time>2022-03-01T05:30:52.190Z</time>
      </trkpt>
      <trkpt lat="48.21036" lon="-3.04946">
        <ele>124.3</ele>
        <time>2022-03-01T05:30:56.191Z</time>
      </trkpt>
      <trkpt lat="48.21018" lon="-3.04949">
        <ele>124.3</ele>
        <time>2022-03-01T05:31:10.953Z</time>
      </trkpt>
      <trkpt lat="48.21008" lon="-3.04956">
        <ele>125.1</ele>
        <time>2022-03-01T05:31:29.400Z</time>
      </trkpt>
      <trkpt lat="48.20994" lon="-3.04963">
        <ele>126.2</ele>
        <time>2022-03-01T05:31:54.463Z</time>
      </trkpt>
      <trkpt lat="48.20986" lon="-3.04966">
        <ele>127.2</ele>
        <time>2022-03-01T05:32:16.512Z</time>
      </trkpt>
      <trkpt lat="48.2098" lon="-3.04964">
        <ele>126.9</ele>
        <time>2022-03-01T05:32:17.807Z</time>
      </trkpt>
      <trkpt lat="48.2096" lon="-3.04955">
        <ele>126.1</ele>
        <time>2022-03-01T05:32:22.650Z</time>
      </trkpt>
      <trkpt lat="48.20948" lon="-3.04947">
        <ele>124.6</ele>
        <time>2022-03-01T05:32:25.260Z</time>
      </trkpt>
      <trkpt lat="48.20937" lon="-3.04941">
        <ele>125.2</ele>
        <time>2022-03-01T05:32:42.081Z</time>
      </trkpt>
      <trkpt lat="48.20917" lon="-3.04921">
        <ele>124.9</ele>
        <time>2022-03-01T05:32:49.508Z</time>
      </trkpt>
      <trkpt lat="48.20908" lon="-3.04914">
        <ele>125.2</ele>
        <time>2022-03-01T05:33:00.844Z</time>
      </trkpt>
      <trkpt lat="48.20892" lon="-3.04902">
        <ele>125.5</ele>
        <time>2022-03-01T05:33:18.071Z</time>
      </trkpt>
      <trkpt lat="48.20866" lon="-3.04883">
        <ele>126</ele>
        <time>2022-03-01T05:33:46.079Z</time>
      </trkpt>
      <trkpt lat="48.20851" lon="-3.04871">
        <ele>126.4</ele>
        <time>2022-03-01T05:34:03.742Z</time>
      </trkpt>
      <trkpt lat="48.20846" lon="-3.04857">
        <ele>126</ele>
        <time>2022-03-01T05:34:06.210Z</time>
      </trkpt>
      <trkpt lat="48.20841" lon="-3.04833">
        <ele>124.9</ele>
        <time>2022-03-01T05:34:09.285Z</time>
      </trkpt>
      <trkpt lat="48.20837" lon="-3.0482">
        <ele>124.6</ele>
        <time>2022-03-01T05:34:11.656Z</time>
      </trkpt>
      <trkpt lat="48.20827" lon="-3.04802">
        <ele>124.8</ele>
        <time>2022-03-01T05:34:26.078Z</time>
      </trkpt>
      <trkpt lat="48.208" lon="-3.04763">
        <ele>124.4</ele>
        <time>2022-03-01T05:34:37.935Z</time>
      </trkpt>
      <trkpt lat="48.20782" lon="-3.04741">
        <ele>124.6</ele>
        <time>2022-03-01T05:34:58.479Z</time>
      </trkpt>
      <trkpt lat="48.20762" lon="-3.04723">
        <ele>124.8</ele>
        <time>2022-03-01T05:35:19.110Z</time>
      </trkpt>
      <trkpt lat="48.2075" lon="-3.04709">
        <ele>124.6</ele>
        <time>2022-03-01T05:35:23.767Z</time>
      </trkpt>
      <trkpt lat="48.20739" lon="-3.04694">
        <ele>125</ele>
        <time>2022-03-01T05:35:39.846Z</time>
      </trkpt>
      <trkpt lat="48.20739" lon="-3.04689">
        <ele>124.7</ele>
        <time>2022-03-01T05:35:40.508Z</time>
      </trkpt>
      <trkpt lat="48.20737" lon="-3.04683">
        <ele>124.6</ele>
        <time>2022-03-01T05:35:41.734Z</time>
      </trkpt>
      <trkpt lat="48.20732" lon="-3.04677">
        <ele>124.6</ele>
        <time>2022-03-01T05:35:46.953Z</time>
      </trkpt>
      <trkpt lat="48.20723" lon="-3.04672">
        <ele>124.7</ele>
        <time>2022-03-01T05:35:55.601Z</time>
      </trkpt>
      <trkpt lat="48.20712" lon="-3.04661">
        <ele>125.1</ele>
        <time>2022-03-01T05:36:10.508Z</time>
      </trkpt>
      <trkpt lat="48.2068" lon="-3.04613">
        <ele>124.2</ele>
        <time>2022-03-01T05:36:23.273Z</time>
      </trkpt>
      <trkpt lat="48.20669" lon="-3.04595">
        <ele>124.6</ele>
        <time>2022-03-01T05:36:40.394Z</time>
      </trkpt>
      <trkpt lat="48.20667" lon="-3.04582">
        <ele>123.9</ele>
        <time>2022-03-01T05:36:42.162Z</time>
      </trkpt>
      <trkpt lat="48.20657" lon="-3.04574">
        <ele>123.6</ele>
        <time>2022-03-01T05:36:45.130Z</time>
      </trkpt>
      <trkpt lat="48.20646" lon="-3.04576">
        <ele>124</ele>
        <time>2022-03-01T05:36:58.624Z</time>
      </trkpt>
      <trkpt lat="48.2064" lon="-3.04578">
        <ele>124.4</ele>
        <time>2022-03-01T05:37:08.344Z</time>
      </trkpt>
      <trkpt lat="48.20631" lon="-3.04583">
        <ele>124.1</ele>
        <time>2022-03-01T05:37:10.733Z</time>
      </trkpt>
      <trkpt lat="48.20633" lon="-3.04604">
        <ele>125.4</ele>
        <time>2022-03-01T05:37:38.522Z</time>
      </trkpt>
      <trkpt lat="48.20628" lon="-3.04617">
        <ele>125.9</ele>
        <time>2022-03-01T05:37:52.778Z</time>
      </trkpt>
      <trkpt lat="48.20634" lon="-3.04618">
        <ele>126.3</ele>
        <time>2022-03-01T05:38:02.408Z</time>
      </trkpt>
      <trkpt lat="48.20643" lon="-3.04633">
        <ele>127.5</ele>
        <time>2022-03-01T05:38:28.208Z</time>
      </trkpt>
      <trkpt lat="48.20651" lon="-3.04654">
        <ele>128.6</ele>
        <time>2022-03-01T05:38:54.303Z</time>
        <extensions>
          <visugpx:TrkExtension xmlns:visugpx="https://www.visugpx.com/editgpx/">
            <visugpx:node>75</visugpx:node>
            </visugpx:TrkExtension>
        </extensions>
      </trkpt>
    </trkseg>
  </trk>
</gpx>